<?xml version='1.0' encoding='UTF-8'?><gpx version="1.1" creator="JPX - https://github.com/jenetics/jpx" xmlns="http://www.topografix.com/GPX/1/1"><trk><trkseg><trkpt lat="43.629651505594516" lon="12.91731358014284"><ele>287.0</ele><time>2026-04-25T08:51:15.004Z</time></trkpt><trkpt lat="43.62971909700863" lon="12.917265837556632"><ele>287.0</ele><time>2026-04-25T08:51:19.003Z</time></trkpt><trkpt lat="43.629584483581375" lon="12.917309256285506"><ele>287.0</ele><time>2026-04-25T08:51:31.001Z</time></trkpt><trkpt lat="43.62948845021439" lon="12.917284621568056"><ele>287.0</ele><time>2026-04-25T08:51:34.001Z</time></trkpt><trkpt lat="43.629418527267745" lon="12.917236811640464"><ele>287.0</ele><time>2026-04-25T08:51:36.001Z</time></trkpt><trkpt lat="43.62929776476519" lon="12.91722471563987"><ele>286.6</ele><time>2026-04-25T08:51:38.001Z</time></trkpt><trkpt lat="43.629233766762205" lon="12.917250557591286"><ele>286.2</ele><time>2026-04-25T08:51:39.001Z</time></trkpt><trkpt lat="43.62914637229613" lon="12.917283468625643"><ele>285.8</ele><time>2026-04-25T08:51:40.001Z</time></trkpt><trkpt lat="43.62908078411559" lon="12.91728510138558"><ele>285.4</ele><time>2026-04-25T08:51:41Z</time></trkpt><trkpt lat="43.628985135566715" lon="12.917279336217007"><ele>285.0</ele><time>2026-04-25T08:51:42Z</time></trkpt><trkpt lat="43.62886036704792" lon="12.917334394793768"><ele>285.0</ele><time>2026-04-25T08:51:44Z</time></trkpt><trkpt lat="43.62879341245961" lon="12.917334628945188"><ele>285.0</ele><time>2026-04-25T08:51:45Z</time></trkpt><trkpt lat="43.62872011026285" lon="12.917340968232887"><ele>285.0</ele><time>2026-04-25T08:51:46Z</time></trkpt><trkpt lat="43.62864419888589" lon="12.917388865117863"><ele>285.0</ele><time>2026-04-25T08:51:47Z</time></trkpt><trkpt lat="43.62858135523792" lon="12.917435914772987"><ele>285.0</ele><time>2026-04-25T08:51:48Z</time></trkpt><trkpt lat="43.62852458016792" lon="12.917483201879673"><ele>285.0</ele><time>2026-04-25T08:51:49Z</time></trkpt><trkpt lat="43.62843309146132" lon="12.917610721213876"><ele>282.5</ele><time>2026-04-25T08:51:51Z</time></trkpt><trkpt lat="43.62836842440175" lon="12.917684988822153"><ele>280.0</ele><time>2026-04-25T08:51:52Z</time></trkpt><trkpt lat="43.62830846568168" lon="12.917731728043615"><ele>277.5</ele><time>2026-04-25T08:51:53Z</time></trkpt><trkpt lat="43.62825190875313" lon="12.917788974141438"><ele>275.0</ele><time>2026-04-25T08:51:54Z</time></trkpt><trkpt lat="43.62819781483391" lon="12.91784372718625"><ele>272.5</ele><time>2026-04-25T08:51:55Z</time></trkpt><trkpt lat="43.62810183793276" lon="12.91794154329009"><ele>270.0</ele><time>2026-04-25T08:51:57Z</time></trkpt><trkpt lat="43.62801335332005" lon="12.918033150269409"><ele>270.0</ele><time>2026-04-25T08:51:59Z</time></trkpt><trkpt lat="43.62793893986233" lon="12.91815148755546"><ele>270.0</ele><time>2026-04-25T08:52:01Z</time></trkpt><trkpt lat="43.627922926074255" lon="12.91830709768142"><ele>270.0</ele><time>2026-04-25T08:52:03Z</time></trkpt><trkpt lat="43.62790461969329" lon="12.918437086086161"><ele>270.0</ele><time>2026-04-25T08:52:04.999Z</time></trkpt><trkpt lat="43.627890245281236" lon="12.918583791360547"><ele>270.0</ele><time>2026-04-25T08:52:06.999Z</time></trkpt><trkpt lat="43.627883655621694" lon="12.918749122030395"><ele>267.8</ele><time>2026-04-25T08:52:08.999Z</time></trkpt><trkpt lat="43.6278663210235" lon="12.918834850860447"><ele>265.6</ele><time>2026-04-25T08:52:09.999Z</time></trkpt><trkpt lat="43.62783606690734" lon="12.918996840316007"><ele>263.4</ele><time>2026-04-25T08:52:11.999Z</time></trkpt><trkpt lat="43.62779405446438" lon="12.919170017036356"><ele>261.2</ele><time>2026-04-25T08:52:13.999Z</time></trkpt><trkpt lat="43.627728659573684" lon="12.919312045919515"><ele>259.0</ele><time>2026-04-25T08:52:15.999Z</time></trkpt><trkpt lat="43.62766128162204" lon="12.919439831430184"><ele>255.0</ele><time>2026-04-25T08:52:17.999Z</time></trkpt><trkpt lat="43.62759042621578" lon="12.919576234875091"><ele>250.99999999999997</ele><time>2026-04-25T08:52:19.999Z</time></trkpt><trkpt lat="43.62752250109389" lon="12.919715734253804"><ele>246.99999999999997</ele><time>2026-04-25T08:52:21.999Z</time></trkpt><trkpt lat="43.627471351956906" lon="12.919767277684704"><ele>243.0</ele><time>2026-04-25T08:52:22.999Z</time></trkpt><trkpt lat="43.627418601652614" lon="12.919830118310655"><ele>239.0</ele><time>2026-04-25T08:52:23.999Z</time></trkpt><trkpt lat="43.627361426968235" lon="12.919897650955152"><ele>239.00000000000003</ele><time>2026-04-25T08:52:24.999Z</time></trkpt><trkpt lat="43.62731366435438" lon="12.919975732351181"><ele>239.0</ele><time>2026-04-25T08:52:25.999Z</time></trkpt><trkpt lat="43.627276102436774" lon="12.920051141990472"><ele>239.0</ele><time>2026-04-25T08:52:26.999Z</time></trkpt><trkpt lat="43.627224057457106" lon="12.920175957736008"><ele>239.0</ele><time>2026-04-25T08:52:28.999Z</time></trkpt><trkpt lat="43.627168588363766" lon="12.920302923574969"><ele>239.00000000000003</ele><time>2026-04-25T08:52:30.999Z</time></trkpt><trkpt lat="43.62712874943724" lon="12.920414196816315"><ele>239.0</ele><time>2026-04-25T08:52:32.999Z</time></trkpt><trkpt lat="43.627109025067774" lon="12.920577265082592"><ele>237.66666666666669</ele><time>2026-04-25T08:52:34.999Z</time></trkpt><trkpt lat="43.62710057464834" lon="12.92068229265599"><ele>236.33333333333334</ele><time>2026-04-25T08:52:35.999Z</time></trkpt><trkpt lat="43.627096017799474" lon="12.920791109131184"><ele>235.0</ele><time>2026-04-25T08:52:36.999Z</time></trkpt><trkpt lat="43.62707887215539" lon="12.920915242997776"><ele>233.66666666666669</ele><time>2026-04-25T08:52:37.999Z</time></trkpt><trkpt lat="43.62707879594986" lon="12.921036592879167"><ele>232.33333333333334</ele><time>2026-04-25T08:52:38.999Z</time></trkpt><trkpt lat="43.62707581426916" lon="12.92119258021283"><ele>231.0</ele><time>2026-04-25T08:52:39.999Z</time></trkpt><trkpt lat="43.627072724280204" lon="12.921340874420089"><ele>229.4</ele><time>2026-04-25T08:52:40.999Z</time></trkpt><trkpt lat="43.627080483547246" lon="12.92148293097714"><ele>227.8</ele><time>2026-04-25T08:52:41.999Z</time></trkpt><trkpt lat="43.62712327335852" lon="12.92159756549817"><ele>226.20000000000002</ele><time>2026-04-25T08:52:42.999Z</time></trkpt><trkpt lat="43.62718393229537" lon="12.921695569280573"><ele>224.60000000000002</ele><time>2026-04-25T08:52:43.999Z</time></trkpt><trkpt lat="43.62723444954787" lon="12.921796598267402"><ele>223.0</ele><time>2026-04-25T08:52:44.999Z</time></trkpt><trkpt lat="43.627300221690746" lon="12.921914809392737"><ele>221.49999999999997</ele><time>2026-04-25T08:52:45.999Z</time></trkpt><trkpt lat="43.62733694760169" lon="12.922002798363783"><ele>220.0</ele><time>2026-04-25T08:52:46.999Z</time></trkpt><trkpt lat="43.62737432801477" lon="12.922100759650112"><ele>218.5</ele><time>2026-04-25T08:52:47.999Z</time></trkpt><trkpt lat="43.62735480514042" lon="12.92229931579402"><ele>217.0</ele><time>2026-04-25T08:52:49.999Z</time></trkpt><trkpt lat="43.62732427829775" lon="12.922394599455835"><ele>215.49999999999997</ele><time>2026-04-25T08:52:50.999Z</time></trkpt><trkpt lat="43.627285750702335" lon="12.922483042015207"><ele>214.0</ele><time>2026-04-25T08:52:51.999Z</time></trkpt><trkpt lat="43.627207818773584" lon="12.922543591375312"><ele>212.99999999999997</ele><time>2026-04-25T08:52:52.999Z</time></trkpt><trkpt lat="43.627144997325196" lon="12.922564656209676"><ele>212.0</ele><time>2026-04-25T08:52:53.999Z</time></trkpt><trkpt lat="43.627067388112856" lon="12.922623025473932"><ele>211.0</ele><time>2026-04-25T08:52:54.999Z</time></trkpt><trkpt lat="43.62699320094712" lon="12.922686393819816"><ele>210.0</ele><time>2026-04-25T08:52:55.999Z</time></trkpt><trkpt lat="43.6269190031409" lon="12.922754230159319"><ele>208.99999999999997</ele><time>2026-04-25T08:52:56.999Z</time></trkpt><trkpt lat="43.626861820414035" lon="12.922806212132295"><ele>208.0</ele><time>2026-04-25T08:52:57.999Z</time></trkpt><trkpt lat="43.62674887293332" lon="12.922905766999907"><ele>206.49999999999997</ele><time>2026-04-25T08:52:59.999Z</time></trkpt><trkpt lat="43.62668169236197" lon="12.9229889273082"><ele>205.0</ele><time>2026-04-25T08:53:00.999Z</time></trkpt><trkpt lat="43.626596667107904" lon="12.923048409907318"><ele>203.5</ele><time>2026-04-25T08:53:01.999Z</time></trkpt><trkpt lat="43.62652080261585" lon="12.923103684995889"><ele>202.0</ele><time>2026-04-25T08:53:02.999Z</time></trkpt><trkpt lat="43.62644822657145" lon="12.923150785118226"><ele>200.49999999999997</ele><time>2026-04-25T08:53:03.999Z</time></trkpt><trkpt lat="43.626367476977315" lon="12.923161203966961"><ele>199.0</ele><time>2026-04-25T08:53:04.999Z</time></trkpt><trkpt lat="43.62629084338395" lon="12.923175622462532"><ele>198.99999999999997</ele><time>2026-04-25T08:53:05.999Z</time></trkpt><trkpt lat="43.626221264574596" lon="12.923156515087456"><ele>199.0</ele><time>2026-04-25T08:53:06.999Z</time></trkpt><trkpt lat="43.62613932335619" lon="12.92314752036905"><ele>199.0</ele><time>2026-04-25T08:53:07.999Z</time></trkpt><trkpt lat="43.62605215623333" lon="12.923135335143867"><ele>199.0</ele><time>2026-04-25T08:53:08.999Z</time></trkpt><trkpt lat="43.62596907547848" lon="12.923125564039443"><ele>198.99999999999997</ele><time>2026-04-25T08:53:09.999Z</time></trkpt><trkpt lat="43.62589880427232" lon="12.923119634108069"><ele>199.0</ele><time>2026-04-25T08:53:10.998Z</time></trkpt><trkpt lat="43.62582194852201" lon="12.923115816064792"><ele>196.2</ele><time>2026-04-25T08:53:11.998Z</time></trkpt><trkpt lat="43.62574630213101" lon="12.923115277145664"><ele>193.39999999999998</ele><time>2026-04-25T08:53:12.998Z</time></trkpt><trkpt lat="43.62563525851204" lon="12.923117488779589"><ele>190.6</ele><time>2026-04-25T08:53:13.998Z</time></trkpt><trkpt lat="43.62554250797079" lon="12.923125371791015"><ele>187.8</ele><time>2026-04-25T08:53:14.998Z</time></trkpt><trkpt lat="43.6254443043353" lon="12.923136395455211"><ele>185.0</ele><time>2026-04-25T08:53:15.999Z</time></trkpt><trkpt lat="43.62533585023519" lon="12.923150906234422"><ele>183.83333333333331</ele><time>2026-04-25T08:53:16.999Z</time></trkpt><trkpt lat="43.62524119294178" lon="12.92316566971869"><ele>182.66666666666666</ele><time>2026-04-25T08:53:17.999Z</time></trkpt><trkpt lat="43.62515000842493" lon="12.923179891483155"><ele>181.5</ele><time>2026-04-25T08:53:18.999Z</time></trkpt><trkpt lat="43.625069433680245" lon="12.923195408749462"><ele>180.33333333333334</ele><time>2026-04-25T08:53:19.999Z</time></trkpt><trkpt lat="43.624998630170296" lon="12.92321007655084"><ele>179.16666666666669</ele><time>2026-04-25T08:53:20.999Z</time></trkpt><trkpt lat="43.62493204494181" lon="12.923246461750185"><ele>178.0</ele><time>2026-04-25T08:53:21.999Z</time></trkpt><trkpt lat="43.624841345349495" lon="12.923245303094966"><ele>178.0</ele><time>2026-04-25T08:53:23.999Z</time></trkpt><trkpt lat="43.62477862953197" lon="12.92311629371361"><ele>178.0</ele><time>2026-04-25T08:53:26.999Z</time></trkpt><trkpt lat="43.624782767207634" lon="12.922968883310622"><ele>178.0</ele><time>2026-04-25T08:53:28.999Z</time></trkpt><trkpt lat="43.624764629095" lon="12.922773692177925"><ele>178.0</ele><time>2026-04-25T08:53:30.999Z</time></trkpt><trkpt lat="43.62474172629249" lon="12.922666347669654"><ele>178.0</ele><time>2026-04-25T08:53:31.999Z</time></trkpt><trkpt lat="43.6247219473712" lon="12.922548939294739"><ele>178.4</ele><time>2026-04-25T08:53:32.999Z</time></trkpt><trkpt lat="43.62470590067278" lon="12.922420107163859"><ele>178.8</ele><time>2026-04-25T08:53:33.999Z</time></trkpt><trkpt lat="43.62468498111814" lon="12.92229184964808"><ele>179.2</ele><time>2026-04-25T08:53:34.999Z</time></trkpt><trkpt lat="43.624668881520975" lon="12.922141984178156"><ele>179.6</ele><time>2026-04-25T08:53:35.999Z</time></trkpt><trkpt lat="43.62466810693085" lon="12.921982158975158"><ele>180.0</ele><time>2026-04-25T08:53:36.999Z</time></trkpt><trkpt lat="43.62467821779702" lon="12.921829082080768"><ele>180.25</ele><time>2026-04-25T08:53:37.999Z</time></trkpt><trkpt lat="43.62467710337087" lon="12.921662744502996"><ele>180.5</ele><time>2026-04-25T08:53:38.999Z</time></trkpt><trkpt lat="43.62467493775478" lon="12.921491967960941"><ele>180.75</ele><time>2026-04-25T08:53:39.999Z</time></trkpt><trkpt lat="43.62469216544337" lon="12.921336982192992"><ele>181.0</ele><time>2026-04-25T08:53:40.999Z</time></trkpt><trkpt lat="43.62469450566" lon="12.92116590308761"><ele>181.0</ele><time>2026-04-25T08:53:41.999Z</time></trkpt><trkpt lat="43.62468204099371" lon="12.92098823142498"><ele>181.0</ele><time>2026-04-25T08:53:42.999Z</time></trkpt><trkpt lat="43.62468751626047" lon="12.920822190143246"><ele>181.0</ele><time>2026-04-25T08:53:43.999Z</time></trkpt><trkpt lat="43.62469202274998" lon="12.92066316294438"><ele>181.0</ele><time>2026-04-25T08:53:44.999Z</time></trkpt><trkpt lat="43.62468895848904" lon="12.920504740847166"><ele>181.60000000000002</ele><time>2026-04-25T08:53:45.999Z</time></trkpt><trkpt lat="43.62468803445221" lon="12.920358216304663"><ele>182.2</ele><time>2026-04-25T08:53:46.999Z</time></trkpt><trkpt lat="43.62466040058336" lon="12.920208598559308"><ele>182.8</ele><time>2026-04-25T08:53:47.999Z</time></trkpt><trkpt lat="43.62462685003124" lon="12.920065646950984"><ele>183.39999999999998</ele><time>2026-04-25T08:53:48.999Z</time></trkpt><trkpt lat="43.624594876154916" lon="12.919916224905231"><ele>184.0</ele><time>2026-04-25T08:53:49.999Z</time></trkpt><trkpt lat="43.62454887341768" lon="12.919778153106494"><ele>183.6</ele><time>2026-04-25T08:53:50.999Z</time></trkpt><trkpt lat="43.62450929973964" lon="12.919640147270968"><ele>183.2</ele><time>2026-04-25T08:53:51.999Z</time></trkpt><trkpt lat="43.62447166136864" lon="12.919498751290698"><ele>182.79999999999998</ele><time>2026-04-25T08:53:52.999Z</time></trkpt><trkpt lat="43.62445177915448" lon="12.919349072786751"><ele>182.39999999999998</ele><time>2026-04-25T08:53:53.999Z</time></trkpt><trkpt lat="43.62443043185879" lon="12.91919482539053"><ele>182.0</ele><time>2026-04-25T08:53:54.999Z</time></trkpt><trkpt lat="43.62441458035254" lon="12.919018406913182"><ele>182.0</ele><time>2026-04-25T08:53:55.999Z</time></trkpt><trkpt lat="43.62439464361081" lon="12.918866727084938"><ele>182.0</ele><time>2026-04-25T08:53:56.999Z</time></trkpt><trkpt lat="43.62439160658186" lon="12.91869956560006"><ele>182.0</ele><time>2026-04-25T08:53:57.999Z</time></trkpt><trkpt lat="43.62438749935712" lon="12.918530063189257"><ele>182.0</ele><time>2026-04-25T08:53:58.999Z</time></trkpt><trkpt lat="43.62438298106788" lon="12.918345229851525"><ele>182.0</ele><time>2026-04-25T08:53:59.999Z</time></trkpt><trkpt lat="43.62437814335426" lon="12.91818091454477"><ele>182.0</ele><time>2026-04-25T08:54:00.999Z</time></trkpt><trkpt lat="43.62437032706545" lon="12.917998693517243"><ele>182.0</ele><time>2026-04-25T08:54:01.999Z</time></trkpt><trkpt lat="43.624365073243844" lon="12.917820034280405"><ele>182.0</ele><time>2026-04-25T08:54:02.999Z</time></trkpt><trkpt lat="43.624361924103866" lon="12.91767062204197"><ele>182.0</ele><time>2026-04-25T08:54:03.999Z</time></trkpt><trkpt lat="43.624358151519736" lon="12.917493276070124"><ele>182.0</ele><time>2026-04-25T08:54:04.999Z</time></trkpt><trkpt lat="43.62435329231393" lon="12.917301823703625"><ele>182.0</ele><time>2026-04-25T08:54:05.999Z</time></trkpt><trkpt lat="43.62437784777272" lon="12.917110311363277"><ele>182.0</ele><time>2026-04-25T08:54:06.999Z</time></trkpt><trkpt lat="43.62436983665754" lon="12.916947331153965"><ele>182.0</ele><time>2026-04-25T08:54:07.999Z</time></trkpt><trkpt lat="43.62435451535513" lon="12.916747578579418"><ele>182.0</ele><time>2026-04-25T08:54:08.999Z</time></trkpt><trkpt lat="43.62433541495754" lon="12.916594633577146"><ele>182.0</ele><time>2026-04-25T08:54:09.999Z</time></trkpt><trkpt lat="43.624339370915344" lon="12.916420877086889"><ele>182.0</ele><time>2026-04-25T08:54:10.999Z</time></trkpt><trkpt lat="43.62432776713951" lon="12.916238316262096"><ele>181.5</ele><time>2026-04-25T08:54:11.999Z</time></trkpt><trkpt lat="43.62432295762496" lon="12.916067107048685"><ele>181.0</ele><time>2026-04-25T08:54:12.999Z</time></trkpt><trkpt lat="43.62431191754163" lon="12.915895942060857"><ele>180.5</ele><time>2026-04-25T08:54:13.999Z</time></trkpt><trkpt lat="43.624309606152" lon="12.915727088408078"><ele>180.0</ele><time>2026-04-25T08:54:14.999Z</time></trkpt><trkpt lat="43.6243245937432" lon="12.91554936341988"><ele>181.66666666666666</ele><time>2026-04-25T08:54:15.999Z</time></trkpt><trkpt lat="43.62432095982841" lon="12.915367295685773"><ele>183.33333333333331</ele><time>2026-04-25T08:54:16.999Z</time></trkpt><trkpt lat="43.624321402854875" lon="12.915148628727025"><ele>185.0</ele><time>2026-04-25T08:54:17.999Z</time></trkpt><trkpt lat="43.624329083482905" lon="12.914924201375591"><ele>185.66666666666666</ele><time>2026-04-25T08:54:18.999Z</time></trkpt><trkpt lat="43.624316509743274" lon="12.91467776498225"><ele>186.33333333333334</ele><time>2026-04-25T08:54:19.999Z</time></trkpt><trkpt lat="43.624314818237444" lon="12.914415996023186"><ele>187.0</ele><time>2026-04-25T08:54:20.999Z</time></trkpt><trkpt lat="43.62433492552306" lon="12.914169989152876"><ele>188.33333333333334</ele><time>2026-04-25T08:54:21.999Z</time></trkpt><trkpt lat="43.6243435549587" lon="12.913911665541415"><ele>189.66666666666666</ele><time>2026-04-25T08:54:22.999Z</time></trkpt><trkpt lat="43.624340006402264" lon="12.913645806917604"><ele>191.0</ele><time>2026-04-25T08:54:23.999Z</time></trkpt><trkpt lat="43.624350513244856" lon="12.913392868652878"><ele>192.33333333333331</ele><time>2026-04-25T08:54:24.999Z</time></trkpt><trkpt lat="43.62434328366311" lon="12.913166944019721"><ele>193.66666666666666</ele><time>2026-04-25T08:54:25.999Z</time></trkpt><trkpt lat="43.62433154012187" lon="12.912970266001608"><ele>195.0</ele><time>2026-04-25T08:54:26.999Z</time></trkpt><trkpt lat="43.624322187028106" lon="12.912765491545482"><ele>195.5</ele><time>2026-04-25T08:54:27.999Z</time></trkpt><trkpt lat="43.62433610063934" lon="12.912570609374777"><ele>196.0</ele><time>2026-04-25T08:54:28.999Z</time></trkpt><trkpt lat="43.624333464337" lon="12.91238145296607"><ele>196.5</ele><time>2026-04-25T08:54:29.999Z</time></trkpt><trkpt lat="43.62432838787216" lon="12.912196830113869"><ele>197.0</ele><time>2026-04-25T08:54:30.999Z</time></trkpt><trkpt lat="43.62432545041143" lon="12.91202338899522"><ele>197.00000000000003</ele><time>2026-04-25T08:54:31.999Z</time></trkpt><trkpt lat="43.62432582480888" lon="12.911864679377398"><ele>197.0</ele><time>2026-04-25T08:54:32.999Z</time></trkpt><trkpt lat="43.624347405820046" lon="12.911730551327565"><ele>197.0</ele><time>2026-04-25T08:54:33.999Z</time></trkpt><trkpt lat="43.624342150901086" lon="12.911619312237868"><ele>197.0</ele><time>2026-04-25T08:54:34.999Z</time></trkpt><trkpt lat="43.62435758324506" lon="12.91153484189363"><ele>197.00000000000003</ele><time>2026-04-25T08:54:35.999Z</time></trkpt><trkpt lat="43.62429629134524" lon="12.911443424989523"><ele>197.0</ele><time>2026-04-25T08:54:36.999Z</time></trkpt><trkpt lat="43.62421117165831" lon="12.911404040619347"><ele>197.50000000000003</ele><time>2026-04-25T08:54:37.999Z</time></trkpt><trkpt lat="43.62411440519999" lon="12.911388942977867"><ele>198.0</ele><time>2026-04-25T08:54:38.999Z</time></trkpt><trkpt lat="43.62403987814556" lon="12.91141889222824"><ele>198.5</ele><time>2026-04-25T08:54:39.999Z</time></trkpt><trkpt lat="43.62396753995248" lon="12.911399510161178"><ele>199.0</ele><time>2026-04-25T08:54:40.999Z</time></trkpt><trkpt lat="43.62389622938938" lon="12.911385206916778"><ele>199.50000000000003</ele><time>2026-04-25T08:54:41.999Z</time></trkpt><trkpt lat="43.62382485362267" lon="12.911374615589219"><ele>200.0</ele><time>2026-04-25T08:54:42.999Z</time></trkpt><trkpt lat="43.62376088879841" lon="12.911372906550625"><ele>200.0</ele><time>2026-04-25T08:54:43.999Z</time></trkpt><trkpt lat="43.62366038998446" lon="12.911373710196015"><ele>200.0</ele><time>2026-04-25T08:54:45.999Z</time></trkpt><trkpt lat="43.623552932856406" lon="12.911220326320858"><ele>200.0</ele><time>2026-04-25T08:54:47.999Z</time></trkpt><trkpt lat="43.623519350250724" lon="12.911129389890947"><ele>200.0</ele><time>2026-04-25T08:54:48.999Z</time></trkpt><trkpt lat="43.62343714501885" lon="12.910959338398923"><ele>197.5</ele><time>2026-04-25T08:54:50.999Z</time></trkpt><trkpt lat="43.62345526329781" lon="12.910874299987269"><ele>195.0</ele><time>2026-04-25T08:54:51.999Z</time></trkpt><trkpt lat="43.62351567345819" lon="12.910847645431348"><ele>192.5</ele><time>2026-04-25T08:54:52.999Z</time></trkpt><trkpt lat="43.6235234601528" lon="12.910641088245995"><ele>190.0</ele><time>2026-04-25T08:54:53.999Z</time></trkpt><trkpt lat="43.623493869102" lon="12.910359293369297"><ele>190.0</ele><time>2026-04-25T08:54:54.999Z</time></trkpt><trkpt lat="43.62348236160228" lon="12.910249707523777"><ele>190.0</ele><time>2026-04-25T08:54:55.999Z</time></trkpt><trkpt lat="43.623472064064565" lon="12.910151644273784"><ele>190.0</ele><time>2026-04-25T08:54:56.999Z</time></trkpt><trkpt lat="43.6234516176159" lon="12.909978240579512"><ele>190.0</ele><time>2026-04-25T08:54:57.999Z</time></trkpt><trkpt lat="43.623409212033636" lon="12.909776280518631"><ele>190.0</ele><time>2026-04-25T08:54:58.999Z</time></trkpt><trkpt lat="43.623387801144155" lon="12.909607642160863"><ele>191.0</ele><time>2026-04-25T08:54:59.999Z</time></trkpt><trkpt lat="43.62336894264113" lon="12.90947097903803"><ele>192.0</ele><time>2026-04-25T08:55:00.999Z</time></trkpt><trkpt lat="43.62330493245719" lon="12.909386242307294"><ele>193.0</ele><time>2026-04-25T08:55:01.999Z</time></trkpt><trkpt lat="43.623203638251" lon="12.90926152474358"><ele>194.0</ele><time>2026-04-25T08:55:02.999Z</time></trkpt><trkpt lat="43.62314017003857" lon="12.90918398015923"><ele>195.0</ele><time>2026-04-25T08:55:03.999Z</time></trkpt><trkpt lat="43.62302359562818" lon="12.909074599935387"><ele>195.8</ele><time>2026-04-25T08:55:04.999Z</time></trkpt><trkpt lat="43.622975579090955" lon="12.908977717676029"><ele>196.6</ele><time>2026-04-25T08:55:05.999Z</time></trkpt><trkpt lat="43.62290131126259" lon="12.908879460427904"><ele>197.39999999999998</ele><time>2026-04-25T08:55:06.999Z</time></trkpt><trkpt lat="43.622820438698305" lon="12.908769038511673"><ele>198.2</ele><time>2026-04-25T08:55:07.999Z</time></trkpt><trkpt lat="43.62273829662983" lon="12.908657818653666"><ele>199.0</ele><time>2026-04-25T08:55:08.999Z</time></trkpt><trkpt lat="43.62266274553729" lon="12.908550196701503"><ele>198.25</ele><time>2026-04-25T08:55:09.999Z</time></trkpt><trkpt lat="43.6225832625932" lon="12.908426199564332"><ele>197.5</ele><time>2026-04-25T08:55:10.999Z</time></trkpt><trkpt lat="43.62250148566163" lon="12.908291516878062"><ele>196.75</ele><time>2026-04-25T08:55:11.999Z</time></trkpt><trkpt lat="43.62240366585325" lon="12.908125941401371"><ele>196.0</ele><time>2026-04-25T08:55:12.999Z</time></trkpt><trkpt lat="43.622335944064545" lon="12.907937692454722"><ele>196.0</ele><time>2026-04-25T08:55:13.999Z</time></trkpt><trkpt lat="43.62228854975799" lon="12.90779167692753"><ele>196.0</ele><time>2026-04-25T08:55:14.999Z</time></trkpt><trkpt lat="43.62225290065897" lon="12.907652352283554"><ele>196.0</ele><time>2026-04-25T08:55:15.999Z</time></trkpt><trkpt lat="43.622244449934115" lon="12.9075171651833"><ele>196.0</ele><time>2026-04-25T08:55:16.999Z</time></trkpt><trkpt lat="43.622249089780546" lon="12.90741026455654"><ele>196.0</ele><time>2026-04-25T08:55:17.999Z</time></trkpt><trkpt lat="43.62225704720836" lon="12.907318620698268"><ele>197.25</ele><time>2026-04-25T08:55:18.999Z</time></trkpt><trkpt lat="43.62225629080692" lon="12.907224853125737"><ele>198.5</ele><time>2026-04-25T08:55:19.999Z</time></trkpt><trkpt lat="43.62225453346483" lon="12.90687724482435"><ele>199.75</ele><time>2026-04-25T08:55:21.999Z</time></trkpt><trkpt lat="43.62225410557387" lon="12.906763618585675"><ele>201.0</ele><time>2026-04-25T08:55:22.999Z</time></trkpt><trkpt lat="43.62225362598642" lon="12.906573976072444"><ele>201.4</ele><time>2026-04-25T08:55:23.999Z</time></trkpt><trkpt lat="43.62225551930411" lon="12.906402536622993"><ele>201.8</ele><time>2026-04-25T08:55:24.999Z</time></trkpt><trkpt lat="43.62226222854161" lon="12.906293535141499"><ele>202.20000000000002</ele><time>2026-04-25T08:55:25.999Z</time></trkpt><trkpt lat="43.62229383340108" lon="12.906145177272021"><ele>202.60000000000002</ele><time>2026-04-25T08:55:26.999Z</time></trkpt><trkpt lat="43.62232717215013" lon="12.906015300804015"><ele>203.0</ele><time>2026-04-25T08:55:27.999Z</time></trkpt><trkpt lat="43.62235078219534" lon="12.905892999668556"><ele>203.0</ele><time>2026-04-25T08:55:28.999Z</time></trkpt><trkpt lat="43.62236819007038" lon="12.905777137317697"><ele>203.0</ele><time>2026-04-25T08:55:29.999Z</time></trkpt><trkpt lat="43.62238052620157" lon="12.905654283168458"><ele>203.0</ele><time>2026-04-25T08:55:30.999Z</time></trkpt><trkpt lat="43.622376436327286" lon="12.90552606536473"><ele>203.0</ele><time>2026-04-25T08:55:31.999Z</time></trkpt><trkpt lat="43.622391189272655" lon="12.905394730516738"><ele>203.0</ele><time>2026-04-25T08:55:32.999Z</time></trkpt><trkpt lat="43.622406259110306" lon="12.905257661252813"><ele>203.0</ele><time>2026-04-25T08:55:33.999Z</time></trkpt><trkpt lat="43.62241603221969" lon="12.905123147798728"><ele>203.0</ele><time>2026-04-25T08:55:34.999Z</time></trkpt><trkpt lat="43.622422778432316" lon="12.904967692276566"><ele>203.0</ele><time>2026-04-25T08:55:35.999Z</time></trkpt><trkpt lat="43.62244026847891" lon="12.904845003522345"><ele>203.0</ele><time>2026-04-25T08:55:36.999Z</time></trkpt><trkpt lat="43.622456414560844" lon="12.904714050462653"><ele>203.0</ele><time>2026-04-25T08:55:37.999Z</time></trkpt><trkpt lat="43.622469492200715" lon="12.904578282820593"><ele>202.8</ele><time>2026-04-25T08:55:38.999Z</time></trkpt><trkpt lat="43.62248144357281" lon="12.904440191147636"><ele>202.60000000000002</ele><time>2026-04-25T08:55:39.999Z</time></trkpt><trkpt lat="43.62248763942946" lon="12.904306543036068"><ele>202.39999999999998</ele><time>2026-04-25T08:55:40.999Z</time></trkpt><trkpt lat="43.62248763355722" lon="12.904177598888548"><ele>202.2</ele><time>2026-04-25T08:55:41.999Z</time></trkpt><trkpt lat="43.622488900552405" lon="12.904051481649038"><ele>202.0</ele><time>2026-04-25T08:55:42.999Z</time></trkpt><trkpt lat="43.6224866689091" lon="12.903931298324682"><ele>202.8</ele><time>2026-04-25T08:55:43.999Z</time></trkpt><trkpt lat="43.62249372034894" lon="12.9038153460284"><ele>203.6</ele><time>2026-04-25T08:55:44.999Z</time></trkpt><trkpt lat="43.62249554398754" lon="12.90369295244845"><ele>204.4</ele><time>2026-04-25T08:55:45.999Z</time></trkpt><trkpt lat="43.62249182298893" lon="12.903562457544691"><ele>205.20000000000002</ele><time>2026-04-25T08:55:46.999Z</time></trkpt><trkpt lat="43.622470489562" lon="12.90341889483527"><ele>206.0</ele><time>2026-04-25T08:55:47.999Z</time></trkpt><trkpt lat="43.622435691897046" lon="12.90327940829826"><ele>206.75</ele><time>2026-04-25T08:55:48.999Z</time></trkpt><trkpt lat="43.62238929897707" lon="12.903134074747504"><ele>207.5</ele><time>2026-04-25T08:55:49.999Z</time></trkpt><trkpt lat="43.622331109114214" lon="12.90299317664013"><ele>208.25</ele><time>2026-04-25T08:55:50.999Z</time></trkpt><trkpt lat="43.622262445787435" lon="12.902860510144313"><ele>209.0</ele><time>2026-04-25T08:55:51.999Z</time></trkpt><trkpt lat="43.6221954405434" lon="12.90272799151252"><ele>209.0</ele><time>2026-04-25T08:55:52.999Z</time></trkpt><trkpt lat="43.62213036501967" lon="12.902602532105384"><ele>209.0</ele><time>2026-04-25T08:55:53.999Z</time></trkpt><trkpt lat="43.62208303265274" lon="12.902478029089792"><ele>209.0</ele><time>2026-04-25T08:55:54.999Z</time></trkpt><trkpt lat="43.622050792275544" lon="12.90234197065197"><ele>209.0</ele><time>2026-04-25T08:55:55.999Z</time></trkpt><trkpt lat="43.62205993532548" lon="12.902194578552848"><ele>209.0</ele><time>2026-04-25T08:55:56.999Z</time></trkpt><trkpt lat="43.62205733508666" lon="12.90204625658261"><ele>208.79999999999998</ele><time>2026-04-25T08:55:57.999Z</time></trkpt><trkpt lat="43.62208243054181" lon="12.901895127782343"><ele>208.6</ele><time>2026-04-25T08:55:58.999Z</time></trkpt><trkpt lat="43.62210594092871" lon="12.901739980854481"><ele>208.4</ele><time>2026-04-25T08:55:59.999Z</time></trkpt><trkpt lat="43.62213504727115" lon="12.901587302423046"><ele>208.2</ele><time>2026-04-25T08:56:00.999Z</time></trkpt><trkpt lat="43.622172705101754" lon="12.90144999284599"><ele>208.0</ele><time>2026-04-25T08:56:01.999Z</time></trkpt><trkpt lat="43.62222965829351" lon="12.901319103878409"><ele>208.8</ele><time>2026-04-25T08:56:02.999Z</time></trkpt><trkpt lat="43.62228382102374" lon="12.901187891215022"><ele>209.60000000000002</ele><time>2026-04-25T08:56:03.999Z</time></trkpt><trkpt lat="43.62233126503069" lon="12.901049090982394"><ele>210.39999999999998</ele><time>2026-04-25T08:56:04.999Z</time></trkpt><trkpt lat="43.6223693516298" lon="12.900905167094967"><ele>211.2</ele><time>2026-04-25T08:56:05.999Z</time></trkpt><trkpt lat="43.62240734043412" lon="12.900770995559393"><ele>212.0</ele><time>2026-04-25T08:56:06.999Z</time></trkpt><trkpt lat="43.622447696877956" lon="12.900639834297992"><ele>212.2</ele><time>2026-04-25T08:56:07.999Z</time></trkpt><trkpt lat="43.6224979423586" lon="12.900512337112968"><ele>212.39999999999998</ele><time>2026-04-25T08:56:08.999Z</time></trkpt><trkpt lat="43.622551511998495" lon="12.90039230481173"><ele>212.60000000000002</ele><time>2026-04-25T08:56:09.999Z</time></trkpt><trkpt lat="43.622608685222374" lon="12.900275508066201"><ele>212.8</ele><time>2026-04-25T08:56:10.999Z</time></trkpt><trkpt lat="43.62264592101414" lon="12.900171096581918"><ele>213.0</ele><time>2026-04-25T08:56:11.999Z</time></trkpt><trkpt lat="43.62266680067407" lon="12.90006414621477"><ele>213.33333333333334</ele><time>2026-04-25T08:56:12.999Z</time></trkpt><trkpt lat="43.62264911828197" lon="12.899962659213157"><ele>213.66666666666669</ele><time>2026-04-25T08:56:13.999Z</time></trkpt><trkpt lat="43.62260268687206" lon="12.899869684519613"><ele>214.0</ele><time>2026-04-25T08:56:14.999Z</time></trkpt><trkpt lat="43.62252420414118" lon="12.899807349997491"><ele>214.33333333333334</ele><time>2026-04-25T08:56:15.999Z</time></trkpt><trkpt lat="43.62245191408864" lon="12.899768486260847"><ele>214.66666666666669</ele><time>2026-04-25T08:56:16.999Z</time></trkpt><trkpt lat="43.62239519548404" lon="12.899716865241228"><ele>215.0</ele><time>2026-04-25T08:56:17.999Z</time></trkpt><trkpt lat="43.6223636854974" lon="12.899619173316596"><ele>215.0</ele><time>2026-04-25T08:56:18.999Z</time></trkpt><trkpt lat="43.62238950561629" lon="12.899490930995228"><ele>215.0</ele><time>2026-04-25T08:56:19.999Z</time></trkpt><trkpt lat="43.622376335904015" lon="12.899371457628247"><ele>215.0</ele><time>2026-04-25T08:56:20.999Z</time></trkpt><trkpt lat="43.62236249584275" lon="12.899234860500899"><ele>215.0</ele><time>2026-04-25T08:56:21.999Z</time></trkpt><trkpt lat="43.622353705269425" lon="12.899108254213411"><ele>215.0</ele><time>2026-04-25T08:56:22.999Z</time></trkpt><trkpt lat="43.622320376592924" lon="12.898982436079626"><ele>216.0</ele><time>2026-04-25T08:56:23.999Z</time></trkpt><trkpt lat="43.62228091695759" lon="12.898848631236985"><ele>217.0</ele><time>2026-04-25T08:56:24.999Z</time></trkpt><trkpt lat="43.62225103628471" lon="12.898715035439116"><ele>218.0</ele><time>2026-04-25T08:56:25.999Z</time></trkpt><trkpt lat="43.622241465330134" lon="12.898570732574559"><ele>219.0</ele><time>2026-04-25T08:56:26.999Z</time></trkpt><trkpt lat="43.62222067841983" lon="12.898433961032252"><ele>220.0</ele><time>2026-04-25T08:56:27.999Z</time></trkpt><trkpt lat="43.622206825986765" lon="12.898302157539401"><ele>220.33333333333331</ele><time>2026-04-25T08:56:28.999Z</time></trkpt><trkpt lat="43.62220481609074" lon="12.898177059590493"><ele>220.66666666666666</ele><time>2026-04-25T08:56:29.999Z</time></trkpt><trkpt lat="43.62220331071186" lon="12.89807205720095"><ele>221.0</ele><time>2026-04-25T08:56:30.999Z</time></trkpt><trkpt lat="43.62220861206354" lon="12.897979493399815"><ele>221.33333333333331</ele><time>2026-04-25T08:56:31.999Z</time></trkpt><trkpt lat="43.62215454897218" lon="12.897884651781498"><ele>221.66666666666666</ele><time>2026-04-25T08:56:32.999Z</time></trkpt><trkpt lat="43.62215016973197" lon="12.897781747759606"><ele>222.0</ele><time>2026-04-25T08:56:33.999Z</time></trkpt><trkpt lat="43.62213135655453" lon="12.897675496844743"><ele>223.0</ele><time>2026-04-25T08:56:34.999Z</time></trkpt><trkpt lat="43.622109671388266" lon="12.897557404754686"><ele>224.0</ele><time>2026-04-25T08:56:35.999Z</time></trkpt><trkpt lat="43.62210328109181" lon="12.897432901889879"><ele>225.0</ele><time>2026-04-25T08:56:36.999Z</time></trkpt><trkpt lat="43.62208772607531" lon="12.897301132487547"><ele>226.0</ele><time>2026-04-25T08:56:37.999Z</time></trkpt><trkpt lat="43.622062754080176" lon="12.897162358568973"><ele>227.0</ele><time>2026-04-25T08:56:38.999Z</time></trkpt><trkpt lat="43.622059969866804" lon="12.897017529707794"><ele>227.0</ele><time>2026-04-25T08:56:39.999Z</time></trkpt><trkpt lat="43.62206330097593" lon="12.896869564921332"><ele>227.0</ele><time>2026-04-25T08:56:40.999Z</time></trkpt><trkpt lat="43.6220628944119" lon="12.89673563912439"><ele>227.0</ele><time>2026-04-25T08:56:41.999Z</time></trkpt><trkpt lat="43.622059058988604" lon="12.896591720593818"><ele>227.0</ele><time>2026-04-25T08:56:42.999Z</time></trkpt><trkpt lat="43.62205456354933" lon="12.896456870202408"><ele>227.0</ele><time>2026-04-25T08:56:43.999Z</time></trkpt><trkpt lat="43.622044694630475" lon="12.896339319670975"><ele>227.00000000000003</ele><time>2026-04-25T08:56:44.999Z</time></trkpt><trkpt lat="43.62203073207116" lon="12.896235059422263"><ele>227.0</ele><time>2026-04-25T08:56:45.999Z</time></trkpt><trkpt lat="43.62202445062765" lon="12.896135601930704"><ele>227.0</ele><time>2026-04-25T08:56:46.999Z</time></trkpt><trkpt lat="43.62199839092699" lon="12.896046886069369"><ele>227.0</ele><time>2026-04-25T08:56:47.999Z</time></trkpt><trkpt lat="43.621931845124905" lon="12.89592194618443"><ele>227.00000000000003</ele><time>2026-04-25T08:56:49.999Z</time></trkpt><trkpt lat="43.621865909196195" lon="12.895833960329476"><ele>227.0</ele><time>2026-04-25T08:56:51.999Z</time></trkpt><trkpt lat="43.62180229255411" lon="12.89579422140941"><ele>225.00000000000003</ele><time>2026-04-25T08:56:53.999Z</time></trkpt><trkpt lat="43.62172765348164" lon="12.895756399164217"><ele>223.0</ele><time>2026-04-25T08:56:55.999Z</time></trkpt><trkpt lat="43.6216526786081" lon="12.895706658629818"><ele>221.0</ele><time>2026-04-25T08:56:57.999Z</time></trkpt><trkpt lat="43.62157023140706" lon="12.895692614199897"><ele>219.0</ele><time>2026-04-25T08:56:59.999Z</time></trkpt><trkpt lat="43.62149742628586" lon="12.895620885454655"><ele>217.00000000000003</ele><time>2026-04-25T08:57:01.999Z</time></trkpt><trkpt lat="43.62140748105808" lon="12.895567090600178"><ele>215.0</ele><time>2026-04-25T08:57:03.999Z</time></trkpt><trkpt lat="43.6212968293172" lon="12.895502776968824"><ele>215.00000000000003</ele><time>2026-04-25T08:57:05.999Z</time></trkpt><trkpt lat="43.62118455300257" lon="12.89543042090132"><ele>215.0</ele><time>2026-04-25T08:57:07.999Z</time></trkpt><trkpt lat="43.62111838034011" lon="12.895397117690933"><ele>215.0</ele><time>2026-04-25T08:57:08.999Z</time></trkpt><trkpt lat="43.6210480617126" lon="12.89535687824049"><ele>215.0</ele><time>2026-04-25T08:57:09.999Z</time></trkpt><trkpt lat="43.62098392690659" lon="12.89531442777704"><ele>215.00000000000003</ele><time>2026-04-25T08:57:10.999Z</time></trkpt><trkpt lat="43.620918672557735" lon="12.895277334042175"><ele>215.0</ele><time>2026-04-25T08:57:11.999Z</time></trkpt><trkpt lat="43.6208502100618" lon="12.895233185903697"><ele>213.83333333333334</ele><time>2026-04-25T08:57:12.999Z</time></trkpt><trkpt lat="43.62077669691734" lon="12.895188512045655"><ele>212.66666666666669</ele><time>2026-04-25T08:57:13.999Z</time></trkpt><trkpt lat="43.62070710195747" lon="12.895140735086825"><ele>211.5</ele><time>2026-04-25T08:57:14.999Z</time></trkpt><trkpt lat="43.62063728052488" lon="12.895093929652715"><ele>210.33333333333331</ele><time>2026-04-25T08:57:15.999Z</time></trkpt><trkpt lat="43.620569414871646" lon="12.895046513848861"><ele>209.16666666666666</ele><time>2026-04-25T08:57:16.999Z</time></trkpt><trkpt lat="43.62049805049268" lon="12.894987379241634"><ele>208.0</ele><time>2026-04-25T08:57:17.999Z</time></trkpt><trkpt lat="43.62043555070722" lon="12.894905772412534"><ele>207.99999999999997</ele><time>2026-04-25T08:57:18.999Z</time></trkpt><trkpt lat="43.62037495810959" lon="12.894823659231754"><ele>208.0</ele><time>2026-04-25T08:57:19.999Z</time></trkpt><trkpt lat="43.6203169840333" lon="12.894736464370451"><ele>208.0</ele><time>2026-04-25T08:57:20.999Z</time></trkpt><trkpt lat="43.620263926369454" lon="12.894657048161276"><ele>208.0</ele><time>2026-04-25T08:57:21.999Z</time></trkpt><trkpt lat="43.62020949139004" lon="12.894580318628345"><ele>207.99999999999997</ele><time>2026-04-25T08:57:22.999Z</time></trkpt><trkpt lat="43.6201569791613" lon="12.894501523850787"><ele>208.0</ele><time>2026-04-25T08:57:23.999Z</time></trkpt><trkpt lat="43.62012683104065" lon="12.894402106520415"><ele>208.0</ele><time>2026-04-25T08:57:24.999Z</time></trkpt><trkpt lat="43.620091535708816" lon="12.89431867476193"><ele>208.0</ele><time>2026-04-25T08:57:25.999Z</time></trkpt><trkpt lat="43.62004692075993" lon="12.894168158139665"><ele>208.0</ele><time>2026-04-25T08:57:27.999Z</time></trkpt><trkpt lat="43.62005004895068" lon="12.894009493552971"><ele>208.0</ele><time>2026-04-25T08:57:29.999Z</time></trkpt><trkpt lat="43.619947416034144" lon="12.89389719200931"><ele>208.0</ele><time>2026-04-25T08:57:31.999Z</time></trkpt><trkpt lat="43.61991267352237" lon="12.893805022941573"><ele>208.60000000000002</ele><time>2026-04-25T08:57:32.999Z</time></trkpt><trkpt lat="43.61980378254239" lon="12.893768215981694"><ele>209.20000000000002</ele><time>2026-04-25T08:57:33.999Z</time></trkpt><trkpt lat="43.61972717710415" lon="12.893691503350977"><ele>209.8</ele><time>2026-04-25T08:57:34.999Z</time></trkpt><trkpt lat="43.61964648323938" lon="12.893629566690388"><ele>210.4</ele><time>2026-04-25T08:57:35.999Z</time></trkpt><trkpt lat="43.619570510837825" lon="12.893531017144527"><ele>211.0</ele><time>2026-04-25T08:57:36.999Z</time></trkpt><trkpt lat="43.619512494650074" lon="12.8934626035119"><ele>211.16666666666666</ele><time>2026-04-25T08:57:37.999Z</time></trkpt><trkpt lat="43.6194571686894" lon="12.893380387812114"><ele>211.33333333333331</ele><time>2026-04-25T08:57:38.999Z</time></trkpt><trkpt lat="43.61940122298592" lon="12.893284840109747"><ele>211.5</ele><time>2026-04-25T08:57:39.999Z</time></trkpt><trkpt lat="43.61939261033137" lon="12.89314627591724"><ele>211.66666666666669</ele><time>2026-04-25T08:57:40.999Z</time></trkpt><trkpt lat="43.619391826420426" lon="12.893037779391108"><ele>211.83333333333334</ele><time>2026-04-25T08:57:41.999Z</time></trkpt><trkpt lat="43.61937464436533" lon="12.892921054958363"><ele>212.0</ele><time>2026-04-25T08:57:42.999Z</time></trkpt><trkpt lat="43.6193544254502" lon="12.892813369417853"><ele>212.0</ele><time>2026-04-25T08:57:43.999Z</time></trkpt><trkpt lat="43.61932726745035" lon="12.892709312665596"><ele>212.0</ele><time>2026-04-25T08:57:44.999Z</time></trkpt><trkpt lat="43.61928378745801" lon="12.892610949080362"><ele>212.0</ele><time>2026-04-25T08:57:45.999Z</time></trkpt><trkpt lat="43.61924043545884" lon="12.8925223787829"><ele>212.0</ele><time>2026-04-25T08:57:46.999Z</time></trkpt><trkpt lat="43.61918292895504" lon="12.89242171114326"><ele>212.0</ele><time>2026-04-25T08:57:47.999Z</time></trkpt><trkpt lat="43.61911761774651" lon="12.892289123017694"><ele>213.0</ele><time>2026-04-25T08:57:49Z</time></trkpt><trkpt lat="43.619062224149566" lon="12.892172011842801"><ele>214.0</ele><time>2026-04-25T08:57:50Z</time></trkpt><trkpt lat="43.619009385824405" lon="12.892060874500146"><ele>215.0</ele><time>2026-04-25T08:57:51Z</time></trkpt><trkpt lat="43.61895237475631" lon="12.891962908381169"><ele>216.0</ele><time>2026-04-25T08:57:52Z</time></trkpt><trkpt lat="43.61888766052465" lon="12.891883423298793"><ele>217.0</ele><time>2026-04-25T08:57:53Z</time></trkpt><trkpt lat="43.61880957762789" lon="12.891808700116913"><ele>217.6</ele><time>2026-04-25T08:57:54Z</time></trkpt><trkpt lat="43.618723615218336" lon="12.89174711252746"><ele>218.2</ele><time>2026-04-25T08:57:55Z</time></trkpt><trkpt lat="43.61863640816777" lon="12.891702140080906"><ele>218.8</ele><time>2026-04-25T08:57:56Z</time></trkpt><trkpt lat="43.618548591797484" lon="12.8916638612875"><ele>219.4</ele><time>2026-04-25T08:57:57Z</time></trkpt><trkpt lat="43.61844681866101" lon="12.891637245614618"><ele>220.0</ele><time>2026-04-25T08:57:58Z</time></trkpt><trkpt lat="43.61836159127891" lon="12.891617025183567"><ele>222.2</ele><time>2026-04-25T08:57:59Z</time></trkpt><trkpt lat="43.61827039409647" lon="12.8915961373979"><ele>224.4</ele><time>2026-04-25T08:58:00Z</time></trkpt><trkpt lat="43.618180227492" lon="12.891577004654588"><ele>226.60000000000002</ele><time>2026-04-25T08:58:01Z</time></trkpt><trkpt lat="43.618098972245065" lon="12.891542855467272"><ele>228.8</ele><time>2026-04-25T08:58:02Z</time></trkpt><trkpt lat="43.61802134412448" lon="12.891487365518891"><ele>231.0</ele><time>2026-04-25T08:58:03Z</time></trkpt><trkpt lat="43.617954918755196" lon="12.891379109628192"><ele>231.0</ele><time>2026-04-25T08:58:04Z</time></trkpt><trkpt lat="43.617878535703866" lon="12.891288657297716"><ele>231.00000000000003</ele><time>2026-04-25T08:58:05Z</time></trkpt><trkpt lat="43.61779114641741" lon="12.891196299946035"><ele>231.00000000000003</ele><time>2026-04-25T08:58:06Z</time></trkpt><trkpt lat="43.61770420146403" lon="12.891111242905906"><ele>231.0</ele><time>2026-04-25T08:58:07Z</time></trkpt><trkpt lat="43.61762533371736" lon="12.8910420307319"><ele>231.0</ele><time>2026-04-25T08:58:08Z</time></trkpt><trkpt lat="43.617517936131776" lon="12.890979649310665"><ele>234.60000000000002</ele><time>2026-04-25T08:58:09Z</time></trkpt><trkpt lat="43.61743587055124" lon="12.890904572370454"><ele>238.20000000000002</ele><time>2026-04-25T08:58:10Z</time></trkpt><trkpt lat="43.61733499845227" lon="12.89084266120986"><ele>241.79999999999998</ele><time>2026-04-25T08:58:11Z</time></trkpt><trkpt lat="43.617231512588134" lon="12.890784817019053"><ele>245.39999999999998</ele><time>2026-04-25T08:58:12Z</time></trkpt><trkpt lat="43.61712769494643" lon="12.890722457037068"><ele>249.0</ele><time>2026-04-25T08:58:13Z</time></trkpt><trkpt lat="43.617033601933066" lon="12.890653816069015"><ele>248.39999999999998</ele><time>2026-04-25T08:58:14Z</time></trkpt><trkpt lat="43.61692426912462" lon="12.890587563872987"><ele>247.79999999999998</ele><time>2026-04-25T08:58:15Z</time></trkpt><trkpt lat="43.616823881376924" lon="12.890517197761618"><ele>247.20000000000002</ele><time>2026-04-25T08:58:16Z</time></trkpt><trkpt lat="43.61672747031846" lon="12.890446890337413"><ele>246.60000000000002</ele><time>2026-04-25T08:58:17Z</time></trkpt><trkpt lat="43.61663327294701" lon="12.890376123761062"><ele>246.0</ele><time>2026-04-25T08:58:18Z</time></trkpt><trkpt lat="43.61654897586057" lon="12.890311417242456"><ele>246.0</ele><time>2026-04-25T08:58:19Z</time></trkpt><trkpt lat="43.61646739815876" lon="12.890257008671401"><ele>246.00000000000003</ele><time>2026-04-25T08:58:20Z</time></trkpt><trkpt lat="43.61637575873637" lon="12.890208406471572"><ele>246.00000000000003</ele><time>2026-04-25T08:58:21Z</time></trkpt><trkpt lat="43.61628441023524" lon="12.890170111479614"><ele>246.0</ele><time>2026-04-25T08:58:22Z</time></trkpt><trkpt lat="43.6161981028228" lon="12.890142358983388"><ele>246.0</ele><time>2026-04-25T08:58:23Z</time></trkpt><trkpt lat="43.616108511625676" lon="12.890118388097243"><ele>246.4</ele><time>2026-04-25T08:58:24Z</time></trkpt><trkpt lat="43.616016997273135" lon="12.890103672478851"><ele>246.8</ele><time>2026-04-25T08:58:25Z</time></trkpt><trkpt lat="43.615924568380414" lon="12.890093920543281"><ele>247.20000000000002</ele><time>2026-04-25T08:58:26Z</time></trkpt><trkpt lat="43.615825636326555" lon="12.890098686182094"><ele>247.60000000000002</ele><time>2026-04-25T08:58:27Z</time></trkpt><trkpt lat="43.61572006471961" lon="12.890093602910346"><ele>248.0</ele><time>2026-04-25T08:58:28Z</time></trkpt><trkpt lat="43.61561741397649" lon="12.890117727840146"><ele>248.0</ele><time>2026-04-25T08:58:29Z</time></trkpt><trkpt lat="43.615519532294726" lon="12.89015540866905"><ele>248.0</ele><time>2026-04-25T08:58:30Z</time></trkpt><trkpt lat="43.61542491380872" lon="12.890179392518897"><ele>248.0</ele><time>2026-04-25T08:58:31Z</time></trkpt><trkpt lat="43.61533065895037" lon="12.890190041976817"><ele>248.0</ele><time>2026-04-25T08:58:32Z</time></trkpt><trkpt lat="43.61524200965692" lon="12.890180612949532"><ele>248.0</ele><time>2026-04-25T08:58:33Z</time></trkpt><trkpt lat="43.615152061131276" lon="12.890163073403887"><ele>249.2</ele><time>2026-04-25T08:58:34Z</time></trkpt><trkpt lat="43.61506237645068" lon="12.89014047101392"><ele>250.4</ele><time>2026-04-25T08:58:35Z</time></trkpt><trkpt lat="43.614975823120176" lon="12.89010207042288"><ele>251.59999999999997</ele><time>2026-04-25T08:58:36Z</time></trkpt><trkpt lat="43.61489179304711" lon="12.890056228873004"><ele>252.79999999999998</ele><time>2026-04-25T08:58:37Z</time></trkpt><trkpt lat="43.61481167762252" lon="12.890003189649002"><ele>254.0</ele><time>2026-04-25T08:58:38Z</time></trkpt><trkpt lat="43.61473393947751" lon="12.889939608812856"><ele>256.0</ele><time>2026-04-25T08:58:39Z</time></trkpt><trkpt lat="43.6146547391328" lon="12.88988133276754"><ele>258.0</ele><time>2026-04-25T08:58:40Z</time></trkpt><trkpt lat="43.61458140501041" lon="12.889818424311448"><ele>260.0</ele><time>2026-04-25T08:58:41Z</time></trkpt><trkpt lat="43.61451225595035" lon="12.889765240421479"><ele>262.0</ele><time>2026-04-25T08:58:42Z</time></trkpt><trkpt lat="43.61445111368333" lon="12.889689912106208"><ele>264.0</ele><time>2026-04-25T08:58:43Z</time></trkpt><trkpt lat="43.614371847472064" lon="12.889639005936353"><ele>266.0</ele><time>2026-04-25T08:58:44Z</time></trkpt><trkpt lat="43.61428883602383" lon="12.889592989059594"><ele>266.40000000000003</ele><time>2026-04-25T08:58:45Z</time></trkpt><trkpt lat="43.61420967898089" lon="12.889549564546886"><ele>266.8</ele><time>2026-04-25T08:58:46Z</time></trkpt><trkpt lat="43.61412457530734" lon="12.889513136381654"><ele>267.20000000000005</ele><time>2026-04-25T08:58:47Z</time></trkpt><trkpt lat="43.61403597555694" lon="12.889474983164321"><ele>267.6</ele><time>2026-04-25T08:58:48Z</time></trkpt><trkpt lat="43.613947311076885" lon="12.889439638366142"><ele>268.0</ele><time>2026-04-25T08:58:49Z</time></trkpt><trkpt lat="43.61385503845274" lon="12.889407084406711"><ele>268.0</ele><time>2026-04-25T08:58:50Z</time></trkpt><trkpt lat="43.61376697993436" lon="12.889366096126826"><ele>268.0</ele><time>2026-04-25T08:58:51Z</time></trkpt><trkpt lat="43.61366889458282" lon="12.889334929719071"><ele>268.0</ele><time>2026-04-25T08:58:52Z</time></trkpt><trkpt lat="43.613569371105825" lon="12.889305783972965"><ele>268.0</ele><time>2026-04-25T08:58:53Z</time></trkpt><trkpt lat="43.61346776093743" lon="12.889284692744354"><ele>268.0</ele><time>2026-04-25T08:58:54Z</time></trkpt><trkpt lat="43.613366998588155" lon="12.889281575379403"><ele>269.4</ele><time>2026-04-25T08:58:55Z</time></trkpt><trkpt lat="43.61325996890565" lon="12.889281307414219"><ele>270.8</ele><time>2026-04-25T08:58:56Z</time></trkpt><trkpt lat="43.61314920412027" lon="12.889283145371097"><ele>272.2</ele><time>2026-04-25T08:58:57Z</time></trkpt><trkpt lat="43.61304346311462" lon="12.889324902303334"><ele>273.6</ele><time>2026-04-25T08:58:58Z</time></trkpt><trkpt lat="43.61293031033743" lon="12.889328891272521"><ele>275.0</ele><time>2026-04-25T08:58:59Z</time></trkpt><trkpt lat="43.61282637441297" lon="12.889386101911551"><ele>277.0</ele><time>2026-04-25T08:59:00Z</time></trkpt><trkpt lat="43.61272693393573" lon="12.889436900321302"><ele>279.0</ele><time>2026-04-25T08:59:01Z</time></trkpt><trkpt lat="43.6126250699685" lon="12.889477915027149"><ele>281.0</ele><time>2026-04-25T08:59:02Z</time></trkpt><trkpt lat="43.6125220111954" lon="12.889505101302182"><ele>283.0</ele><time>2026-04-25T08:59:03Z</time></trkpt><trkpt lat="43.61242317815061" lon="12.889533957811778"><ele>285.0</ele><time>2026-04-25T08:59:04Z</time></trkpt><trkpt lat="43.61232565065456" lon="12.88957039985963"><ele>285.0</ele><time>2026-04-25T08:59:05Z</time></trkpt><trkpt lat="43.61222603949497" lon="12.889606491181857"><ele>285.0</ele><time>2026-04-25T08:59:06Z</time></trkpt><trkpt lat="43.612125628944185" lon="12.889637928195393"><ele>285.0</ele><time>2026-04-25T08:59:07Z</time></trkpt><trkpt lat="43.612022291710545" lon="12.889668759990016"><ele>285.0</ele><time>2026-04-25T08:59:08Z</time></trkpt><trkpt lat="43.61191489534451" lon="12.889702948413072"><ele>285.0</ele><time>2026-04-25T08:59:09Z</time></trkpt><trkpt lat="43.61180667942087" lon="12.889723934979815"><ele>286.8</ele><time>2026-04-25T08:59:10Z</time></trkpt><trkpt lat="43.61169606262313" lon="12.889760023449195"><ele>288.6</ele><time>2026-04-25T08:59:10.999Z</time></trkpt><trkpt lat="43.61159217466171" lon="12.889781446896087"><ele>290.4</ele><time>2026-04-25T08:59:11.999Z</time></trkpt><trkpt lat="43.611491357565406" lon="12.8897856045936"><ele>292.2</ele><time>2026-04-25T08:59:12.999Z</time></trkpt><trkpt lat="43.61138115398674" lon="12.889789637938279"><ele>294.0</ele><time>2026-04-25T08:59:13.999Z</time></trkpt><trkpt lat="43.611266952083575" lon="12.889789773540196"><ele>296.8</ele><time>2026-04-25T08:59:14.999Z</time></trkpt><trkpt lat="43.61115439683306" lon="12.889785699263035"><ele>299.59999999999997</ele><time>2026-04-25T08:59:15.999Z</time></trkpt><trkpt lat="43.611047688010366" lon="12.889783394209925"><ele>302.4</ele><time>2026-04-25T08:59:16.999Z</time></trkpt><trkpt lat="43.610940229238764" lon="12.88979285859894"><ele>305.2</ele><time>2026-04-25T08:59:17.999Z</time></trkpt><trkpt lat="43.61083132811582" lon="12.88979996869373"><ele>308.0</ele><time>2026-04-25T08:59:18.999Z</time></trkpt><trkpt lat="43.61072683159624" lon="12.889780737736071"><ele>308.0</ele><time>2026-04-25T08:59:19.999Z</time></trkpt><trkpt lat="43.61062446784944" lon="12.889777561348305"><ele>308.0</ele><time>2026-04-25T08:59:20.999Z</time></trkpt><trkpt lat="43.610526233614614" lon="12.889792941272438"><ele>308.0</ele><time>2026-04-25T08:59:21.999Z</time></trkpt><trkpt lat="43.61043383025801" lon="12.889796177051222"><ele>308.0</ele><time>2026-04-25T08:59:22.999Z</time></trkpt><trkpt lat="43.61034185704771" lon="12.889803724455255"><ele>308.0</ele><time>2026-04-25T08:59:23.999Z</time></trkpt><trkpt lat="43.61024561424554" lon="12.889811052146326"><ele>310.6</ele><time>2026-04-25T08:59:24.999Z</time></trkpt><trkpt lat="43.61014578807155" lon="12.88980887605579"><ele>313.20000000000005</ele><time>2026-04-25T08:59:25.999Z</time></trkpt><trkpt lat="43.610045517136335" lon="12.889802444849957"><ele>315.8</ele><time>2026-04-25T08:59:26.999Z</time></trkpt><trkpt lat="43.60994406104023" lon="12.88979443445103"><ele>318.40000000000003</ele><time>2026-04-25T08:59:27.999Z</time></trkpt><trkpt lat="43.60984207812508" lon="12.8897618309037"><ele>321.0</ele><time>2026-04-25T08:59:28.999Z</time></trkpt><trkpt lat="43.60974489444128" lon="12.889743486825736"><ele>321.0</ele><time>2026-04-25T08:59:29.999Z</time></trkpt><trkpt lat="43.609650607730636" lon="12.889725057996962"><ele>321.0</ele><time>2026-04-25T08:59:30.999Z</time></trkpt><trkpt lat="43.6095585797051" lon="12.889706863651197"><ele>321.0</ele><time>2026-04-25T08:59:31.999Z</time></trkpt><trkpt lat="43.60946618531955" lon="12.889686145405854"><ele>321.0</ele><time>2026-04-25T08:59:32.999Z</time></trkpt><trkpt lat="43.609368285685825" lon="12.889652265623228"><ele>321.0</ele><time>2026-04-25T08:59:34Z</time></trkpt><trkpt lat="43.60927475781026" lon="12.88960950876029"><ele>324.4</ele><time>2026-04-25T08:59:35Z</time></trkpt><trkpt lat="43.60918095003531" lon="12.889566916140845"><ele>327.8</ele><time>2026-04-25T08:59:36Z</time></trkpt><trkpt lat="43.60909452197532" lon="12.889524014226115"><ele>331.2</ele><time>2026-04-25T08:59:37Z</time></trkpt><trkpt lat="43.609011699779565" lon="12.88944324808149"><ele>334.59999999999997</ele><time>2026-04-25T08:59:38Z</time></trkpt><trkpt lat="43.608930644908604" lon="12.88938443388338"><ele>338.0</ele><time>2026-04-25T08:59:39Z</time></trkpt><trkpt lat="43.608855639271" lon="12.889334315784504"><ele>338.0</ele><time>2026-04-25T08:59:40Z</time></trkpt><trkpt lat="43.60878510699632" lon="12.889290182564732"><ele>338.0</ele><time>2026-04-25T08:59:41Z</time></trkpt><trkpt lat="43.60871818507422" lon="12.889240328146482"><ele>338.0</ele><time>2026-04-25T08:59:42Z</time></trkpt><trkpt lat="43.6086463637897" lon="12.889200219811793"><ele>338.0</ele><time>2026-04-25T08:59:43Z</time></trkpt><trkpt lat="43.60857158354405" lon="12.889162336733595"><ele>338.0</ele><time>2026-04-25T08:59:44Z</time></trkpt><trkpt lat="43.608492827192684" lon="12.889133889213516"><ele>338.0</ele><time>2026-04-25T08:59:45Z</time></trkpt><trkpt lat="43.60840869382899" lon="12.889110571914404"><ele>340.0</ele><time>2026-04-25T08:59:46Z</time></trkpt><trkpt lat="43.60833024654224" lon="12.889095928898412"><ele>342.0</ele><time>2026-04-25T08:59:47Z</time></trkpt><trkpt lat="43.608250130836225" lon="12.88909228761808"><ele>344.0</ele><time>2026-04-25T08:59:48Z</time></trkpt><trkpt lat="43.60818181568512" lon="12.889072836144841"><ele>346.0</ele><time>2026-04-25T08:59:49Z</time></trkpt><trkpt lat="43.60810904119261" lon="12.889053665555185"><ele>348.0</ele><time>2026-04-25T08:59:51Z</time></trkpt><trkpt lat="43.60805411229738" lon="12.888983275159756"><ele>350.0</ele><time>2026-04-25T08:59:53Z</time></trkpt><trkpt lat="43.60803673650589" lon="12.888898506619324"><ele>352.0</ele><time>2026-04-25T08:59:54Z</time></trkpt><trkpt lat="43.60803422794749" lon="12.88879293323894"><ele>352.0</ele><time>2026-04-25T08:59:55Z</time></trkpt><trkpt lat="43.60799358285446" lon="12.888681849652256"><ele>352.0</ele><time>2026-04-25T08:59:56Z</time></trkpt><trkpt lat="43.60795768080461" lon="12.88855631039993"><ele>352.0</ele><time>2026-04-25T08:59:57Z</time></trkpt><trkpt lat="43.60791155073412" lon="12.888430942349977"><ele>352.0</ele><time>2026-04-25T08:59:58Z</time></trkpt><trkpt lat="43.607848819472224" lon="12.888313039463583"><ele>352.0</ele><time>2026-04-25T08:59:59Z</time></trkpt><trkpt lat="43.607776806115076" lon="12.888202893057548"><ele>353.20000000000005</ele><time>2026-04-25T09:00:00Z</time></trkpt><trkpt lat="43.60769968773483" lon="12.88809857093599"><ele>354.4</ele><time>2026-04-25T09:00:01Z</time></trkpt><trkpt lat="43.60761606082983" lon="12.888006912619817"><ele>355.6</ele><time>2026-04-25T09:00:02Z</time></trkpt><trkpt lat="43.607533295106634" lon="12.887922586691735"><ele>356.79999999999995</ele><time>2026-04-25T09:00:03Z</time></trkpt><trkpt lat="43.60745289312134" lon="12.887850024962637"><ele>358.0</ele><time>2026-04-25T09:00:04Z</time></trkpt><trkpt lat="43.60736781362963" lon="12.887787668727057"><ele>358.0</ele><time>2026-04-25T09:00:05Z</time></trkpt><trkpt lat="43.60728387684666" lon="12.887735961628973"><ele>358.0</ele><time>2026-04-25T09:00:06Z</time></trkpt><trkpt lat="43.60719552848374" lon="12.887710955598237"><ele>358.0</ele><time>2026-04-25T09:00:07Z</time></trkpt><trkpt lat="43.60709168843293" lon="12.887693351383488"><ele>358.0</ele><time>2026-04-25T09:00:08Z</time></trkpt><trkpt lat="43.60699399132852" lon="12.887691189820965"><ele>358.0</ele><time>2026-04-25T09:00:09Z</time></trkpt><trkpt lat="43.60689857892821" lon="12.887674043857059"><ele>357.59999999999997</ele><time>2026-04-25T09:00:10Z</time></trkpt><trkpt lat="43.60680208677428" lon="12.887666532669627"><ele>357.2</ele><time>2026-04-25T09:00:11Z</time></trkpt><trkpt lat="43.60669623504051" lon="12.887658292909489"><ele>356.8</ele><time>2026-04-25T09:00:12Z</time></trkpt><trkpt lat="43.60658225716098" lon="12.887648934478364"><ele>356.4</ele><time>2026-04-25T09:00:13Z</time></trkpt><trkpt lat="43.6064734598339" lon="12.887641185685178"><ele>356.0</ele><time>2026-04-25T09:00:14Z</time></trkpt><trkpt lat="43.606359573680244" lon="12.887612064064351"><ele>358.5</ele><time>2026-04-25T09:00:15Z</time></trkpt><trkpt lat="43.60623996878036" lon="12.887589889489622"><ele>361.0</ele><time>2026-04-25T09:00:16Z</time></trkpt><trkpt lat="43.606114795540705" lon="12.887580010630034"><ele>363.5</ele><time>2026-04-25T09:00:17Z</time></trkpt><trkpt lat="43.60599719716582" lon="12.887562415619925"><ele>366.0</ele><time>2026-04-25T09:00:18Z</time></trkpt><trkpt lat="43.605879641536916" lon="12.8875087909858"><ele>367.0</ele><time>2026-04-25T09:00:19Z</time></trkpt><trkpt lat="43.60576567159418" lon="12.887460002628483"><ele>368.0</ele><time>2026-04-25T09:00:20Z</time></trkpt><trkpt lat="43.60565485012829" lon="12.887375789989337"><ele>369.0</ele><time>2026-04-25T09:00:21Z</time></trkpt><trkpt lat="43.60555856327867" lon="12.887250603870926"><ele>370.0</ele><time>2026-04-25T09:00:22Z</time></trkpt><trkpt lat="43.60547504439234" lon="12.887094605648038"><ele>370.0</ele><time>2026-04-25T09:00:23Z</time></trkpt><trkpt lat="43.605400152803576" lon="12.886938795066305"><ele>370.0</ele><time>2026-04-25T09:00:24Z</time></trkpt><trkpt lat="43.605318243986325" lon="12.886789138615633"><ele>370.0</ele><time>2026-04-25T09:00:25Z</time></trkpt><trkpt lat="43.605221273540636" lon="12.886633713848678"><ele>370.0</ele><time>2026-04-25T09:00:26Z</time></trkpt><trkpt lat="43.605111463267626" lon="12.886471030493766"><ele>372.0</ele><time>2026-04-25T09:00:27Z</time></trkpt><trkpt lat="43.60499133421413" lon="12.886314561198292"><ele>374.0</ele><time>2026-04-25T09:00:28Z</time></trkpt><trkpt lat="43.60486428443979" lon="12.886154789418049"><ele>376.0</ele><time>2026-04-25T09:00:29Z</time></trkpt><trkpt lat="43.60473299506831" lon="12.885974400008728"><ele>376.0</ele><time>2026-04-25T09:00:30Z</time></trkpt><trkpt lat="43.60459067458108" lon="12.885773467421997"><ele>376.0</ele><time>2026-04-25T09:00:31Z</time></trkpt><trkpt lat="43.60443551078463" lon="12.885585992321953"><ele>376.0</ele><time>2026-04-25T09:00:32Z</time></trkpt><trkpt lat="43.604285626287655" lon="12.885347140041176"><ele>376.0</ele><time>2026-04-25T09:00:33Z</time></trkpt><trkpt lat="43.6041399409093" lon="12.885135031522996"><ele>376.0</ele><time>2026-04-25T09:00:34Z</time></trkpt><trkpt lat="43.60401454231967" lon="12.884949040250955"><ele>376.0</ele><time>2026-04-25T09:00:35Z</time></trkpt><trkpt lat="43.60390233849859" lon="12.884791300389812"><ele>377.20000000000005</ele><time>2026-04-25T09:00:36Z</time></trkpt><trkpt lat="43.60380673160951" lon="12.884662029080848"><ele>378.40000000000003</ele><time>2026-04-25T09:00:37Z</time></trkpt><trkpt lat="43.60372399476402" lon="12.884566320928958"><ele>379.6</ele><time>2026-04-25T09:00:38Z</time></trkpt><trkpt lat="43.60363713694776" lon="12.88449666014672"><ele>380.8</ele><time>2026-04-25T09:00:39Z</time></trkpt><trkpt lat="43.60355231759434" lon="12.884471505230565"><ele>382.0</ele><time>2026-04-25T09:00:40Z</time></trkpt><trkpt lat="43.60346213275942" lon="12.88440547735724"><ele>382.40000000000003</ele><time>2026-04-25T09:00:41Z</time></trkpt><trkpt lat="43.6033654339784" lon="12.884345899997644"><ele>382.8</ele><time>2026-04-25T09:00:42Z</time></trkpt><trkpt lat="43.603290756409116" lon="12.884277579160017"><ele>383.2</ele><time>2026-04-25T09:00:43Z</time></trkpt><trkpt lat="43.60321169122852" lon="12.884189582014812"><ele>383.6</ele><time>2026-04-25T09:00:44Z</time></trkpt><trkpt lat="43.60313829906339" lon="12.88411599896642"><ele>384.0</ele><time>2026-04-25T09:00:45Z</time></trkpt><trkpt lat="43.60307135409236" lon="12.884046796634243"><ele>385.5</ele><time>2026-04-25T09:00:46Z</time></trkpt><trkpt lat="43.60299566984945" lon="12.883986927579253"><ele>387.0</ele><time>2026-04-25T09:00:47Z</time></trkpt><trkpt lat="43.60291660784538" lon="12.88393910046419"><ele>388.5</ele><time>2026-04-25T09:00:48Z</time></trkpt><trkpt lat="43.60282496145502" lon="12.883905359756762"><ele>390.0</ele><time>2026-04-25T09:00:49Z</time></trkpt><trkpt lat="43.60273301800372" lon="12.883907577805934"><ele>391.5</ele><time>2026-04-25T09:00:50Z</time></trkpt><trkpt lat="43.602651253731345" lon="12.883909911682174"><ele>393.0</ele><time>2026-04-25T09:00:51Z</time></trkpt><trkpt lat="43.60256201973113" lon="12.883959836932124"><ele>393.0</ele><time>2026-04-25T09:00:52Z</time></trkpt><trkpt lat="43.60245642046485" lon="12.883994802898467"><ele>393.0</ele><time>2026-04-25T09:00:53Z</time></trkpt><trkpt lat="43.602351651802365" lon="12.88404571575745"><ele>393.0</ele><time>2026-04-25T09:00:54Z</time></trkpt><trkpt lat="43.602246898920015" lon="12.884094382816237"><ele>393.0</ele><time>2026-04-25T09:00:55Z</time></trkpt><trkpt lat="43.60213594480795" lon="12.884139101717318"><ele>393.0</ele><time>2026-04-25T09:00:56Z</time></trkpt><trkpt lat="43.60202628580758" lon="12.884195932261761"><ele>394.5</ele><time>2026-04-25T09:00:57Z</time></trkpt><trkpt lat="43.601915684206396" lon="12.884256330361074"><ele>396.0</ele><time>2026-04-25T09:00:58Z</time></trkpt><trkpt lat="43.60179686828456" lon="12.884337504633834"><ele>397.5</ele><time>2026-04-25T09:00:59Z</time></trkpt><trkpt lat="43.60168428152549" lon="12.884445670314024"><ele>399.0</ele><time>2026-04-25T09:01:00Z</time></trkpt><trkpt lat="43.601576358898555" lon="12.884558801319534"><ele>398.0</ele><time>2026-04-25T09:01:01Z</time></trkpt><trkpt lat="43.60146626171897" lon="12.884654276366948"><ele>397.0</ele><time>2026-04-25T09:01:02Z</time></trkpt><trkpt lat="43.60135069954542" lon="12.884739598918847"><ele>396.0</ele><time>2026-04-25T09:01:03Z</time></trkpt><trkpt lat="43.60122598163354" lon="12.884826850166185"><ele>395.0</ele><time>2026-04-25T09:01:04Z</time></trkpt><trkpt lat="43.601099737584754" lon="12.884911889786299"><ele>395.0</ele><time>2026-04-25T09:01:05Z</time></trkpt><trkpt lat="43.600972717908135" lon="12.884997239645935"><ele>395.0</ele><time>2026-04-25T09:01:06Z</time></trkpt><trkpt lat="43.600853143859" lon="12.885085970934846"><ele>395.0</ele><time>2026-04-25T09:01:07Z</time></trkpt><trkpt lat="43.600736759611245" lon="12.885162375284793"><ele>395.0</ele><time>2026-04-25T09:01:08Z</time></trkpt><trkpt lat="43.60062195987876" lon="12.885249135972956"><ele>393.0</ele><time>2026-04-25T09:01:09Z</time></trkpt><trkpt lat="43.600502267599055" lon="12.885350426954577"><ele>391.0</ele><time>2026-04-25T09:01:10Z</time></trkpt><trkpt lat="43.60038560295564" lon="12.88543845300702"><ele>389.0</ele><time>2026-04-25T09:01:11Z</time></trkpt><trkpt lat="43.600264315284996" lon="12.885525101280187"><ele>387.0</ele><time>2026-04-25T09:01:12Z</time></trkpt><trkpt lat="43.600134053512804" lon="12.885597653707789"><ele>387.0</ele><time>2026-04-25T09:01:13Z</time></trkpt><trkpt lat="43.60002378394344" lon="12.885690442206307"><ele>387.0</ele><time>2026-04-25T09:01:14Z</time></trkpt><trkpt lat="43.59990987379204" lon="12.88577825269546"><ele>387.0</ele><time>2026-04-25T09:01:15Z</time></trkpt><trkpt lat="43.59980066765475" lon="12.885858807080572"><ele>387.0</ele><time>2026-04-25T09:01:16Z</time></trkpt><trkpt lat="43.599694428782115" lon="12.885925726633845"><ele>386.0</ele><time>2026-04-25T09:01:17Z</time></trkpt><trkpt lat="43.599599104304595" lon="12.885997231010354"><ele>385.0</ele><time>2026-04-25T09:01:18Z</time></trkpt><trkpt lat="43.599524357035115" lon="12.886057426206332"><ele>384.0</ele><time>2026-04-25T09:01:19Z</time></trkpt><trkpt lat="43.59945906884274" lon="12.886103527058621"><ele>383.0</ele><time>2026-04-25T09:01:20Z</time></trkpt><trkpt lat="43.599364527527015" lon="12.886175542410628"><ele>382.0</ele><time>2026-04-25T09:01:22Z</time></trkpt><trkpt lat="43.5992836134815" lon="12.886208275568146"><ele>382.0</ele><time>2026-04-25T09:01:24Z</time></trkpt><trkpt lat="43.59915712040017" lon="12.886302993736644"><ele>382.0</ele><time>2026-04-25T09:02:18Z</time></trkpt><trkpt lat="43.599066289783394" lon="12.886357862878398"><ele>382.0</ele><time>2026-04-25T09:02:20Z</time></trkpt><trkpt lat="43.59895485725419" lon="12.886433816630413"><ele>382.0</ele><time>2026-04-25T09:02:22Z</time></trkpt><trkpt lat="43.5988901544633" lon="12.886474479517084"><ele>382.0</ele><time>2026-04-25T09:02:23Z</time></trkpt><trkpt lat="43.59881920123337" lon="12.886515332686681"><ele>382.0</ele><time>2026-04-25T09:02:24Z</time></trkpt><trkpt lat="43.598746388243455" lon="12.886558279295862"><ele>382.0</ele><time>2026-04-25T09:02:25Z</time></trkpt><trkpt lat="43.59867665772989" lon="12.886574646953127"><ele>382.0</ele><time>2026-04-25T09:02:26Z</time></trkpt><trkpt lat="43.59861205565833" lon="12.886630743399657"><ele>382.0</ele><time>2026-04-25T09:02:27Z</time></trkpt><trkpt lat="43.59853972790683" lon="12.886661009539727"><ele>382.0</ele><time>2026-04-25T09:02:28Z</time></trkpt><trkpt lat="43.59846151843739" lon="12.886721161976874"><ele>382.0</ele><time>2026-04-25T09:02:29Z</time></trkpt><trkpt lat="43.5983778633852" lon="12.886762799288855"><ele>380.0</ele><time>2026-04-25T09:02:30Z</time></trkpt><trkpt lat="43.59829904695297" lon="12.886801543175956"><ele>378.0</ele><time>2026-04-25T09:02:31Z</time></trkpt><trkpt lat="43.59822039667398" lon="12.886840856604977"><ele>376.0</ele><time>2026-04-25T09:02:32Z</time></trkpt><trkpt lat="43.59814274417021" lon="12.886873560321217"><ele>374.0</ele><time>2026-04-25T09:02:33Z</time></trkpt><trkpt lat="43.5980646689088" lon="12.886904874987245"><ele>372.0</ele><time>2026-04-25T09:02:34Z</time></trkpt><trkpt lat="43.59798827431582" lon="12.886927929454796"><ele>370.0</ele><time>2026-04-25T09:02:35Z</time></trkpt><trkpt lat="43.597910739062044" lon="12.886939735475936"><ele>371.3333333333333</ele><time>2026-04-25T09:02:36Z</time></trkpt><trkpt lat="43.597835013515336" lon="12.886941045315801"><ele>372.66666666666663</ele><time>2026-04-25T09:02:37Z</time></trkpt><trkpt lat="43.59776058028006" lon="12.886931081653174"><ele>374.0</ele><time>2026-04-25T09:02:38Z</time></trkpt><trkpt lat="43.59768778322888" lon="12.886904940412908"><ele>375.3333333333333</ele><time>2026-04-25T09:02:39Z</time></trkpt><trkpt lat="43.59761527935331" lon="12.886890155561202"><ele>376.6666666666667</ele><time>2026-04-25T09:02:40Z</time></trkpt><trkpt lat="43.597540848181055" lon="12.886882246625149"><ele>378.0</ele><time>2026-04-25T09:02:41Z</time></trkpt><trkpt lat="43.5974643821623" lon="12.886895127038752"><ele>378.0</ele><time>2026-04-25T09:02:42Z</time></trkpt><trkpt lat="43.59738896334442" lon="12.886916763294092"><ele>378.0</ele><time>2026-04-25T09:02:43Z</time></trkpt><trkpt lat="43.5973150121439" lon="12.886939600781822"><ele>378.0</ele><time>2026-04-25T09:02:44Z</time></trkpt><trkpt lat="43.59724951159439" lon="12.886960310481658"><ele>378.0</ele><time>2026-04-25T09:02:45Z</time></trkpt><trkpt lat="43.5971874237461" lon="12.887003677177644"><ele>378.0</ele><time>2026-04-25T09:02:46Z</time></trkpt><trkpt lat="43.59713013294291" lon="12.88704395296018"><ele>378.0</ele><time>2026-04-25T09:02:47Z</time></trkpt><trkpt lat="43.59707635567734" lon="12.887100348272334"><ele>378.0</ele><time>2026-04-25T09:02:48Z</time></trkpt><trkpt lat="43.597025693586744" lon="12.887170370613589"><ele>375.8333333333333</ele><time>2026-04-25T09:02:49Z</time></trkpt><trkpt lat="43.596976368823874" lon="12.88724523122864"><ele>373.6666666666667</ele><time>2026-04-25T09:02:50Z</time></trkpt><trkpt lat="43.59692317181791" lon="12.887311880226568"><ele>371.5</ele><time>2026-04-25T09:02:51Z</time></trkpt><trkpt lat="43.5968698652942" lon="12.887385371697404"><ele>369.33333333333337</ele><time>2026-04-25T09:02:52Z</time></trkpt><trkpt lat="43.59680916056731" lon="12.887452278347649"><ele>367.1666666666667</ele><time>2026-04-25T09:02:53Z</time></trkpt><trkpt lat="43.59674555079648" lon="12.887537564334938"><ele>365.0</ele><time>2026-04-25T09:02:54Z</time></trkpt><trkpt lat="43.59667175519117" lon="12.887618174961542"><ele>365.0</ele><time>2026-04-25T09:02:55Z</time></trkpt><trkpt lat="43.59659273120654" lon="12.887696476162803"><ele>365.0</ele><time>2026-04-25T09:02:56Z</time></trkpt><trkpt lat="43.596519226378234" lon="12.887776362100471"><ele>365.0</ele><time>2026-04-25T09:02:57Z</time></trkpt><trkpt lat="43.596442444283696" lon="12.887843953114393"><ele>365.0</ele><time>2026-04-25T09:02:58Z</time></trkpt><trkpt lat="43.59637464853203" lon="12.887917973913703"><ele>365.0</ele><time>2026-04-25T09:02:59Z</time></trkpt><trkpt lat="43.59632253095265" lon="12.888002992297931"><ele>365.0</ele><time>2026-04-25T09:03:00Z</time></trkpt><trkpt lat="43.59627284182405" lon="12.888097514951363"><ele>365.0</ele><time>2026-04-25T09:03:01Z</time></trkpt><trkpt lat="43.596234126469774" lon="12.888202311885024"><ele>365.0</ele><time>2026-04-25T09:03:02Z</time></trkpt><trkpt lat="43.59620545473226" lon="12.888314011276465"><ele>365.0</ele><time>2026-04-25T09:03:03Z</time></trkpt><trkpt lat="43.596182498904504" lon="12.888431427432458"><ele>365.0</ele><time>2026-04-25T09:03:04Z</time></trkpt><trkpt lat="43.59616045129242" lon="12.88854227495333"><ele>365.0</ele><time>2026-04-25T09:03:05Z</time></trkpt><trkpt lat="43.596117351039304" lon="12.888634474078282"><ele>365.0</ele><time>2026-04-25T09:03:06Z</time></trkpt><trkpt lat="43.59605356266444" lon="12.888696527864926"><ele>363.1666666666667</ele><time>2026-04-25T09:03:07Z</time></trkpt><trkpt lat="43.595976517411515" lon="12.888733876543679"><ele>361.33333333333337</ele><time>2026-04-25T09:03:08Z</time></trkpt><trkpt lat="43.59589728570623" lon="12.888712473835723"><ele>359.5</ele><time>2026-04-25T09:03:09Z</time></trkpt><trkpt lat="43.595818999390715" lon="12.888708289747946"><ele>357.6666666666667</ele><time>2026-04-25T09:03:10Z</time></trkpt><trkpt lat="43.59574436995377" lon="12.888666233943967"><ele>355.8333333333333</ele><time>2026-04-25T09:03:11Z</time></trkpt><trkpt lat="43.595669872985724" lon="12.888662214701078"><ele>354.0</ele><time>2026-04-25T09:03:12Z</time></trkpt><trkpt lat="43.59559909570692" lon="12.888695587155667"><ele>354.0</ele><time>2026-04-25T09:03:13Z</time></trkpt><trkpt lat="43.59556216455874" lon="12.888790344011246"><ele>354.0</ele><time>2026-04-25T09:03:14Z</time></trkpt><trkpt lat="43.59552721022699" lon="12.888872492164174"><ele>354.0</ele><time>2026-04-25T09:03:15Z</time></trkpt><trkpt lat="43.5954851704676" lon="12.888949991944271"><ele>354.0</ele><time>2026-04-25T09:03:16Z</time></trkpt><trkpt lat="43.595425806130876" lon="12.889006224380422"><ele>354.0</ele><time>2026-04-25T09:03:17Z</time></trkpt><trkpt lat="43.595381852815414" lon="12.88908370263445"><ele>354.0</ele><time>2026-04-25T09:03:18Z</time></trkpt><trkpt lat="43.59531257520124" lon="12.889123669816264"><ele>354.0</ele><time>2026-04-25T09:03:19Z</time></trkpt><trkpt lat="43.595212007386145" lon="12.88906762569683"><ele>352.6666666666667</ele><time>2026-04-25T09:03:20Z</time></trkpt><trkpt lat="43.595130147662665" lon="12.889037759515952"><ele>351.3333333333333</ele><time>2026-04-25T09:03:21Z</time></trkpt><trkpt lat="43.59504645439997" lon="12.889006770460739"><ele>350.0</ele><time>2026-04-25T09:03:22Z</time></trkpt><trkpt lat="43.59496742651251" lon="12.888976903455006"><ele>348.66666666666663</ele><time>2026-04-25T09:03:23Z</time></trkpt><trkpt lat="43.59488902282628" lon="12.88894684498728"><ele>347.3333333333333</ele><time>2026-04-25T09:03:24Z</time></trkpt><trkpt lat="43.59481642788084" lon="12.888927331501765"><ele>346.0</ele><time>2026-04-25T09:03:25Z</time></trkpt><trkpt lat="43.594743834493194" lon="12.888928710770255"><ele>346.0</ele><time>2026-04-25T09:03:26Z</time></trkpt><trkpt lat="43.59467379937477" lon="12.88894752432364"><ele>346.0</ele><time>2026-04-25T09:03:27Z</time></trkpt><trkpt lat="43.59461398353914" lon="12.888990771453926"><ele>346.0</ele><time>2026-04-25T09:03:28Z</time></trkpt><trkpt lat="43.594585939240346" lon="12.889087281071541"><ele>346.0</ele><time>2026-04-25T09:03:29Z</time></trkpt><trkpt lat="43.59456572731877" lon="12.889177284116576"><ele>346.0</ele><time>2026-04-25T09:03:30Z</time></trkpt><trkpt lat="43.59454126027368" lon="12.88927391625564"><ele>346.0</ele><time>2026-04-25T09:03:31Z</time></trkpt><trkpt lat="43.59453980733313" lon="12.889383506537058"><ele>346.0</ele><time>2026-04-25T09:03:32Z</time></trkpt><trkpt lat="43.59454280460343" lon="12.889498093421238"><ele>346.16666666666663</ele><time>2026-04-25T09:03:33Z</time></trkpt><trkpt lat="43.5945416559718" lon="12.889605144191632"><ele>346.3333333333333</ele><time>2026-04-25T09:03:34Z</time></trkpt><trkpt lat="43.594542261883774" lon="12.88971569285187"><ele>346.5</ele><time>2026-04-25T09:03:35Z</time></trkpt><trkpt lat="43.594528713842514" lon="12.889818266119782"><ele>346.6666666666667</ele><time>2026-04-25T09:03:36Z</time></trkpt><trkpt lat="43.594524992570626" lon="12.889914976711166"><ele>346.83333333333337</ele><time>2026-04-25T09:03:37Z</time></trkpt><trkpt lat="43.59450489342469" lon="12.890061170910391"><ele>347.0</ele><time>2026-04-25T09:03:39Z</time></trkpt><trkpt lat="43.594488287733824" lon="12.890163964132608"><ele>344.33333333333337</ele><time>2026-04-25T09:03:41Z</time></trkpt><trkpt lat="43.59447088768605" lon="12.89028140603915"><ele>341.6666666666667</ele><time>2026-04-25T09:03:43Z</time></trkpt><trkpt lat="43.594486660777605" lon="12.890399125634836"><ele>339.0</ele><time>2026-04-25T09:03:45Z</time></trkpt><trkpt lat="43.5945049304621" lon="12.890490229387325"><ele>336.3333333333333</ele><time>2026-04-25T09:03:47Z</time></trkpt><trkpt lat="43.594524687331266" lon="12.890578886516847"><ele>333.66666666666663</ele><time>2026-04-25T09:03:49Z</time></trkpt><trkpt lat="43.594502927759635" lon="12.890679984475268"><ele>331.0</ele><time>2026-04-25T09:03:51Z</time></trkpt><trkpt lat="43.59461739778139" lon="12.890710580599329"><ele>331.0</ele><time>2026-04-25T09:03:52Z</time></trkpt><trkpt lat="43.59469958406013" lon="12.890809650570105"><ele>331.0</ele><time>2026-04-25T09:03:54Z</time></trkpt><trkpt lat="43.59481607012025" lon="12.890877088095946"><ele>331.0</ele><time>2026-04-25T09:03:56Z</time></trkpt><trkpt lat="43.59489092533151" lon="12.890906845653582"><ele>331.0</ele><time>2026-04-25T09:03:57Z</time></trkpt><trkpt lat="43.59496039398191" lon="12.890942195337143"><ele>331.0</ele><time>2026-04-25T09:03:58Z</time></trkpt><trkpt lat="43.595031856157156" lon="12.890972477903114"><ele>328.16666666666663</ele><time>2026-04-25T09:03:59Z</time></trkpt><trkpt lat="43.59510576079981" lon="12.891008857982433"><ele>325.3333333333333</ele><time>2026-04-25T09:04:00Z</time></trkpt><trkpt lat="43.59518293181164" lon="12.891040907280933"><ele>322.5</ele><time>2026-04-25T09:04:01Z</time></trkpt><trkpt lat="43.59525705897556" lon="12.891070769330026"><ele>319.6666666666667</ele><time>2026-04-25T09:04:02Z</time></trkpt><trkpt lat="43.59533042808318" lon="12.891098339979747"><ele>316.83333333333337</ele><time>2026-04-25T09:04:03Z</time></trkpt><trkpt lat="43.595409486493516" lon="12.891133587410192"><ele>314.0</ele><time>2026-04-25T09:04:04Z</time></trkpt><trkpt lat="43.595488380846284" lon="12.891170598466312"><ele>313.99999999999994</ele><time>2026-04-25T09:04:05Z</time></trkpt><trkpt lat="43.59556568418633" lon="12.891224007266311"><ele>314.0</ele><time>2026-04-25T09:04:06Z</time></trkpt><trkpt lat="43.595634941592245" lon="12.891280516791431"><ele>314.0</ele><time>2026-04-25T09:04:07Z</time></trkpt><trkpt lat="43.59570082858225" lon="12.891327395520701"><ele>314.0</ele><time>2026-04-25T09:04:08Z</time></trkpt><trkpt lat="43.59576352754021" lon="12.891371134398357"><ele>314.0</ele><time>2026-04-25T09:04:09Z</time></trkpt><trkpt lat="43.595828519755045" lon="12.891409022791747"><ele>313.99999999999994</ele><time>2026-04-25T09:04:10Z</time></trkpt><trkpt lat="43.59588974970509" lon="12.891445528525612"><ele>314.0</ele><time>2026-04-25T09:04:11Z</time></trkpt><trkpt lat="43.59597538252098" lon="12.891522767614317"><ele>314.0</ele><time>2026-04-25T09:04:13Z</time></trkpt><trkpt lat="43.59601671213654" lon="12.891639838242375"><ele>314.0</ele><time>2026-04-25T09:04:15Z</time></trkpt><trkpt lat="43.59597032844148" lon="12.891781497565312"><ele>314.0</ele><time>2026-04-25T09:04:17Z</time></trkpt><trkpt lat="43.59592549848629" lon="12.891946263108755"><ele>314.0</ele><time>2026-04-25T09:04:19Z</time></trkpt><trkpt lat="43.595920821085386" lon="12.892046634581282"><ele>314.0</ele><time>2026-04-25T09:04:20Z</time></trkpt><trkpt lat="43.595924664772866" lon="12.892154064745636"><ele>310.4</ele><time>2026-04-25T09:04:21Z</time></trkpt><trkpt lat="43.595931371448934" lon="12.892264100489085"><ele>306.79999999999995</ele><time>2026-04-25T09:04:22Z</time></trkpt><trkpt lat="43.59593432498571" lon="12.89238051695619"><ele>303.20000000000005</ele><time>2026-04-25T09:04:23Z</time></trkpt><trkpt lat="43.595936705355776" lon="12.892514411505376"><ele>299.6</ele><time>2026-04-25T09:04:24Z</time></trkpt><trkpt lat="43.59594161484567" lon="12.892653151399763"><ele>296.0</ele><time>2026-04-25T09:04:25Z</time></trkpt><trkpt lat="43.59596698055736" lon="12.892782190794186"><ele>293.40000000000003</ele><time>2026-04-25T09:04:26Z</time></trkpt><trkpt lat="43.59597363686346" lon="12.89291038083043"><ele>290.8</ele><time>2026-04-25T09:04:27Z</time></trkpt><trkpt lat="43.59598915628901" lon="12.893038820946481"><ele>288.20000000000005</ele><time>2026-04-25T09:04:28Z</time></trkpt><trkpt lat="43.59599543247741" lon="12.893165145057546"><ele>285.6</ele><time>2026-04-25T09:04:29Z</time></trkpt><trkpt lat="43.59600040326726" lon="12.89328730442059"><ele>283.0</ele><time>2026-04-25T09:04:30Z</time></trkpt><trkpt lat="43.596001343133686" lon="12.893406026652062"><ele>281.16666666666663</ele><time>2026-04-25T09:04:31Z</time></trkpt><trkpt lat="43.59600318441087" lon="12.89352223208845"><ele>279.3333333333333</ele><time>2026-04-25T09:04:32Z</time></trkpt><trkpt lat="43.59600421576182" lon="12.893622847454372"><ele>277.5</ele><time>2026-04-25T09:04:33Z</time></trkpt><trkpt lat="43.59600424913322" lon="12.893714679614058"><ele>275.6666666666667</ele><time>2026-04-25T09:04:34Z</time></trkpt><trkpt lat="43.59602798222194" lon="12.893863979272075"><ele>273.83333333333337</ele><time>2026-04-25T09:04:36Z</time></trkpt><trkpt lat="43.59610894307748" lon="12.893958664739605"><ele>272.0</ele><time>2026-04-25T09:04:38Z</time></trkpt><trkpt lat="43.59622559235176" lon="12.893972172110166"><ele>272.0</ele><time>2026-04-25T09:04:40Z</time></trkpt><trkpt lat="43.596344216361786" lon="12.893991791515862"><ele>272.0</ele><time>2026-04-25T09:04:42Z</time></trkpt><trkpt lat="43.5964389409974" lon="12.894008845725855"><ele>272.0</ele><time>2026-04-25T09:04:44Z</time></trkpt><trkpt lat="43.59652547691122" lon="12.89405314764078"><ele>272.0</ele><time>2026-04-25T09:04:46Z</time></trkpt><trkpt lat="43.59653723549696" lon="12.894199497713407"><ele>272.0</ele><time>2026-04-25T09:04:48Z</time></trkpt><trkpt lat="43.59652232950759" lon="12.894377212995957"><ele>270.0</ele><time>2026-04-25T09:04:50Z</time></trkpt><trkpt lat="43.59652441393424" lon="12.894477231035976"><ele>268.0</ele><time>2026-04-25T09:04:51Z</time></trkpt><trkpt lat="43.59651454153379" lon="12.89464550513392"><ele>266.0</ele><time>2026-04-25T09:04:53Z</time></trkpt><trkpt lat="43.59648405237342" lon="12.894782128050393"><ele>264.0</ele><time>2026-04-25T09:04:55Z</time></trkpt><trkpt lat="43.59643803175725" lon="12.894902746508958"><ele>262.0</ele><time>2026-04-25T09:04:57Z</time></trkpt><trkpt lat="43.59635082321186" lon="12.89498529189956"><ele>262.0</ele><time>2026-04-25T09:04:59Z</time></trkpt><trkpt lat="43.59627591908935" lon="12.895005194592866"><ele>262.0</ele><time>2026-04-25T09:05:00Z</time></trkpt><trkpt lat="43.59620974253851" lon="12.895008843669126"><ele>262.0</ele><time>2026-04-25T09:05:01Z</time></trkpt><trkpt lat="43.59613245490145" lon="12.895001922727177"><ele>262.0</ele><time>2026-04-25T09:05:02Z</time></trkpt><trkpt lat="43.59604946531713" lon="12.895002557151244"><ele>262.0</ele><time>2026-04-25T09:05:03Z</time></trkpt><trkpt lat="43.59595555034446" lon="12.894995396763822"><ele>262.0</ele><time>2026-04-25T09:05:04Z</time></trkpt><trkpt lat="43.5958390763966" lon="12.895000723713643"><ele>261.66666666666663</ele><time>2026-04-25T09:05:05Z</time></trkpt><trkpt lat="43.59573539674978" lon="12.895014762521646"><ele>261.3333333333333</ele><time>2026-04-25T09:05:06Z</time></trkpt><trkpt lat="43.59564674962635" lon="12.895026053571183"><ele>261.0</ele><time>2026-04-25T09:05:07Z</time></trkpt><trkpt lat="43.59556907171586" lon="12.895025475900807"><ele>260.6666666666667</ele><time>2026-04-25T09:05:08Z</time></trkpt><trkpt lat="43.59550130813892" lon="12.895027308149551"><ele>260.33333333333337</ele><time>2026-04-25T09:05:09Z</time></trkpt><trkpt lat="43.5954357519792" lon="12.895022661981368"><ele>260.0</ele><time>2026-04-25T09:05:10Z</time></trkpt><trkpt lat="43.59531967932563" lon="12.895036028165656"><ele>257.4</ele><time>2026-04-25T09:05:12Z</time></trkpt><trkpt lat="43.59522404968607" lon="12.895156018013202"><ele>254.8</ele><time>2026-04-25T09:05:14Z</time></trkpt><trkpt lat="43.595209290190034" lon="12.895267721525988"><ele>252.2</ele><time>2026-04-25T09:05:15Z</time></trkpt><trkpt lat="43.59520031535595" lon="12.895381733348346"><ele>249.6</ele><time>2026-04-25T09:05:16Z</time></trkpt><trkpt lat="43.595193939988434" lon="12.895499168531492"><ele>247.0</ele><time>2026-04-25T09:05:17Z</time></trkpt><trkpt lat="43.59518271009266" lon="12.895604066548339"><ele>247.0</ele><time>2026-04-25T09:05:18Z</time></trkpt><trkpt lat="43.59517013219842" lon="12.895695719950911"><ele>247.0</ele><time>2026-04-25T09:05:19Z</time></trkpt><trkpt lat="43.59512161333081" lon="12.895826745556922"><ele>247.0</ele><time>2026-04-25T09:05:21Z</time></trkpt><trkpt lat="43.59503364979988" lon="12.895841574610381"><ele>247.0</ele><time>2026-04-25T09:05:22Z</time></trkpt><trkpt lat="43.594929432607884" lon="12.89591919286031"><ele>247.0</ele><time>2026-04-25T09:05:23Z</time></trkpt><trkpt lat="43.59483099838931" lon="12.895980587756643"><ele>245.2</ele><time>2026-04-25T09:05:24Z</time></trkpt><trkpt lat="43.59472632166056" lon="12.896039131563873"><ele>243.39999999999998</ele><time>2026-04-25T09:05:25Z</time></trkpt><trkpt lat="43.59463570951487" lon="12.896099241326516"><ele>241.60000000000002</ele><time>2026-04-25T09:05:26Z</time></trkpt><trkpt lat="43.5945449080052" lon="12.896157753945266"><ele>239.8</ele><time>2026-04-25T09:05:27Z</time></trkpt><trkpt lat="43.59445132854109" lon="12.896204805704105"><ele>238.0</ele><time>2026-04-25T09:05:28Z</time></trkpt><trkpt lat="43.594356573712645" lon="12.89624025102726"><ele>236.60000000000002</ele><time>2026-04-25T09:05:29Z</time></trkpt><trkpt lat="43.594257943418256" lon="12.896256410871063"><ele>235.20000000000002</ele><time>2026-04-25T09:05:30Z</time></trkpt><trkpt lat="43.59415866277231" lon="12.896261954898584"><ele>233.8</ele><time>2026-04-25T09:05:31Z</time></trkpt><trkpt lat="43.59406003427405" lon="12.896265518941037"><ele>232.4</ele><time>2026-04-25T09:05:32Z</time></trkpt><trkpt lat="43.59396377705333" lon="12.89626448219125"><ele>231.0</ele><time>2026-04-25T09:05:33Z</time></trkpt><trkpt lat="43.59386807786283" lon="12.896257415755647"><ele>231.0</ele><time>2026-04-25T09:05:34Z</time></trkpt><trkpt lat="43.59378193557032" lon="12.896288456171263"><ele>231.00000000000003</ele><time>2026-04-25T09:05:35Z</time></trkpt><trkpt lat="43.593694186482296" lon="12.896336315412476"><ele>231.00000000000003</ele><time>2026-04-25T09:05:36Z</time></trkpt><trkpt lat="43.593614056679606" lon="12.896394800828702"><ele>231.0</ele><time>2026-04-25T09:05:37Z</time></trkpt><trkpt lat="43.59353369028281" lon="12.896451580521413"><ele>231.0</ele><time>2026-04-25T09:05:38Z</time></trkpt><trkpt lat="43.59345896089149" lon="12.896511163397877"><ele>230.16666666666666</ele><time>2026-04-25T09:05:39Z</time></trkpt><trkpt lat="43.593404404271006" lon="12.89657841590349"><ele>229.33333333333331</ele><time>2026-04-25T09:05:40Z</time></trkpt><trkpt lat="43.593360601478224" lon="12.896662458323762"><ele>228.5</ele><time>2026-04-25T09:05:41Z</time></trkpt><trkpt lat="43.5933419987329" lon="12.896769803500028"><ele>227.66666666666666</ele><time>2026-04-25T09:05:42Z</time></trkpt><trkpt lat="43.59333353510527" lon="12.896892298142689"><ele>226.83333333333331</ele><time>2026-04-25T09:05:43Z</time></trkpt><trkpt lat="43.59332306210263" lon="12.897014963876488"><ele>226.0</ele><time>2026-04-25T09:05:44Z</time></trkpt><trkpt lat="43.5933110527377" lon="12.897145457263427"><ele>225.0</ele><time>2026-04-25T09:05:45Z</time></trkpt><trkpt lat="43.593294866517134" lon="12.897274323232635"><ele>224.00000000000003</ele><time>2026-04-25T09:05:46Z</time></trkpt><trkpt lat="43.593270907454624" lon="12.897398150448316"><ele>223.00000000000003</ele><time>2026-04-25T09:05:47Z</time></trkpt><trkpt lat="43.59324667944203" lon="12.89752677616096"><ele>222.0</ele><time>2026-04-25T09:05:48Z</time></trkpt><trkpt lat="43.59321544016515" lon="12.897647490047934"><ele>221.0</ele><time>2026-04-25T09:05:49Z</time></trkpt><trkpt lat="43.593182998086945" lon="12.897762647231195"><ele>220.33333333333334</ele><time>2026-04-25T09:05:50Z</time></trkpt><trkpt lat="43.59313910550578" lon="12.897865129677774"><ele>219.66666666666669</ele><time>2026-04-25T09:05:51Z</time></trkpt><trkpt lat="43.593078633516974" lon="12.897951509349557"><ele>219.0</ele><time>2026-04-25T09:05:52Z</time></trkpt><trkpt lat="43.59300943344445" lon="12.898026276431889"><ele>218.33333333333331</ele><time>2026-04-25T09:05:53Z</time></trkpt><trkpt lat="43.59293856866909" lon="12.898102903471614"><ele>217.66666666666666</ele><time>2026-04-25T09:05:54Z</time></trkpt><trkpt lat="43.59287010226285" lon="12.898180572626993"><ele>217.0</ele><time>2026-04-25T09:05:55Z</time></trkpt><trkpt lat="43.59281341923697" lon="12.898268807854627"><ele>216.16666666666666</ele><time>2026-04-25T09:05:56Z</time></trkpt><trkpt lat="43.59275657164077" lon="12.898354825172873"><ele>215.33333333333331</ele><time>2026-04-25T09:05:57Z</time></trkpt><trkpt lat="43.59270658258682" lon="12.898449569793508"><ele>214.5</ele><time>2026-04-25T09:05:58Z</time></trkpt><trkpt lat="43.59266130448427" lon="12.898543076953642"><ele>213.66666666666669</ele><time>2026-04-25T09:05:59Z</time></trkpt><trkpt lat="43.59261513990333" lon="12.898635672956317"><ele>212.83333333333334</ele><time>2026-04-25T09:06:00Z</time></trkpt><trkpt lat="43.59257309668252" lon="12.898725969834102"><ele>212.0</ele><time>2026-04-25T09:06:01Z</time></trkpt><trkpt lat="43.59253360539981" lon="12.898815762058048"><ele>211.50000000000003</ele><time>2026-04-25T09:06:02Z</time></trkpt><trkpt lat="43.59249396171314" lon="12.898889756882081"><ele>211.0</ele><time>2026-04-25T09:06:03Z</time></trkpt><trkpt lat="43.592406988719326" lon="12.899014224451008"><ele>210.5</ele><time>2026-04-25T09:06:05Z</time></trkpt><trkpt lat="43.59234900152045" lon="12.899111812771364"><ele>210.0</ele><time>2026-04-25T09:06:07Z</time></trkpt><trkpt lat="43.5922988487415" lon="12.899210517334128"><ele>209.50000000000003</ele><time>2026-04-25T09:06:09Z</time></trkpt><trkpt lat="43.59224649964945" lon="12.899268707420667"><ele>209.0</ele><time>2026-04-25T09:06:12Z</time></trkpt><trkpt lat="43.59217910049968" lon="12.899163517171598"><ele>209.0</ele><time>2026-04-25T09:06:15Z</time></trkpt><trkpt lat="43.59215846541914" lon="12.899078963008034"><ele>209.0</ele><time>2026-04-25T09:06:16Z</time></trkpt><trkpt lat="43.59211679757053" lon="12.89897528518375"><ele>209.0</ele><time>2026-04-25T09:06:17Z</time></trkpt><trkpt lat="43.59206557204494" lon="12.898837893896626"><ele>209.0</ele><time>2026-04-25T09:06:18Z</time></trkpt><trkpt lat="43.59200758239277" lon="12.898685393965573"><ele>209.0</ele><time>2026-04-25T09:06:19Z</time></trkpt><trkpt lat="43.59194276658867" lon="12.89852449359311"><ele>208.75</ele><time>2026-04-25T09:06:20Z</time></trkpt><trkpt lat="43.591875142402216" lon="12.89835556147837"><ele>208.5</ele><time>2026-04-25T09:06:21Z</time></trkpt><trkpt lat="43.591800638937556" lon="12.898178880854916"><ele>208.25</ele><time>2026-04-25T09:06:22Z</time></trkpt><trkpt lat="43.59172600060252" lon="12.897998157647837"><ele>208.0</ele><time>2026-04-25T09:06:23Z</time></trkpt><trkpt lat="43.5916583944972" lon="12.897817525202838"><ele>208.0</ele><time>2026-04-25T09:06:24Z</time></trkpt><trkpt lat="43.5915781177226" lon="12.897637599241152"><ele>208.0</ele><time>2026-04-25T09:06:25Z</time></trkpt><trkpt lat="43.591502997451975" lon="12.897462582631254"><ele>208.0</ele><time>2026-04-25T09:06:26Z</time></trkpt><trkpt lat="43.59142730311348" lon="12.897282382514334"><ele>208.0</ele><time>2026-04-25T09:06:27Z</time></trkpt><trkpt lat="43.591346578159474" lon="12.897097312914411"><ele>208.0</ele><time>2026-04-25T09:06:28Z</time></trkpt><trkpt lat="43.59126525506091" lon="12.896913340074134"><ele>208.0</ele><time>2026-04-25T09:06:29Z</time></trkpt><trkpt lat="43.5911871853878" lon="12.89673105890549"><ele>207.66666666666666</ele><time>2026-04-25T09:06:30Z</time></trkpt><trkpt lat="43.591106433269914" lon="12.896545319432567"><ele>207.33333333333331</ele><time>2026-04-25T09:06:31Z</time></trkpt><trkpt lat="43.59102781098631" lon="12.8963601070843"><ele>207.0</ele><time>2026-04-25T09:06:32Z</time></trkpt><trkpt lat="43.59094718523469" lon="12.896162482621225"><ele>207.0</ele><time>2026-04-25T09:06:32.999Z</time></trkpt><trkpt lat="43.59086136033598" lon="12.895961654479036"><ele>207.0</ele><time>2026-04-25T09:06:33.999Z</time></trkpt><trkpt lat="43.5907781416614" lon="12.895757658214299"><ele>207.0</ele><time>2026-04-25T09:06:34.999Z</time></trkpt><trkpt lat="43.59069399325269" lon="12.895555323387587"><ele>207.66666666666669</ele><time>2026-04-25T09:06:35.999Z</time></trkpt><trkpt lat="43.59061213155463" lon="12.89535673759089"><ele>208.33333333333334</ele><time>2026-04-25T09:06:36.999Z</time></trkpt><trkpt lat="43.59052855185151" lon="12.8951629109329"><ele>209.0</ele><time>2026-04-25T09:06:37.999Z</time></trkpt><trkpt lat="43.59044977611614" lon="12.894972670544917"><ele>209.66666666666669</ele><time>2026-04-25T09:06:38.999Z</time></trkpt><trkpt lat="43.59037116965359" lon="12.894781851618255"><ele>210.33333333333331</ele><time>2026-04-25T09:06:39.999Z</time></trkpt><trkpt lat="43.59029025430008" lon="12.894595516173911"><ele>211.0</ele><time>2026-04-25T09:06:40.999Z</time></trkpt><trkpt lat="43.59020866688126" lon="12.894412762712053"><ele>209.33333333333331</ele><time>2026-04-25T09:06:41.999Z</time></trkpt><trkpt lat="43.590127148100585" lon="12.894230494474389"><ele>207.66666666666669</ele><time>2026-04-25T09:06:42.999Z</time></trkpt><trkpt lat="43.59004816300423" lon="12.894045805874718"><ele>206.0</ele><time>2026-04-25T09:06:43.999Z</time></trkpt><trkpt lat="43.58997474079504" lon="12.893862967942583"><ele>206.0</ele><time>2026-04-25T09:06:44.999Z</time></trkpt><trkpt lat="43.5898992687845" lon="12.893679509028289"><ele>206.0</ele><time>2026-04-25T09:06:45.999Z</time></trkpt><trkpt lat="43.58982619705191" lon="12.893490099604314"><ele>206.0</ele><time>2026-04-25T09:06:46.999Z</time></trkpt><trkpt lat="43.5897526620164" lon="12.893301184210493"><ele>207.0</ele><time>2026-04-25T09:06:47.999Z</time></trkpt><trkpt lat="43.58967662312276" lon="12.893114013182108"><ele>208.0</ele><time>2026-04-25T09:06:48.999Z</time></trkpt><trkpt lat="43.58959732747844" lon="12.89292532061114"><ele>209.0</ele><time>2026-04-25T09:06:49.999Z</time></trkpt><trkpt lat="43.58952085533595" lon="12.892738278094791"><ele>207.66666666666669</ele><time>2026-04-25T09:06:50.999Z</time></trkpt><trkpt lat="43.589452815111244" lon="12.892540079134271"><ele>206.33333333333331</ele><time>2026-04-25T09:06:51.999Z</time></trkpt><trkpt lat="43.58937675252116" lon="12.89235049574856"><ele>205.0</ele><time>2026-04-25T09:06:52.999Z</time></trkpt><trkpt lat="43.58929624362416" lon="12.89216144688551"><ele>205.0</ele><time>2026-04-25T09:06:53.999Z</time></trkpt><trkpt lat="43.58921743180022" lon="12.891973233687432"><ele>205.0</ele><time>2026-04-25T09:06:54.999Z</time></trkpt><trkpt lat="43.58914055163999" lon="12.891783963584563"><ele>205.0</ele><time>2026-04-25T09:06:55.999Z</time></trkpt><trkpt lat="43.58907423732689" lon="12.891594707504025"><ele>205.0</ele><time>2026-04-25T09:06:56.999Z</time></trkpt><trkpt lat="43.58901316450796" lon="12.891413228770709"><ele>205.0</ele><time>2026-04-25T09:06:57.999Z</time></trkpt><trkpt lat="43.58896462254318" lon="12.89122965896821"><ele>205.0</ele><time>2026-04-25T09:06:58.999Z</time></trkpt><trkpt lat="43.58893199797216" lon="12.891051162340377"><ele>205.0</ele><time>2026-04-25T09:06:59.999Z</time></trkpt><trkpt lat="43.5889098756675" lon="12.890878050789375"><ele>205.0</ele><time>2026-04-25T09:07:00.999Z</time></trkpt><trkpt lat="43.58889822235077" lon="12.890709191089927"><ele>205.0</ele><time>2026-04-25T09:07:01.999Z</time></trkpt><trkpt lat="43.58889782217748" lon="12.890555392712551"><ele>205.0</ele><time>2026-04-25T09:07:02.999Z</time></trkpt><trkpt lat="43.58890036864602" lon="12.890403309860913"><ele>205.0</ele><time>2026-04-25T09:07:03.999Z</time></trkpt><trkpt lat="43.58890941192774" lon="12.890260610698201"><ele>205.0</ele><time>2026-04-25T09:07:04.999Z</time></trkpt><trkpt lat="43.58892686436698" lon="12.890124918552278"><ele>206.0</ele><time>2026-04-25T09:07:05.999Z</time></trkpt><trkpt lat="43.58893920750114" lon="12.889998160061314"><ele>207.0</ele><time>2026-04-25T09:07:06.999Z</time></trkpt><trkpt lat="43.58895245847502" lon="12.889893552299228"><ele>208.0</ele><time>2026-04-25T09:07:07.999Z</time></trkpt><trkpt lat="43.588980176216864" lon="12.889755802418215"><ele>209.0</ele><time>2026-04-25T09:07:09.999Z</time></trkpt><trkpt lat="43.5888253659935" lon="12.889714605235834"><ele>210.0</ele><time>2026-04-25T09:07:13.999Z</time></trkpt><trkpt lat="43.5887494642594" lon="12.889743478152855"><ele>210.0</ele><time>2026-04-25T09:07:15.999Z</time></trkpt><trkpt lat="43.58868675578368" lon="12.889763445845007"><ele>210.0</ele><time>2026-04-25T09:07:17.999Z</time></trkpt><trkpt lat="43.58861512117889" lon="12.889762936425656"><ele>210.0</ele><time>2026-04-25T09:07:19.999Z</time></trkpt><trkpt lat="43.58853846426159" lon="12.889800044315889"><ele>210.0</ele><time>2026-04-25T09:07:21.999Z</time></trkpt><trkpt lat="43.58846855499765" lon="12.889813799291488"><ele>210.0</ele><time>2026-04-25T09:07:23.999Z</time></trkpt><trkpt lat="43.588394102599516" lon="12.889819569360343"><ele>210.0</ele><time>2026-04-25T09:07:25.999Z</time></trkpt><trkpt lat="43.588316597654604" lon="12.889804152078305"><ele>210.0</ele><time>2026-04-25T09:07:27.999Z</time></trkpt><trkpt lat="43.58824895731761" lon="12.889758545302968"><ele>209.4</ele><time>2026-04-25T09:07:29.999Z</time></trkpt><trkpt lat="43.58818960332404" lon="12.88970698545349"><ele>208.8</ele><time>2026-04-25T09:07:31.999Z</time></trkpt><trkpt lat="43.588126526923844" lon="12.88967056040488"><ele>208.2</ele><time>2026-04-25T09:07:33.999Z</time></trkpt><trkpt lat="43.58803675505397" lon="12.889687938350763"><ele>207.6</ele><time>2026-04-25T09:07:35.999Z</time></trkpt><trkpt lat="43.58794038921312" lon="12.88977433676857"><ele>207.0</ele><time>2026-04-25T09:07:37.999Z</time></trkpt><trkpt lat="43.58783140022912" lon="12.889855329371052"><ele>206.66666666666666</ele><time>2026-04-25T09:07:39.999Z</time></trkpt><trkpt lat="43.58776121799986" lon="12.889852246380698"><ele>206.33333333333331</ele><time>2026-04-25T09:07:40.999Z</time></trkpt><trkpt lat="43.587688329132526" lon="12.889857995670967"><ele>206.0</ele><time>2026-04-25T09:07:41.999Z</time></trkpt><trkpt lat="43.5875997069377" lon="12.889882705011669"><ele>205.66666666666666</ele><time>2026-04-25T09:07:42.999Z</time></trkpt><trkpt lat="43.587501392763166" lon="12.88988933212993"><ele>205.33333333333331</ele><time>2026-04-25T09:07:43.999Z</time></trkpt><trkpt lat="43.587402393484524" lon="12.88989315861525"><ele>205.0</ele><time>2026-04-25T09:07:44.999Z</time></trkpt><trkpt lat="43.587307377164905" lon="12.889913233708505"><ele>205.0</ele><time>2026-04-25T09:07:45.999Z</time></trkpt><trkpt lat="43.587212478846915" lon="12.889930318236418"><ele>205.0</ele><time>2026-04-25T09:07:46.999Z</time></trkpt><trkpt lat="43.587111121995584" lon="12.889944257459637"><ele>205.0</ele><time>2026-04-25T09:07:47.999Z</time></trkpt><trkpt lat="43.5870164534599" lon="12.889956452421417"><ele>205.0</ele><time>2026-04-25T09:07:48.999Z</time></trkpt><trkpt lat="43.58692162937557" lon="12.88996390537276"><ele>205.0</ele><time>2026-04-25T09:07:49.999Z</time></trkpt><trkpt lat="43.5868321282518" lon="12.889974891924437"><ele>204.66666666666666</ele><time>2026-04-25T09:07:50.999Z</time></trkpt><trkpt lat="43.586745159428524" lon="12.88998342918466"><ele>204.33333333333331</ele><time>2026-04-25T09:07:51.999Z</time></trkpt><trkpt lat="43.58665866616762" lon="12.889995523339588"><ele>204.0</ele><time>2026-04-25T09:07:52.999Z</time></trkpt><trkpt lat="43.58656719518448" lon="12.890005958888624"><ele>203.66666666666669</ele><time>2026-04-25T09:07:53.999Z</time></trkpt><trkpt lat="43.58648135432401" lon="12.890023289980716"><ele>203.33333333333334</ele><time>2026-04-25T09:07:54.999Z</time></trkpt><trkpt lat="43.58640418035853" lon="12.890042435140357"><ele>203.0</ele><time>2026-04-25T09:07:55.999Z</time></trkpt><trkpt lat="43.58633168862398" lon="12.890056494598316"><ele>203.00000000000003</ele><time>2026-04-25T09:07:56.999Z</time></trkpt><trkpt lat="43.58624978497889" lon="12.890070048988703"><ele>203.0</ele><time>2026-04-25T09:07:58.999Z</time></trkpt><trkpt lat="43.58615606471367" lon="12.890077503567907"><ele>203.0</ele><time>2026-04-25T09:08:01.999Z</time></trkpt><trkpt lat="43.58610507918755" lon="12.889969599815316"><ele>203.0</ele><time>2026-04-25T09:08:03.999Z</time></trkpt><trkpt lat="43.58603341771357" lon="12.889929491888205"><ele>203.00000000000003</ele><time>2026-04-25T09:08:05.999Z</time></trkpt><trkpt lat="43.58596718990705" lon="12.889906122611418"><ele>203.0</ele><time>2026-04-25T09:08:07.999Z</time></trkpt><trkpt lat="43.58588326279404" lon="12.889837767589396"><ele>202.50000000000003</ele><time>2026-04-25T09:08:10Z</time></trkpt><trkpt lat="43.585818586748886" lon="12.889837090552513"><ele>202.0</ele><time>2026-04-25T09:08:11Z</time></trkpt><trkpt lat="43.58576068802063" lon="12.889791188121976"><ele>201.5</ele><time>2026-04-25T09:08:12Z</time></trkpt><trkpt lat="43.58564382648875" lon="12.889742889016585"><ele>201.0</ele><time>2026-04-25T09:08:14Z</time></trkpt><trkpt lat="43.585578983684506" lon="12.889716089348331"><ele>200.50000000000003</ele><time>2026-04-25T09:08:15Z</time></trkpt><trkpt lat="43.585510364673844" lon="12.889687728947028"><ele>200.0</ele><time>2026-04-25T09:08:16Z</time></trkpt><trkpt lat="43.58544827982484" lon="12.889662069173088"><ele>199.0</ele><time>2026-04-25T09:08:17Z</time></trkpt><trkpt lat="43.58532958410503" lon="12.889613011984087"><ele>198.0</ele><time>2026-04-25T09:08:19Z</time></trkpt><trkpt lat="43.585225433609295" lon="12.889592931265899"><ele>197.0</ele><time>2026-04-25T09:08:21Z</time></trkpt><trkpt lat="43.58513629842526" lon="12.88955241338236"><ele>196.0</ele><time>2026-04-25T09:08:23Z</time></trkpt><trkpt lat="43.58504837761853" lon="12.889490761133342"><ele>195.0</ele><time>2026-04-25T09:08:25Z</time></trkpt><trkpt lat="43.584982948949744" lon="12.889451040588588"><ele>195.0</ele><time>2026-04-25T09:08:29Z</time></trkpt><trkpt lat="43.58491260641237" lon="12.889417434384063"><ele>195.0</ele><time>2026-04-25T09:08:33Z</time></trkpt><trkpt lat="43.584836057121905" lon="12.889380525416188"><ele>195.0</ele><time>2026-04-25T09:08:37Z</time></trkpt><trkpt lat="43.584683224617" lon="12.889709023401297"><ele>195.0</ele><time>2026-04-25T09:08:38Z</time></trkpt><trkpt lat="43.58461742836586" lon="12.889751824382728"><ele>195.0</ele><time>2026-04-25T09:08:40Z</time></trkpt><trkpt lat="43.58454561020338" lon="12.88977521086944"><ele>195.0</ele><time>2026-04-25T09:08:51Z</time></trkpt><trkpt lat="43.58448994493343" lon="12.889822167260723"><ele>195.0</ele><time>2026-04-25T09:08:55Z</time></trkpt><trkpt lat="43.58442467954392" lon="12.889837497758421"><ele>195.0</ele><time>2026-04-25T09:08:58Z</time></trkpt><trkpt lat="43.584358371399816" lon="12.88985807374553"><ele>195.0</ele><time>2026-04-25T09:09:01Z</time></trkpt><trkpt lat="43.58429149263446" lon="12.88989428039543"><ele>195.0</ele><time>2026-04-25T09:09:04Z</time></trkpt><trkpt lat="43.58422772407785" lon="12.889918285527884"><ele>195.0</ele><time>2026-04-25T09:09:07Z</time></trkpt><trkpt lat="43.58415836503367" lon="12.889938476873677"><ele>195.16666666666666</ele><time>2026-04-25T09:09:10Z</time></trkpt><trkpt lat="43.58408640900213" lon="12.889938474256551"><ele>195.33333333333331</ele><time>2026-04-25T09:09:14Z</time></trkpt><trkpt lat="43.58400958994198" lon="12.889988186036216"><ele>195.5</ele><time>2026-04-25T09:09:18Z</time></trkpt><trkpt lat="43.58394271833355" lon="12.890027695815839"><ele>195.66666666666666</ele><time>2026-04-25T09:09:22Z</time></trkpt><trkpt lat="43.58387021532917" lon="12.889984103405336"><ele>195.83333333333331</ele><time>2026-04-25T09:09:26Z</time></trkpt><trkpt lat="43.58382019554765" lon="12.88989720749685"><ele>196.0</ele><time>2026-04-25T09:09:29Z</time></trkpt><trkpt lat="43.58375540396682" lon="12.889873517960318"><ele>195.99999999999997</ele><time>2026-04-25T09:09:45Z</time></trkpt><trkpt lat="43.58379816844974" lon="12.889953361005364"><ele>196.0</ele><time>2026-04-25T09:10:45Z</time></trkpt><trkpt lat="43.58385038134496" lon="12.890017307469094"><ele>196.0</ele><time>2026-04-25T09:10:48Z</time></trkpt><trkpt lat="43.58391535090888" lon="12.890078190834606"><ele>196.0</ele><time>2026-04-25T09:10:51Z</time></trkpt><trkpt lat="43.583998323127126" lon="12.890052732044682"><ele>195.99999999999997</ele><time>2026-04-25T09:10:55Z</time></trkpt><trkpt lat="43.58406735734348" lon="12.889995002175997"><ele>196.0</ele><time>2026-04-25T09:10:58Z</time></trkpt><trkpt lat="43.584146908196765" lon="12.889976395020309"><ele>195.99999999999997</ele><time>2026-04-25T09:11:01Z</time></trkpt><trkpt lat="43.584219112543416" lon="12.889940379524827"><ele>196.0</ele><time>2026-04-25T09:11:04Z</time></trkpt><trkpt lat="43.58429518222141" lon="12.88989286517501"><ele>196.0</ele><time>2026-04-25T09:11:30Z</time></trkpt><trkpt lat="43.58439539833919" lon="12.889863695287545"><ele>196.0</ele><time>2026-04-25T09:11:33Z</time></trkpt><trkpt lat="43.584470837280115" lon="12.889849209463149"><ele>195.99999999999997</ele><time>2026-04-25T09:11:35Z</time></trkpt><trkpt lat="43.58454293576608" lon="12.889824697546102"><ele>196.0</ele><time>2026-04-25T09:11:37Z</time></trkpt><trkpt lat="43.58461148272988" lon="12.88978000694723"><ele>195.8</ele><time>2026-04-25T09:11:39Z</time></trkpt><trkpt lat="43.584689750391014" lon="12.889714647408907"><ele>195.60000000000002</ele><time>2026-04-25T09:11:41Z</time></trkpt><trkpt lat="43.5847714031497" lon="12.88963584203164"><ele>195.4</ele><time>2026-04-25T09:11:43Z</time></trkpt><trkpt lat="43.58485633244976" lon="12.889572876712098"><ele>195.2</ele><time>2026-04-25T09:11:45Z</time></trkpt><trkpt lat="43.584957228482985" lon="12.889532947190508"><ele>195.0</ele><time>2026-04-25T09:11:47Z</time></trkpt><trkpt lat="43.58503496112617" lon="12.889538868839018"><ele>195.0</ele><time>2026-04-25T09:11:49Z</time></trkpt><trkpt lat="43.58514258761048" lon="12.889592355989295"><ele>195.0</ele><time>2026-04-25T09:11:51Z</time></trkpt><trkpt lat="43.58527104236404" lon="12.889637390082786"><ele>195.0</ele><time>2026-04-25T09:11:52Z</time></trkpt><trkpt lat="43.58535900623922" lon="12.889666546370625"><ele>195.0</ele><time>2026-04-25T09:11:53Z</time></trkpt><trkpt lat="43.585445846354546" lon="12.889699065868152"><ele>195.0</ele><time>2026-04-25T09:11:54Z</time></trkpt><trkpt lat="43.58553900512379" lon="12.889727867763524"><ele>195.83333333333334</ele><time>2026-04-25T09:11:55Z</time></trkpt><trkpt lat="43.58562860271968" lon="12.889765840495025"><ele>196.66666666666669</ele><time>2026-04-25T09:11:56Z</time></trkpt><trkpt lat="43.585721726963655" lon="12.889801767194411"><ele>197.5</ele><time>2026-04-25T09:11:57Z</time></trkpt><trkpt lat="43.585797836034466" lon="12.889834126462969"><ele>198.33333333333334</ele><time>2026-04-25T09:11:58Z</time></trkpt><trkpt lat="43.585863507890096" lon="12.889881519210098"><ele>199.16666666666669</ele><time>2026-04-25T09:11:59Z</time></trkpt><trkpt lat="43.585952642745816" lon="12.889933742210946"><ele>200.0</ele><time>2026-04-25T09:12:01Z</time></trkpt><trkpt lat="43.586022731134065" lon="12.88998617213668"><ele>200.0</ele><time>2026-04-25T09:12:03Z</time></trkpt><trkpt lat="43.58610698027583" lon="12.890043756180637"><ele>200.0</ele><time>2026-04-25T09:12:05Z</time></trkpt><trkpt lat="43.58621635089687" lon="12.8900813360807"><ele>200.0</ele><time>2026-04-25T09:12:07Z</time></trkpt><trkpt lat="43.586297499803514" lon="12.890126753360494"><ele>200.0</ele><time>2026-04-25T09:12:09Z</time></trkpt><trkpt lat="43.58637801922035" lon="12.890079425041373"><ele>200.0</ele><time>2026-04-25T09:12:10Z</time></trkpt><trkpt lat="43.58649338788111" lon="12.89006321297537"><ele>200.42857142857144</ele><time>2026-04-25T09:12:12Z</time></trkpt><trkpt lat="43.58655615004353" lon="12.890054393396511"><ele>200.85714285714286</ele><time>2026-04-25T09:12:13Z</time></trkpt><trkpt lat="43.58662367513515" lon="12.890045454062049"><ele>201.28571428571428</ele><time>2026-04-25T09:12:14Z</time></trkpt><trkpt lat="43.586693023997626" lon="12.890036485867926"><ele>201.71428571428572</ele><time>2026-04-25T09:12:15Z</time></trkpt><trkpt lat="43.586762924242635" lon="12.890027446367526"><ele>202.14285714285714</ele><time>2026-04-25T09:12:16Z</time></trkpt><trkpt lat="43.58683315570077" lon="12.890018364036314"><ele>202.57142857142858</ele><time>2026-04-25T09:12:17Z</time></trkpt><trkpt lat="43.586906449502344" lon="12.890006906924082"><ele>203.0</ele><time>2026-04-25T09:12:18Z</time></trkpt><trkpt lat="43.586976619189976" lon="12.889973336457869"><ele>203.33333333333334</ele><time>2026-04-25T09:12:19Z</time></trkpt><trkpt lat="43.58704879560357" lon="12.88996336646756"><ele>203.66666666666669</ele><time>2026-04-25T09:12:20Z</time></trkpt><trkpt lat="43.58712892146957" lon="12.889950807613712"><ele>204.0</ele><time>2026-04-25T09:12:21Z</time></trkpt><trkpt lat="43.58720054104381" lon="12.889943158899204"><ele>204.33333333333331</ele><time>2026-04-25T09:12:22Z</time></trkpt><trkpt lat="43.587275813949546" lon="12.889937077807971"><ele>204.66666666666666</ele><time>2026-04-25T09:12:23Z</time></trkpt><trkpt lat="43.587352195873336" lon="12.889925762301413"><ele>205.0</ele><time>2026-04-25T09:12:24Z</time></trkpt><trkpt lat="43.58743338451396" lon="12.8899205688056"><ele>204.99999999999997</ele><time>2026-04-25T09:12:25Z</time></trkpt><trkpt lat="43.58751990727632" lon="12.889910904107184"><ele>205.0</ele><time>2026-04-25T09:12:26Z</time></trkpt><trkpt lat="43.58760325824472" lon="12.889904218060392"><ele>205.0</ele><time>2026-04-25T09:12:27Z</time></trkpt><trkpt lat="43.58768588465263" lon="12.889901649530184"><ele>205.0</ele><time>2026-04-25T09:12:28Z</time></trkpt><trkpt lat="43.58776706661541" lon="12.889891466252577"><ele>204.99999999999997</ele><time>2026-04-25T09:12:29Z</time></trkpt><trkpt lat="43.58784038026485" lon="12.889875245733355"><ele>205.0</ele><time>2026-04-25T09:12:30Z</time></trkpt><trkpt lat="43.5879079353295" lon="12.889836020308488"><ele>205.4</ele><time>2026-04-25T09:12:31Z</time></trkpt><trkpt lat="43.58796835260057" lon="12.889793663186014"><ele>205.8</ele><time>2026-04-25T09:12:32Z</time></trkpt><trkpt lat="43.58802825870229" lon="12.889739498177322"><ele>206.2</ele><time>2026-04-25T09:12:33Z</time></trkpt><trkpt lat="43.58815533275896" lon="12.889723657539056"><ele>206.6</ele><time>2026-04-25T09:12:35Z</time></trkpt><trkpt lat="43.58826799734361" lon="12.88980968822618"><ele>207.0</ele><time>2026-04-25T09:12:37Z</time></trkpt><trkpt lat="43.588329689485406" lon="12.889836043869977"><ele>207.0</ele><time>2026-04-25T09:12:38Z</time></trkpt><trkpt lat="43.58841727825823" lon="12.889822799951604"><ele>207.0</ele><time>2026-04-25T09:12:39Z</time></trkpt><trkpt lat="43.588484265228935" lon="12.889820471300217"><ele>207.0</ele><time>2026-04-25T09:12:40Z</time></trkpt><trkpt lat="43.58855312943174" lon="12.889808843610556"><ele>207.0</ele><time>2026-04-25T09:12:41Z</time></trkpt><trkpt lat="43.58867671963607" lon="12.889787614653262"><ele>207.0</ele><time>2026-04-25T09:12:43Z</time></trkpt><trkpt lat="43.58878568472226" lon="12.889770015827184"><ele>207.6</ele><time>2026-04-25T09:12:45Z</time></trkpt><trkpt lat="43.58887065617378" lon="12.889749126305318"><ele>208.2</ele><time>2026-04-25T09:12:47Z</time></trkpt><trkpt lat="43.58893662033196" lon="12.88976259806353"><ele>208.8</ele><time>2026-04-25T09:12:54Z</time></trkpt><trkpt lat="43.58902907991129" lon="12.88973575858953"><ele>209.4</ele><time>2026-04-25T09:12:57Z</time></trkpt><trkpt lat="43.589042617349534" lon="12.889553687215553"><ele>210.0</ele><time>2026-04-25T09:12:58Z</time></trkpt><trkpt lat="43.58906695419345" lon="12.88941095963639"><ele>210.75</ele><time>2026-04-25T09:12:59Z</time></trkpt><trkpt lat="43.58910370433831" lon="12.88925008093282"><ele>211.5</ele><time>2026-04-25T09:13:00Z</time></trkpt><trkpt lat="43.58914007086364" lon="12.889079943540747"><ele>212.25</ele><time>2026-04-25T09:13:01Z</time></trkpt><trkpt lat="43.58918419664807" lon="12.888881485387074"><ele>213.0</ele><time>2026-04-25T09:13:02Z</time></trkpt><trkpt lat="43.589232872820496" lon="12.888670350839371"><ele>213.0</ele><time>2026-04-25T09:13:03Z</time></trkpt><trkpt lat="43.58926547098623" lon="12.888451714056288"><ele>213.0</ele><time>2026-04-25T09:13:04Z</time></trkpt><trkpt lat="43.58928134149114" lon="12.888217479453663"><ele>213.0</ele><time>2026-04-25T09:13:05Z</time></trkpt><trkpt lat="43.5892912875352" lon="12.887959066481478"><ele>213.0</ele><time>2026-04-25T09:13:06Z</time></trkpt><trkpt lat="43.58930103246518" lon="12.887724511637137"><ele>213.0</ele><time>2026-04-25T09:13:07Z</time></trkpt><trkpt lat="43.589322707134556" lon="12.887494155258741"><ele>213.0</ele><time>2026-04-25T09:13:08Z</time></trkpt><trkpt lat="43.58936452754662" lon="12.887263959299185"><ele>213.0</ele><time>2026-04-25T09:13:09Z</time></trkpt><trkpt lat="43.58942592216685" lon="12.88703770765823"><ele>213.0</ele><time>2026-04-25T09:13:10Z</time></trkpt><trkpt lat="43.589484778631935" lon="12.886817318020615"><ele>213.0</ele><time>2026-04-25T09:13:11Z</time></trkpt><trkpt lat="43.58953192811795" lon="12.886601349386995"><ele>214.25</ele><time>2026-04-25T09:13:12Z</time></trkpt><trkpt lat="43.589561887177545" lon="12.886386334186456"><ele>215.5</ele><time>2026-04-25T09:13:13Z</time></trkpt><trkpt lat="43.58958232617495" lon="12.8861858905328"><ele>216.75</ele><time>2026-04-25T09:13:14Z</time></trkpt><trkpt lat="43.58959369814044" lon="12.885994482525371"><ele>218.0</ele><time>2026-04-25T09:13:15Z</time></trkpt><trkpt lat="43.58960424365543" lon="12.885821627292112"><ele>218.60000000000002</ele><time>2026-04-25T09:13:16Z</time></trkpt><trkpt lat="43.589616652225565" lon="12.885656470059603"><ele>219.20000000000002</ele><time>2026-04-25T09:13:17Z</time></trkpt><trkpt lat="43.5896261453424" lon="12.885519982884116"><ele>219.8</ele><time>2026-04-25T09:13:18Z</time></trkpt><trkpt lat="43.58963204035033" lon="12.885395282886622"><ele>220.4</ele><time>2026-04-25T09:13:19Z</time></trkpt><trkpt lat="43.58963960366542" lon="12.885287277946185"><ele>221.0</ele><time>2026-04-25T09:13:20Z</time></trkpt><trkpt lat="43.5896613172018" lon="12.885152930054115"><ele>221.0</ele><time>2026-04-25T09:13:22Z</time></trkpt><trkpt lat="43.58967017634829" lon="12.885040932250174"><ele>221.00000000000003</ele><time>2026-04-25T09:13:50Z</time></trkpt><trkpt lat="43.58961868388983" lon="12.884902186359747"><ele>221.00000000000003</ele><time>2026-04-25T09:13:52Z</time></trkpt><trkpt lat="43.58955171591863" lon="12.884764699707617"><ele>221.0</ele><time>2026-04-25T09:13:53Z</time></trkpt><trkpt lat="43.58950764043849" lon="12.884614075461519"><ele>221.0</ele><time>2026-04-25T09:13:54Z</time></trkpt><trkpt lat="43.5894527761785" lon="12.884425962542466"><ele>219.33333333333334</ele><time>2026-04-25T09:13:55Z</time></trkpt><trkpt lat="43.58938602765774" lon="12.884217352641876"><ele>217.66666666666669</ele><time>2026-04-25T09:13:56Z</time></trkpt><trkpt lat="43.589314035056525" lon="12.883981945176641"><ele>216.0</ele><time>2026-04-25T09:13:57Z</time></trkpt><trkpt lat="43.589247573899726" lon="12.883741114515665"><ele>216.0</ele><time>2026-04-25T09:13:58Z</time></trkpt><trkpt lat="43.58917282065679" lon="12.883496500904984"><ele>216.0</ele><time>2026-04-25T09:13:59Z</time></trkpt><trkpt lat="43.58910273630568" lon="12.883246816732017"><ele>216.0</ele><time>2026-04-25T09:14:00Z</time></trkpt><trkpt lat="43.58905095668238" lon="12.88300226574166"><ele>216.33333333333331</ele><time>2026-04-25T09:14:01Z</time></trkpt><trkpt lat="43.58900518447584" lon="12.882736187305834"><ele>216.66666666666666</ele><time>2026-04-25T09:14:02Z</time></trkpt><trkpt lat="43.588955858569456" lon="12.882451717739867"><ele>217.0</ele><time>2026-04-25T09:14:03Z</time></trkpt><trkpt lat="43.588905218371295" lon="12.882157663345517"><ele>217.0</ele><time>2026-04-25T09:14:04Z</time></trkpt><trkpt lat="43.58885472715696" lon="12.881857325474174"><ele>217.0</ele><time>2026-04-25T09:14:05Z</time></trkpt><trkpt lat="43.58880103532919" lon="12.881562659354483"><ele>217.0</ele><time>2026-04-25T09:14:06Z</time></trkpt><trkpt lat="43.58875135473351" lon="12.881282733190547"><ele>217.66666666666666</ele><time>2026-04-25T09:14:07Z</time></trkpt><trkpt lat="43.58870584672512" lon="12.881010747290992"><ele>218.33333333333331</ele><time>2026-04-25T09:14:08Z</time></trkpt><trkpt lat="43.58866110623852" lon="12.880742443678301"><ele>219.0</ele><time>2026-04-25T09:14:09Z</time></trkpt><trkpt lat="43.58860854846142" lon="12.88047365382618"><ele>217.66666666666669</ele><time>2026-04-25T09:14:10Z</time></trkpt><trkpt lat="43.58855715142865" lon="12.880199301783984"><ele>216.33333333333334</ele><time>2026-04-25T09:14:11Z</time></trkpt><trkpt lat="43.58851412414548" lon="12.879927574061217"><ele>215.0</ele><time>2026-04-25T09:14:12Z</time></trkpt><trkpt lat="43.588469129860535" lon="12.879658889735788"><ele>215.0</ele><time>2026-04-25T09:14:13Z</time></trkpt><trkpt lat="43.588427301043986" lon="12.879399953671577"><ele>215.0</ele><time>2026-04-25T09:14:14Z</time></trkpt><trkpt lat="43.588382584372475" lon="12.879143287542448"><ele>215.0</ele><time>2026-04-25T09:14:15Z</time></trkpt><trkpt lat="43.58833521673605" lon="12.878886979319809"><ele>215.33333333333334</ele><time>2026-04-25T09:14:16Z</time></trkpt><trkpt lat="43.588292195253885" lon="12.878644118451886"><ele>215.66666666666669</ele><time>2026-04-25T09:14:17Z</time></trkpt><trkpt lat="43.58824993151071" lon="12.87840718284313"><ele>216.0</ele><time>2026-04-25T09:14:18Z</time></trkpt><trkpt lat="43.58821065351667" lon="12.87816645699512"><ele>216.33333333333331</ele><time>2026-04-25T09:14:19Z</time></trkpt><trkpt lat="43.588171822536935" lon="12.877928451081628"><ele>216.66666666666666</ele><time>2026-04-25T09:14:20Z</time></trkpt><trkpt lat="43.58813182677158" lon="12.877686674908375"><ele>217.0</ele><time>2026-04-25T09:14:21Z</time></trkpt><trkpt lat="43.588090293379764" lon="12.877436389087705"><ele>217.33333333333331</ele><time>2026-04-25T09:14:22Z</time></trkpt><trkpt lat="43.58804620223451" lon="12.877185214678946"><ele>217.66666666666669</ele><time>2026-04-25T09:14:23Z</time></trkpt><trkpt lat="43.5880091970319" lon="12.876926411796905"><ele>218.0</ele><time>2026-04-25T09:14:24Z</time></trkpt><trkpt lat="43.587965688317205" lon="12.876672538612567"><ele>218.0</ele><time>2026-04-25T09:14:25Z</time></trkpt><trkpt lat="43.58792176021284" lon="12.87641781813846"><ele>218.0</ele><time>2026-04-25T09:14:26Z</time></trkpt><trkpt lat="43.58787448437148" lon="12.876173704928375"><ele>218.0</ele><time>2026-04-25T09:14:27Z</time></trkpt><trkpt lat="43.58783109664464" lon="12.875932753996473"><ele>218.0</ele><time>2026-04-25T09:14:28Z</time></trkpt><trkpt lat="43.5877860406189" lon="12.875691734919407"><ele>218.0</ele><time>2026-04-25T09:14:29Z</time></trkpt><trkpt lat="43.58774806140871" lon="12.875450079660604"><ele>218.0</ele><time>2026-04-25T09:14:30Z</time></trkpt><trkpt lat="43.58769997943598" lon="12.875203215020774"><ele>218.66666666666669</ele><time>2026-04-25T09:14:31Z</time></trkpt><trkpt lat="43.58765745601714" lon="12.874958582881934"><ele>219.33333333333331</ele><time>2026-04-25T09:14:32Z</time></trkpt><trkpt lat="43.5876161163567" lon="12.874715585312757"><ele>220.0</ele><time>2026-04-25T09:14:33Z</time></trkpt><trkpt lat="43.587575737123096" lon="12.874476072300698"><ele>220.0</ele><time>2026-04-25T09:14:34Z</time></trkpt><trkpt lat="43.58752718811892" lon="12.874245492308726"><ele>220.0</ele><time>2026-04-25T09:14:35Z</time></trkpt><trkpt lat="43.587484338731606" lon="12.87399823076053"><ele>220.0</ele><time>2026-04-25T09:14:36Z</time></trkpt><trkpt lat="43.58743797126672" lon="12.873751862455098"><ele>220.0</ele><time>2026-04-25T09:14:37Z</time></trkpt><trkpt lat="43.58739853499615" lon="12.873509097414976"><ele>220.0</ele><time>2026-04-25T09:14:38Z</time></trkpt><trkpt lat="43.58735614465633" lon="12.873265012811508"><ele>220.0</ele><time>2026-04-25T09:14:39Z</time></trkpt><trkpt lat="43.58731486886775" lon="12.873024386784447"><ele>220.33333333333331</ele><time>2026-04-25T09:14:40Z</time></trkpt><trkpt lat="43.58727763838653" lon="12.872783754059142"><ele>220.66666666666669</ele><time>2026-04-25T09:14:41Z</time></trkpt><trkpt lat="43.58724202408707" lon="12.872544068166516"><ele>221.0</ele><time>2026-04-25T09:14:42Z</time></trkpt><trkpt lat="43.58719776837158" lon="12.872309486031044"><ele>221.0</ele><time>2026-04-25T09:14:43Z</time></trkpt><trkpt lat="43.58715410319283" lon="12.872075638141437"><ele>221.0</ele><time>2026-04-25T09:14:44Z</time></trkpt><trkpt lat="43.587105514338965" lon="12.87184232803961"><ele>221.0</ele><time>2026-04-25T09:14:45Z</time></trkpt><trkpt lat="43.58704928179437" lon="12.871611123731268"><ele>220.0</ele><time>2026-04-25T09:14:46Z</time></trkpt><trkpt lat="43.58699328137223" lon="12.871378504016219"><ele>219.0</ele><time>2026-04-25T09:14:47Z</time></trkpt><trkpt lat="43.58693503914868" lon="12.871148886806038"><ele>218.0</ele><time>2026-04-25T09:14:48Z</time></trkpt><trkpt lat="43.58687838757007" lon="12.870926226711168"><ele>218.0</ele><time>2026-04-25T09:14:49Z</time></trkpt><trkpt lat="43.58682589077566" lon="12.870714849943592"><ele>218.0</ele><time>2026-04-25T09:14:50Z</time></trkpt><trkpt lat="43.58677368135007" lon="12.87050902260589"><ele>218.0</ele><time>2026-04-25T09:14:51Z</time></trkpt><trkpt lat="43.58672170657805" lon="12.870306327396921"><ele>218.0</ele><time>2026-04-25T09:14:52Z</time></trkpt><trkpt lat="43.586669634139206" lon="12.87011258764627"><ele>218.0</ele><time>2026-04-25T09:14:53Z</time></trkpt><trkpt lat="43.58661917355647" lon="12.869919844500172"><ele>218.0</ele><time>2026-04-25T09:14:54Z</time></trkpt><trkpt lat="43.58656834872433" lon="12.869721066577485"><ele>218.75</ele><time>2026-04-25T09:14:55Z</time></trkpt><trkpt lat="43.58651291527482" lon="12.86952853560432"><ele>219.5</ele><time>2026-04-25T09:14:56Z</time></trkpt><trkpt lat="43.58645910317762" lon="12.869333698076133"><ele>220.25</ele><time>2026-04-25T09:14:57Z</time></trkpt><trkpt lat="43.5864109242221" lon="12.869141778770144"><ele>221.0</ele><time>2026-04-25T09:14:58Z</time></trkpt><trkpt lat="43.586360251794545" lon="12.868948729469937"><ele>222.33333333333334</ele><time>2026-04-25T09:14:59Z</time></trkpt><trkpt lat="43.586303723922995" lon="12.868755763957859"><ele>223.66666666666669</ele><time>2026-04-25T09:15:00Z</time></trkpt><trkpt lat="43.58625167757952" lon="12.868559954790982"><ele>225.0</ele><time>2026-04-25T09:15:01Z</time></trkpt><trkpt lat="43.586198428437754" lon="12.868363408078979"><ele>224.0</ele><time>2026-04-25T09:15:02Z</time></trkpt><trkpt lat="43.586141650673284" lon="12.868165944343255"><ele>223.0</ele><time>2026-04-25T09:15:03Z</time></trkpt><trkpt lat="43.586086609245974" lon="12.867960567692144"><ele>222.0</ele><time>2026-04-25T09:15:04Z</time></trkpt><trkpt lat="43.58603381508274" lon="12.867754775666242"><ele>222.0</ele><time>2026-04-25T09:15:05Z</time></trkpt><trkpt lat="43.58597980042297" lon="12.867552423224186"><ele>222.0</ele><time>2026-04-25T09:15:06Z</time></trkpt><trkpt lat="43.58592548862899" lon="12.867351229224944"><ele>222.0</ele><time>2026-04-25T09:15:07Z</time></trkpt><trkpt lat="43.585870581797785" lon="12.86714465798312"><ele>222.0</ele><time>2026-04-25T09:15:08Z</time></trkpt><trkpt lat="43.58581788668488" lon="12.866946935111716"><ele>222.0</ele><time>2026-04-25T09:15:09Z</time></trkpt><trkpt lat="43.58577188832709" lon="12.866750671533143"><ele>222.0</ele><time>2026-04-25T09:15:10Z</time></trkpt><trkpt lat="43.58571933364016" lon="12.866556781589994"><ele>221.66666666666669</ele><time>2026-04-25T09:15:11Z</time></trkpt><trkpt lat="43.58566728695944" lon="12.866361673941093"><ele>221.33333333333334</ele><time>2026-04-25T09:15:12Z</time></trkpt><trkpt lat="43.58561556867767" lon="12.866167980532614"><ele>221.0</ele><time>2026-04-25T09:15:13Z</time></trkpt><trkpt lat="43.585565304889" lon="12.865969592969419"><ele>221.0</ele><time>2026-04-25T09:15:14Z</time></trkpt><trkpt lat="43.58551122794373" lon="12.865770663351023"><ele>221.0</ele><time>2026-04-25T09:15:15Z</time></trkpt><trkpt lat="43.585455208721285" lon="12.86556705911559"><ele>221.0</ele><time>2026-04-25T09:15:16Z</time></trkpt><trkpt lat="43.58540331275565" lon="12.865369940934645"><ele>221.0</ele><time>2026-04-25T09:15:17Z</time></trkpt><trkpt lat="43.585348251907526" lon="12.865173537459858"><ele>221.0</ele><time>2026-04-25T09:15:18Z</time></trkpt><trkpt lat="43.585291785709224" lon="12.864979063009443"><ele>221.0</ele><time>2026-04-25T09:15:19Z</time></trkpt><trkpt lat="43.58523717747387" lon="12.864783013632273"><ele>220.66666666666669</ele><time>2026-04-25T09:15:20Z</time></trkpt><trkpt lat="43.58518280365275" lon="12.86458952035574"><ele>220.33333333333331</ele><time>2026-04-25T09:15:21Z</time></trkpt><trkpt lat="43.58512684500936" lon="12.864395400066877"><ele>220.0</ele><time>2026-04-25T09:15:22Z</time></trkpt><trkpt lat="43.58506998718086" lon="12.86419709333283"><ele>220.0</ele><time>2026-04-25T09:15:23Z</time></trkpt><trkpt lat="43.58501416140607" lon="12.86399566974413"><ele>220.0</ele><time>2026-04-25T09:15:24Z</time></trkpt><trkpt lat="43.58495741977597" lon="12.863788296210672"><ele>220.0</ele><time>2026-04-25T09:15:25Z</time></trkpt><trkpt lat="43.58489370362746" lon="12.863580583492274"><ele>220.66666666666666</ele><time>2026-04-25T09:15:26Z</time></trkpt><trkpt lat="43.584830687958124" lon="12.863368908080929"><ele>221.33333333333331</ele><time>2026-04-25T09:15:27Z</time></trkpt><trkpt lat="43.584770134381834" lon="12.863157299651547"><ele>222.0</ele><time>2026-04-25T09:15:28Z</time></trkpt><trkpt lat="43.58470717411138" lon="12.862939537127527"><ele>222.0</ele><time>2026-04-25T09:15:29Z</time></trkpt><trkpt lat="43.5846407226636" lon="12.86271199185934"><ele>222.0</ele><time>2026-04-25T09:15:30Z</time></trkpt><trkpt lat="43.58457205267229" lon="12.862478883822776"><ele>222.0</ele><time>2026-04-25T09:15:31Z</time></trkpt><trkpt lat="43.584505824188945" lon="12.862244486469516"><ele>221.33333333333331</ele><time>2026-04-25T09:15:32Z</time></trkpt><trkpt lat="43.58443797166783" lon="12.862019080391066"><ele>220.66666666666666</ele><time>2026-04-25T09:15:33Z</time></trkpt><trkpt lat="43.58437537150471" lon="12.86179866626312"><ele>220.0</ele><time>2026-04-25T09:15:34Z</time></trkpt><trkpt lat="43.584307708263076" lon="12.861592269413544"><ele>221.33333333333331</ele><time>2026-04-25T09:15:35Z</time></trkpt><trkpt lat="43.58424045191732" lon="12.861395413325676"><ele>222.66666666666669</ele><time>2026-04-25T09:15:36Z</time></trkpt><trkpt lat="43.58416921074554" lon="12.861203564737188"><ele>224.0</ele><time>2026-04-25T09:15:37Z</time></trkpt><trkpt lat="43.58408965478306" lon="12.861019966119787"><ele>226.0</ele><time>2026-04-25T09:15:38Z</time></trkpt><trkpt lat="43.584007551044834" lon="12.860844359228391"><ele>228.0</ele><time>2026-04-25T09:15:39Z</time></trkpt><trkpt lat="43.583913512392975" lon="12.860676377200116"><ele>230.0</ele><time>2026-04-25T09:15:40Z</time></trkpt><trkpt lat="43.58381245924084" lon="12.86051417981464"><ele>230.0</ele><time>2026-04-25T09:15:41Z</time></trkpt><trkpt lat="43.58370138182188" lon="12.86035318300248"><ele>230.0</ele><time>2026-04-25T09:15:42Z</time></trkpt><trkpt lat="43.583580868873945" lon="12.860197811525277"><ele>230.0</ele><time>2026-04-25T09:15:43Z</time></trkpt><trkpt lat="43.58345558828698" lon="12.86004391234674"><ele>228.66666666666669</ele><time>2026-04-25T09:15:44Z</time></trkpt><trkpt lat="43.58332374344794" lon="12.859896535387088"><ele>227.33333333333331</ele><time>2026-04-25T09:15:45Z</time></trkpt><trkpt lat="43.58318088096184" lon="12.859759181234015"><ele>226.0</ele><time>2026-04-25T09:15:46Z</time></trkpt><trkpt lat="43.58303222875552" lon="12.859630802626208"><ele>226.0</ele><time>2026-04-25T09:15:47Z</time></trkpt><trkpt lat="43.58289119014755" lon="12.859502724336352"><ele>226.0</ele><time>2026-04-25T09:15:48Z</time></trkpt><trkpt lat="43.58275392844454" lon="12.859379022478542"><ele>226.0</ele><time>2026-04-25T09:15:49Z</time></trkpt><trkpt lat="43.58263006414076" lon="12.859236434963192"><ele>226.25</ele><time>2026-04-25T09:15:50Z</time></trkpt><trkpt lat="43.58251946575948" lon="12.859096603837493"><ele>226.5</ele><time>2026-04-25T09:15:51Z</time></trkpt><trkpt lat="43.58241969617927" lon="12.858947827809416"><ele>226.75</ele><time>2026-04-25T09:15:52Z</time></trkpt><trkpt lat="43.58233496803838" lon="12.858782275294447"><ele>227.0</ele><time>2026-04-25T09:15:53Z</time></trkpt><trkpt lat="43.582260949891605" lon="12.8586126789364"><ele>229.33333333333334</ele><time>2026-04-25T09:15:54Z</time></trkpt><trkpt lat="43.58219881974547" lon="12.858437542951561"><ele>231.66666666666669</ele><time>2026-04-25T09:15:55Z</time></trkpt><trkpt lat="43.582132639188394" lon="12.858246609500696"><ele>234.0</ele><time>2026-04-25T09:15:56Z</time></trkpt><trkpt lat="43.582050728598546" lon="12.858062180387199"><ele>231.33333333333331</ele><time>2026-04-25T09:15:57Z</time></trkpt><trkpt lat="43.58195371811544" lon="12.857873052419945"><ele>228.66666666666666</ele><time>2026-04-25T09:15:58Z</time></trkpt><trkpt lat="43.581841105618594" lon="12.857703240101428"><ele>226.0</ele><time>2026-04-25T09:15:59Z</time></trkpt><trkpt lat="43.58172932163009" lon="12.857538903363757"><ele>226.0</ele><time>2026-04-25T09:16:00Z</time></trkpt><trkpt lat="43.58161515287617" lon="12.857389990888269"><ele>226.0</ele><time>2026-04-25T09:16:01Z</time></trkpt><trkpt lat="43.5814943350634" lon="12.85725811192857"><ele>226.0</ele><time>2026-04-25T09:16:02Z</time></trkpt><trkpt lat="43.581368706804426" lon="12.857145003642199"><ele>226.0</ele><time>2026-04-25T09:16:03Z</time></trkpt><trkpt lat="43.58123500253655" lon="12.857046021917263"><ele>226.0</ele><time>2026-04-25T09:16:04Z</time></trkpt><trkpt lat="43.58109902801294" lon="12.856962870761793"><ele>226.0</ele><time>2026-04-25T09:16:05Z</time></trkpt><trkpt lat="43.58096432236481" lon="12.856894820216855"><ele>226.0</ele><time>2026-04-25T09:16:06Z</time></trkpt><trkpt lat="43.580822400378466" lon="12.856832491074789"><ele>226.66666666666666</ele><time>2026-04-25T09:16:07Z</time></trkpt><trkpt lat="43.58067627802432" lon="12.856771415407541"><ele>227.33333333333331</ele><time>2026-04-25T09:16:08Z</time></trkpt><trkpt lat="43.58052486255573" lon="12.85670923417117"><ele>228.0</ele><time>2026-04-25T09:16:09Z</time></trkpt><trkpt lat="43.580379672119676" lon="12.856632570864065"><ele>227.33333333333331</ele><time>2026-04-25T09:16:10Z</time></trkpt><trkpt lat="43.58024746326359" lon="12.856534963315081"><ele>226.66666666666666</ele><time>2026-04-25T09:16:11Z</time></trkpt><trkpt lat="43.58010715791705" lon="12.856439829060841"><ele>226.0</ele><time>2026-04-25T09:16:12Z</time></trkpt><trkpt lat="43.57997002943363" lon="12.856331800579671"><ele>226.0</ele><time>2026-04-25T09:16:13Z</time></trkpt><trkpt lat="43.57983650163767" lon="12.856217848483675"><ele>226.0</ele><time>2026-04-25T09:16:14Z</time></trkpt><trkpt lat="43.57971239084164" lon="12.856094375341028"><ele>226.0</ele><time>2026-04-25T09:16:15Z</time></trkpt><trkpt lat="43.579596496787836" lon="12.855949777278294"><ele>227.33333333333331</ele><time>2026-04-25T09:16:16Z</time></trkpt><trkpt lat="43.57948942184772" lon="12.855787147752006"><ele>228.66666666666669</ele><time>2026-04-25T09:16:17Z</time></trkpt><trkpt lat="43.579395406425" lon="12.855612434276393"><ele>230.0</ele><time>2026-04-25T09:16:18Z</time></trkpt><trkpt lat="43.579300277212035" lon="12.855436279038818"><ele>230.0</ele><time>2026-04-25T09:16:19Z</time></trkpt><trkpt lat="43.57920557945185" lon="12.85526174188056"><ele>230.0</ele><time>2026-04-25T09:16:20Z</time></trkpt><trkpt lat="43.57910253289256" lon="12.855093782447591"><ele>230.0</ele><time>2026-04-25T09:16:21Z</time></trkpt><trkpt lat="43.5789918280658" lon="12.854947583491068"><ele>231.0</ele><time>2026-04-25T09:16:22Z</time></trkpt><trkpt lat="43.57887177810008" lon="12.854812240988267"><ele>232.0</ele><time>2026-04-25T09:16:23Z</time></trkpt><trkpt lat="43.57873922923245" lon="12.854694324968719"><ele>233.0</ele><time>2026-04-25T09:16:24Z</time></trkpt><trkpt lat="43.578598419436055" lon="12.854585633572379"><ele>233.0</ele><time>2026-04-25T09:16:25Z</time></trkpt><trkpt lat="43.57844575052595" lon="12.854485011492178"><ele>233.0</ele><time>2026-04-25T09:16:26Z</time></trkpt><trkpt lat="43.57828345440555" lon="12.85439018997901"><ele>233.0</ele><time>2026-04-25T09:16:27Z</time></trkpt><trkpt lat="43.578119641313" lon="12.85429902505398"><ele>233.33333333333334</ele><time>2026-04-25T09:16:28Z</time></trkpt><trkpt lat="43.57796590229245" lon="12.854209921767003"><ele>233.66666666666669</ele><time>2026-04-25T09:16:29Z</time></trkpt><trkpt lat="43.577816424304544" lon="12.854110977932649"><ele>234.0</ele><time>2026-04-25T09:16:30Z</time></trkpt><trkpt lat="43.57767880020752" lon="12.854001729222508"><ele>233.0</ele><time>2026-04-25T09:16:31Z</time></trkpt><trkpt lat="43.577545073520476" lon="12.853884237660298"><ele>232.0</ele><time>2026-04-25T09:16:32Z</time></trkpt><trkpt lat="43.57741577947038" lon="12.853761389024536"><ele>231.0</ele><time>2026-04-25T09:16:33Z</time></trkpt><trkpt lat="43.57728896162748" lon="12.853623841736686"><ele>231.0</ele><time>2026-04-25T09:16:34Z</time></trkpt><trkpt lat="43.57716398200482" lon="12.853476323851947"><ele>231.0</ele><time>2026-04-25T09:16:35Z</time></trkpt><trkpt lat="43.57704677472558" lon="12.853336874050836"><ele>231.0</ele><time>2026-04-25T09:16:36Z</time></trkpt><trkpt lat="43.57692140745278" lon="12.853212763463706"><ele>230.33333333333331</ele><time>2026-04-25T09:16:37Z</time></trkpt><trkpt lat="43.57679741039233" lon="12.853093233158011"><ele>229.66666666666666</ele><time>2026-04-25T09:16:38Z</time></trkpt><trkpt lat="43.5766643974843" lon="12.852997518479786"><ele>229.0</ele><time>2026-04-25T09:16:39Z</time></trkpt><trkpt lat="43.576521236820824" lon="12.85292001453234"><ele>229.0</ele><time>2026-04-25T09:16:40Z</time></trkpt><trkpt lat="43.57636958797333" lon="12.85285769861164"><ele>229.0</ele><time>2026-04-25T09:16:41Z</time></trkpt><trkpt lat="43.576225651364254" lon="12.852769196562164"><ele>229.0</ele><time>2026-04-25T09:16:42Z</time></trkpt><trkpt lat="43.57608160513597" lon="12.852674896311452"><ele>230.0</ele><time>2026-04-25T09:16:43Z</time></trkpt><trkpt lat="43.575938411573944" lon="12.852568905353492"><ele>231.0</ele><time>2026-04-25T09:16:44Z</time></trkpt><trkpt lat="43.575799530971345" lon="12.852458221154315"><ele>232.0</ele><time>2026-04-25T09:16:45Z</time></trkpt><trkpt lat="43.575665225005146" lon="12.852345075997315"><ele>232.0</ele><time>2026-04-25T09:16:46Z</time></trkpt><trkpt lat="43.57553435667848" lon="12.852235959470558"><ele>232.0</ele><time>2026-04-25T09:16:47Z</time></trkpt><trkpt lat="43.575402114574906" lon="12.852113308955381"><ele>232.0</ele><time>2026-04-25T09:16:48Z</time></trkpt><trkpt lat="43.575276624592114" lon="12.851988436765692"><ele>230.66666666666666</ele><time>2026-04-25T09:16:49Z</time></trkpt><trkpt lat="43.57515476607271" lon="12.851849385216122"><ele>229.33333333333331</ele><time>2026-04-25T09:16:50Z</time></trkpt><trkpt lat="43.57505041065963" lon="12.85169731983859"><ele>228.0</ele><time>2026-04-25T09:16:51Z</time></trkpt><trkpt lat="43.5749584994089" lon="12.85153517810058"><ele>228.0</ele><time>2026-04-25T09:16:52Z</time></trkpt><trkpt lat="43.57486893885826" lon="12.851363125440145"><ele>228.0</ele><time>2026-04-25T09:16:53Z</time></trkpt><trkpt lat="43.57479325663102" lon="12.851169626841745"><ele>228.0</ele><time>2026-04-25T09:16:54Z</time></trkpt><trkpt lat="43.574727171337514" lon="12.850967593410237"><ele>227.66666666666669</ele><time>2026-04-25T09:16:55Z</time></trkpt><trkpt lat="43.57465804906165" lon="12.850759992817018"><ele>227.33333333333334</ele><time>2026-04-25T09:16:56Z</time></trkpt><trkpt lat="43.574591815947166" lon="12.850560833355575"><ele>227.0</ele><time>2026-04-25T09:16:57Z</time></trkpt><trkpt lat="43.57451560542008" lon="12.850368677651675"><ele>227.0</ele><time>2026-04-25T09:16:58Z</time></trkpt><trkpt lat="43.574433259524405" lon="12.85018204674445"><ele>227.0</ele><time>2026-04-25T09:16:59Z</time></trkpt><trkpt lat="43.57434878940223" lon="12.849998831998686"><ele>227.0</ele><time>2026-04-25T09:17:00Z</time></trkpt><trkpt lat="43.57425727874514" lon="12.849822283373435"><ele>228.0</ele><time>2026-04-25T09:17:01Z</time></trkpt><trkpt lat="43.57415029612991" lon="12.84965456953988"><ele>229.0</ele><time>2026-04-25T09:17:02Z</time></trkpt><trkpt lat="43.574027729162054" lon="12.849495048088565"><ele>230.0</ele><time>2026-04-25T09:17:03Z</time></trkpt><trkpt lat="43.57389588508533" lon="12.849341745391087"><ele>230.0</ele><time>2026-04-25T09:17:04Z</time></trkpt><trkpt lat="43.573754830608095" lon="12.849199043808913"><ele>230.0</ele><time>2026-04-25T09:17:05Z</time></trkpt><trkpt lat="43.57361006944786" lon="12.849064886364255"><ele>230.0</ele><time>2026-04-25T09:17:06Z</time></trkpt><trkpt lat="43.5734582423194" lon="12.84894340854936"><ele>230.0</ele><time>2026-04-25T09:17:07Z</time></trkpt><trkpt lat="43.57330303292623" lon="12.848834139702669"><ele>230.0</ele><time>2026-04-25T09:17:08Z</time></trkpt><trkpt lat="43.57313953103289" lon="12.84873381470802"><ele>230.0</ele><time>2026-04-25T09:17:09Z</time></trkpt><trkpt lat="43.57296938614234" lon="12.848641621316611"><ele>229.66666666666669</ele><time>2026-04-25T09:17:10Z</time></trkpt><trkpt lat="43.572800703720326" lon="12.848552573698846"><ele>229.33333333333331</ele><time>2026-04-25T09:17:11Z</time></trkpt><trkpt lat="43.57262061049472" lon="12.848477113505432"><ele>229.0</ele><time>2026-04-25T09:17:12Z</time></trkpt><trkpt lat="43.572444232655045" lon="12.848393115799835"><ele>229.0</ele><time>2026-04-25T09:17:13Z</time></trkpt><trkpt lat="43.572274302809824" lon="12.848302140040357"><ele>229.0</ele><time>2026-04-25T09:17:14Z</time></trkpt><trkpt lat="43.572115218966644" lon="12.848209673351523"><ele>229.0</ele><time>2026-04-25T09:17:15Z</time></trkpt><trkpt lat="43.5719632517578" lon="12.848113499503084"><ele>229.0</ele><time>2026-04-25T09:17:16Z</time></trkpt><trkpt lat="43.571817811851915" lon="12.848010979782389"><ele>229.0</ele><time>2026-04-25T09:17:17Z</time></trkpt><trkpt lat="43.57167564099013" lon="12.847907252468506"><ele>229.0</ele><time>2026-04-25T09:17:18Z</time></trkpt><trkpt lat="43.571551198016785" lon="12.847782309218996"><ele>229.0</ele><time>2026-04-25T09:17:19Z</time></trkpt><trkpt lat="43.571431676882234" lon="12.847635793344537"><ele>229.0</ele><time>2026-04-25T09:17:20Z</time></trkpt><trkpt lat="43.57131609917999" lon="12.847485211425711"><ele>229.0</ele><time>2026-04-25T09:17:21Z</time></trkpt><trkpt lat="43.57120711736589" lon="12.847319896203807"><ele>229.0</ele><time>2026-04-25T09:17:22Z</time></trkpt><trkpt lat="43.57110000403442" lon="12.847152153295863"><ele>229.0</ele><time>2026-04-25T09:17:23Z</time></trkpt><trkpt lat="43.570996869174586" lon="12.84697529354553"><ele>229.0</ele><time>2026-04-25T09:17:24Z</time></trkpt><trkpt lat="43.57090219208557" lon="12.846787373018"><ele>232.66666666666666</ele><time>2026-04-25T09:17:25Z</time></trkpt><trkpt lat="43.570818636411495" lon="12.846597661076103"><ele>236.33333333333331</ele><time>2026-04-25T09:17:26Z</time></trkpt><trkpt lat="43.57074499731672" lon="12.846401351589794"><ele>240.0</ele><time>2026-04-25T09:17:27Z</time></trkpt><trkpt lat="43.57068287246082" lon="12.846198594393499"><ele>240.0</ele><time>2026-04-25T09:17:28Z</time></trkpt><trkpt lat="43.57062742251678" lon="12.845981515075145"><ele>240.0</ele><time>2026-04-25T09:17:29Z</time></trkpt><trkpt lat="43.570569955618296" lon="12.845764904264188"><ele>240.0</ele><time>2026-04-25T09:17:30Z</time></trkpt><trkpt lat="43.57051936118362" lon="12.84555921456576"><ele>240.66666666666669</ele><time>2026-04-25T09:17:31Z</time></trkpt><trkpt lat="43.5704644926634" lon="12.845361585596416"><ele>241.33333333333334</ele><time>2026-04-25T09:17:32Z</time></trkpt><trkpt lat="43.57040377689484" lon="12.845173222503458"><ele>242.0</ele><time>2026-04-25T09:17:33Z</time></trkpt><trkpt lat="43.57033123151055" lon="12.844991644293719"><ele>242.0</ele><time>2026-04-25T09:17:34Z</time></trkpt><trkpt lat="43.57024631928021" lon="12.844822171004186"><ele>242.0</ele><time>2026-04-25T09:17:35Z</time></trkpt><trkpt lat="43.570152076298406" lon="12.84466713954344"><ele>242.0</ele><time>2026-04-25T09:17:36Z</time></trkpt><trkpt lat="43.57005013829242" lon="12.844524743568162"><ele>242.0</ele><time>2026-04-25T09:17:37Z</time></trkpt><trkpt lat="43.569933506345826" lon="12.844384346520386"><ele>244.0</ele><time>2026-04-25T09:17:38Z</time></trkpt><trkpt lat="43.56982467770578" lon="12.844252536642687"><ele>246.0</ele><time>2026-04-25T09:17:39Z</time></trkpt><trkpt lat="43.56972602255506" lon="12.844108117571984"><ele>248.0</ele><time>2026-04-25T09:17:40Z</time></trkpt><trkpt lat="43.56963922992237" lon="12.84396140833015"><ele>250.0</ele><time>2026-04-25T09:17:41Z</time></trkpt><trkpt lat="43.56956813784276" lon="12.843792190425807"><ele>248.5</ele><time>2026-04-25T09:17:42Z</time></trkpt><trkpt lat="43.56950542605019" lon="12.843612287735338"><ele>247.0</ele><time>2026-04-25T09:17:43Z</time></trkpt><trkpt lat="43.56945814359718" lon="12.843424933349112"><ele>245.5</ele><time>2026-04-25T09:17:44Z</time></trkpt><trkpt lat="43.56941742178088" lon="12.843234860672514"><ele>244.0</ele><time>2026-04-25T09:17:45Z</time></trkpt><trkpt lat="43.56938256731989" lon="12.843030767487067"><ele>244.0</ele><time>2026-04-25T09:17:46Z</time></trkpt><trkpt lat="43.56935992209172" lon="12.84281632386189"><ele>244.0</ele><time>2026-04-25T09:17:47Z</time></trkpt><trkpt lat="43.56935045778153" lon="12.842599395501347"><ele>244.0</ele><time>2026-04-25T09:17:48Z</time></trkpt><trkpt lat="43.569360148845924" lon="12.842377498844"><ele>245.0</ele><time>2026-04-25T09:17:49Z</time></trkpt><trkpt lat="43.5693768345892" lon="12.842152264372162"><ele>246.0</ele><time>2026-04-25T09:17:50Z</time></trkpt><trkpt lat="43.56939467709769" lon="12.841922877687157"><ele>247.0</ele><time>2026-04-25T09:17:51Z</time></trkpt><trkpt lat="43.569416352919916" lon="12.841682125195204"><ele>247.33333333333331</ele><time>2026-04-25T09:17:52Z</time></trkpt><trkpt lat="43.56943782476158" lon="12.841434466672416"><ele>247.66666666666669</ele><time>2026-04-25T09:17:53Z</time></trkpt><trkpt lat="43.56946000583842" lon="12.841179630449318"><ele>248.0</ele><time>2026-04-25T09:17:54Z</time></trkpt><trkpt lat="43.56948473475939" lon="12.840920285840701"><ele>248.66666666666669</ele><time>2026-04-25T09:17:55Z</time></trkpt><trkpt lat="43.56951173295585" lon="12.840664638784403"><ele>249.33333333333331</ele><time>2026-04-25T09:17:56Z</time></trkpt><trkpt lat="43.56954016880125" lon="12.840417184581053"><ele>250.0</ele><time>2026-04-25T09:17:57Z</time></trkpt><trkpt lat="43.56956495669378" lon="12.840182467654566"><ele>253.33333333333331</ele><time>2026-04-25T09:17:58Z</time></trkpt><trkpt lat="43.56959013140446" lon="12.839950553372326"><ele>256.6666666666667</ele><time>2026-04-25T09:17:59Z</time></trkpt><trkpt lat="43.5696107535578" lon="12.839722851842774"><ele>260.0</ele><time>2026-04-25T09:18:00Z</time></trkpt><trkpt lat="43.56963374733737" lon="12.839501324366527"><ele>260.0</ele><time>2026-04-25T09:18:01Z</time></trkpt><trkpt lat="43.56965484000063" lon="12.839283595191246"><ele>260.0</ele><time>2026-04-25T09:18:02Z</time></trkpt><trkpt lat="43.56967768318799" lon="12.839066780035845"><ele>260.0</ele><time>2026-04-25T09:18:03Z</time></trkpt><trkpt lat="43.56969974207156" lon="12.838856633184548"><ele>260.0</ele><time>2026-04-25T09:18:04Z</time></trkpt><trkpt lat="43.569720867082054" lon="12.838651141479879"><ele>260.0</ele><time>2026-04-25T09:18:05Z</time></trkpt><trkpt lat="43.56973939445151" lon="12.838469435937819"><ele>260.0</ele><time>2026-04-25T09:18:06Z</time></trkpt><trkpt lat="43.569754862571315" lon="12.838295482900506"><ele>260.0</ele><time>2026-04-25T09:18:07Z</time></trkpt><trkpt lat="43.569762627711235" lon="12.838133440899545"><ele>259.6</ele><time>2026-04-25T09:18:08Z</time></trkpt><trkpt lat="43.56977271247079" lon="12.837982843827529"><ele>259.2</ele><time>2026-04-25T09:18:09Z</time></trkpt><trkpt lat="43.569778954166566" lon="12.837842635674912"><ele>258.8</ele><time>2026-04-25T09:18:10Z</time></trkpt><trkpt lat="43.569786988188696" lon="12.837721310950649"><ele>258.4</ele><time>2026-04-25T09:18:11Z</time></trkpt><trkpt lat="43.56978661073947" lon="12.837619362184567"><ele>258.0</ele><time>2026-04-25T09:18:12Z</time></trkpt><trkpt lat="43.56982005932571" lon="12.837460364928184"><ele>257.71428571428567</ele><time>2026-04-25T09:18:14Z</time></trkpt><trkpt lat="43.56985045867203" lon="12.837383417040588"><ele>257.42857142857144</ele><time>2026-04-25T09:18:15Z</time></trkpt><trkpt lat="43.56987575368003" lon="12.837299135252856"><ele>257.1428571428571</ele><time>2026-04-25T09:18:16Z</time></trkpt><trkpt lat="43.56987973439148" lon="12.837209189407055"><ele>256.85714285714283</ele><time>2026-04-25T09:18:17Z</time></trkpt><trkpt lat="43.56985706166866" lon="12.837119960560063"><ele>256.57142857142856</ele><time>2026-04-25T09:18:18Z</time></trkpt><trkpt lat="43.5698118174788" lon="12.837039268522044"><ele>256.2857142857143</ele><time>2026-04-25T09:18:19Z</time></trkpt><trkpt lat="43.569763049711746" lon="12.83694672628102"><ele>256.0</ele><time>2026-04-25T09:18:20Z</time></trkpt><trkpt lat="43.569727998555265" lon="12.836836263253767"><ele>256.8</ele><time>2026-04-25T09:18:21Z</time></trkpt><trkpt lat="43.56970137639821" lon="12.836704052371509"><ele>257.6</ele><time>2026-04-25T09:18:22Z</time></trkpt><trkpt lat="43.569677603488515" lon="12.836558263046344"><ele>258.4</ele><time>2026-04-25T09:18:23Z</time></trkpt><trkpt lat="43.56965243190687" lon="12.836421281441027"><ele>259.2</ele><time>2026-04-25T09:18:24Z</time></trkpt><trkpt lat="43.569613146835344" lon="12.83625331737957"><ele>260.0</ele><time>2026-04-25T09:18:25Z</time></trkpt><trkpt lat="43.56956304341829" lon="12.836079016050157"><ele>260.33333333333337</ele><time>2026-04-25T09:18:26Z</time></trkpt><trkpt lat="43.569506907881944" lon="12.835894701762498"><ele>260.6666666666667</ele><time>2026-04-25T09:18:27Z</time></trkpt><trkpt lat="43.569454262872235" lon="12.835689363347816"><ele>261.0</ele><time>2026-04-25T09:18:28.001Z</time></trkpt><trkpt lat="43.569374253349146" lon="12.835499856561684"><ele>261.0</ele><time>2026-04-25T09:18:29.001Z</time></trkpt><trkpt lat="43.569282665668375" lon="12.835306004128329"><ele>261.0</ele><time>2026-04-25T09:18:30.001Z</time></trkpt><trkpt lat="43.56919578259004" lon="12.835105368971153"><ele>261.0</ele><time>2026-04-25T09:18:31.001Z</time></trkpt><trkpt lat="43.569083830225686" lon="12.834920194215753"><ele>262.0</ele><time>2026-04-25T09:18:32.001Z</time></trkpt><trkpt lat="43.568968124337424" lon="12.834730916336133"><ele>263.0</ele><time>2026-04-25T09:18:33.001Z</time></trkpt><trkpt lat="43.56884158328563" lon="12.834553169920255"><ele>264.0</ele><time>2026-04-25T09:18:34.001Z</time></trkpt><trkpt lat="43.56871010065643" lon="12.83438075567523"><ele>263.0</ele><time>2026-04-25T09:18:35.001Z</time></trkpt><trkpt lat="43.568569346507324" lon="12.834206869127959"><ele>262.0</ele><time>2026-04-25T09:18:36Z</time></trkpt><trkpt lat="43.56844083692625" lon="12.834047922968209"><ele>261.0</ele><time>2026-04-25T09:18:37Z</time></trkpt><trkpt lat="43.56829964166989" lon="12.833877256338218"><ele>261.0</ele><time>2026-04-25T09:18:38Z</time></trkpt><trkpt lat="43.568163162958925" lon="12.833706228924141"><ele>261.0</ele><time>2026-04-25T09:18:39Z</time></trkpt><trkpt lat="43.56803063508072" lon="12.833540961228913"><ele>261.0</ele><time>2026-04-25T09:18:40Z</time></trkpt><trkpt lat="43.56789317309607" lon="12.833375124487457"><ele>258.6666666666667</ele><time>2026-04-25T09:18:41Z</time></trkpt><trkpt lat="43.56775055595006" lon="12.833207162493899"><ele>256.33333333333337</ele><time>2026-04-25T09:18:42Z</time></trkpt><trkpt lat="43.56761241074608" lon="12.83304186705094"><ele>254.0</ele><time>2026-04-25T09:18:43Z</time></trkpt><trkpt lat="43.5674819994947" lon="12.832877840247896"><ele>254.0</ele><time>2026-04-25T09:18:44Z</time></trkpt><trkpt lat="43.56735101153364" lon="12.832716404234395"><ele>254.0</ele><time>2026-04-25T09:18:45Z</time></trkpt><trkpt lat="43.567229076712465" lon="12.83255654112843"><ele>254.0</ele><time>2026-04-25T09:18:46Z</time></trkpt><trkpt lat="43.56710250207335" lon="12.832400044253056"><ele>254.0</ele><time>2026-04-25T09:18:47Z</time></trkpt><trkpt lat="43.56697636067725" lon="12.832241340357635"><ele>254.0</ele><time>2026-04-25T09:18:48Z</time></trkpt><trkpt lat="43.56684892473388" lon="12.832078847532435"><ele>254.0</ele><time>2026-04-25T09:18:49Z</time></trkpt><trkpt lat="43.56672269210363" lon="12.831920761749128"><ele>255.33333333333334</ele><time>2026-04-25T09:18:50Z</time></trkpt><trkpt lat="43.56659681966184" lon="12.83176228655894"><ele>256.6666666666667</ele><time>2026-04-25T09:18:51Z</time></trkpt><trkpt lat="43.566470761920634" lon="12.831609638795117"><ele>258.0</ele><time>2026-04-25T09:18:52Z</time></trkpt><trkpt lat="43.56634527879449" lon="12.831455603292689"><ele>258.0</ele><time>2026-04-25T09:18:53Z</time></trkpt><trkpt lat="43.56621975619712" lon="12.831297256516217"><ele>258.0</ele><time>2026-04-25T09:18:54Z</time></trkpt><trkpt lat="43.56609042014225" lon="12.831133700523058"><ele>258.0</ele><time>2026-04-25T09:18:55Z</time></trkpt><trkpt lat="43.56595530828099" lon="12.830966088929566"><ele>256.6666666666667</ele><time>2026-04-25T09:18:56Z</time></trkpt><trkpt lat="43.56581552259348" lon="12.830797595931301"><ele>255.33333333333334</ele><time>2026-04-25T09:18:57Z</time></trkpt><trkpt lat="43.5656750179454" lon="12.830625044154678"><ele>254.0</ele><time>2026-04-25T09:18:58Z</time></trkpt><trkpt lat="43.56553831994609" lon="12.8304576417996"><ele>254.0</ele><time>2026-04-25T09:18:59Z</time></trkpt><trkpt lat="43.56540036107152" lon="12.830283950150656"><ele>254.0</ele><time>2026-04-25T09:19:00Z</time></trkpt><trkpt lat="43.56526286440359" lon="12.83010524930358"><ele>254.0</ele><time>2026-04-25T09:19:01Z</time></trkpt><trkpt lat="43.56512604359293" lon="12.829927565533389"><ele>255.0</ele><time>2026-04-25T09:19:02Z</time></trkpt><trkpt lat="43.5649869537251" lon="12.829754637423386"><ele>256.0</ele><time>2026-04-25T09:19:03Z</time></trkpt><trkpt lat="43.56485005421268" lon="12.829584431172941"><ele>257.0</ele><time>2026-04-25T09:19:04Z</time></trkpt><trkpt lat="43.564714297357604" lon="12.829414052959343"><ele>258.33333333333337</ele><time>2026-04-25T09:19:05Z</time></trkpt><trkpt lat="43.564579801753865" lon="12.82924405442739"><ele>259.6666666666667</ele><time>2026-04-25T09:19:06Z</time></trkpt><trkpt lat="43.56444685397077" lon="12.82907725105237"><ele>261.0</ele><time>2026-04-25T09:19:07Z</time></trkpt><trkpt lat="43.564312188442685" lon="12.828910434698857"><ele>259.3333333333333</ele><time>2026-04-25T09:19:08Z</time></trkpt><trkpt lat="43.56417007837268" lon="12.828732734995215"><ele>257.66666666666663</ele><time>2026-04-25T09:19:09Z</time></trkpt><trkpt lat="43.56401686527635" lon="12.828538903652058"><ele>256.0</ele><time>2026-04-25T09:19:10Z</time></trkpt><trkpt lat="43.5638550611294" lon="12.82833263791117"><ele>254.0</ele><time>2026-04-25T09:19:11Z</time></trkpt><trkpt lat="43.56368700426327" lon="12.828120814693538"><ele>252.0</ele><time>2026-04-25T09:19:12Z</time></trkpt><trkpt lat="43.56352475259741" lon="12.827924909010985"><ele>250.0</ele><time>2026-04-25T09:19:13Z</time></trkpt><trkpt lat="43.56337545949518" lon="12.827744941128373"><ele>250.66666666666666</ele><time>2026-04-25T09:19:14Z</time></trkpt><trkpt lat="43.56323529317196" lon="12.827567030330522"><ele>251.33333333333331</ele><time>2026-04-25T09:19:15Z</time></trkpt><trkpt lat="43.56309635047175" lon="12.827397992932877"><ele>252.0</ele><time>2026-04-25T09:19:16Z</time></trkpt><trkpt lat="43.562966342139234" lon="12.827226694115863"><ele>253.0</ele><time>2026-04-25T09:19:17Z</time></trkpt><trkpt lat="43.562834482338204" lon="12.827076132126287"><ele>254.0</ele><time>2026-04-25T09:19:18Z</time></trkpt><trkpt lat="43.56269871542767" lon="12.826940541405703"><ele>255.0</ele><time>2026-04-25T09:19:19Z</time></trkpt><trkpt lat="43.56256038441497" lon="12.82680730678294"><ele>255.33333333333331</ele><time>2026-04-25T09:19:20Z</time></trkpt><trkpt lat="43.56241685331452" lon="12.8266882591983"><ele>255.66666666666666</ele><time>2026-04-25T09:19:21Z</time></trkpt><trkpt lat="43.562270810299786" lon="12.826577136285438"><ele>256.0</ele><time>2026-04-25T09:19:22Z</time></trkpt><trkpt lat="43.562125084901176" lon="12.826479928626163"><ele>257.0</ele><time>2026-04-25T09:19:23Z</time></trkpt><trkpt lat="43.56197754434695" lon="12.82639557671732"><ele>258.0</ele><time>2026-04-25T09:19:24Z</time></trkpt><trkpt lat="43.56182486843233" lon="12.826324762472272"><ele>259.0</ele><time>2026-04-25T09:19:25Z</time></trkpt><trkpt lat="43.56167122836397" lon="12.826251053406354"><ele>259.0</ele><time>2026-04-25T09:19:26Z</time></trkpt><trkpt lat="43.561515169715406" lon="12.826198587755052"><ele>259.0</ele><time>2026-04-25T09:19:27Z</time></trkpt><trkpt lat="43.561369093783455" lon="12.826153600457058"><ele>259.0</ele><time>2026-04-25T09:19:28Z</time></trkpt><trkpt lat="43.56120913582307" lon="12.826143709839414"><ele>258.0</ele><time>2026-04-25T09:19:29Z</time></trkpt><trkpt lat="43.56107127380701" lon="12.826111557228897"><ele>257.0</ele><time>2026-04-25T09:19:30Z</time></trkpt><trkpt lat="43.560940019437545" lon="12.826092877197908"><ele>256.0</ele><time>2026-04-25T09:19:31Z</time></trkpt><trkpt lat="43.560821718660286" lon="12.826072896505194"><ele>255.0</ele><time>2026-04-25T09:19:32Z</time></trkpt><trkpt lat="43.56071718271189" lon="12.826062054215186"><ele>255.0</ele><time>2026-04-25T09:19:33Z</time></trkpt><trkpt lat="43.56063174192077" lon="12.826038239204138"><ele>255.0</ele><time>2026-04-25T09:19:34Z</time></trkpt><trkpt lat="43.56055901144026" lon="12.826024972134038"><ele>255.0</ele><time>2026-04-25T09:19:35Z</time></trkpt><trkpt lat="43.56043562272242" lon="12.825996195452687"><ele>255.0</ele><time>2026-04-25T09:19:37Z</time></trkpt><trkpt lat="43.56033027390702" lon="12.825953917021877"><ele>255.0</ele><time>2026-04-25T09:19:39Z</time></trkpt><trkpt lat="43.560239521646835" lon="12.825901119865762"><ele>255.0</ele><time>2026-04-25T09:19:41Z</time></trkpt><trkpt lat="43.56017162829337" lon="12.82588366653781"><ele>255.0</ele><time>2026-04-25T09:19:43Z</time></trkpt><trkpt lat="43.560115411866555" lon="12.826072249230217"><ele>255.0</ele><time>2026-04-25T09:19:44Z</time></trkpt><trkpt lat="43.560118481803" lon="12.826231734138108"><ele>255.0</ele><time>2026-04-25T09:19:46Z</time></trkpt><trkpt lat="43.5601684431124" lon="12.826359336640737"><ele>255.0</ele><time>2026-04-25T09:19:48Z</time></trkpt><trkpt lat="43.56019250749796" lon="12.826498267379783"><ele>255.0</ele><time>2026-04-25T09:19:50Z</time></trkpt><trkpt lat="43.56018978388052" lon="12.826586475410107"><ele>255.0</ele><time>2026-04-25T09:19:52Z</time></trkpt><trkpt lat="43.56017971918089" lon="12.826726974488114"><ele>255.0</ele><time>2026-04-25T09:19:55Z</time></trkpt><trkpt lat="43.56015063713768" lon="12.826884756664894"><ele>255.0</ele><time>2026-04-25T09:19:57Z</time></trkpt><trkpt lat="43.56011746743584" lon="12.826971311785716"><ele>255.0</ele><time>2026-04-25T09:19:58Z</time></trkpt><trkpt lat="43.56007637738412" lon="12.827071051635441"><ele>255.0</ele><time>2026-04-25T09:19:59Z</time></trkpt><trkpt lat="43.56002556049123" lon="12.827177455211396"><ele>254.8</ele><time>2026-04-25T09:20:00Z</time></trkpt><trkpt lat="43.559969045045094" lon="12.827311791791654"><ele>254.6</ele><time>2026-04-25T09:20:01Z</time></trkpt><trkpt lat="43.559916249922495" lon="12.827430759690898"><ele>254.39999999999998</ele><time>2026-04-25T09:20:02Z</time></trkpt><trkpt lat="43.55991209330006" lon="12.827547050478582"><ele>254.2</ele><time>2026-04-25T09:20:03Z</time></trkpt><trkpt lat="43.559915419660534" lon="12.827678249533475"><ele>254.0</ele><time>2026-04-25T09:20:04Z</time></trkpt><trkpt lat="43.559940219366794" lon="12.827815549937021"><ele>254.0</ele><time>2026-04-25T09:20:05Z</time></trkpt><trkpt lat="43.559979229434475" lon="12.82793765063833"><ele>253.99999999999997</ele><time>2026-04-25T09:20:06Z</time></trkpt><trkpt lat="43.56003715182298" lon="12.828046012503556"><ele>253.99999999999997</ele><time>2026-04-25T09:20:07Z</time></trkpt><trkpt lat="43.56011707366159" lon="12.828136298046253"><ele>254.0</ele><time>2026-04-25T09:20:08Z</time></trkpt><trkpt lat="43.56022478916207" lon="12.828221926371745"><ele>254.0</ele><time>2026-04-25T09:20:09Z</time></trkpt><trkpt lat="43.56036465182302" lon="12.828294567163796"><ele>253.66666666666669</ele><time>2026-04-25T09:20:10Z</time></trkpt><trkpt lat="43.5605117872782" lon="12.82836391221768"><ele>253.33333333333331</ele><time>2026-04-25T09:20:11Z</time></trkpt><trkpt lat="43.56066511143185" lon="12.828443398568897"><ele>253.0</ele><time>2026-04-25T09:20:12Z</time></trkpt><trkpt lat="43.56081346699723" lon="12.828517965546267"><ele>255.5</ele><time>2026-04-25T09:20:13Z</time></trkpt><trkpt lat="43.56094770710512" lon="12.8285897944624"><ele>258.0</ele><time>2026-04-25T09:20:14Z</time></trkpt><trkpt lat="43.56107301797044" lon="12.828667734830777"><ele>260.5</ele><time>2026-04-25T09:20:15Z</time></trkpt><trkpt lat="43.56118693752184" lon="12.828748273159222"><ele>263.0</ele><time>2026-04-25T09:20:16Z</time></trkpt><trkpt lat="43.56128127947684" lon="12.82884872375286"><ele>263.0</ele><time>2026-04-25T09:20:17Z</time></trkpt><trkpt lat="43.56136264380558" lon="12.828958861905813"><ele>263.0</ele><time>2026-04-25T09:20:18Z</time></trkpt><trkpt lat="43.561449869802686" lon="12.829084479923774"><ele>263.0</ele><time>2026-04-25T09:20:19Z</time></trkpt><trkpt lat="43.5615282923734" lon="12.829210611621809"><ele>263.0</ele><time>2026-04-25T09:20:20Z</time></trkpt><trkpt lat="43.56161833670083" lon="12.829339548335668"><ele>264.0</ele><time>2026-04-25T09:20:21Z</time></trkpt><trkpt lat="43.56171193769153" lon="12.82947037735896"><ele>265.0</ele><time>2026-04-25T09:20:22Z</time></trkpt><trkpt lat="43.561799171108376" lon="12.829598424572561"><ele>266.0</ele><time>2026-04-25T09:20:23Z</time></trkpt><trkpt lat="43.56188270166527" lon="12.829724470346024"><ele>267.0</ele><time>2026-04-25T09:20:24Z</time></trkpt><trkpt lat="43.56196316448346" lon="12.82984464013304"><ele>267.0</ele><time>2026-04-25T09:20:25Z</time></trkpt><trkpt lat="43.56202513162958" lon="12.829978375256534"><ele>267.0</ele><time>2026-04-25T09:20:26Z</time></trkpt><trkpt lat="43.56209806076269" lon="12.83008661597894"><ele>267.0</ele><time>2026-04-25T09:20:27Z</time></trkpt><trkpt lat="43.562160578145175" lon="12.830200391105329"><ele>267.0</ele><time>2026-04-25T09:20:28Z</time></trkpt><trkpt lat="43.56222673130349" lon="12.830307646587421"><ele>267.0</ele><time>2026-04-25T09:20:29Z</time></trkpt><trkpt lat="43.56228260731492" lon="12.830417977516797"><ele>266.4</ele><time>2026-04-25T09:20:30Z</time></trkpt><trkpt lat="43.56233428333027" lon="12.830528438251466"><ele>265.79999999999995</ele><time>2026-04-25T09:20:31Z</time></trkpt><trkpt lat="43.562382062990174" lon="12.83063910181409"><ele>265.2</ele><time>2026-04-25T09:20:32Z</time></trkpt><trkpt lat="43.562425419738446" lon="12.830746743435405"><ele>264.59999999999997</ele><time>2026-04-25T09:20:33Z</time></trkpt><trkpt lat="43.56245689888346" lon="12.830864396458397"><ele>264.0</ele><time>2026-04-25T09:20:34.001Z</time></trkpt><trkpt lat="43.562476322306864" lon="12.830984620916949"><ele>264.0</ele><time>2026-04-25T09:20:35.001Z</time></trkpt><trkpt lat="43.56248829646318" lon="12.831121633858922"><ele>264.0</ele><time>2026-04-25T09:20:36.001Z</time></trkpt><trkpt lat="43.56249153318998" lon="12.831261816175777"><ele>264.0</ele><time>2026-04-25T09:20:37.001Z</time></trkpt><trkpt lat="43.56248381914354" lon="12.831404591904622"><ele>264.0</ele><time>2026-04-25T09:20:38.001Z</time></trkpt><trkpt lat="43.562460389919046" lon="12.831550495885985"><ele>264.0</ele><time>2026-04-25T09:20:39.001Z</time></trkpt><trkpt lat="43.56242184569633" lon="12.831687343317435"><ele>264.0</ele><time>2026-04-25T09:20:40.001Z</time></trkpt><trkpt lat="43.56236924765535" lon="12.831820744869813"><ele>264.0</ele><time>2026-04-25T09:20:41.001Z</time></trkpt><trkpt lat="43.56230017389145" lon="12.831949173532848"><ele>264.0</ele><time>2026-04-25T09:20:42.001Z</time></trkpt><trkpt lat="43.56222026717544" lon="12.83206223243938"><ele>264.0</ele><time>2026-04-25T09:20:43.001Z</time></trkpt><trkpt lat="43.56212882922337" lon="12.83216265267615"><ele>267.5</ele><time>2026-04-25T09:20:44.001Z</time></trkpt><trkpt lat="43.562028303053" lon="12.832246015216922"><ele>271.0</ele><time>2026-04-25T09:20:45.001Z</time></trkpt><trkpt lat="43.561923973082514" lon="12.832315465027442"><ele>274.5</ele><time>2026-04-25T09:20:46Z</time></trkpt><trkpt lat="43.56181447833089" lon="12.832363059779045"><ele>278.0</ele><time>2026-04-25T09:20:47Z</time></trkpt><trkpt lat="43.56170902874072" lon="12.832387433404095"><ele>278.0</ele><time>2026-04-25T09:20:48Z</time></trkpt><trkpt lat="43.56161289028986" lon="12.832397503010373"><ele>278.0</ele><time>2026-04-25T09:20:49Z</time></trkpt><trkpt lat="43.5615425764268" lon="12.832390674107922"><ele>278.0</ele><time>2026-04-25T09:20:50Z</time></trkpt><trkpt lat="43.561482997398514" lon="12.832331212783757"><ele>278.0</ele><time>2026-04-25T09:20:52Z</time></trkpt><trkpt lat="43.56155877410449" lon="12.832177645537257"><ele>278.0</ele><time>2026-04-25T09:20:54Z</time></trkpt><trkpt lat="43.561595523418966" lon="12.832045458919634"><ele>278.0</ele><time>2026-04-25T09:20:55Z</time></trkpt><trkpt lat="43.56164259201747" lon="12.831922622274751"><ele>278.0</ele><time>2026-04-25T09:20:56Z</time></trkpt><trkpt lat="43.56168007000647" lon="12.831805607052425"><ele>278.0</ele><time>2026-04-25T09:20:57Z</time></trkpt><trkpt lat="43.56171027710233" lon="12.83170087199074"><ele>278.0</ele><time>2026-04-25T09:20:58Z</time></trkpt><trkpt lat="43.56173785315224" lon="12.83159541580514"><ele>278.0</ele><time>2026-04-25T09:20:59Z</time></trkpt><trkpt lat="43.56176358463325" lon="12.83150560964047"><ele>278.0</ele><time>2026-04-25T09:21:00Z</time></trkpt><trkpt lat="43.561812826486" lon="12.831386680972933"><ele>278.0</ele><time>2026-04-25T09:21:02Z</time></trkpt><trkpt lat="43.56186213473885" lon="12.83133084389748"><ele>278.0</ele><time>2026-04-25T09:21:05Z</time></trkpt><trkpt lat="43.56179154456879" lon="12.831372844311408"><ele>278.0</ele><time>2026-04-25T09:22:08Z</time></trkpt><trkpt lat="43.561720004987784" lon="12.831460464589657"><ele>278.0</ele><time>2026-04-25T09:22:10Z</time></trkpt><trkpt lat="43.56167386514296" lon="12.831578694866707"><ele>278.0</ele><time>2026-04-25T09:22:12Z</time></trkpt><trkpt lat="43.56164661365282" lon="12.831732570593266"><ele>278.0</ele><time>2026-04-25T09:22:14Z</time></trkpt><trkpt lat="43.56161628009202" lon="12.831851329076647"><ele>278.0</ele><time>2026-04-25T09:22:16Z</time></trkpt><trkpt lat="43.5615939692466" lon="12.83198979211058"><ele>278.0</ele><time>2026-04-25T09:22:18Z</time></trkpt><trkpt lat="43.561540098364915" lon="12.832119181305435"><ele>278.0</ele><time>2026-04-25T09:22:20Z</time></trkpt><trkpt lat="43.561478476135306" lon="12.832212275202679"><ele>278.0</ele><time>2026-04-25T09:22:22Z</time></trkpt><trkpt lat="43.56143467206958" lon="12.832307485913308"><ele>278.0</ele><time>2026-04-25T09:22:24Z</time></trkpt><trkpt lat="43.561393098700584" lon="12.832405617887233"><ele>278.0</ele><time>2026-04-25T09:22:29Z</time></trkpt><trkpt lat="43.56127659149696" lon="12.832355772671903"><ele>278.0</ele><time>2026-04-25T09:22:30Z</time></trkpt><trkpt lat="43.56120068790203" lon="12.832344111041067"><ele>278.0</ele><time>2026-04-25T09:22:31Z</time></trkpt><trkpt lat="43.56113022346042" lon="12.832295057756134"><ele>278.0</ele><time>2026-04-25T09:22:33Z</time></trkpt><trkpt lat="43.56114412986151" lon="12.83219522647979"><ele>278.0</ele><time>2026-04-25T09:22:35Z</time></trkpt><trkpt lat="43.56118240055569" lon="12.83211971518465"><ele>278.0</ele><time>2026-04-25T09:22:36Z</time></trkpt><trkpt lat="43.56121927904186" lon="12.832044074066815"><ele>278.0</ele><time>2026-04-25T09:22:37Z</time></trkpt><trkpt lat="43.561289055585796" lon="12.83190387083632"><ele>278.0</ele><time>2026-04-25T09:22:39Z</time></trkpt><trkpt lat="43.56131301357979" lon="12.831739247028588"><ele>278.0</ele><time>2026-04-25T09:22:41.001Z</time></trkpt><trkpt lat="43.56130115458853" lon="12.831641661193123"><ele>278.0</ele><time>2026-04-25T09:22:42.001Z</time></trkpt><trkpt lat="43.56126202989129" lon="12.831543119200676"><ele>278.0</ele><time>2026-04-25T09:22:43.001Z</time></trkpt><trkpt lat="43.56120460961043" lon="12.831447161605453"><ele>279.2</ele><time>2026-04-25T09:22:44.001Z</time></trkpt><trkpt lat="43.561152617494734" lon="12.83133693873147"><ele>280.4</ele><time>2026-04-25T09:22:45Z</time></trkpt><trkpt lat="43.561093605206196" lon="12.831234263525314"><ele>281.59999999999997</ele><time>2026-04-25T09:22:46Z</time></trkpt><trkpt lat="43.56103794317621" lon="12.831135282736453"><ele>282.8</ele><time>2026-04-25T09:22:47Z</time></trkpt><trkpt lat="43.56098571728975" lon="12.831038549196693"><ele>284.0</ele><time>2026-04-25T09:22:48Z</time></trkpt><trkpt lat="43.56091446849859" lon="12.83089827907189"><ele>284.0</ele><time>2026-04-25T09:22:49Z</time></trkpt><trkpt lat="43.56085081444212" lon="12.830785046266818"><ele>284.0</ele><time>2026-04-25T09:22:50Z</time></trkpt><trkpt lat="43.560786742453374" lon="12.830682183440342"><ele>284.0</ele><time>2026-04-25T09:22:51Z</time></trkpt><trkpt lat="43.56073169921377" lon="12.830595428683152"><ele>284.0</ele><time>2026-04-25T09:22:52Z</time></trkpt><trkpt lat="43.56067292739419" lon="12.830510492919379"><ele>284.0</ele><time>2026-04-25T09:22:53Z</time></trkpt><trkpt lat="43.56060068025959" lon="12.83043175719267"><ele>284.0</ele><time>2026-04-25T09:22:54Z</time></trkpt><trkpt lat="43.56052926270797" lon="12.830367897136497"><ele>284.0</ele><time>2026-04-25T09:22:55Z</time></trkpt><trkpt lat="43.56045290853171" lon="12.830314534979173"><ele>284.0</ele><time>2026-04-25T09:22:56Z</time></trkpt><trkpt lat="43.560366193915186" lon="12.830264858336278"><ele>284.0</ele><time>2026-04-25T09:22:57Z</time></trkpt><trkpt lat="43.560263725664484" lon="12.830245263093875"><ele>284.0</ele><time>2026-04-25T09:22:58Z</time></trkpt><trkpt lat="43.56016645097707" lon="12.83024279941044"><ele>287.8</ele><time>2026-04-25T09:22:59Z</time></trkpt><trkpt lat="43.5600713204285" lon="12.830243794545982"><ele>291.59999999999997</ele><time>2026-04-25T09:23:00Z</time></trkpt><trkpt lat="43.55997155886034" lon="12.830253387864635"><ele>295.4</ele><time>2026-04-25T09:23:01Z</time></trkpt><trkpt lat="43.55988164493685" lon="12.83023281584188"><ele>299.2</ele><time>2026-04-25T09:23:02Z</time></trkpt><trkpt lat="43.559773840857304" lon="12.830229454268535"><ele>303.0</ele><time>2026-04-25T09:23:03Z</time></trkpt><trkpt lat="43.55966453085822" lon="12.830225773567136"><ele>303.0</ele><time>2026-04-25T09:23:04Z</time></trkpt><trkpt lat="43.55954814523763" lon="12.830224000744174"><ele>303.0</ele><time>2026-04-25T09:23:05Z</time></trkpt><trkpt lat="43.559434879634146" lon="12.830243980091582"><ele>303.0</ele><time>2026-04-25T09:23:06Z</time></trkpt><trkpt lat="43.559327478436145" lon="12.83023597969068"><ele>303.0</ele><time>2026-04-25T09:23:07Z</time></trkpt><trkpt lat="43.559217631913015" lon="12.830225695180696"><ele>303.0</ele><time>2026-04-25T09:23:08Z</time></trkpt><trkpt lat="43.559127665792865" lon="12.830188384468316"><ele>304.2</ele><time>2026-04-25T09:23:09Z</time></trkpt><trkpt lat="43.55902449794969" lon="12.83016544827191"><ele>305.4</ele><time>2026-04-25T09:23:10Z</time></trkpt><trkpt lat="43.558933898202824" lon="12.83017215580361"><ele>306.59999999999997</ele><time>2026-04-25T09:23:11Z</time></trkpt><trkpt lat="43.55883530900833" lon="12.83015200323796"><ele>307.8</ele><time>2026-04-25T09:23:12Z</time></trkpt><trkpt lat="43.558749824382055" lon="12.83016961160764"><ele>309.0</ele><time>2026-04-25T09:23:13Z</time></trkpt><trkpt lat="43.558673161701556" lon="12.83022938358163"><ele>309.0</ele><time>2026-04-25T09:23:14Z</time></trkpt><trkpt lat="43.558607269030965" lon="12.830305243326643"><ele>309.0</ele><time>2026-04-25T09:23:15Z</time></trkpt><trkpt lat="43.55854757884103" lon="12.83039399573536"><ele>309.0</ele><time>2026-04-25T09:23:16Z</time></trkpt><trkpt lat="43.55849245411654" lon="12.830487052376863"><ele>309.0</ele><time>2026-04-25T09:23:17Z</time></trkpt><trkpt lat="43.55844277390228" lon="12.830580961050329"><ele>309.0</ele><time>2026-04-25T09:23:18Z</time></trkpt><trkpt lat="43.5583791932849" lon="12.830655846062877"><ele>309.0</ele><time>2026-04-25T09:23:19Z</time></trkpt><trkpt lat="43.558289812547564" lon="12.830710404480387"><ele>309.0</ele><time>2026-04-25T09:23:20Z</time></trkpt><trkpt lat="43.5582107771413" lon="12.83076582111844"><ele>309.0</ele><time>2026-04-25T09:23:21Z</time></trkpt><trkpt lat="43.55811949575653" lon="12.830805982695365"><ele>309.0</ele><time>2026-04-25T09:23:22Z</time></trkpt><trkpt lat="43.55802905918992" lon="12.83083599920009"><ele>309.0</ele><time>2026-04-25T09:23:23Z</time></trkpt><trkpt lat="43.55794881432807" lon="12.830871126971115"><ele>309.0</ele><time>2026-04-25T09:23:24Z</time></trkpt><trkpt lat="43.557866236774956" lon="12.83090562869839"><ele>309.0</ele><time>2026-04-25T09:23:25Z</time></trkpt><trkpt lat="43.55778227311203" lon="12.830936834506145"><ele>309.59999999999997</ele><time>2026-04-25T09:23:26Z</time></trkpt><trkpt lat="43.55768920331092" lon="12.830966053329652"><ele>310.2</ele><time>2026-04-25T09:23:27Z</time></trkpt><trkpt lat="43.557594874817774" lon="12.830992855730042"><ele>310.79999999999995</ele><time>2026-04-25T09:23:28Z</time></trkpt><trkpt lat="43.55750119800156" lon="12.83102329613295"><ele>311.4</ele><time>2026-04-25T09:23:29Z</time></trkpt><trkpt lat="43.55739685910522" lon="12.831047511850256"><ele>312.0</ele><time>2026-04-25T09:23:30Z</time></trkpt><trkpt lat="43.557296666919115" lon="12.831088310791463"><ele>312.0</ele><time>2026-04-25T09:23:31Z</time></trkpt><trkpt lat="43.55719194026644" lon="12.831106454359"><ele>312.0</ele><time>2026-04-25T09:23:32Z</time></trkpt><trkpt lat="43.557093671460386" lon="12.831133349558744"><ele>312.0</ele><time>2026-04-25T09:23:33Z</time></trkpt><trkpt lat="43.556986720133885" lon="12.83112556241241"><ele>312.0</ele><time>2026-04-25T09:23:34Z</time></trkpt><trkpt lat="43.556879806292656" lon="12.83111507796271"><ele>312.0</ele><time>2026-04-25T09:23:35Z</time></trkpt><trkpt lat="43.55677176611278" lon="12.831120727858902"><ele>312.75</ele><time>2026-04-25T09:23:36Z</time></trkpt><trkpt lat="43.55664841071278" lon="12.831096109939871"><ele>313.5</ele><time>2026-04-25T09:23:37Z</time></trkpt><trkpt lat="43.55653138886532" lon="12.831046294484473"><ele>314.25</ele><time>2026-04-25T09:23:38Z</time></trkpt><trkpt lat="43.55640919997579" lon="12.831004425691816"><ele>315.0</ele><time>2026-04-25T09:23:39Z</time></trkpt><trkpt lat="43.55630939728858" lon="12.830966470458316"><ele>315.6</ele><time>2026-04-25T09:23:40Z</time></trkpt><trkpt lat="43.556199870333515" lon="12.830936791646048"><ele>316.2</ele><time>2026-04-25T09:23:41Z</time></trkpt><trkpt lat="43.556090474668174" lon="12.83089990316161"><ele>316.8</ele><time>2026-04-25T09:23:42Z</time></trkpt><trkpt lat="43.555979573965885" lon="12.830856655393585"><ele>317.4</ele><time>2026-04-25T09:23:43Z</time></trkpt><trkpt lat="43.555901934479046" lon="12.830842337922531"><ele>318.0</ele><time>2026-04-25T09:23:44Z</time></trkpt><trkpt lat="43.5557967824414" lon="12.830791470546236"><ele>318.0</ele><time>2026-04-25T09:23:45Z</time></trkpt><trkpt lat="43.55570427693097" lon="12.830770536175503"><ele>318.0</ele><time>2026-04-25T09:23:46Z</time></trkpt><trkpt lat="43.55561651872274" lon="12.83075247601737"><ele>318.0</ele><time>2026-04-25T09:23:47Z</time></trkpt><trkpt lat="43.55552901815601" lon="12.830757037305098"><ele>318.0</ele><time>2026-04-25T09:23:48Z</time></trkpt><trkpt lat="43.555442943623206" lon="12.830737986119024"><ele>318.0</ele><time>2026-04-25T09:23:49Z</time></trkpt><trkpt lat="43.55535892968281" lon="12.83073107172726"><ele>318.0</ele><time>2026-04-25T09:23:50Z</time></trkpt><trkpt lat="43.55529134893306" lon="12.830698184410936"><ele>318.0</ele><time>2026-04-25T09:23:51Z</time></trkpt><trkpt lat="43.55516910856584" lon="12.83067838140567"><ele>318.0</ele><time>2026-04-25T09:23:53Z</time></trkpt><trkpt lat="43.55506877084771" lon="12.830660674131227"><ele>318.0</ele><time>2026-04-25T09:23:55Z</time></trkpt><trkpt lat="43.55497385147167" lon="12.83065080036532"><ele>318.0</ele><time>2026-04-25T09:23:57Z</time></trkpt><trkpt lat="43.55485562611692" lon="12.830631587154489"><ele>318.0</ele><time>2026-04-25T09:23:59Z</time></trkpt><trkpt lat="43.554744791181" lon="12.83061387668481"><ele>318.0</ele><time>2026-04-25T09:24:01Z</time></trkpt><trkpt lat="43.55462894464214" lon="12.830621181197516"><ele>318.0</ele><time>2026-04-25T09:24:03Z</time></trkpt><trkpt lat="43.55456229210862" lon="12.830640432854915"><ele>318.0</ele><time>2026-04-25T09:24:04Z</time></trkpt><trkpt lat="43.55449739498314" lon="12.830641774306644"><ele>318.0</ele><time>2026-04-25T09:24:05Z</time></trkpt><trkpt lat="43.554427122363" lon="12.830646698434032"><ele>318.0</ele><time>2026-04-25T09:24:06Z</time></trkpt><trkpt lat="43.55435444318988" lon="12.830646617560234"><ele>318.0</ele><time>2026-04-25T09:24:07Z</time></trkpt><trkpt lat="43.554280061077655" lon="12.830654482016994"><ele>318.0</ele><time>2026-04-25T09:24:08Z</time></trkpt><trkpt lat="43.55420625287804" lon="12.830661638753611"><ele>318.0</ele><time>2026-04-25T09:24:09Z</time></trkpt><trkpt lat="43.55413187335248" lon="12.830664322883655"><ele>318.0</ele><time>2026-04-25T09:24:10Z</time></trkpt><trkpt lat="43.55405751767324" lon="12.830670350080007"><ele>318.0</ele><time>2026-04-25T09:24:11Z</time></trkpt><trkpt lat="43.55398381778387" lon="12.830680242102295"><ele>318.0</ele><time>2026-04-25T09:24:12Z</time></trkpt><trkpt lat="43.55390698915222" lon="12.830680992463105"><ele>318.0</ele><time>2026-04-25T09:24:13Z</time></trkpt><trkpt lat="43.55381959368247" lon="12.830683546673985"><ele>318.0</ele><time>2026-04-25T09:24:14Z</time></trkpt><trkpt lat="43.55373249975724" lon="12.830684766492778"><ele>318.0</ele><time>2026-04-25T09:24:15Z</time></trkpt><trkpt lat="43.55364296936581" lon="12.830662392525639"><ele>318.0</ele><time>2026-04-25T09:24:16Z</time></trkpt><trkpt lat="43.55353955494607" lon="12.83064905324273"><ele>318.0</ele><time>2026-04-25T09:24:17Z</time></trkpt><trkpt lat="43.55345479632563" lon="12.830621136823591"><ele>318.0</ele><time>2026-04-25T09:24:18Z</time></trkpt><trkpt lat="43.55334778248815" lon="12.830618643218473"><ele>318.2</ele><time>2026-04-25T09:24:19Z</time></trkpt><trkpt lat="43.553241793030395" lon="12.830588791443843"><ele>318.4</ele><time>2026-04-25T09:24:20Z</time></trkpt><trkpt lat="43.553168169565396" lon="12.830567927565081"><ele>318.59999999999997</ele><time>2026-04-25T09:24:21Z</time></trkpt><trkpt lat="43.553079101773605" lon="12.830536968686921"><ele>318.8</ele><time>2026-04-25T09:24:22Z</time></trkpt><trkpt lat="43.55298145388111" lon="12.830519623086927"><ele>319.0</ele><time>2026-04-25T09:24:23Z</time></trkpt><trkpt lat="43.55288540004843" lon="12.83051721013217"><ele>318.75</ele><time>2026-04-25T09:24:24Z</time></trkpt><trkpt lat="43.55278291020618" lon="12.830533865176081"><ele>318.5</ele><time>2026-04-25T09:24:25Z</time></trkpt><trkpt lat="43.552675387281326" lon="12.8305589641772"><ele>318.25</ele><time>2026-04-25T09:24:26Z</time></trkpt><trkpt lat="43.55254950853453" lon="12.830582208063662"><ele>318.0</ele><time>2026-04-25T09:24:27Z</time></trkpt><trkpt lat="43.55243814482071" lon="12.83060127650725"><ele>318.0</ele><time>2026-04-25T09:24:28Z</time></trkpt><trkpt lat="43.552319734497836" lon="12.830628860795606"><ele>318.0</ele><time>2026-04-25T09:24:29Z</time></trkpt><trkpt lat="43.552203183576616" lon="12.830654362748636"><ele>318.0</ele><time>2026-04-25T09:24:30Z</time></trkpt><trkpt lat="43.5520717468522" lon="12.83067372838472"><ele>318.0</ele><time>2026-04-25T09:24:31Z</time></trkpt><trkpt lat="43.551935926431696" lon="12.83068663866211"><ele>319.0</ele><time>2026-04-25T09:24:32Z</time></trkpt><trkpt lat="43.551791910883786" lon="12.83069302196329"><ele>320.0</ele><time>2026-04-25T09:24:33Z</time></trkpt><trkpt lat="43.55164670588058" lon="12.830708610690882"><ele>321.0</ele><time>2026-04-25T09:24:34Z</time></trkpt><trkpt lat="43.551505430603534" lon="12.83072084164511"><ele>322.0</ele><time>2026-04-25T09:24:35Z</time></trkpt><trkpt lat="43.55135296217586" lon="12.830732487782262"><ele>321.75</ele><time>2026-04-25T09:24:36Z</time></trkpt><trkpt lat="43.55120516858955" lon="12.83074252363781"><ele>321.5</ele><time>2026-04-25T09:24:37Z</time></trkpt><trkpt lat="43.551055815193955" lon="12.830755111564926"><ele>321.25</ele><time>2026-04-25T09:24:38Z</time></trkpt><trkpt lat="43.55091480578464" lon="12.83076636733852"><ele>321.0</ele><time>2026-04-25T09:24:39Z</time></trkpt><trkpt lat="43.55078088953828" lon="12.830745221198589"><ele>321.0</ele><time>2026-04-25T09:24:40Z</time></trkpt><trkpt lat="43.55062323424918" lon="12.830738144625935"><ele>321.0</ele><time>2026-04-25T09:24:41Z</time></trkpt><trkpt lat="43.55046893256097" lon="12.830720245850346"><ele>321.0</ele><time>2026-04-25T09:24:42Z</time></trkpt><trkpt lat="43.550308441595654" lon="12.830681853660828"><ele>321.6666666666667</ele><time>2026-04-25T09:24:43Z</time></trkpt><trkpt lat="43.55015162424421" lon="12.830655671941722"><ele>322.33333333333337</ele><time>2026-04-25T09:24:44Z</time></trkpt><trkpt lat="43.54999577686921" lon="12.830609868842684"><ele>323.0</ele><time>2026-04-25T09:24:45Z</time></trkpt><trkpt lat="43.549858215949484" lon="12.830585423915899"><ele>323.0</ele><time>2026-04-25T09:24:46Z</time></trkpt><trkpt lat="43.549722746908586" lon="12.830561350737652"><ele>323.0</ele><time>2026-04-25T09:24:47Z</time></trkpt><trkpt lat="43.54959616145945" lon="12.830534920429002"><ele>323.0</ele><time>2026-04-25T09:24:48Z</time></trkpt><trkpt lat="43.54949003427999" lon="12.83051135937623"><ele>323.0</ele><time>2026-04-25T09:24:49Z</time></trkpt><trkpt lat="43.549400737298804" lon="12.830491534732838"><ele>323.59999999999997</ele><time>2026-04-25T09:24:50Z</time></trkpt><trkpt lat="43.54932121793233" lon="12.830467935064028"><ele>324.2</ele><time>2026-04-25T09:24:51Z</time></trkpt><trkpt lat="43.54924181327845" lon="12.830431877249202"><ele>324.8</ele><time>2026-04-25T09:24:52Z</time></trkpt><trkpt lat="43.54917916222948" lon="12.830408291861664"><ele>325.4</ele><time>2026-04-25T09:24:53Z</time></trkpt><trkpt lat="43.54913978837291" lon="12.830202050832662"><ele>326.0</ele><time>2026-04-25T09:24:55Z</time></trkpt><trkpt lat="43.54913036028239" lon="12.830110613860942"><ele>327.20000000000005</ele><time>2026-04-25T09:24:56Z</time></trkpt><trkpt lat="43.54913983331757" lon="12.829935807289138"><ele>328.40000000000003</ele><time>2026-04-25T09:24:58Z</time></trkpt><trkpt lat="43.549149926521636" lon="12.829823296824573"><ele>329.6</ele><time>2026-04-25T09:24:59Z</time></trkpt><trkpt lat="43.54916388100917" lon="12.829719998528308"><ele>330.8</ele><time>2026-04-25T09:25:00Z</time></trkpt><trkpt lat="43.54919707655789" lon="12.829591127496991"><ele>332.0</ele><time>2026-04-25T09:25:02Z</time></trkpt><trkpt lat="43.54920386499748" lon="12.829432236644184"><ele>331.5</ele><time>2026-04-25T09:25:04Z</time></trkpt><trkpt lat="43.54917476756388" lon="12.829288290965485"><ele>331.0</ele><time>2026-04-25T09:25:06Z</time></trkpt><trkpt lat="43.5491256270034" lon="12.829142057186965"><ele>330.5</ele><time>2026-04-25T09:25:08Z</time></trkpt><trkpt lat="43.549089822106005" lon="12.82906819918927"><ele>330.0</ele><time>2026-04-25T09:25:09Z</time></trkpt><trkpt lat="43.549054088727935" lon="12.828985090135323"><ele>329.5</ele><time>2026-04-25T09:25:10Z</time></trkpt><trkpt lat="43.54903744952144" lon="12.828893387469243"><ele>329.0</ele><time>2026-04-25T09:25:11Z</time></trkpt><trkpt lat="43.5490237932205" lon="12.828787515506173"><ele>329.0</ele><time>2026-04-25T09:25:12Z</time></trkpt><trkpt lat="43.54901925392224" lon="12.828688701130048"><ele>329.0</ele><time>2026-04-25T09:25:13Z</time></trkpt><trkpt lat="43.549022572766646" lon="12.828585951017649"><ele>329.0</ele><time>2026-04-25T09:25:14Z</time></trkpt><trkpt lat="43.54901939640734" lon="12.82849736447328"><ele>329.0</ele><time>2026-04-25T09:25:15Z</time></trkpt><trkpt lat="43.54899641914018" lon="12.828365048788438"><ele>329.0</ele><time>2026-04-25T09:25:17Z</time></trkpt><trkpt lat="43.54906327133971" lon="12.828274609981339"><ele>329.0</ele><time>2026-04-25T09:25:19Z</time></trkpt><trkpt lat="43.54912607339891" lon="12.828195880364403"><ele>329.2</ele><time>2026-04-25T09:25:21Z</time></trkpt><trkpt lat="43.54917328569328" lon="12.828084350948357"><ele>329.4</ele><time>2026-04-25T09:25:23Z</time></trkpt><trkpt lat="43.54917834496013" lon="12.827943404145202"><ele>329.6</ele><time>2026-04-25T09:25:25Z</time></trkpt><trkpt lat="43.54922023170619" lon="12.827877414472685"><ele>329.8</ele><time>2026-04-25T09:25:26Z</time></trkpt><trkpt lat="43.54927533157832" lon="12.8277475509566"><ele>330.0</ele><time>2026-04-25T09:25:28Z</time></trkpt><trkpt lat="43.5493742653625" lon="12.827689113154793"><ele>330.0</ele><time>2026-04-25T09:25:30Z</time></trkpt><trkpt lat="43.54943890760063" lon="12.827690413142221"><ele>330.0</ele><time>2026-04-25T09:25:31Z</time></trkpt><trkpt lat="43.54956969067044" lon="12.827710963723662"><ele>330.0</ele><time>2026-04-25T09:25:33Z</time></trkpt><trkpt lat="43.54964639068275" lon="12.827722630893868"><ele>330.0</ele><time>2026-04-25T09:25:34Z</time></trkpt><trkpt lat="43.54972024843051" lon="12.82773874558362"><ele>330.0</ele><time>2026-04-25T09:25:35Z</time></trkpt><trkpt lat="43.54979555363119" lon="12.82775173236988"><ele>330.0</ele><time>2026-04-25T09:25:36Z</time></trkpt><trkpt lat="43.549871961975605" lon="12.827764903201793"><ele>329.2</ele><time>2026-04-25T09:25:37Z</time></trkpt><trkpt lat="43.54994238757432" lon="12.827776998328371"><ele>328.4</ele><time>2026-04-25T09:25:38Z</time></trkpt><trkpt lat="43.55000819414035" lon="12.827783036123488"><ele>327.6</ele><time>2026-04-25T09:25:39Z</time></trkpt><trkpt lat="43.55012888363654" lon="12.827807750615353"><ele>326.8</ele><time>2026-04-25T09:25:41Z</time></trkpt><trkpt lat="43.55023749726933" lon="12.82783022845219"><ele>326.0</ele><time>2026-04-25T09:25:43Z</time></trkpt><trkpt lat="43.55032898451776" lon="12.827838181586879"><ele>325.20000000000005</ele><time>2026-04-25T09:25:45Z</time></trkpt><trkpt lat="43.55040603768139" lon="12.827765253767353"><ele>324.40000000000003</ele><time>2026-04-25T09:25:47Z</time></trkpt><trkpt lat="43.55041910223203" lon="12.827619202988407"><ele>323.6</ele><time>2026-04-25T09:25:49Z</time></trkpt><trkpt lat="43.55041621763678" lon="12.827473328455895"><ele>322.8</ele><time>2026-04-25T09:25:51Z</time></trkpt><trkpt lat="43.550400170075946" lon="12.827355124409651"><ele>322.0</ele><time>2026-04-25T09:25:53Z</time></trkpt><trkpt lat="43.55037973312317" lon="12.827262504989102"><ele>322.0</ele><time>2026-04-25T09:25:56Z</time></trkpt><trkpt lat="43.55040042882797" lon="12.827358762960564"><ele>322.0</ele><time>2026-04-25T09:26:31Z</time></trkpt><trkpt lat="43.550414949642736" lon="12.827463927992317"><ele>322.0</ele><time>2026-04-25T09:26:34Z</time></trkpt><trkpt lat="43.55041140366856" lon="12.827581365292321"><ele>322.0</ele><time>2026-04-25T09:26:37Z</time></trkpt><trkpt lat="43.55041016886328" lon="12.82768245590037"><ele>322.0</ele><time>2026-04-25T09:26:39Z</time></trkpt><trkpt lat="43.55038061698254" lon="12.82784784124295"><ele>322.0</ele><time>2026-04-25T09:26:41Z</time></trkpt><trkpt lat="43.55028094810164" lon="12.82784603514699"><ele>323.0</ele><time>2026-04-25T09:26:43Z</time></trkpt><trkpt lat="43.550183376386414" lon="12.827817254972912"><ele>324.0</ele><time>2026-04-25T09:26:44Z</time></trkpt><trkpt lat="43.55005748882921" lon="12.827798657688703"><ele>325.0</ele><time>2026-04-25T09:26:45Z</time></trkpt><trkpt lat="43.54991907625641" lon="12.827787312298172"><ele>326.0</ele><time>2026-04-25T09:26:46Z</time></trkpt><trkpt lat="43.549781662083596" lon="12.827748267723612"><ele>326.0</ele><time>2026-04-25T09:26:47Z</time></trkpt><trkpt lat="43.54968144216339" lon="12.827733073898399"><ele>326.0</ele><time>2026-04-25T09:26:48Z</time></trkpt><trkpt lat="43.54959544098385" lon="12.827705507957432"><ele>326.0</ele><time>2026-04-25T09:26:49Z</time></trkpt><trkpt lat="43.549523998911496" lon="12.827688421040008"><ele>326.0</ele><time>2026-04-25T09:26:50Z</time></trkpt><trkpt lat="43.54945585373794" lon="12.8276755264479"><ele>326.0</ele><time>2026-04-25T09:26:51Z</time></trkpt><trkpt lat="43.549385106885644" lon="12.827667572936251"><ele>326.0</ele><time>2026-04-25T09:26:52Z</time></trkpt><trkpt lat="43.549319646313585" lon="12.827676645324043"><ele>326.6666666666667</ele><time>2026-04-25T09:26:53Z</time></trkpt><trkpt lat="43.54925903726248" lon="12.827718861047583"><ele>327.33333333333337</ele><time>2026-04-25T09:26:54Z</time></trkpt><trkpt lat="43.54920935801301" lon="12.827774939161333"><ele>328.0</ele><time>2026-04-25T09:26:55Z</time></trkpt><trkpt lat="43.54916401926076" lon="12.827919737240537"><ele>328.6666666666667</ele><time>2026-04-25T09:26:57Z</time></trkpt><trkpt lat="43.549132658253264" lon="12.828035381610158"><ele>329.3333333333333</ele><time>2026-04-25T09:26:59Z</time></trkpt><trkpt lat="43.54909209984403" lon="12.828171551407193"><ele>330.0</ele><time>2026-04-25T09:27:01Z</time></trkpt><trkpt lat="43.549046130775835" lon="12.828290664819187"><ele>330.0</ele><time>2026-04-25T09:27:03Z</time></trkpt><trkpt lat="43.54898067877197" lon="12.828438616118742"><ele>330.0</ele><time>2026-04-25T09:27:05Z</time></trkpt><trkpt lat="43.54900085566168" lon="12.828596646014496"><ele>330.0</ele><time>2026-04-25T09:27:07Z</time></trkpt><trkpt lat="43.54900822034687" lon="12.828712285848416"><ele>330.0</ele><time>2026-04-25T09:27:08Z</time></trkpt><trkpt lat="43.54902313559512" lon="12.828834693486398"><ele>330.0</ele><time>2026-04-25T09:27:10Z</time></trkpt><trkpt lat="43.549033608798815" lon="12.828988211736197"><ele>329.8</ele><time>2026-04-25T09:27:12Z</time></trkpt><trkpt lat="43.54908529903279" lon="12.829137741139675"><ele>329.6</ele><time>2026-04-25T09:27:14Z</time></trkpt><trkpt lat="43.549141232989314" lon="12.829271536441064"><ele>329.4</ele><time>2026-04-25T09:27:16Z</time></trkpt><trkpt lat="43.549154397589255" lon="12.829382157771544"><ele>329.2</ele><time>2026-04-25T09:27:18Z</time></trkpt><trkpt lat="43.54915241180056" lon="12.82951447460575"><ele>329.0</ele><time>2026-04-25T09:27:21Z</time></trkpt><trkpt lat="43.54915349560672" lon="12.829606901129445"><ele>329.5</ele><time>2026-04-25T09:27:23Z</time></trkpt><trkpt lat="43.54912617911184" lon="12.829731455418539"><ele>330.0</ele><time>2026-04-25T09:27:25Z</time></trkpt><trkpt lat="43.54910299877269" lon="12.829885219173667"><ele>330.5</ele><time>2026-04-25T09:27:27Z</time></trkpt><trkpt lat="43.54909749199128" lon="12.829974797996275"><ele>331.0</ele><time>2026-04-25T09:27:28Z</time></trkpt><trkpt lat="43.54909882170186" lon="12.830071103466919"><ele>331.5</ele><time>2026-04-25T09:27:29Z</time></trkpt><trkpt lat="43.54911154633455" lon="12.830169257495331"><ele>332.0</ele><time>2026-04-25T09:27:30Z</time></trkpt><trkpt lat="43.54912863884457" lon="12.830326671382188"><ele>330.8</ele><time>2026-04-25T09:27:32Z</time></trkpt><trkpt lat="43.54899828870006" lon="12.830391297426658"><ele>329.6</ele><time>2026-04-25T09:27:36Z</time></trkpt><trkpt lat="43.548916975251636" lon="12.830353006144168"><ele>328.40000000000003</ele><time>2026-04-25T09:27:37Z</time></trkpt><trkpt lat="43.548822057498484" lon="12.83031794530997"><ele>327.20000000000005</ele><time>2026-04-25T09:27:38Z</time></trkpt><trkpt lat="43.54871759624744" lon="12.830285486884078"><ele>326.0</ele><time>2026-04-25T09:27:39Z</time></trkpt><trkpt lat="43.54860827547428" lon="12.830248942128067"><ele>326.0</ele><time>2026-04-25T09:27:40Z</time></trkpt><trkpt lat="43.54849646285391" lon="12.830219672453866"><ele>326.0</ele><time>2026-04-25T09:27:41Z</time></trkpt><trkpt lat="43.54837789798823" lon="12.830176661448181"><ele>326.0</ele><time>2026-04-25T09:27:42Z</time></trkpt><trkpt lat="43.54825790757044" lon="12.830130531817616"><ele>326.0</ele><time>2026-04-25T09:27:43Z</time></trkpt><trkpt lat="43.548138933921656" lon="12.83009117946391"><ele>327.20000000000005</ele><time>2026-04-25T09:27:44Z</time></trkpt><trkpt lat="43.54804317005979" lon="12.830056076435984"><ele>328.40000000000003</ele><time>2026-04-25T09:27:45Z</time></trkpt><trkpt lat="43.547950844350794" lon="12.830024513606611"><ele>329.6</ele><time>2026-04-25T09:27:46Z</time></trkpt><trkpt lat="43.54785856122154" lon="12.829996259010574"><ele>330.8</ele><time>2026-04-25T09:27:47Z</time></trkpt><trkpt lat="43.547758466717006" lon="12.829966677023618"><ele>332.0</ele><time>2026-04-25T09:27:48Z</time></trkpt><trkpt lat="43.547660404253094" lon="12.829934506785541"><ele>332.40000000000003</ele><time>2026-04-25T09:27:49Z</time></trkpt><trkpt lat="43.547555690769116" lon="12.829909701526061"><ele>332.8</ele><time>2026-04-25T09:27:50Z</time></trkpt><trkpt lat="43.547451439696935" lon="12.829913732034738"><ele>333.2</ele><time>2026-04-25T09:27:51Z</time></trkpt><trkpt lat="43.54735314130179" lon="12.829924904032131"><ele>333.6</ele><time>2026-04-25T09:27:52Z</time></trkpt><trkpt lat="43.547258681758265" lon="12.82994553891072"><ele>334.0</ele><time>2026-04-25T09:27:53Z</time></trkpt><trkpt lat="43.54715997910246" lon="12.829960715533721"><ele>334.0</ele><time>2026-04-25T09:27:54Z</time></trkpt><trkpt lat="43.5470625790703" lon="12.829980954382286"><ele>334.0</ele><time>2026-04-25T09:27:55Z</time></trkpt><trkpt lat="43.54695525878448" lon="12.82998956690271"><ele>334.0</ele><time>2026-04-25T09:27:56Z</time></trkpt><trkpt lat="43.54684997135003" lon="12.830002775282908"><ele>334.0</ele><time>2026-04-25T09:27:57Z</time></trkpt><trkpt lat="43.546737699946355" lon="12.830015734793975"><ele>334.0</ele><time>2026-04-25T09:27:58Z</time></trkpt><trkpt lat="43.546639919308554" lon="12.830026227659841"><ele>334.4</ele><time>2026-04-25T09:27:59Z</time></trkpt><trkpt lat="43.54653182253836" lon="12.830026668232227"><ele>334.79999999999995</ele><time>2026-04-25T09:28:00Z</time></trkpt><trkpt lat="43.54642346419385" lon="12.830018892201867"><ele>335.20000000000005</ele><time>2026-04-25T09:28:01Z</time></trkpt><trkpt lat="43.54630920781576" lon="12.83001351066452"><ele>335.6</ele><time>2026-04-25T09:28:02Z</time></trkpt><trkpt lat="43.54619189854713" lon="12.830005468166908"><ele>336.0</ele><time>2026-04-25T09:28:03Z</time></trkpt><trkpt lat="43.54607725990934" lon="12.830001713353473"><ele>336.6</ele><time>2026-04-25T09:28:04Z</time></trkpt><trkpt lat="43.545964347171385" lon="12.829988311900287"><ele>337.20000000000005</ele><time>2026-04-25T09:28:05Z</time></trkpt><trkpt lat="43.545850323095316" lon="12.829975651364421"><ele>337.79999999999995</ele><time>2026-04-25T09:28:06Z</time></trkpt><trkpt lat="43.54574413111678" lon="12.829969364511985"><ele>338.4</ele><time>2026-04-25T09:28:07Z</time></trkpt><trkpt lat="43.54563789569868" lon="12.829956535272688"><ele>339.0</ele><time>2026-04-25T09:28:08Z</time></trkpt><trkpt lat="43.54552961983503" lon="12.829936587458377"><ele>339.0</ele><time>2026-04-25T09:28:09Z</time></trkpt><trkpt lat="43.545421417646175" lon="12.829913788231266"><ele>339.0</ele><time>2026-04-25T09:28:10Z</time></trkpt><trkpt lat="43.54531370257612" lon="12.829891212729173"><ele>339.0</ele><time>2026-04-25T09:28:11Z</time></trkpt><trkpt lat="43.54520939797616" lon="12.829879277303577"><ele>339.0</ele><time>2026-04-25T09:28:12Z</time></trkpt><trkpt lat="43.54510876478848" lon="12.829876734220694"><ele>339.0</ele><time>2026-04-25T09:28:13Z</time></trkpt><trkpt lat="43.54500983466207" lon="12.829877788400484"><ele>339.0</ele><time>2026-04-25T09:28:14Z</time></trkpt><trkpt lat="43.54490745590637" lon="12.829872823521386"><ele>339.0</ele><time>2026-04-25T09:28:15Z</time></trkpt><trkpt lat="43.54480935746822" lon="12.82984691922769"><ele>339.0</ele><time>2026-04-25T09:28:16Z</time></trkpt><trkpt lat="43.54471264977723" lon="12.82986499055701"><ele>339.0</ele><time>2026-04-25T09:28:17Z</time></trkpt><trkpt lat="43.5446189646124" lon="12.82986304682204"><ele>339.0</ele><time>2026-04-25T09:28:18Z</time></trkpt><trkpt lat="43.544529950649704" lon="12.829862093401319"><ele>339.0</ele><time>2026-04-25T09:28:19Z</time></trkpt><trkpt lat="43.54444927383179" lon="12.829867486792027"><ele>339.0</ele><time>2026-04-25T09:28:20Z</time></trkpt><trkpt lat="43.54437652760238" lon="12.829871962464138"><ele>339.0</ele><time>2026-04-25T09:28:21Z</time></trkpt><trkpt lat="43.544303080901045" lon="12.829881633893303"><ele>339.0</ele><time>2026-04-25T09:28:22Z</time></trkpt><trkpt lat="43.54422857041486" lon="12.829886101369965"><ele>339.0</ele><time>2026-04-25T09:28:23Z</time></trkpt><trkpt lat="43.54414788412162" lon="12.829895147821844"><ele>339.0</ele><time>2026-04-25T09:28:24Z</time></trkpt><trkpt lat="43.54406563856424" lon="12.829903113136021"><ele>339.0</ele><time>2026-04-25T09:28:25Z</time></trkpt><trkpt lat="43.54398151405069" lon="12.829901832063726"><ele>339.0</ele><time>2026-04-25T09:28:26Z</time></trkpt><trkpt lat="43.543895727881655" lon="12.829902368069845"><ele>339.0</ele><time>2026-04-25T09:28:27Z</time></trkpt><trkpt lat="43.54380440680548" lon="12.8298995162343"><ele>339.0</ele><time>2026-04-25T09:28:28Z</time></trkpt><trkpt lat="43.54372038571694" lon="12.82989609182897"><ele>339.0</ele><time>2026-04-25T09:28:29Z</time></trkpt><trkpt lat="43.543627470652574" lon="12.829893978659591"><ele>339.0</ele><time>2026-04-25T09:28:30Z</time></trkpt><trkpt lat="43.54353624106721" lon="12.82988749796052"><ele>339.4</ele><time>2026-04-25T09:28:31Z</time></trkpt><trkpt lat="43.54344408297886" lon="12.829891732459762"><ele>339.79999999999995</ele><time>2026-04-25T09:28:32Z</time></trkpt><trkpt lat="43.54335794367509" lon="12.829895639939565"><ele>340.20000000000005</ele><time>2026-04-25T09:28:33Z</time></trkpt><trkpt lat="43.543283541099974" lon="12.829888289493082"><ele>340.6</ele><time>2026-04-25T09:28:34Z</time></trkpt><trkpt lat="43.54318106004166" lon="12.82982677686818"><ele>341.0</ele><time>2026-04-25T09:28:36Z</time></trkpt><trkpt lat="43.54309996614499" lon="12.829690740110033"><ele>341.0</ele><time>2026-04-25T09:28:38Z</time></trkpt><trkpt lat="43.543073512236056" lon="12.829589193675941"><ele>341.0</ele><time>2026-04-25T09:28:39Z</time></trkpt><trkpt lat="43.54303456400768" lon="12.829486594952986"><ele>341.0</ele><time>2026-04-25T09:28:40Z</time></trkpt><trkpt lat="43.542982976659594" lon="12.82939697270194"><ele>341.0</ele><time>2026-04-25T09:28:41Z</time></trkpt><trkpt lat="43.54295578996857" lon="12.82927191823027"><ele>341.0</ele><time>2026-04-25T09:28:42Z</time></trkpt><trkpt lat="43.54290941787803" lon="12.829133380721418"><ele>342.20000000000005</ele><time>2026-04-25T09:28:43Z</time></trkpt><trkpt lat="43.542846821944345" lon="12.82902159735252"><ele>343.40000000000003</ele><time>2026-04-25T09:28:44Z</time></trkpt><trkpt lat="43.54279554416219" lon="12.828906075101694"><ele>344.6</ele><time>2026-04-25T09:28:45Z</time></trkpt><trkpt lat="43.542737797837056" lon="12.828795220090887"><ele>345.8</ele><time>2026-04-25T09:28:46Z</time></trkpt><trkpt lat="43.54269152630567" lon="12.82867894556402"><ele>347.0</ele><time>2026-04-25T09:28:47Z</time></trkpt><trkpt lat="43.54262634239463" lon="12.828573200897841"><ele>347.0</ele><time>2026-04-25T09:28:48Z</time></trkpt><trkpt lat="43.54254017020896" lon="12.828483017620004"><ele>347.0</ele><time>2026-04-25T09:28:49Z</time></trkpt><trkpt lat="43.54244033161729" lon="12.828400171565892"><ele>347.0</ele><time>2026-04-25T09:28:50Z</time></trkpt><trkpt lat="43.54235260019006" lon="12.8283193242696"><ele>347.0</ele><time>2026-04-25T09:28:51Z</time></trkpt><trkpt lat="43.542268846006976" lon="12.82821146664725"><ele>347.0</ele><time>2026-04-25T09:28:52Z</time></trkpt><trkpt lat="43.542175974278585" lon="12.828119655864484"><ele>346.8</ele><time>2026-04-25T09:28:53Z</time></trkpt><trkpt lat="43.5420999064655" lon="12.82804850037634"><ele>346.6</ele><time>2026-04-25T09:28:54Z</time></trkpt><trkpt lat="43.542031805716455" lon="12.82795179720164"><ele>346.40000000000003</ele><time>2026-04-25T09:28:55Z</time></trkpt><trkpt lat="43.54198541217826" lon="12.827833470327084"><ele>346.20000000000005</ele><time>2026-04-25T09:28:56Z</time></trkpt><trkpt lat="43.54193801198727" lon="12.827691208178337"><ele>346.0</ele><time>2026-04-25T09:28:57Z</time></trkpt><trkpt lat="43.54189326541121" lon="12.827552334297534"><ele>346.3333333333333</ele><time>2026-04-25T09:28:58Z</time></trkpt><trkpt lat="43.541841766175686" lon="12.827430983955871"><ele>346.66666666666663</ele><time>2026-04-25T09:28:59Z</time></trkpt><trkpt lat="43.541806514771416" lon="12.827310164255005"><ele>347.0</ele><time>2026-04-25T09:29:00Z</time></trkpt><trkpt lat="43.54176784964895" lon="12.827204831194456"><ele>347.3333333333333</ele><time>2026-04-25T09:29:01Z</time></trkpt><trkpt lat="43.54173879621936" lon="12.827090136564742"><ele>347.6666666666667</ele><time>2026-04-25T09:29:02Z</time></trkpt><trkpt lat="43.5417138460881" lon="12.826989652398098"><ele>348.0</ele><time>2026-04-25T09:29:03Z</time></trkpt><trkpt lat="43.54167796805007" lon="12.826885700647153"><ele>348.1666666666667</ele><time>2026-04-25T09:29:04Z</time></trkpt><trkpt lat="43.54162877804215" lon="12.826796271548561"><ele>348.3333333333333</ele><time>2026-04-25T09:29:05Z</time></trkpt><trkpt lat="43.54159771705272" lon="12.826696246253116"><ele>348.5</ele><time>2026-04-25T09:29:06Z</time></trkpt><trkpt lat="43.54156406448482" lon="12.826593568854404"><ele>348.66666666666663</ele><time>2026-04-25T09:29:07Z</time></trkpt><trkpt lat="43.54152955523147" lon="12.826495132836518"><ele>348.8333333333333</ele><time>2026-04-25T09:29:08Z</time></trkpt><trkpt lat="43.541503866248284" lon="12.826396867773074"><ele>349.0</ele><time>2026-04-25T09:29:09Z</time></trkpt><trkpt lat="43.541476100720715" lon="12.826299445996357"><ele>349.0</ele><time>2026-04-25T09:29:10Z</time></trkpt><trkpt lat="43.54145130745914" lon="12.82620457041427"><ele>349.0</ele><time>2026-04-25T09:29:11Z</time></trkpt><trkpt lat="43.5414378268643" lon="12.826103915889332"><ele>349.0</ele><time>2026-04-25T09:29:12Z</time></trkpt><trkpt lat="43.54139902215656" lon="12.82602762732128"><ele>349.0</ele><time>2026-04-25T09:29:13Z</time></trkpt><trkpt lat="43.54138079467625" lon="12.825896954986678"><ele>349.0</ele><time>2026-04-25T09:29:15Z</time></trkpt><trkpt lat="43.54136263510536" lon="12.82578138310566"><ele>349.0</ele><time>2026-04-25T09:29:22Z</time></trkpt><trkpt lat="43.54133741341831" lon="12.825695923529512"><ele>349.16666666666663</ele><time>2026-04-25T09:29:24Z</time></trkpt><trkpt lat="43.54130761858866" lon="12.825594901778912"><ele>349.3333333333333</ele><time>2026-04-25T09:29:26Z</time></trkpt><trkpt lat="43.541295711797964" lon="12.82549404498421"><ele>349.5</ele><time>2026-04-25T09:29:28Z</time></trkpt><trkpt lat="43.541248102289536" lon="12.825396249375286"><ele>349.6666666666667</ele><time>2026-04-25T09:29:30Z</time></trkpt><trkpt lat="43.54120761316809" lon="12.825264321579263"><ele>349.83333333333337</ele><time>2026-04-25T09:29:32Z</time></trkpt><trkpt lat="43.54120665633167" lon="12.825158559178684"><ele>350.0</ele><time>2026-04-25T09:29:34Z</time></trkpt><trkpt lat="43.541167141245424" lon="12.825029727075789"><ele>352.6666666666667</ele><time>2026-04-25T09:29:36Z</time></trkpt><trkpt lat="43.54112440163642" lon="12.824928972492227"><ele>355.33333333333337</ele><time>2026-04-25T09:29:38Z</time></trkpt><trkpt lat="43.541090767768125" lon="12.824845076431567"><ele>358.0</ele><time>2026-04-25T09:29:40Z</time></trkpt><trkpt lat="43.54105552689585" lon="12.824741219179632"><ele>360.6666666666667</ele><time>2026-04-25T09:29:44Z</time></trkpt><trkpt lat="43.5410850699973" lon="12.824635330284227"><ele>363.3333333333333</ele><time>2026-04-25T09:30:09Z</time></trkpt><trkpt lat="43.541133684709095" lon="12.824521792584841"><ele>366.0</ele><time>2026-04-25T09:30:11Z</time></trkpt><trkpt lat="43.54119833433646" lon="12.824460993696551"><ele>366.3333333333333</ele><time>2026-04-25T09:30:14Z</time></trkpt><trkpt lat="43.54122117818547" lon="12.824360031156353"><ele>366.6666666666667</ele><time>2026-04-25T09:30:16Z</time></trkpt><trkpt lat="43.5412547557894" lon="12.82425973224777"><ele>367.0</ele><time>2026-04-25T09:30:19Z</time></trkpt><trkpt lat="43.54127958611258" lon="12.82414616187096"><ele>367.33333333333337</ele><time>2026-04-25T09:30:22Z</time></trkpt><trkpt lat="43.54130493262309" lon="12.82406554811801"><ele>367.6666666666667</ele><time>2026-04-25T09:30:25Z</time></trkpt><trkpt lat="43.5413471181173" lon="12.823966808818401"><ele>368.0</ele><time>2026-04-25T09:30:35Z</time></trkpt><trkpt lat="43.54138484474219" lon="12.823888277020385"><ele>368.0</ele><time>2026-04-25T09:30:39Z</time></trkpt><trkpt lat="43.54134504113627" lon="12.823801374386111"><ele>368.0</ele><time>2026-04-25T09:30:43Z</time></trkpt><trkpt lat="43.54121967901449" lon="12.823766846347604"><ele>368.0</ele><time>2026-04-25T09:30:45Z</time></trkpt><trkpt lat="43.54109920837528" lon="12.823777627125297"><ele>368.0</ele><time>2026-04-25T09:30:47Z</time></trkpt><trkpt lat="43.541015582012214" lon="12.823768527420238"><ele>368.0</ele><time>2026-04-25T09:30:49Z</time></trkpt><trkpt lat="43.5409289663199" lon="12.823735973477984"><ele>369.0</ele><time>2026-04-25T09:30:51.999Z</time></trkpt><trkpt lat="43.54087025291911" lon="12.823700394250011"><ele>370.0</ele><time>2026-04-25T09:30:55.999Z</time></trkpt><trkpt lat="43.540811890142415" lon="12.82377553412461"><ele>371.0</ele><time>2026-04-25T09:30:58.999Z</time></trkpt><trkpt lat="43.54075382022677" lon="12.823832297335317"><ele>372.0</ele><time>2026-04-25T09:30:59.999Z</time></trkpt><trkpt lat="43.54068471215712" lon="12.823940108282796"><ele>373.0</ele><time>2026-04-25T09:31:01.999Z</time></trkpt><trkpt lat="43.54062725722763" lon="12.823991005846601"><ele>374.0</ele><time>2026-04-25T09:31:04Z</time></trkpt><trkpt lat="43.54055631752724" lon="12.823866312437715"><ele>374.0</ele><time>2026-04-25T09:31:06Z</time></trkpt><trkpt lat="43.540495865626006" lon="12.82382800410346"><ele>374.0</ele><time>2026-04-25T09:31:07Z</time></trkpt><trkpt lat="43.54041590253469" lon="12.823715846515636"><ele>374.0</ele><time>2026-04-25T09:31:09Z</time></trkpt><trkpt lat="43.540368579756624" lon="12.823602263777513"><ele>374.0</ele><time>2026-04-25T09:31:11Z</time></trkpt><trkpt lat="43.54032518469278" lon="12.823507218642312"><ele>374.0</ele><time>2026-04-25T09:31:13Z</time></trkpt><trkpt lat="43.54029114150302" lon="12.823407344198765"><ele>374.0</ele><time>2026-04-25T09:31:15Z</time></trkpt><trkpt lat="43.54026841522831" lon="12.823272797534253"><ele>372.6</ele><time>2026-04-25T09:31:17Z</time></trkpt><trkpt lat="43.540237064131986" lon="12.82311955262344"><ele>371.2</ele><time>2026-04-25T09:31:19Z</time></trkpt><trkpt lat="43.54021065266376" lon="12.822957688909892"><ele>369.8</ele><time>2026-04-25T09:31:21Z</time></trkpt><trkpt lat="43.5402080126985" lon="12.822848140429455"><ele>368.40000000000003</ele><time>2026-04-25T09:31:23Z</time></trkpt><trkpt lat="43.54018194483711" lon="12.822758232146954"><ele>367.0</ele><time>2026-04-25T09:31:25Z</time></trkpt><trkpt lat="43.54016318371542" lon="12.822669169347096"><ele>365.3333333333333</ele><time>2026-04-25T09:31:27Z</time></trkpt><trkpt lat="43.54014409603171" lon="12.822568049701191"><ele>363.66666666666663</ele><time>2026-04-25T09:31:29Z</time></trkpt><trkpt lat="43.54014288118043" lon="12.822463476367743"><ele>362.0</ele><time>2026-04-25T09:31:31Z</time></trkpt><trkpt lat="43.5401206923542" lon="12.82233340558132"><ele>360.3333333333333</ele><time>2026-04-25T09:31:33Z</time></trkpt><trkpt lat="43.540075940295445" lon="12.822224434824443"><ele>358.6666666666667</ele><time>2026-04-25T09:31:35Z</time></trkpt><trkpt lat="43.54003040578402" lon="12.822138363060708"><ele>357.0</ele><time>2026-04-25T09:31:37Z</time></trkpt><trkpt lat="43.53996684545078" lon="12.822128953169788"><ele>357.0</ele><time>2026-04-25T09:31:39Z</time></trkpt><trkpt lat="43.53989945885695" lon="12.822099930600679"><ele>357.0</ele><time>2026-04-25T09:31:42Z</time></trkpt><trkpt lat="43.5398323527716" lon="12.822068162849769"><ele>357.0</ele><time>2026-04-25T09:31:44Z</time></trkpt><trkpt lat="43.539762228621754" lon="12.821977078611562"><ele>357.0</ele><time>2026-04-25T09:31:46Z</time></trkpt><trkpt lat="43.539743919489126" lon="12.821804364145938"><ele>357.0</ele><time>2026-04-25T09:31:48Z</time></trkpt><trkpt lat="43.53972497762143" lon="12.8216938469371"><ele>357.0</ele><time>2026-04-25T09:31:49Z</time></trkpt><trkpt lat="43.53968832289903" lon="12.821567221660954"><ele>355.5</ele><time>2026-04-25T09:31:50Z</time></trkpt><trkpt lat="43.53968562659299" lon="12.821449894798196"><ele>354.0</ele><time>2026-04-25T09:31:51Z</time></trkpt><trkpt lat="43.53965332341441" lon="12.821332004915043"><ele>352.5</ele><time>2026-04-25T09:31:52Z</time></trkpt><trkpt lat="43.53965204907944" lon="12.821218112674481"><ele>351.0</ele><time>2026-04-25T09:31:53Z</time></trkpt><trkpt lat="43.539622039605334" lon="12.821140980531373"><ele>349.5</ele><time>2026-04-25T09:31:54Z</time></trkpt><trkpt lat="43.539608259151066" lon="12.82097793851228"><ele>348.0</ele><time>2026-04-25T09:31:56Z</time></trkpt><trkpt lat="43.53958766681858" lon="12.820873198375285"><ele>348.0</ele><time>2026-04-25T09:31:57Z</time></trkpt><trkpt lat="43.53954989825978" lon="12.82075868420635"><ele>348.0</ele><time>2026-04-25T09:31:58Z</time></trkpt><trkpt lat="43.53953471891716" lon="12.820651991180332"><ele>348.0</ele><time>2026-04-25T09:31:59Z</time></trkpt><trkpt lat="43.5395035617891" lon="12.820571327117968"><ele>348.0</ele><time>2026-04-25T09:32:00Z</time></trkpt><trkpt lat="43.539475377019905" lon="12.820489344688927"><ele>348.0</ele><time>2026-04-25T09:32:01Z</time></trkpt><trkpt lat="43.53944599139079" lon="12.820406143363323"><ele>348.0</ele><time>2026-04-25T09:32:02Z</time></trkpt><trkpt lat="43.539421322729325" lon="12.820318486115575"><ele>348.0</ele><time>2026-04-25T09:32:03Z</time></trkpt><trkpt lat="43.53938032322237" lon="12.82022088151052"><ele>345.3333333333333</ele><time>2026-04-25T09:32:04Z</time></trkpt><trkpt lat="43.53932878417597" lon="12.820102172312374"><ele>342.6666666666667</ele><time>2026-04-25T09:32:05Z</time></trkpt><trkpt lat="43.53927674674686" lon="12.81999597738624"><ele>340.0</ele><time>2026-04-25T09:32:06Z</time></trkpt><trkpt lat="43.539252491994475" lon="12.819894038289712"><ele>337.33333333333337</ele><time>2026-04-25T09:32:07Z</time></trkpt><trkpt lat="43.539200104138715" lon="12.819773682852338"><ele>334.6666666666667</ele><time>2026-04-25T09:32:08Z</time></trkpt><trkpt lat="43.53916009811726" lon="12.819688279811734"><ele>332.0</ele><time>2026-04-25T09:32:09Z</time></trkpt><trkpt lat="43.53912308989846" lon="12.819610073698641"><ele>332.0</ele><time>2026-04-25T09:32:10Z</time></trkpt><trkpt lat="43.53905442110487" lon="12.819494279381068"><ele>332.0</ele><time>2026-04-25T09:32:12Z</time></trkpt><trkpt lat="43.53901381705172" lon="12.81936704293866"><ele>332.0</ele><time>2026-04-25T09:32:14Z</time></trkpt><trkpt lat="43.538957246766515" lon="12.819239159659002"><ele>332.0</ele><time>2026-04-25T09:32:16Z</time></trkpt><trkpt lat="43.538900071140546" lon="12.819118777015367"><ele>332.0</ele><time>2026-04-25T09:32:18Z</time></trkpt><trkpt lat="43.53883879413309" lon="12.818990480557224"><ele>329.20000000000005</ele><time>2026-04-25T09:32:20Z</time></trkpt><trkpt lat="43.53876080965613" lon="12.818880218205859"><ele>326.40000000000003</ele><time>2026-04-25T09:32:22Z</time></trkpt><trkpt lat="43.53873170917301" lon="12.818802913419145"><ele>323.6</ele><time>2026-04-25T09:32:26Z</time></trkpt><trkpt lat="43.53867961781541" lon="12.818743680083918"><ele>320.8</ele><time>2026-04-25T09:32:28Z</time></trkpt><trkpt lat="43.538520897812205" lon="12.81862163303124"><ele>318.0</ele><time>2026-04-25T09:32:31Z</time></trkpt><trkpt lat="43.53840582493592" lon="12.818611141550909"><ele>318.0</ele><time>2026-04-25T09:32:32Z</time></trkpt><trkpt lat="43.53832906913351" lon="12.818601033317433"><ele>318.0</ele><time>2026-04-25T09:32:33Z</time></trkpt><trkpt lat="43.53824775977935" lon="12.818582326233372"><ele>318.0</ele><time>2026-04-25T09:32:34Z</time></trkpt><trkpt lat="43.53817336047333" lon="12.818571260599848"><ele>318.0</ele><time>2026-04-25T09:32:35Z</time></trkpt><trkpt lat="43.538095189805354" lon="12.81856633954174"><ele>318.0</ele><time>2026-04-25T09:32:36Z</time></trkpt><trkpt lat="43.538007920110935" lon="12.818567184935677"><ele>318.0</ele><time>2026-04-25T09:32:37Z</time></trkpt><trkpt lat="43.53792902404058" lon="12.818566389782662"><ele>318.0</ele><time>2026-04-25T09:32:38Z</time></trkpt><trkpt lat="43.53785889106054" lon="12.818556890440982"><ele>323.0</ele><time>2026-04-25T09:32:39Z</time></trkpt><trkpt lat="43.537759496243204" lon="12.818527397895743"><ele>323.0</ele><time>2026-04-25T09:32:41Z</time></trkpt><trkpt lat="43.5376841024082" lon="12.818487673504022"><ele>323.0</ele><time>2026-04-25T09:32:44Z</time></trkpt><trkpt lat="43.537631552516174" lon="12.818434774441853"><ele>311.0</ele><time>2026-04-25T09:32:52Z</time></trkpt><trkpt lat="43.537568451031746" lon="12.818376546022797"><ele>311.0</ele><time>2026-04-25T09:32:56Z</time></trkpt></trkseg><trkseg><trkpt lat="43.537644636018875" lon="12.818434599883572"><ele>312.40000000000003</ele><time>2026-04-25T09:42:59Z</time></trkpt><trkpt lat="43.53769985867781" lon="12.81849139817359"><ele>313.8</ele><time>2026-04-25T09:43:01Z</time></trkpt><trkpt lat="43.53779172879518" lon="12.818553343780998"><ele>315.20000000000005</ele><time>2026-04-25T09:43:03Z</time></trkpt><trkpt lat="43.537857925345506" lon="12.818572708530072"><ele>316.6</ele><time>2026-04-25T09:43:04Z</time></trkpt><trkpt lat="43.537978574765084" lon="12.818590190330111"><ele>318.0</ele><time>2026-04-25T09:43:06Z</time></trkpt><trkpt lat="43.538118971624975" lon="12.81859545524899"><ele>318.0</ele><time>2026-04-25T09:43:08Z</time></trkpt><trkpt lat="43.53822492995293" lon="12.818624973598558"><ele>318.0</ele><time>2026-04-25T09:43:09Z</time></trkpt><trkpt lat="43.538309547054574" lon="12.81864323873853"><ele>318.0</ele><time>2026-04-25T09:43:10Z</time></trkpt><trkpt lat="43.538379157663876" lon="12.818654586555066"><ele>318.0</ele><time>2026-04-25T09:43:11Z</time></trkpt><trkpt lat="43.538461300114626" lon="12.818662778274158"><ele>318.0</ele><time>2026-04-25T09:43:12Z</time></trkpt><trkpt lat="43.53852497903926" lon="12.818659577519739"><ele>318.0</ele><time>2026-04-25T09:43:13Z</time></trkpt><trkpt lat="43.53864355383155" lon="12.818739518896908"><ele>318.0</ele><time>2026-04-25T09:43:15Z</time></trkpt><trkpt lat="43.538698017273944" lon="12.818796130224408"><ele>318.0</ele><time>2026-04-25T09:43:16Z</time></trkpt><trkpt lat="43.53874639811005" lon="12.818858890385554"><ele>318.0</ele><time>2026-04-25T09:43:17Z</time></trkpt><trkpt lat="43.538786300941" lon="12.818935175323196"><ele>318.0</ele><time>2026-04-25T09:43:18Z</time></trkpt><trkpt lat="43.538825789490964" lon="12.819009775939243"><ele>318.0</ele><time>2026-04-25T09:43:19Z</time></trkpt><trkpt lat="43.53886308189848" lon="12.819093963034025"><ele>318.0</ele><time>2026-04-25T09:43:20Z</time></trkpt><trkpt lat="43.53890539747774" lon="12.819174544770517"><ele>318.0</ele><time>2026-04-25T09:43:21Z</time></trkpt><trkpt lat="43.5389387442953" lon="12.81925131986034"><ele>320.3333333333333</ele><time>2026-04-25T09:43:22Z</time></trkpt><trkpt lat="43.53897560097836" lon="12.819324963813093"><ele>322.6666666666667</ele><time>2026-04-25T09:43:23Z</time></trkpt><trkpt lat="43.53899884539756" lon="12.819421517286344"><ele>325.0</ele><time>2026-04-25T09:43:24Z</time></trkpt><trkpt lat="43.539034757775184" lon="12.819503271620725"><ele>327.33333333333337</ele><time>2026-04-25T09:43:25Z</time></trkpt><trkpt lat="43.53906955554542" lon="12.819580894122675"><ele>329.6666666666667</ele><time>2026-04-25T09:43:26Z</time></trkpt><trkpt lat="43.53914584823371" lon="12.819704258029923"><ele>332.0</ele><time>2026-04-25T09:43:28Z</time></trkpt><trkpt lat="43.53917490497993" lon="12.819804801467427"><ele>332.0</ele><time>2026-04-25T09:43:29Z</time></trkpt><trkpt lat="43.53922369178981" lon="12.819879571109421"><ele>332.0</ele><time>2026-04-25T09:43:30Z</time></trkpt><trkpt lat="43.539262842208295" lon="12.819971164105844"><ele>332.0</ele><time>2026-04-25T09:43:31Z</time></trkpt><trkpt lat="43.53928696178078" lon="12.8200731542013"><ele>332.0</ele><time>2026-04-25T09:43:32Z</time></trkpt><trkpt lat="43.53932431889058" lon="12.82016668513282"><ele>332.0</ele><time>2026-04-25T09:43:33Z</time></trkpt><trkpt lat="43.53936243626967" lon="12.820263449859281"><ele>332.0</ele><time>2026-04-25T09:43:34Z</time></trkpt><trkpt lat="43.53940038216796" lon="12.820364648794447"><ele>335.20000000000005</ele><time>2026-04-25T09:43:35Z</time></trkpt><trkpt lat="43.539439050904384" lon="12.820472984722755"><ele>338.4</ele><time>2026-04-25T09:43:36Z</time></trkpt><trkpt lat="43.53948817905156" lon="12.820609534029735"><ele>341.6</ele><time>2026-04-25T09:43:37Z</time></trkpt><trkpt lat="43.53950551353024" lon="12.820741174278249"><ele>344.79999999999995</ele><time>2026-04-25T09:43:38Z</time></trkpt><trkpt lat="43.539549693848755" lon="12.820820802160524"><ele>348.0</ele><time>2026-04-25T09:43:39Z</time></trkpt><trkpt lat="43.53957623731528" lon="12.820990545636226"><ele>348.0</ele><time>2026-04-25T09:43:40Z</time></trkpt><trkpt lat="43.539610599486565" lon="12.821178290710039"><ele>348.0</ele><time>2026-04-25T09:43:41Z</time></trkpt><trkpt lat="43.53963582365019" lon="12.82133978645418"><ele>348.0</ele><time>2026-04-25T09:43:42Z</time></trkpt><trkpt lat="43.53965790829324" lon="12.82149314640359"><ele>348.0</ele><time>2026-04-25T09:43:43Z</time></trkpt><trkpt lat="43.539697613470736" lon="12.821643444022175"><ele>348.0</ele><time>2026-04-25T09:43:44Z</time></trkpt><trkpt lat="43.53970702478251" lon="12.82178912088243"><ele>348.0</ele><time>2026-04-25T09:43:45Z</time></trkpt><trkpt lat="43.53973536754966" lon="12.821933495948869"><ele>348.0</ele><time>2026-04-25T09:43:46Z</time></trkpt><trkpt lat="43.539766212575024" lon="12.822041212633021"><ele>348.0</ele><time>2026-04-25T09:43:47Z</time></trkpt><trkpt lat="43.53980833863436" lon="12.822122342721888"><ele>348.0</ele><time>2026-04-25T09:43:48Z</time></trkpt><trkpt lat="43.53988133141198" lon="12.822174253343107"><ele>349.79999999999995</ele><time>2026-04-25T09:43:49Z</time></trkpt><trkpt lat="43.53997582662808" lon="12.822161196024284"><ele>351.6</ele><time>2026-04-25T09:43:50Z</time></trkpt><trkpt lat="43.540058023474735" lon="12.822214056103824"><ele>353.4</ele><time>2026-04-25T09:43:52Z</time></trkpt><trkpt lat="43.54008372865939" lon="12.822317826414801"><ele>355.20000000000005</ele><time>2026-04-25T09:43:54Z</time></trkpt><trkpt lat="43.54012144028441" lon="12.822478920943137"><ele>357.0</ele><time>2026-04-25T09:43:56Z</time></trkpt><trkpt lat="43.540140368815024" lon="12.822578116120026"><ele>358.42857142857144</ele><time>2026-04-25T09:43:57Z</time></trkpt><trkpt lat="43.54015529305285" lon="12.82267022285953"><ele>359.8571428571429</ele><time>2026-04-25T09:43:58Z</time></trkpt><trkpt lat="43.54017017190375" lon="12.822765518544799"><ele>361.2857142857143</ele><time>2026-04-25T09:43:59Z</time></trkpt><trkpt lat="43.54018888831147" lon="12.82285484311391"><ele>362.7142857142857</ele><time>2026-04-25T09:44:00Z</time></trkpt><trkpt lat="43.540190521680444" lon="12.822957896322634"><ele>364.14285714285717</ele><time>2026-04-25T09:44:01Z</time></trkpt><trkpt lat="43.54020456900499" lon="12.82305125675104"><ele>365.57142857142856</ele><time>2026-04-25T09:44:02Z</time></trkpt><trkpt lat="43.540218683551444" lon="12.82314206353024"><ele>367.0</ele><time>2026-04-25T09:44:03Z</time></trkpt><trkpt lat="43.54023545544577" lon="12.823236929577059"><ele>367.0</ele><time>2026-04-25T09:44:04Z</time></trkpt><trkpt lat="43.540253438635226" lon="12.823334434637957"><ele>367.0</ele><time>2026-04-25T09:44:05Z</time></trkpt><trkpt lat="43.54027293016652" lon="12.823430151439526"><ele>367.0</ele><time>2026-04-25T09:44:06Z</time></trkpt><trkpt lat="43.540311104597" lon="12.823508972935599"><ele>367.0</ele><time>2026-04-25T09:44:07Z</time></trkpt><trkpt lat="43.54036325008215" lon="12.823642317805664"><ele>367.0</ele><time>2026-04-25T09:44:09Z</time></trkpt><trkpt lat="43.54040916626763" lon="12.823760717874404"><ele>367.0</ele><time>2026-04-25T09:44:11Z</time></trkpt><trkpt lat="43.540456596702484" lon="12.823819763703307"><ele>368.40000000000003</ele><time>2026-04-25T09:44:12Z</time></trkpt><trkpt lat="43.540547559657014" lon="12.823914219458786"><ele>369.8</ele><time>2026-04-25T09:44:14Z</time></trkpt><trkpt lat="43.5406264670662" lon="12.823994645033565"><ele>371.2</ele><time>2026-04-25T09:44:16Z</time></trkpt><trkpt lat="43.54062134366635" lon="12.824092903580269"><ele>372.6</ele><time>2026-04-25T09:44:19Z</time></trkpt><trkpt lat="43.54056397256378" lon="12.82418682760886"><ele>374.0</ele><time>2026-04-25T09:44:21Z</time></trkpt><trkpt lat="43.540506416182104" lon="12.824264128712358"><ele>374.4</ele><time>2026-04-25T09:44:23Z</time></trkpt><trkpt lat="43.54044919213263" lon="12.82432317567195"><ele>374.79999999999995</ele><time>2026-04-25T09:44:25Z</time></trkpt><trkpt lat="43.54037912268307" lon="12.824362996164652"><ele>375.20000000000005</ele><time>2026-04-25T09:44:27Z</time></trkpt><trkpt lat="43.540309194345696" lon="12.824393932855374"><ele>375.6</ele><time>2026-04-25T09:44:29Z</time></trkpt><trkpt lat="43.54024323508495" lon="12.824391140707702"><ele>376.0</ele><time>2026-04-25T09:44:31Z</time></trkpt><trkpt lat="43.54007483587597" lon="12.824428594685145"><ele>376.0</ele><time>2026-04-25T09:44:36Z</time></trkpt><trkpt lat="43.53998189040578" lon="12.824434950475537"><ele>376.0</ele><time>2026-04-25T09:44:39Z</time></trkpt><trkpt lat="43.53991709957302" lon="12.824451384605492"><ele>376.0</ele><time>2026-04-25T09:44:41Z</time></trkpt><trkpt lat="43.53985177167998" lon="12.824461811879841"><ele>376.0</ele><time>2026-04-25T09:44:43Z</time></trkpt><trkpt lat="43.539763905838164" lon="12.82447008112508"><ele>376.0</ele><time>2026-04-25T09:44:46Z</time></trkpt><trkpt lat="43.539671694340356" lon="12.824504827200029"><ele>376.0</ele><time>2026-04-25T09:44:49Z</time></trkpt><trkpt lat="43.539579681972896" lon="12.824479973694546"><ele>376.8</ele><time>2026-04-25T09:44:52Z</time></trkpt><trkpt lat="43.53947637285004" lon="12.824434591266561"><ele>377.6</ele><time>2026-04-25T09:44:55Z</time></trkpt><trkpt lat="43.539368822873215" lon="12.824383314832097"><ele>378.4</ele><time>2026-04-25T09:44:57Z</time></trkpt><trkpt lat="43.53929759893573" lon="12.824335299469555"><ele>379.2</ele><time>2026-04-25T09:44:58Z</time></trkpt><trkpt lat="43.53921634213737" lon="12.824263771024766"><ele>380.0</ele><time>2026-04-25T09:44:59Z</time></trkpt><trkpt lat="43.53912601733679" lon="12.824165820595388"><ele>381.0</ele><time>2026-04-25T09:45:00Z</time></trkpt><trkpt lat="43.539033767894345" lon="12.824064706462584"><ele>382.0</ele><time>2026-04-25T09:45:01Z</time></trkpt><trkpt lat="43.53894297156294" lon="12.823969043837579"><ele>383.0</ele><time>2026-04-25T09:45:02Z</time></trkpt><trkpt lat="43.53886089966267" lon="12.823884108903805"><ele>384.0</ele><time>2026-04-25T09:45:03Z</time></trkpt><trkpt lat="43.53879088824709" lon="12.823800492798005"><ele>385.0</ele><time>2026-04-25T09:45:04Z</time></trkpt><trkpt lat="43.53871425670194" lon="12.82373787970699"><ele>386.2</ele><time>2026-04-25T09:45:05Z</time></trkpt><trkpt lat="43.538647777702636" lon="12.823654685939331"><ele>387.4</ele><time>2026-04-25T09:45:06Z</time></trkpt><trkpt lat="43.538552582652656" lon="12.823616659543811"><ele>388.6</ele><time>2026-04-25T09:45:07Z</time></trkpt><trkpt lat="43.53847068206257" lon="12.823559460027038"><ele>389.8</ele><time>2026-04-25T09:45:08Z</time></trkpt><trkpt lat="43.538386524740524" lon="12.823527552752337"><ele>391.0</ele><time>2026-04-25T09:45:09Z</time></trkpt><trkpt lat="43.53830286795476" lon="12.823499652823871"><ele>392.00000000000006</ele><time>2026-04-25T09:45:10Z</time></trkpt><trkpt lat="43.53822354934534" lon="12.8234749720958"><ele>393.0</ele><time>2026-04-25T09:45:11Z</time></trkpt><trkpt lat="43.53814281127282" lon="12.82344984966301"><ele>394.0</ele><time>2026-04-25T09:45:12Z</time></trkpt><trkpt lat="43.53807266172807" lon="12.823429508488974"><ele>395.0</ele><time>2026-04-25T09:45:13Z</time></trkpt><trkpt lat="43.53799830245098" lon="12.82341487707286"><ele>396.00000000000006</ele><time>2026-04-25T09:45:14Z</time></trkpt><trkpt lat="43.537927590743855" lon="12.823414462136206"><ele>397.0</ele><time>2026-04-25T09:45:15Z</time></trkpt><trkpt lat="43.537840243349905" lon="12.823415531265056"><ele>397.00000000000006</ele><time>2026-04-25T09:45:17Z</time></trkpt><trkpt lat="43.53776747044824" lon="12.823400574875127"><ele>397.0</ele><time>2026-04-25T09:45:21Z</time></trkpt><trkpt lat="43.537699443173366" lon="12.823370851424109"><ele>397.0</ele><time>2026-04-25T09:45:25Z</time></trkpt><trkpt lat="43.53762529015889" lon="12.823389692577535"><ele>397.0</ele><time>2026-04-25T09:45:29Z</time></trkpt><trkpt lat="43.537558476578354" lon="12.823434699674385"><ele>397.00000000000006</ele><time>2026-04-25T09:45:46Z</time></trkpt><trkpt lat="43.53748542665578" lon="12.823474846572141"><ele>397.0</ele><time>2026-04-25T09:45:49Z</time></trkpt><trkpt lat="43.53745917932391" lon="12.823578848258233"><ele>395.85714285714283</ele><time>2026-04-25T09:45:53Z</time></trkpt><trkpt lat="43.537415345385796" lon="12.823663600214003"><ele>394.71428571428567</ele><time>2026-04-25T09:45:56Z</time></trkpt><trkpt lat="43.53738245203764" lon="12.823759820510944"><ele>393.57142857142856</ele><time>2026-04-25T09:45:59Z</time></trkpt><trkpt lat="43.53733401793977" lon="12.823823451442786"><ele>392.42857142857144</ele><time>2026-04-25T09:46:03Z</time></trkpt><trkpt lat="43.53728188021771" lon="12.823874153193348"><ele>391.2857142857143</ele><time>2026-04-25T09:46:17.999Z</time></trkpt><trkpt lat="43.53721993068331" lon="12.823914180458297"><ele>390.14285714285717</ele><time>2026-04-25T09:46:22.999Z</time></trkpt><trkpt lat="43.537150344737796" lon="12.823928665906044"><ele>389.0</ele><time>2026-04-25T09:46:28.999Z</time></trkpt><trkpt lat="43.537084099833294" lon="12.82393102198448"><ele>387.5714285714286</ele><time>2026-04-25T09:46:34.999Z</time></trkpt><trkpt lat="43.5370141811168" lon="12.823932390804837"><ele>386.1428571428571</ele><time>2026-04-25T09:46:43.999Z</time></trkpt><trkpt lat="43.53694838366637" lon="12.823953143306493"><ele>384.7142857142857</ele><time>2026-04-25T09:46:53Z</time></trkpt><trkpt lat="43.53688192854751" lon="12.823956785220377"><ele>383.28571428571433</ele><time>2026-04-25T09:47:11Z</time></trkpt><trkpt lat="43.53681111382337" lon="12.823950399707867"><ele>381.8571428571429</ele><time>2026-04-25T09:47:16Z</time></trkpt><trkpt lat="43.53674343588592" lon="12.823961394318255"><ele>380.42857142857144</ele><time>2026-04-25T09:47:34Z</time></trkpt><trkpt lat="43.536670204956124" lon="12.823984231781585"><ele>379.0</ele><time>2026-04-25T09:47:37Z</time></trkpt><trkpt lat="43.536596749270345" lon="12.824010481839759"><ele>379.0</ele><time>2026-04-25T09:47:39Z</time></trkpt><trkpt lat="43.53652713173942" lon="12.824027845471592"><ele>379.0</ele><time>2026-04-25T09:47:41Z</time></trkpt><trkpt lat="43.536418810252236" lon="12.82406236149714"><ele>379.0</ele><time>2026-04-25T09:47:43Z</time></trkpt><trkpt lat="43.53632211482407" lon="12.82410021660366"><ele>379.0</ele><time>2026-04-25T09:47:45Z</time></trkpt><trkpt lat="43.5362538305676" lon="12.824135028033604"><ele>379.0</ele><time>2026-04-25T09:47:48Z</time></trkpt><trkpt lat="43.53617826908205" lon="12.82417799777938"><ele>379.0</ele><time>2026-04-25T09:47:51Z</time></trkpt><trkpt lat="43.53611296303451" lon="12.824209115796263"><ele>377.5</ele><time>2026-04-25T09:47:53Z</time></trkpt><trkpt lat="43.5360459183908" lon="12.824249662924842"><ele>376.0</ele><time>2026-04-25T09:47:55Z</time></trkpt><trkpt lat="43.53597889774913" lon="12.824281057948058"><ele>374.5</ele><time>2026-04-25T09:47:57Z</time></trkpt><trkpt lat="43.535910132455214" lon="12.8243209074545"><ele>373.0</ele><time>2026-04-25T09:47:59Z</time></trkpt><trkpt lat="43.535842779166614" lon="12.824356069684722"><ele>371.5</ele><time>2026-04-25T09:48:01Z</time></trkpt><trkpt lat="43.53577338452569" lon="12.824399406520973"><ele>370.0</ele><time>2026-04-25T09:48:03Z</time></trkpt><trkpt lat="43.53569125819531" lon="12.824427837620517"><ele>369.16666666666663</ele><time>2026-04-25T09:48:05Z</time></trkpt><trkpt lat="43.535622167881066" lon="12.8244737887443"><ele>368.3333333333333</ele><time>2026-04-25T09:48:07Z</time></trkpt><trkpt lat="43.53556627052736" lon="12.824515767384916"><ele>367.5</ele><time>2026-04-25T09:48:10Z</time></trkpt><trkpt lat="43.53551818643106" lon="12.8245876400627"><ele>366.6666666666667</ele><time>2026-04-25T09:48:13Z</time></trkpt><trkpt lat="43.535489038003625" lon="12.824678837833906"><ele>365.83333333333337</ele><time>2026-04-25T09:48:15.999Z</time></trkpt><trkpt lat="43.535460459847485" lon="12.824756316473472"><ele>365.0</ele><time>2026-04-25T09:48:19.999Z</time></trkpt><trkpt lat="43.53534421234023" lon="12.824716105775924"><ele>365.0</ele><time>2026-04-25T09:48:23.999Z</time></trkpt><trkpt lat="43.53527224201044" lon="12.824673320152979"><ele>365.0</ele><time>2026-04-25T09:48:24.999Z</time></trkpt><trkpt lat="43.535209081573385" lon="12.82458067981007"><ele>365.0</ele><time>2026-04-25T09:48:26.999Z</time></trkpt><trkpt lat="43.53513889903998" lon="12.824502983981894"><ele>365.0</ele><time>2026-04-25T09:48:31.999Z</time></trkpt><trkpt lat="43.53503680232072" lon="12.824390874352531"><ele>365.0</ele><time>2026-04-25T09:48:33.999Z</time></trkpt><trkpt lat="43.53499889599609" lon="12.824292577377276"><ele>365.0</ele><time>2026-04-25T09:48:34.999Z</time></trkpt><trkpt lat="43.534925452196944" lon="12.824208519166353"><ele>365.0</ele><time>2026-04-25T09:48:35.999Z</time></trkpt><trkpt lat="43.5348735067283" lon="12.824099995016821"><ele>365.0</ele><time>2026-04-25T09:48:36.999Z</time></trkpt><trkpt lat="43.53480679651614" lon="12.824015165299443"><ele>365.0</ele><time>2026-04-25T09:48:37.999Z</time></trkpt><trkpt lat="43.5347212873152" lon="12.823929821658691"><ele>365.0</ele><time>2026-04-25T09:48:38.999Z</time></trkpt><trkpt lat="43.53463293027165" lon="12.8238603669496"><ele>366.25</ele><time>2026-04-25T09:48:39.999Z</time></trkpt><trkpt lat="43.53453321117264" lon="12.823789349186171"><ele>367.5</ele><time>2026-04-25T09:48:40.999Z</time></trkpt><trkpt lat="43.534420948405064" lon="12.823718716326898"><ele>368.75</ele><time>2026-04-25T09:48:41.999Z</time></trkpt><trkpt lat="43.53431695690948" lon="12.823652856752718"><ele>370.0</ele><time>2026-04-25T09:48:42.999Z</time></trkpt><trkpt lat="43.534223767202974" lon="12.823588330469367"><ele>370.0</ele><time>2026-04-25T09:48:43.999Z</time></trkpt><trkpt lat="43.534127069064034" lon="12.823517593304453"><ele>370.0</ele><time>2026-04-25T09:48:44.999Z</time></trkpt><trkpt lat="43.53403735981588" lon="12.823450561655417"><ele>370.0</ele><time>2026-04-25T09:48:45.999Z</time></trkpt><trkpt lat="43.53395869585016" lon="12.823390684128398"><ele>370.0</ele><time>2026-04-25T09:48:46.999Z</time></trkpt><trkpt lat="43.53387552037826" lon="12.823348245229194"><ele>370.0</ele><time>2026-04-25T09:48:47.999Z</time></trkpt><trkpt lat="43.533808154674695" lon="12.823295801752796"><ele>370.16666666666663</ele><time>2026-04-25T09:48:48.999Z</time></trkpt><trkpt lat="43.53374299535188" lon="12.82324049333386"><ele>370.3333333333333</ele><time>2026-04-25T09:48:49.999Z</time></trkpt><trkpt lat="43.533690415659365" lon="12.823185180672393"><ele>370.5</ele><time>2026-04-25T09:48:50.999Z</time></trkpt><trkpt lat="43.53358053513994" lon="12.823106923934551"><ele>370.6666666666667</ele><time>2026-04-25T09:48:52.999Z</time></trkpt><trkpt lat="43.53350424110969" lon="12.823071473531785"><ele>370.83333333333337</ele><time>2026-04-25T09:48:53.999Z</time></trkpt><trkpt lat="43.53343192425921" lon="12.822996969436769"><ele>371.0</ele><time>2026-04-25T09:48:54.999Z</time></trkpt><trkpt lat="43.53330271562954" lon="12.822928722863287"><ele>374.20000000000005</ele><time>2026-04-25T09:48:56.999Z</time></trkpt><trkpt lat="43.533231462370594" lon="12.82288982066926"><ele>377.40000000000003</ele><time>2026-04-25T09:48:57.999Z</time></trkpt><trkpt lat="43.53315833091724" lon="12.822866593875995"><ele>380.6</ele><time>2026-04-25T09:48:58.999Z</time></trkpt><trkpt lat="43.533075842977354" lon="12.822831130977436"><ele>383.8</ele><time>2026-04-25T09:48:59.999Z</time></trkpt><trkpt lat="43.532978961598545" lon="12.82278385475487"><ele>387.0</ele><time>2026-04-25T09:49:02Z</time></trkpt><trkpt lat="43.53288564300899" lon="12.822702599320982"><ele>388.0</ele><time>2026-04-25T09:49:04Z</time></trkpt><trkpt lat="43.53282633072525" lon="12.822661059981241"><ele>389.0</ele><time>2026-04-25T09:49:05Z</time></trkpt><trkpt lat="43.53275858263819" lon="12.822658849378461"><ele>390.0</ele><time>2026-04-25T09:49:06Z</time></trkpt><trkpt lat="43.53269442230066" lon="12.822634376743725"><ele>391.0</ele><time>2026-04-25T09:49:07Z</time></trkpt><trkpt lat="43.532627814446656" lon="12.822625050690906"><ele>392.0</ele><time>2026-04-25T09:49:08Z</time></trkpt><trkpt lat="43.53256429553343" lon="12.822631637082194"><ele>393.0</ele><time>2026-04-25T09:49:09Z</time></trkpt><trkpt lat="43.53250017417735" lon="12.8226423422991"><ele>394.0</ele><time>2026-04-25T09:49:10Z</time></trkpt><trkpt lat="43.53243707527882" lon="12.822644367207621"><ele>394.0</ele><time>2026-04-25T09:49:11Z</time></trkpt><trkpt lat="43.53237303269019" lon="12.82264036790958"><ele>394.0</ele><time>2026-04-25T09:49:12Z</time></trkpt><trkpt lat="43.5323047731947" lon="12.822623579770767"><ele>394.0</ele><time>2026-04-25T09:49:13Z</time></trkpt><trkpt lat="43.532232901464475" lon="12.822609799467003"><ele>394.0</ele><time>2026-04-25T09:49:14Z</time></trkpt><trkpt lat="43.53216072474376" lon="12.822589600676576"><ele>394.0</ele><time>2026-04-25T09:49:15Z</time></trkpt><trkpt lat="43.53209352431388" lon="12.82256481903771"><ele>394.0</ele><time>2026-04-25T09:49:16Z</time></trkpt><trkpt lat="43.532017891245665" lon="12.822539223671878"><ele>394.0</ele><time>2026-04-25T09:49:17Z</time></trkpt><trkpt lat="43.53193398078586" lon="12.82251860845804"><ele>396.50000000000006</ele><time>2026-04-25T09:49:18Z</time></trkpt><trkpt lat="43.53185363355213" lon="12.82250255857187"><ele>399.0</ele><time>2026-04-25T09:49:19Z</time></trkpt><trkpt lat="43.531774471069944" lon="12.822481324759437"><ele>401.5</ele><time>2026-04-25T09:49:20Z</time></trkpt><trkpt lat="43.531694658735006" lon="12.822458093106253"><ele>404.0</ele><time>2026-04-25T09:49:21Z</time></trkpt><trkpt lat="43.531611868620836" lon="12.822439159251577"><ele>406.50000000000006</ele><time>2026-04-25T09:49:22Z</time></trkpt><trkpt lat="43.531534024766906" lon="12.822425352161126"><ele>409.0</ele><time>2026-04-25T09:49:23Z</time></trkpt><trkpt lat="43.531469212444925" lon="12.822419516626935"><ele>409.00000000000006</ele><time>2026-04-25T09:49:24Z</time></trkpt><trkpt lat="43.53134578495795" lon="12.822448857497621"><ele>409.0</ele><time>2026-04-25T09:49:26Z</time></trkpt><trkpt lat="43.531312993173316" lon="12.822548388995216"><ele>409.0</ele><time>2026-04-25T09:49:27Z</time></trkpt><trkpt lat="43.53128068502765" lon="12.822646217280274"><ele>409.0</ele><time>2026-04-25T09:49:28Z</time></trkpt><trkpt lat="43.53123779513805" lon="12.822731108495555"><ele>409.00000000000006</ele><time>2026-04-25T09:49:29Z</time></trkpt><trkpt lat="43.53120483752345" lon="12.822823260137639"><ele>409.0</ele><time>2026-04-25T09:49:30Z</time></trkpt><trkpt lat="43.5311705557031" lon="12.822913312050586"><ele>410.79999999999995</ele><time>2026-04-25T09:49:31Z</time></trkpt><trkpt lat="43.53113413067587" lon="12.822992588438472"><ele>412.59999999999997</ele><time>2026-04-25T09:49:32Z</time></trkpt><trkpt lat="43.53103654470006" lon="12.823068751345703"><ele>414.4</ele><time>2026-04-25T09:49:34Z</time></trkpt><trkpt lat="43.5309099356977" lon="12.8230147757533"><ele>416.2</ele><time>2026-04-25T09:49:36Z</time></trkpt><trkpt lat="43.5308318381191" lon="12.822905785129212"><ele>418.0</ele><time>2026-04-25T09:49:37Z</time></trkpt><trkpt lat="43.53072476447249" lon="12.822780972037686"><ele>418.0</ele><time>2026-04-25T09:49:38Z</time></trkpt><trkpt lat="43.530605960597256" lon="12.822647904682743"><ele>418.0</ele><time>2026-04-25T09:49:39Z</time></trkpt><trkpt lat="43.53048463198553" lon="12.82251871195714"><ele>418.0</ele><time>2026-04-25T09:49:40Z</time></trkpt><trkpt lat="43.530378607652125" lon="12.8224061300027"><ele>418.0</ele><time>2026-04-25T09:49:41Z</time></trkpt><trkpt lat="43.53027636524698" lon="12.822324108828006"><ele>420.0</ele><time>2026-04-25T09:49:42Z</time></trkpt><trkpt lat="43.53018303607671" lon="12.82225188293572"><ele>422.0</ele><time>2026-04-25T09:49:43Z</time></trkpt><trkpt lat="43.53009083350426" lon="12.8221845113283"><ele>423.99999999999994</ele><time>2026-04-25T09:49:44Z</time></trkpt><trkpt lat="43.529999154647406" lon="12.822135554087383"><ele>426.0</ele><time>2026-04-25T09:49:45Z</time></trkpt><trkpt lat="43.529898014042054" lon="12.822100716681312"><ele>428.0</ele><time>2026-04-25T09:49:46Z</time></trkpt><trkpt lat="43.5298081664337" lon="12.822053376504421"><ele>428.0</ele><time>2026-04-25T09:49:47Z</time></trkpt><trkpt lat="43.52974569667722" lon="12.821959063259266"><ele>427.99999999999994</ele><time>2026-04-25T09:49:48Z</time></trkpt><trkpt lat="43.529694271435226" lon="12.821845066874335"><ele>427.99999999999994</ele><time>2026-04-25T09:49:49Z</time></trkpt><trkpt lat="43.52963251990765" lon="12.82172569784448"><ele>428.0</ele><time>2026-04-25T09:49:50Z</time></trkpt><trkpt lat="43.52956232041192" lon="12.821616165834675"><ele>428.0</ele><time>2026-04-25T09:49:51Z</time></trkpt><trkpt lat="43.52948298951639" lon="12.821508417811506"><ele>429.59999999999997</ele><time>2026-04-25T09:49:52Z</time></trkpt><trkpt lat="43.529401711401434" lon="12.821409035494595"><ele>431.19999999999993</ele><time>2026-04-25T09:49:53Z</time></trkpt><trkpt lat="43.52932404089332" lon="12.821318546826385"><ele>432.8</ele><time>2026-04-25T09:49:54Z</time></trkpt><trkpt lat="43.52924694576024" lon="12.82123352494072"><ele>434.4</ele><time>2026-04-25T09:49:55Z</time></trkpt><trkpt lat="43.52917049045143" lon="12.821160963650463"><ele>436.0</ele><time>2026-04-25T09:49:56Z</time></trkpt><trkpt lat="43.52909194257508" lon="12.821080275881112"><ele>436.00000000000006</ele><time>2026-04-25T09:49:57Z</time></trkpt><trkpt lat="43.52901721893726" lon="12.821021803577937"><ele>436.0</ele><time>2026-04-25T09:49:58Z</time></trkpt><trkpt lat="43.52895394580665" lon="12.820957771554504"><ele>436.0</ele><time>2026-04-25T09:49:59Z</time></trkpt><trkpt lat="43.528886372708634" lon="12.820905238079584"><ele>436.0</ele><time>2026-04-25T09:50:00Z</time></trkpt><trkpt lat="43.52880075434994" lon="12.820838675503797"><ele>436.00000000000006</ele><time>2026-04-25T09:50:01Z</time></trkpt><trkpt lat="43.52871851446412" lon="12.820777356818425"><ele>436.0</ele><time>2026-04-25T09:50:02Z</time></trkpt><trkpt lat="43.52863531436" lon="12.820719533788461"><ele>437.4</ele><time>2026-04-25T09:50:03Z</time></trkpt><trkpt lat="43.52857125429035" lon="12.820658623070257"><ele>438.8</ele><time>2026-04-25T09:50:04Z</time></trkpt><trkpt lat="43.52852049947409" lon="12.820576310185354"><ele>440.19999999999993</ele><time>2026-04-25T09:50:05Z</time></trkpt><trkpt lat="43.52846218947903" lon="12.82045605489615"><ele>441.59999999999997</ele><time>2026-04-25T09:50:06Z</time></trkpt><trkpt lat="43.52842387495521" lon="12.820313435135454"><ele>443.0</ele><time>2026-04-25T09:50:07Z</time></trkpt><trkpt lat="43.52839059393421" lon="12.820167460394844"><ele>441.79999999999995</ele><time>2026-04-25T09:50:08Z</time></trkpt><trkpt lat="43.52835825468859" lon="12.820048244150165"><ele>440.59999999999997</ele><time>2026-04-25T09:50:09Z</time></trkpt><trkpt lat="43.528320750751746" lon="12.819940628025261"><ele>439.40000000000003</ele><time>2026-04-25T09:50:10Z</time></trkpt><trkpt lat="43.528270224387775" lon="12.819844394952485"><ele>438.20000000000005</ele><time>2026-04-25T09:50:11Z</time></trkpt><trkpt lat="43.528221142044806" lon="12.81973011836863"><ele>437.0</ele><time>2026-04-25T09:50:12Z</time></trkpt><trkpt lat="43.52815734308066" lon="12.819624731876784"><ele>436.99999999999994</ele><time>2026-04-25T09:50:13Z</time></trkpt><trkpt lat="43.52809837018342" lon="12.819532818161262"><ele>437.0</ele><time>2026-04-25T09:50:14Z</time></trkpt><trkpt lat="43.52804666353993" lon="12.819454821797947"><ele>437.0</ele><time>2026-04-25T09:50:15Z</time></trkpt><trkpt lat="43.527990693237975" lon="12.819379543486383"><ele>437.0</ele><time>2026-04-25T09:50:16Z</time></trkpt><trkpt lat="43.52791927798566" lon="12.819297908931082"><ele>436.99999999999994</ele><time>2026-04-25T09:50:17Z</time></trkpt><trkpt lat="43.52785326645275" lon="12.81923662732659"><ele>437.0</ele><time>2026-04-25T09:50:18Z</time></trkpt><trkpt lat="43.527782519586815" lon="12.819183739574678"><ele>437.40000000000003</ele><time>2026-04-25T09:50:19Z</time></trkpt><trkpt lat="43.52769569002853" lon="12.819133543161307"><ele>437.80000000000007</ele><time>2026-04-25T09:50:20Z</time></trkpt><trkpt lat="43.527588441550435" lon="12.819108343989548"><ele>438.2</ele><time>2026-04-25T09:50:21Z</time></trkpt><trkpt lat="43.52745916905309" lon="12.819080611637592"><ele>438.6</ele><time>2026-04-25T09:50:23Z</time></trkpt><trkpt lat="43.527352653777676" lon="12.819031625776956"><ele>439.0</ele><time>2026-04-25T09:50:24Z</time></trkpt><trkpt lat="43.52727490099113" lon="12.81897154999036"><ele>439.0</ele><time>2026-04-25T09:50:25Z</time></trkpt><trkpt lat="43.5272313165672" lon="12.818870433058239"><ele>439.0</ele><time>2026-04-25T09:50:26Z</time></trkpt><trkpt lat="43.52720813756451" lon="12.818780959711601"><ele>439.0</ele><time>2026-04-25T09:50:26.998Z</time></trkpt><trkpt lat="43.5271647436247" lon="12.818696208762946"><ele>439.0</ele><time>2026-04-25T09:50:28.999Z</time></trkpt><trkpt lat="43.52700964244256" lon="12.818497114168496"><ele>439.0</ele><time>2026-04-25T09:50:45.999Z</time></trkpt><trkpt lat="43.52703386680704" lon="12.818301971903145"><ele>438.4</ele><time>2026-04-25T09:50:46.999Z</time></trkpt><trkpt lat="43.527010491034986" lon="12.818184716154082"><ele>437.79999999999995</ele><time>2026-04-25T09:50:47.999Z</time></trkpt><trkpt lat="43.52698292625882" lon="12.818057194567977"><ele>437.20000000000005</ele><time>2026-04-25T09:50:48.999Z</time></trkpt><trkpt lat="43.52695666752446" lon="12.817919293068215"><ele>436.6</ele><time>2026-04-25T09:50:49.999Z</time></trkpt><trkpt lat="43.526938001256404" lon="12.817780955363933"><ele>436.0</ele><time>2026-04-25T09:50:50.999Z</time></trkpt><trkpt lat="43.52697090822915" lon="12.817642404332794"><ele>437.8</ele><time>2026-04-25T09:50:51.999Z</time></trkpt><trkpt lat="43.527016375517086" lon="12.817514500313521"><ele>439.6</ele><time>2026-04-25T09:50:52.999Z</time></trkpt><trkpt lat="43.52703749830825" lon="12.817374764158595"><ele>441.4</ele><time>2026-04-25T09:50:53.999Z</time></trkpt><trkpt lat="43.527059880244046" lon="12.817246895500054"><ele>443.2</ele><time>2026-04-25T09:50:54.999Z</time></trkpt><trkpt lat="43.52705821611519" lon="12.817127202480373"><ele>445.0</ele><time>2026-04-25T09:50:55.999Z</time></trkpt><trkpt lat="43.5270215275444" lon="12.817008515387077"><ele>445.0</ele><time>2026-04-25T09:50:56.999Z</time></trkpt><trkpt lat="43.526968871295395" lon="12.816897036470015"><ele>445.0</ele><time>2026-04-25T09:50:57.999Z</time></trkpt><trkpt lat="43.52688357710211" lon="12.816800927166444"><ele>445.0</ele><time>2026-04-25T09:50:58.999Z</time></trkpt><trkpt lat="43.52680691261636" lon="12.816699630299317"><ele>445.0</ele><time>2026-04-25T09:50:59.999Z</time></trkpt><trkpt lat="43.52673610837883" lon="12.816584640002118"><ele>445.0</ele><time>2026-04-25T09:51:00.999Z</time></trkpt><trkpt lat="43.526691156660746" lon="12.816468116284996"><ele>446.8</ele><time>2026-04-25T09:51:01.999Z</time></trkpt><trkpt lat="43.52670164792213" lon="12.816340115887362"><ele>448.6</ele><time>2026-04-25T09:51:02.999Z</time></trkpt><trkpt lat="43.52671626455566" lon="12.816219424534834"><ele>450.4</ele><time>2026-04-25T09:51:03.999Z</time></trkpt><trkpt lat="43.526725521969986" lon="12.816071169560331"><ele>452.2</ele><time>2026-04-25T09:51:04.999Z</time></trkpt><trkpt lat="43.526719776679855" lon="12.815926695078835"><ele>454.0</ele><time>2026-04-25T09:51:05.999Z</time></trkpt><trkpt lat="43.526735163365025" lon="12.815804061039422"><ele>455.4</ele><time>2026-04-25T09:51:06.999Z</time></trkpt><trkpt lat="43.52674036966636" lon="12.815699839259949"><ele>456.79999999999995</ele><time>2026-04-25T09:51:07.999Z</time></trkpt><trkpt lat="43.52675425486666" lon="12.815550595565345"><ele>458.20000000000005</ele><time>2026-04-25T09:51:09.999Z</time></trkpt><trkpt lat="43.526631197245855" lon="12.815430956805951"><ele>459.6</ele><time>2026-04-25T09:51:11.999Z</time></trkpt><trkpt lat="43.52656458652084" lon="12.815386018968603"><ele>461.0</ele><time>2026-04-25T09:51:12.999Z</time></trkpt><trkpt lat="43.52649820273276" lon="12.815366138388837"><ele>461.0</ele><time>2026-04-25T09:51:14Z</time></trkpt><trkpt lat="43.526402029440156" lon="12.815286910589423"><ele>461.0</ele><time>2026-04-25T09:51:16Z</time></trkpt><trkpt lat="43.526284314613065" lon="12.815247939234139"><ele>461.0</ele><time>2026-04-25T09:51:18Z</time></trkpt><trkpt lat="43.52622677736774" lon="12.815196111283752"><ele>461.0</ele><time>2026-04-25T09:51:19Z</time></trkpt><trkpt lat="43.526117109048755" lon="12.81512567286222"><ele>461.0</ele><time>2026-04-25T09:51:21Z</time></trkpt><trkpt lat="43.526027051980705" lon="12.815015681498805"><ele>463.4</ele><time>2026-04-25T09:51:23Z</time></trkpt><trkpt lat="43.52595486776928" lon="12.814883422468444"><ele>465.8</ele><time>2026-04-25T09:51:25Z</time></trkpt><trkpt lat="43.52591939146175" lon="12.814807317971635"><ele>468.19999999999993</ele><time>2026-04-25T09:51:26Z</time></trkpt><trkpt lat="43.525884659168796" lon="12.81472953476017"><ele>470.59999999999997</ele><time>2026-04-25T09:51:27Z</time></trkpt><trkpt lat="43.52582354349866" lon="12.814592027111564"><ele>473.0</ele><time>2026-04-25T09:51:29Z</time></trkpt><trkpt lat="43.52571334444134" lon="12.814586993264166"><ele>473.0</ele><time>2026-04-25T09:51:30Z</time></trkpt><trkpt lat="43.5255969502489" lon="12.814515357485329"><ele>472.99999999999994</ele><time>2026-04-25T09:51:32Z</time></trkpt><trkpt lat="43.52551984388432" lon="12.814446639528787"><ele>472.99999999999994</ele><time>2026-04-25T09:51:34Z</time></trkpt><trkpt lat="43.525487054278415" lon="12.814330212855516"><ele>473.0</ele><time>2026-04-25T09:51:36Z</time></trkpt><trkpt lat="43.52552270538119" lon="12.81420720202853"><ele>473.0</ele><time>2026-04-25T09:51:37Z</time></trkpt><trkpt lat="43.525519733566455" lon="12.81411965903252"><ele>473.66666666666663</ele><time>2026-04-25T09:51:38Z</time></trkpt><trkpt lat="43.52550254774605" lon="12.814025352650518"><ele>474.3333333333333</ele><time>2026-04-25T09:51:39Z</time></trkpt><trkpt lat="43.52547910945838" lon="12.81393228611073"><ele>475.0</ele><time>2026-04-25T09:51:40Z</time></trkpt><trkpt lat="43.525503790463404" lon="12.813829000156256"><ele>475.66666666666663</ele><time>2026-04-25T09:51:41Z</time></trkpt><trkpt lat="43.52551207312402" lon="12.813683650094285"><ele>476.3333333333333</ele><time>2026-04-25T09:51:43Z</time></trkpt><trkpt lat="43.52554315740395" lon="12.813551698506567"><ele>477.0</ele><time>2026-04-25T09:51:45Z</time></trkpt><trkpt lat="43.52557578091564" lon="12.813434825319574"><ele>477.25</ele><time>2026-04-25T09:51:47Z</time></trkpt><trkpt lat="43.52559570463643" lon="12.813350116418455"><ele>477.5</ele><time>2026-04-25T09:51:50Z</time></trkpt><trkpt lat="43.525401395929926" lon="12.81315358066776"><ele>477.75</ele><time>2026-04-25T09:51:53Z</time></trkpt><trkpt lat="43.52544074525328" lon="12.81305773799772"><ele>478.0</ele><time>2026-04-25T09:52:09Z</time></trkpt><trkpt lat="43.52545771338638" lon="12.812966136284418"><ele>478.00000000000006</ele><time>2026-04-25T09:52:11Z</time></trkpt><trkpt lat="43.52549675641504" lon="12.812882977609844"><ele>478.0</ele><time>2026-04-25T09:52:14Z</time></trkpt><trkpt lat="43.52556140547306" lon="12.812865728009116"><ele>478.00000000000006</ele><time>2026-04-25T09:52:17Z</time></trkpt><trkpt lat="43.525496519012144" lon="12.812831312818231"><ele>478.00000000000006</ele><time>2026-04-25T09:52:24Z</time></trkpt><trkpt lat="43.52547450812301" lon="12.81291707436351"><ele>478.0</ele><time>2026-04-25T09:52:26Z</time></trkpt><trkpt lat="43.52544838046299" lon="12.81302094766204"><ele>478.00000000000006</ele><time>2026-04-25T09:52:29Z</time></trkpt><trkpt lat="43.52542540240131" lon="12.813132149688926"><ele>478.00000000000006</ele><time>2026-04-25T09:52:32Z</time></trkpt><trkpt lat="43.5254082122558" lon="12.813231773784903"><ele>478.00000000000006</ele><time>2026-04-25T09:52:34.999Z</time></trkpt><trkpt lat="43.52541989408686" lon="12.813321973797393"><ele>478.0</ele><time>2026-04-25T09:52:36.999Z</time></trkpt><trkpt lat="43.525447633209076" lon="12.813404368932282"><ele>478.00000000000006</ele><time>2026-04-25T09:52:38.999Z</time></trkpt><trkpt lat="43.525468407035504" lon="12.81352212290445"><ele>478.00000000000006</ele><time>2026-04-25T09:52:41.999Z</time></trkpt><trkpt lat="43.525462182010294" lon="12.813611800161759"><ele>478.0</ele><time>2026-04-25T09:52:44.999Z</time></trkpt><trkpt lat="43.52548267882599" lon="12.813704135538387"><ele>478.00000000000006</ele><time>2026-04-25T09:52:48.999Z</time></trkpt><trkpt lat="43.525525641971846" lon="12.813639415384138"><ele>478.00000000000006</ele><time>2026-04-25T09:52:53.999Z</time></trkpt><trkpt lat="43.52554541753448" lon="12.81354220011874"><ele>478.00000000000006</ele><time>2026-04-25T09:52:55.999Z</time></trkpt><trkpt lat="43.52556921002256" lon="12.813438394836458"><ele>478.0</ele><time>2026-04-25T09:52:57.999Z</time></trkpt><trkpt lat="43.52561470080578" lon="12.813358575192726"><ele>478.0</ele><time>2026-04-25T09:52:59.999Z</time></trkpt><trkpt lat="43.52566924610867" lon="12.813274003086907"><ele>478.0</ele><time>2026-04-25T09:53:02Z</time></trkpt><trkpt lat="43.52572337373477" lon="12.813175469058312"><ele>478.00000000000006</ele><time>2026-04-25T09:53:04Z</time></trkpt><trkpt lat="43.52576770918214" lon="12.813066889468034"><ele>478.0</ele><time>2026-04-25T09:53:07Z</time></trkpt><trkpt lat="43.52581074513774" lon="12.812965105039138"><ele>478.00000000000006</ele><time>2026-04-25T09:53:09Z</time></trkpt><trkpt lat="43.52583402990603" lon="12.81286525508793"><ele>478.0</ele><time>2026-04-25T09:53:12Z</time></trkpt><trkpt lat="43.52588501911366" lon="12.812771213131882"><ele>478.0</ele><time>2026-04-25T09:53:15Z</time></trkpt><trkpt lat="43.52594392444138" lon="12.81268337340098"><ele>478.0</ele><time>2026-04-25T09:53:18Z</time></trkpt><trkpt lat="43.52599236422465" lon="12.812621820218604"><ele>478.00000000000006</ele><time>2026-04-25T09:53:20Z</time></trkpt><trkpt lat="43.526026574923506" lon="12.812516235539977"><ele>478.0</ele><time>2026-04-25T09:53:22Z</time></trkpt><trkpt lat="43.52603924940373" lon="12.812399315554678"><ele>478.83333333333337</ele><time>2026-04-25T09:53:25Z</time></trkpt><trkpt lat="43.52607053051703" lon="12.812291698754544"><ele>479.6666666666667</ele><time>2026-04-25T09:53:28Z</time></trkpt><trkpt lat="43.5260817391486" lon="12.812159646267954"><ele>480.5</ele><time>2026-04-25T09:53:31Z</time></trkpt><trkpt lat="43.526079586699616" lon="12.81206278118388"><ele>481.33333333333337</ele><time>2026-04-25T09:53:33Z</time></trkpt><trkpt lat="43.526074833771666" lon="12.81196299787699"><ele>482.1666666666667</ele><time>2026-04-25T09:53:35Z</time></trkpt><trkpt lat="43.52607818250836" lon="12.811870952947377"><ele>483.0</ele><time>2026-04-25T09:53:37Z</time></trkpt><trkpt lat="43.526051769779976" lon="12.81176234889408"><ele>484.0</ele><time>2026-04-25T09:53:39Z</time></trkpt><trkpt lat="43.52602814757503" lon="12.811655114271181"><ele>484.99999999999994</ele><time>2026-04-25T09:53:41Z</time></trkpt><trkpt lat="43.52601140598565" lon="12.811510371963456"><ele>485.99999999999994</ele><time>2026-04-25T09:53:43Z</time></trkpt><trkpt lat="43.52602022275095" lon="12.811415403369308"><ele>487.0</ele><time>2026-04-25T09:53:45Z</time></trkpt><trkpt lat="43.52599892142158" lon="12.81132885554205"><ele>488.0</ele><time>2026-04-25T09:53:52Z</time></trkpt><trkpt lat="43.52587113604279" lon="12.81124389929374"><ele>488.0</ele><time>2026-04-25T09:53:54Z</time></trkpt><trkpt lat="43.52583151161041" lon="12.811128094889893"><ele>487.99999999999994</ele><time>2026-04-25T09:53:56Z</time></trkpt><trkpt lat="43.52579277357381" lon="12.811002831489882"><ele>487.99999999999994</ele><time>2026-04-25T09:53:58Z</time></trkpt><trkpt lat="43.52574872087732" lon="12.810839965311457"><ele>488.0</ele><time>2026-04-25T09:54:00Z</time></trkpt><trkpt lat="43.52570049173708" lon="12.810712899735853"><ele>488.0</ele><time>2026-04-25T09:54:02Z</time></trkpt><trkpt lat="43.52566302376157" lon="12.810579303288241"><ele>486.5</ele><time>2026-04-25T09:54:04Z</time></trkpt><trkpt lat="43.525622640839096" lon="12.810434310640984"><ele>485.0</ele><time>2026-04-25T09:54:06Z</time></trkpt><trkpt lat="43.52558271160266" lon="12.810283866637363"><ele>483.5</ele><time>2026-04-25T09:54:08Z</time></trkpt><trkpt lat="43.52554050946378" lon="12.810123277025898"><ele>482.0</ele><time>2026-04-25T09:54:10Z</time></trkpt><trkpt lat="43.525499808791096" lon="12.809966819644151"><ele>481.6</ele><time>2026-04-25T09:54:12Z</time></trkpt><trkpt lat="43.525449427328184" lon="12.8098454650217"><ele>481.20000000000005</ele><time>2026-04-25T09:54:14Z</time></trkpt><trkpt lat="43.525400182981535" lon="12.80974376357543"><ele>480.8</ele><time>2026-04-25T09:54:17Z</time></trkpt><trkpt lat="43.52535458723002" lon="12.809644272403006"><ele>480.4</ele><time>2026-04-25T09:54:20Z</time></trkpt><trkpt lat="43.52528769022255" lon="12.809528656546943"><ele>480.0</ele><time>2026-04-25T09:54:23Z</time></trkpt><trkpt lat="43.52524587651839" lon="12.809426403187668"><ele>483.0</ele><time>2026-04-25T09:54:25Z</time></trkpt><trkpt lat="43.525191754269414" lon="12.80931359060339"><ele>486.0</ele><time>2026-04-25T09:54:27Z</time></trkpt><trkpt lat="43.52516327992577" lon="12.809208861787551"><ele>489.0</ele><time>2026-04-25T09:54:29Z</time></trkpt><trkpt lat="43.52513313075546" lon="12.809092112067633"><ele>492.0</ele><time>2026-04-25T09:54:31Z</time></trkpt><trkpt lat="43.52504279618814" lon="12.80909676791349"><ele>495.0</ele><time>2026-04-25T09:54:34Z</time></trkpt><trkpt lat="43.52501282902706" lon="12.809209477216593"><ele>498.0</ele><time>2026-04-25T09:54:36.001Z</time></trkpt><trkpt lat="43.52503392190926" lon="12.809317852813233"><ele>500.1666666666667</ele><time>2026-04-25T09:54:38.999Z</time></trkpt><trkpt lat="43.525057781538074" lon="12.80944421259974"><ele>502.33333333333337</ele><time>2026-04-25T09:54:41.999Z</time></trkpt><trkpt lat="43.52504524750944" lon="12.809532658732778"><ele>504.5</ele><time>2026-04-25T09:54:43.999Z</time></trkpt><trkpt lat="43.52505020242012" lon="12.809628398661863"><ele>506.6666666666667</ele><time>2026-04-25T09:54:45.999Z</time></trkpt><trkpt lat="43.525084787653654" lon="12.809746328031371"><ele>508.83333333333337</ele><time>2026-04-25T09:54:47.999Z</time></trkpt><trkpt lat="43.52507323517921" lon="12.80983709874628"><ele>511.0</ele><time>2026-04-25T09:54:49.999Z</time></trkpt><trkpt lat="43.52505217529396" lon="12.809929980066261"><ele>511.00000000000006</ele><time>2026-04-25T09:55:09Z</time></trkpt><trkpt lat="43.52495447037144" lon="12.80995740329511"><ele>511.0</ele><time>2026-04-25T09:55:12Z</time></trkpt><trkpt lat="43.52488550834562" lon="12.809934778678928"><ele>511.0</ele><time>2026-04-25T09:55:15Z</time></trkpt><trkpt lat="43.5248019895854" lon="12.809897083856155"><ele>511.0</ele><time>2026-04-25T09:55:18Z</time></trkpt><trkpt lat="43.524705543773344" lon="12.809829257868694"><ele>511.00000000000006</ele><time>2026-04-25T09:55:22Z</time></trkpt><trkpt lat="43.52465933889848" lon="12.80976309368729"><ele>511.0</ele><time>2026-04-25T09:55:24Z</time></trkpt><trkpt lat="43.52459413350636" lon="12.80968647295543"><ele>513.0</ele><time>2026-04-25T09:55:27Z</time></trkpt><trkpt lat="43.52452761406705" lon="12.809619821909143"><ele>515.0</ele><time>2026-04-25T09:55:31Z</time></trkpt><trkpt lat="43.52448857094792" lon="12.80954816032143"><ele>517.0</ele><time>2026-04-25T09:55:36Z</time></trkpt><trkpt lat="43.5244266850805" lon="12.809479377585237"><ele>519.0</ele><time>2026-04-25T09:55:40Z</time></trkpt><trkpt lat="43.52437690396615" lon="12.809401534702193"><ele>521.0</ele><time>2026-04-25T09:55:44Z</time></trkpt><trkpt lat="43.52432970358725" lon="12.809339152653541"><ele>523.0</ele><time>2026-04-25T09:55:47Z</time></trkpt><trkpt lat="43.52430453095519" lon="12.809238121167528"><ele>525.0</ele><time>2026-04-25T09:55:50Z</time></trkpt><trkpt lat="43.5242350042024" lon="12.809175484586643"><ele>525.0</ele><time>2026-04-25T09:55:53Z</time></trkpt><trkpt lat="43.52417725132035" lon="12.809107964603111"><ele>525.0</ele><time>2026-04-25T09:55:58Z</time></trkpt><trkpt lat="43.52411275625522" lon="12.809039812694833"><ele>525.0</ele><time>2026-04-25T09:56:02Z</time></trkpt><trkpt lat="43.524070771087615" lon="12.808967349213983"><ele>525.0</ele><time>2026-04-25T09:56:06.001Z</time></trkpt><trkpt lat="43.52402242096658" lon="12.808908676633067"><ele>525.0</ele><time>2026-04-25T09:56:09.001Z</time></trkpt><trkpt lat="43.523954450029656" lon="12.808851531443008"><ele>525.0</ele><time>2026-04-25T09:56:12.001Z</time></trkpt><trkpt lat="43.52387265882439" lon="12.808836177221421"><ele>525.0</ele><time>2026-04-25T09:56:15.001Z</time></trkpt><trkpt lat="43.52384801857897" lon="12.808735933046128"><ele>525.0</ele><time>2026-04-25T09:56:17.001Z</time></trkpt><trkpt lat="43.523829376216675" lon="12.808644079721878"><ele>525.0</ele><time>2026-04-25T09:56:18.001Z</time></trkpt><trkpt lat="43.52380800679579" lon="12.808552721680314"><ele>525.0</ele><time>2026-04-25T09:56:20.001Z</time></trkpt><trkpt lat="43.523777229893014" lon="12.808446488410347"><ele>525.0</ele><time>2026-04-25T09:56:22.001Z</time></trkpt><trkpt lat="43.52371373479674" lon="12.808326795561104"><ele>525.0</ele><time>2026-04-25T09:56:24.001Z</time></trkpt><trkpt lat="43.52366762022502" lon="12.808230169853752"><ele>529.5</ele><time>2026-04-25T09:56:26.001Z</time></trkpt><trkpt lat="43.523624309536125" lon="12.808138890311895"><ele>534.0</ele><time>2026-04-25T09:56:28.001Z</time></trkpt><trkpt lat="43.52356000807923" lon="12.808041578048714"><ele>538.5</ele><time>2026-04-25T09:56:30.001Z</time></trkpt><trkpt lat="43.52352138334399" lon="12.807968696048098"><ele>543.0</ele><time>2026-04-25T09:56:32.001Z</time></trkpt><trkpt lat="43.52347232164959" lon="12.807862967897188"><ele>547.5</ele><time>2026-04-25T09:56:34.001Z</time></trkpt><trkpt lat="43.523445979596296" lon="12.807781939269889"><ele>552.0</ele><time>2026-04-25T09:56:36.001Z</time></trkpt><trkpt lat="43.523399489176605" lon="12.807686376944456"><ele>548.6666666666666</ele><time>2026-04-25T09:56:39.001Z</time></trkpt><trkpt lat="43.52333273792649" lon="12.80760177721065"><ele>545.3333333333334</ele><time>2026-04-25T09:56:41.001Z</time></trkpt><trkpt lat="43.523293031220206" lon="12.807506177100823"><ele>542.0</ele><time>2026-04-25T09:56:43.001Z</time></trkpt><trkpt lat="43.52321991402714" lon="12.807437973539585"><ele>538.6666666666667</ele><time>2026-04-25T09:56:45Z</time></trkpt><trkpt lat="43.52317282014965" lon="12.807365309312571"><ele>535.3333333333334</ele><time>2026-04-25T09:56:47Z</time></trkpt><trkpt lat="43.52311499791734" lon="12.807273248745933"><ele>532.0</ele><time>2026-04-25T09:56:50Z</time></trkpt><trkpt lat="43.52306539714288" lon="12.807212468646304"><ele>532.0</ele><time>2026-04-25T09:56:52Z</time></trkpt><trkpt lat="43.52301135397671" lon="12.807141149307903"><ele>532.0</ele><time>2026-04-25T09:56:55Z</time></trkpt><trkpt lat="43.52295417027452" lon="12.807080421451502"><ele>532.0</ele><time>2026-04-25T09:56:59Z</time></trkpt><trkpt lat="43.52290086492295" lon="12.807017399294107"><ele>532.0</ele><time>2026-04-25T09:57:02Z</time></trkpt><trkpt lat="43.5228471178783" lon="12.806951099139619"><ele>532.0</ele><time>2026-04-25T09:57:05Z</time></trkpt><trkpt lat="43.52279433829724" lon="12.806897481525274"><ele>532.0</ele><time>2026-04-25T09:57:09Z</time></trkpt><trkpt lat="43.52274263947285" lon="12.806814790045015"><ele>532.0</ele><time>2026-04-25T09:57:12Z</time></trkpt><trkpt lat="43.52269847172257" lon="12.80674640427468"><ele>535.1428571428571</ele><time>2026-04-25T09:57:14Z</time></trkpt><trkpt lat="43.52263490331043" lon="12.806680741354866"><ele>538.2857142857142</ele><time>2026-04-25T09:57:18Z</time></trkpt><trkpt lat="43.52258857087332" lon="12.806616039381204"><ele>541.4285714285714</ele><time>2026-04-25T09:57:21Z</time></trkpt><trkpt lat="43.52253416764689" lon="12.806563395044341"><ele>544.5714285714286</ele><time>2026-04-25T09:57:24Z</time></trkpt><trkpt lat="43.522467319682164" lon="12.806499569190807"><ele>547.7142857142857</ele><time>2026-04-25T09:57:28.001Z</time></trkpt><trkpt lat="43.52241762531929" lon="12.806413534198906"><ele>550.8571428571429</ele><time>2026-04-25T09:57:31.001Z</time></trkpt><trkpt lat="43.52236929342424" lon="12.806345205560921"><ele>554.0</ele><time>2026-04-25T09:57:34.001Z</time></trkpt><trkpt lat="43.52232945354666" lon="12.80627352002273"><ele>554.0</ele><time>2026-04-25T09:57:38.001Z</time></trkpt><trkpt lat="43.52229409988906" lon="12.806198344446596"><ele>554.0</ele><time>2026-04-25T09:57:41.001Z</time></trkpt><trkpt lat="43.52222887310049" lon="12.806111637291524"><ele>554.0</ele><time>2026-04-25T09:57:45.001Z</time></trkpt><trkpt lat="43.522198060448574" lon="12.806035605415332"><ele>554.0</ele><time>2026-04-25T09:57:48.001Z</time></trkpt><trkpt lat="43.522169745209005" lon="12.805952961295969"><ele>554.0</ele><time>2026-04-25T09:59:32.001Z</time></trkpt><trkpt lat="43.52211057224096" lon="12.805852115629582"><ele>554.0</ele><time>2026-04-25T09:59:58.001Z</time></trkpt><trkpt lat="43.522045519963484" lon="12.805747804205149"><ele>556.8</ele><time>2026-04-25T10:00:01.001Z</time></trkpt><trkpt lat="43.522011006401954" lon="12.805664364640329"><ele>559.5999999999999</ele><time>2026-04-25T10:00:03.001Z</time></trkpt><trkpt lat="43.52197346555558" lon="12.80556820293874"><ele>562.4</ele><time>2026-04-25T10:00:05.001Z</time></trkpt><trkpt lat="43.52192466471058" lon="12.805456216991917"><ele>565.1999999999999</ele><time>2026-04-25T10:00:07.001Z</time></trkpt><trkpt lat="43.52186458225722" lon="12.805309505812847"><ele>568.0</ele><time>2026-04-25T10:00:09.001Z</time></trkpt><trkpt lat="43.52181414175383" lon="12.805150013275703"><ele>568.0</ele><time>2026-04-25T10:00:11.001Z</time></trkpt><trkpt lat="43.521770309208" lon="12.804986577264224"><ele>568.0</ele><time>2026-04-25T10:00:13.001Z</time></trkpt><trkpt lat="43.52173493394583" lon="12.804904527698122"><ele>568.0</ele><time>2026-04-25T10:00:14.001Z</time></trkpt><trkpt lat="43.521696785752965" lon="12.804824422865721"><ele>568.0</ele><time>2026-04-25T10:00:15.001Z</time></trkpt><trkpt lat="43.521678928147374" lon="12.80471916921026"><ele>568.0</ele><time>2026-04-25T10:00:17.001Z</time></trkpt><trkpt lat="43.52161312437811" lon="12.804688503821987"><ele>568.0</ele><time>2026-04-25T10:01:15.001Z</time></trkpt><trkpt lat="43.52165026962661" lon="12.804761539352285"><ele>568.0</ele><time>2026-04-25T10:01:20.001Z</time></trkpt><trkpt lat="43.521674506579906" lon="12.804848299055951"><ele>568.0</ele><time>2026-04-25T10:01:22.001Z</time></trkpt><trkpt lat="43.52171608650168" lon="12.804981510567783"><ele>568.0</ele><time>2026-04-25T10:01:24.001Z</time></trkpt><trkpt lat="43.52175965264822" lon="12.805123622723212"><ele>568.0</ele><time>2026-04-25T10:01:26.001Z</time></trkpt><trkpt lat="43.52178605989715" lon="12.805207520766414"><ele>568.0</ele><time>2026-04-25T10:01:27.001Z</time></trkpt><trkpt lat="43.52185226120604" lon="12.805307487572053"><ele>568.0</ele><time>2026-04-25T10:01:29.001Z</time></trkpt><trkpt lat="43.521885485280514" lon="12.805388813285761"><ele>569.5714285714286</ele><time>2026-04-25T10:01:30.001Z</time></trkpt><trkpt lat="43.521905660824295" lon="12.80547858015626"><ele>571.1428571428571</ele><time>2026-04-25T10:01:32.001Z</time></trkpt><trkpt lat="43.52195936255381" lon="12.805571832126686"><ele>572.7142857142857</ele><time>2026-04-25T10:01:34.001Z</time></trkpt><trkpt lat="43.52200055085458" lon="12.805649692303179"><ele>574.2857142857142</ele><time>2026-04-25T10:01:36.001Z</time></trkpt><trkpt lat="43.52203609273029" lon="12.805738480032192"><ele>575.8571428571429</ele><time>2026-04-25T10:01:38.001Z</time></trkpt><trkpt lat="43.522079795384045" lon="12.80582502057514"><ele>577.4285714285713</ele><time>2026-04-25T10:01:41.001Z</time></trkpt><trkpt lat="43.52211840774323" lon="12.805910117895252"><ele>579.0</ele><time>2026-04-25T10:01:45.001Z</time></trkpt><trkpt lat="43.52217900250158" lon="12.805965883822404"><ele>575.4285714285713</ele><time>2026-04-25T10:01:50.001Z</time></trkpt><trkpt lat="43.52223745678078" lon="12.80602637693335"><ele>571.8571428571429</ele><time>2026-04-25T10:01:56.001Z</time></trkpt><trkpt lat="43.52228058148804" lon="12.806099543778094"><ele>568.2857142857142</ele><time>2026-04-25T10:02:02.001Z</time></trkpt><trkpt lat="43.522316946247436" lon="12.806172497586314"><ele>564.7142857142857</ele><time>2026-04-25T10:02:12.001Z</time></trkpt><trkpt lat="43.52236483477666" lon="12.806232804297284"><ele>561.1428571428571</ele><time>2026-04-25T10:02:16.001Z</time></trkpt><trkpt lat="43.52240085403479" lon="12.806304806108773"><ele>557.5714285714286</ele><time>2026-04-25T10:02:23.001Z</time></trkpt><trkpt lat="43.52245420225602" lon="12.80636178547621"><ele>554.0</ele><time>2026-04-25T10:02:31.001Z</time></trkpt><trkpt lat="43.522502330373435" lon="12.806428138775349"><ele>554.0</ele><time>2026-04-25T10:02:37.001Z</time></trkpt><trkpt lat="43.52256857103373" lon="12.806490130780118"><ele>554.0</ele><time>2026-04-25T10:02:41.001Z</time></trkpt><trkpt lat="43.52262393643249" lon="12.806536321375145"><ele>554.0</ele><time>2026-04-25T10:02:44.001Z</time></trkpt><trkpt lat="43.52268278941997" lon="12.806602679156669"><ele>554.0</ele><time>2026-04-25T10:02:47.001Z</time></trkpt><trkpt lat="43.52272379545423" lon="12.80667314464237"><ele>554.0</ele><time>2026-04-25T10:02:50.001Z</time></trkpt><trkpt lat="43.522791927225875" lon="12.806783445829609"><ele>554.0</ele><time>2026-04-25T10:02:53.001Z</time></trkpt><trkpt lat="43.522867037580696" lon="12.806848094183849"><ele>550.3333333333333</ele><time>2026-04-25T10:02:56.001Z</time></trkpt><trkpt lat="43.522908611832094" lon="12.806918801533186"><ele>546.6666666666666</ele><time>2026-04-25T10:02:58.001Z</time></trkpt><trkpt lat="43.52296631726519" lon="12.806988950757573"><ele>543.0</ele><time>2026-04-25T10:03:01.001Z</time></trkpt><trkpt lat="43.523029224363164" lon="12.807080854904855"><ele>539.3333333333334</ele><time>2026-04-25T10:03:03.001Z</time></trkpt><trkpt lat="43.52308680756269" lon="12.8071632673884"><ele>535.6666666666667</ele><time>2026-04-25T10:03:05.001Z</time></trkpt><trkpt lat="43.523144046744996" lon="12.807231578286977"><ele>532.0</ele><time>2026-04-25T10:03:07.001Z</time></trkpt><trkpt lat="43.52319175214319" lon="12.807320982733337"><ele>532.0</ele><time>2026-04-25T10:03:09Z</time></trkpt><trkpt lat="43.52325574145644" lon="12.807423869386724"><ele>532.0</ele><time>2026-04-25T10:03:11Z</time></trkpt><trkpt lat="43.52332829191902" lon="12.807529543002316"><ele>532.0</ele><time>2026-04-25T10:03:13Z</time></trkpt><trkpt lat="43.52334239611933" lon="12.807627305403098"><ele>532.0</ele><time>2026-04-25T10:03:15Z</time></trkpt><trkpt lat="43.523389391582576" lon="12.807700680368507"><ele>532.0</ele><time>2026-04-25T10:03:16Z</time></trkpt><trkpt lat="43.52345322593113" lon="12.807821161516365"><ele>536.0</ele><time>2026-04-25T10:03:18Z</time></trkpt><trkpt lat="43.52352215457344" lon="12.807958894063741"><ele>540.0</ele><time>2026-04-25T10:03:20Z</time></trkpt><trkpt lat="43.52359293618065" lon="12.80809401665078"><ele>544.0</ele><time>2026-04-25T10:03:22Z</time></trkpt><trkpt lat="43.52364947294135" lon="12.808207348364698"><ele>548.0</ele><time>2026-04-25T10:03:24Z</time></trkpt><trkpt lat="43.52369944956016" lon="12.80827987590179"><ele>552.0</ele><time>2026-04-25T10:03:25Z</time></trkpt><trkpt lat="43.523748323703785" lon="12.808419912731653"><ele>548.1428571428571</ele><time>2026-04-25T10:03:27Z</time></trkpt><trkpt lat="43.523773741288856" lon="12.808499907170255"><ele>544.2857142857143</ele><time>2026-04-25T10:03:29Z</time></trkpt><trkpt lat="43.5237801573105" lon="12.808587655696602"><ele>540.4285714285714</ele><time>2026-04-25T10:03:31Z</time></trkpt><trkpt lat="43.523817377405926" lon="12.808682038759269"><ele>536.5714285714286</ele><time>2026-04-25T10:03:33Z</time></trkpt><trkpt lat="43.523894177803804" lon="12.808750070057716"><ele>532.7142857142858</ele><time>2026-04-25T10:03:35Z</time></trkpt><trkpt lat="43.52397037860814" lon="12.80877527686012"><ele>528.8571428571429</ele><time>2026-04-25T10:03:37Z</time></trkpt><trkpt lat="43.5240192020333" lon="12.80883415476962"><ele>525.0</ele><time>2026-04-25T10:03:42Z</time></trkpt><trkpt lat="43.52407747786367" lon="12.80888823734532"><ele>525.0</ele><time>2026-04-25T10:03:53Z</time></trkpt><trkpt lat="43.52410724288641" lon="12.808964797494571"><ele>525.0</ele><time>2026-04-25T10:03:58Z</time></trkpt><trkpt lat="43.52415913214769" lon="12.809022450765342"><ele>525.0</ele><time>2026-04-25T10:04:03Z</time></trkpt><trkpt lat="43.52420862938449" lon="12.809093244100962"><ele>525.0</ele><time>2026-04-25T10:04:08Z</time></trkpt><trkpt lat="43.52425835336367" lon="12.809163624299153"><ele>525.0</ele><time>2026-04-25T10:04:13Z</time></trkpt><trkpt lat="43.52430425677184" lon="12.809223774293308"><ele>525.0</ele><time>2026-04-25T10:04:17Z</time></trkpt><trkpt lat="43.524346509559614" lon="12.809311506532891"><ele>525.0</ele><time>2026-04-25T10:04:21Z</time></trkpt><trkpt lat="43.52440463215286" lon="12.809381060342744"><ele>523.0</ele><time>2026-04-25T10:04:32Z</time></trkpt><trkpt lat="43.524464406138755" lon="12.80944163625395"><ele>521.0</ele><time>2026-04-25T10:04:37Z</time></trkpt><trkpt lat="43.52452199817907" lon="12.809497413456809"><ele>519.0</ele><time>2026-04-25T10:04:43Z</time></trkpt><trkpt lat="43.52456808112309" lon="12.809561494468419"><ele>517.0</ele><time>2026-04-25T10:04:48Z</time></trkpt><trkpt lat="43.5246177498069" lon="12.809620172259661"><ele>515.0</ele><time>2026-04-25T10:04:54Z</time></trkpt><trkpt lat="43.524667697534504" lon="12.80968135794375"><ele>513.0</ele><time>2026-04-25T10:04:57Z</time></trkpt><trkpt lat="43.52473727569847" lon="12.809764557586625"><ele>511.0</ele><time>2026-04-25T10:05:02Z</time></trkpt><trkpt lat="43.524809562601796" lon="12.809802046422432"><ele>511.00000000000006</ele><time>2026-04-25T10:05:05Z</time></trkpt><trkpt lat="43.52488498156206" lon="12.809860214172451"><ele>511.0</ele><time>2026-04-25T10:05:08Z</time></trkpt><trkpt lat="43.5249743950897" lon="12.809906492420192"><ele>511.0</ele><time>2026-04-25T10:05:11Z</time></trkpt><trkpt lat="43.525046906241684" lon="12.809840657637249"><ele>511.0</ele><time>2026-04-25T10:05:14Z</time></trkpt><trkpt lat="43.52506784289952" lon="12.809729151828977"><ele>511.00000000000006</ele><time>2026-04-25T10:05:17Z</time></trkpt><trkpt lat="43.525054253536126" lon="12.809624564659028"><ele>511.0</ele><time>2026-04-25T10:05:20Z</time></trkpt><trkpt lat="43.52504260407592" lon="12.80952356947587"><ele>511.0</ele><time>2026-04-25T10:05:23Z</time></trkpt><trkpt lat="43.52505214612766" lon="12.809421434098494"><ele>511.0</ele><time>2026-04-25T10:05:26Z</time></trkpt><trkpt lat="43.52506736185835" lon="12.809316545090317"><ele>511.0</ele><time>2026-04-25T10:05:30Z</time></trkpt><trkpt lat="43.52503631266374" lon="12.809225449591041"><ele>511.0</ele><time>2026-04-25T10:05:33Z</time></trkpt><trkpt lat="43.52502301652429" lon="12.809122590855576"><ele>511.0</ele><time>2026-04-25T10:05:36Z</time></trkpt><trkpt lat="43.52504945123066" lon="12.809029241754054"><ele>511.0</ele><time>2026-04-25T10:05:40Z</time></trkpt><trkpt lat="43.52509098784439" lon="12.808949820447442"><ele>511.0</ele><time>2026-04-25T10:05:47Z</time></trkpt><trkpt lat="43.52510666726222" lon="12.808861700414868"><ele>509.1428571428571</ele><time>2026-04-25T10:05:49Z</time></trkpt><trkpt lat="43.52506557440339" lon="12.808778275639305"><ele>507.2857142857143</ele><time>2026-04-25T10:05:53Z</time></trkpt><trkpt lat="43.52500643558244" lon="12.808748195656618"><ele>505.42857142857144</ele><time>2026-04-25T10:05:56Z</time></trkpt><trkpt lat="43.52495433894614" lon="12.80880661367758"><ele>503.57142857142856</ele><time>2026-04-25T10:06:00Z</time></trkpt><trkpt lat="43.5249148100216" lon="12.808900467449229"><ele>501.71428571428567</ele><time>2026-04-25T10:06:03Z</time></trkpt><trkpt lat="43.52485910300497" lon="12.808990055888215"><ele>499.85714285714283</ele><time>2026-04-25T10:06:06Z</time></trkpt><trkpt lat="43.52480293062381" lon="12.809032865474022"><ele>498.0</ele><time>2026-04-25T10:06:09Z</time></trkpt><trkpt lat="43.524733648967775" lon="12.809033190220113"><ele>498.0</ele><time>2026-04-25T10:06:11Z</time></trkpt><trkpt lat="43.52464714333487" lon="12.808978647406676"><ele>497.99999999999994</ele><time>2026-04-25T10:06:14Z</time></trkpt><trkpt lat="43.524572085630545" lon="12.808858635964972"><ele>497.99999999999994</ele><time>2026-04-25T10:06:16Z</time></trkpt><trkpt lat="43.52452398038777" lon="12.808747235931236"><ele>498.0</ele><time>2026-04-25T10:06:18Z</time></trkpt><trkpt lat="43.52446677338064" lon="12.808683768682792"><ele>498.0</ele><time>2026-04-25T10:06:20Z</time></trkpt><trkpt lat="43.52437199405045" lon="12.808585215191508"><ele>498.6666666666667</ele><time>2026-04-25T10:06:22Z</time></trkpt><trkpt lat="43.524272674536086" lon="12.808562985442208"><ele>499.33333333333337</ele><time>2026-04-25T10:06:24Z</time></trkpt><trkpt lat="43.524228101552886" lon="12.808472645887866"><ele>500.0</ele><time>2026-04-25T10:06:27Z</time></trkpt><trkpt lat="43.52421610316614" lon="12.808350056919597"><ele>500.6666666666667</ele><time>2026-04-25T10:06:29Z</time></trkpt><trkpt lat="43.52421155506451" lon="12.808231144303008"><ele>501.33333333333337</ele><time>2026-04-25T10:06:31Z</time></trkpt><trkpt lat="43.52418113906568" lon="12.808144689222917"><ele>502.0</ele><time>2026-04-25T10:06:33Z</time></trkpt><trkpt lat="43.524134133913456" lon="12.80805425820754"><ele>501.99999999999994</ele><time>2026-04-25T10:06:35Z</time></trkpt><trkpt lat="43.52408598535197" lon="12.807955858824776"><ele>502.0</ele><time>2026-04-25T10:06:37Z</time></trkpt><trkpt lat="43.52404493349725" lon="12.807880124379121"><ele>501.99999999999994</ele><time>2026-04-25T10:06:39Z</time></trkpt><trkpt lat="43.5240005335157" lon="12.807818047618332"><ele>501.99999999999994</ele><time>2026-04-25T10:06:41Z</time></trkpt><trkpt lat="43.52397564849069" lon="12.807705252318907"><ele>502.0</ele><time>2026-04-25T10:06:44Z</time></trkpt><trkpt lat="43.523970445288136" lon="12.80761189515044"><ele>501.99999999999994</ele><time>2026-04-25T10:06:46Z</time></trkpt><trkpt lat="43.52394896408268" lon="12.807508429945157"><ele>501.99999999999994</ele><time>2026-04-25T10:06:48Z</time></trkpt><trkpt lat="43.52392704836008" lon="12.807404314751917"><ele>502.99999999999994</ele><time>2026-04-25T10:06:50Z</time></trkpt><trkpt lat="43.52390731619756" lon="12.807307749819"><ele>504.0</ele><time>2026-04-25T10:06:52Z</time></trkpt><trkpt lat="43.52387746285878" lon="12.807223137668304"><ele>504.99999999999994</ele><time>2026-04-25T10:06:54Z</time></trkpt><trkpt lat="43.52384841772895" lon="12.807104297636517"><ele>505.99999999999994</ele><time>2026-04-25T10:06:57Z</time></trkpt><trkpt lat="43.52380945091394" lon="12.807016237475581"><ele>507.0</ele><time>2026-04-25T10:06:59Z</time></trkpt><trkpt lat="43.52376979563973" lon="12.806929252733465"><ele>507.99999999999994</ele><time>2026-04-25T10:07:01Z</time></trkpt><trkpt lat="43.52374320812174" lon="12.806844737055043"><ele>508.99999999999994</ele><time>2026-04-25T10:07:03Z</time></trkpt><trkpt lat="43.52370418553855" lon="12.806768137838295"><ele>508.99999999999994</ele><time>2026-04-25T10:07:05Z</time></trkpt><trkpt lat="43.52365435461242" lon="12.806694773624864"><ele>509.0</ele><time>2026-04-25T10:07:07Z</time></trkpt><trkpt lat="43.52360817831965" lon="12.806596930889791"><ele>509.0</ele><time>2026-04-25T10:07:09Z</time></trkpt><trkpt lat="43.52355933361111" lon="12.806483680574292"><ele>509.0</ele><time>2026-04-25T10:07:12Z</time></trkpt><trkpt lat="43.52352220324383" lon="12.806410211943032"><ele>508.99999999999994</ele><time>2026-04-25T10:07:14Z</time></trkpt><trkpt lat="43.523482823978206" lon="12.806315527737738"><ele>509.0</ele><time>2026-04-25T10:07:16Z</time></trkpt><trkpt lat="43.52345418003414" lon="12.80623111194398"><ele>508.99999999999994</ele><time>2026-04-25T10:07:18Z</time></trkpt><trkpt lat="43.52341984826658" lon="12.80614106641155"><ele>509.0</ele><time>2026-04-25T10:07:20Z</time></trkpt><trkpt lat="43.523391331920855" lon="12.806037121979537"><ele>509.0</ele><time>2026-04-25T10:07:22Z</time></trkpt><trkpt lat="43.52334360403192" lon="12.805910108700948"><ele>509.0</ele><time>2026-04-25T10:07:26Z</time></trkpt><trkpt lat="43.523337005692696" lon="12.805774624961673"><ele>508.99999999999994</ele><time>2026-04-25T10:07:28Z</time></trkpt><trkpt lat="43.52332716489306" lon="12.805663737590166"><ele>509.0</ele><time>2026-04-25T10:07:31Z</time></trkpt><trkpt lat="43.52332818213742" lon="12.805550815446713"><ele>505.79999999999995</ele><time>2026-04-25T10:07:36Z</time></trkpt><trkpt lat="43.52334679011479" lon="12.805442397813406"><ele>502.59999999999997</ele><time>2026-04-25T10:07:39Z</time></trkpt><trkpt lat="43.52333788743105" lon="12.80531151082312"><ele>499.4</ele><time>2026-04-25T10:07:42Z</time></trkpt><trkpt lat="43.523351288571604" lon="12.80518136932921"><ele>496.2</ele><time>2026-04-25T10:07:45Z</time></trkpt><trkpt lat="43.52337372020009" lon="12.805056684560277"><ele>493.0</ele><time>2026-04-25T10:07:47Z</time></trkpt><trkpt lat="43.52338773350833" lon="12.804921170338364"><ele>492.50000000000006</ele><time>2026-04-25T10:07:49Z</time></trkpt><trkpt lat="43.523373792473116" lon="12.804806934055767"><ele>492.0</ele><time>2026-04-25T10:07:51Z</time></trkpt><trkpt lat="43.52337816342161" lon="12.804697446217828"><ele>491.5</ele><time>2026-04-25T10:07:53Z</time></trkpt><trkpt lat="43.52338020712829" lon="12.804553137084802"><ele>491.0</ele><time>2026-04-25T10:07:55Z</time></trkpt><trkpt lat="43.52339935269246" lon="12.804421260138778"><ele>490.50000000000006</ele><time>2026-04-25T10:07:57Z</time></trkpt><trkpt lat="43.52340743063261" lon="12.804311583824292"><ele>490.0</ele><time>2026-04-25T10:07:59Z</time></trkpt><trkpt lat="43.523394591219606" lon="12.80418880791028"><ele>490.0</ele><time>2026-04-25T10:08:01Z</time></trkpt><trkpt lat="43.52340749434236" lon="12.804095716459925"><ele>490.0</ele><time>2026-04-25T10:08:03Z</time></trkpt><trkpt lat="43.52340579462579" lon="12.803996925416312"><ele>490.0</ele><time>2026-04-25T10:08:06Z</time></trkpt><trkpt lat="43.52340700406831" lon="12.803890405198823"><ele>490.0</ele><time>2026-04-25T10:08:09Z</time></trkpt><trkpt lat="43.52342940640578" lon="12.803786616367432"><ele>490.0</ele><time>2026-04-25T10:08:11Z</time></trkpt><trkpt lat="43.523446005799684" lon="12.803695296525397"><ele>490.0</ele><time>2026-04-25T10:08:13Z</time></trkpt><trkpt lat="43.52343176834553" lon="12.803590520949843"><ele>490.0</ele><time>2026-04-25T10:08:15Z</time></trkpt><trkpt lat="43.523443225970084" lon="12.803476040143739"><ele>489.00000000000006</ele><time>2026-04-25T10:08:18Z</time></trkpt><trkpt lat="43.523415374348396" lon="12.803359092392942"><ele>488.0</ele><time>2026-04-25T10:08:20Z</time></trkpt><trkpt lat="43.523426159986165" lon="12.80325662024055"><ele>487.0</ele><time>2026-04-25T10:08:22Z</time></trkpt><trkpt lat="43.52342121018393" lon="12.803137884360952"><ele>486.0</ele><time>2026-04-25T10:08:24Z</time></trkpt><trkpt lat="43.52342715440381" lon="12.803046603250614"><ele>485.00000000000006</ele><time>2026-04-25T10:08:26Z</time></trkpt><trkpt lat="43.523441537261306" lon="12.80292211763925"><ele>484.0</ele><time>2026-04-25T10:08:28Z</time></trkpt><trkpt lat="43.52346646614867" lon="12.802837023593002"><ele>484.00000000000006</ele><time>2026-04-25T10:08:30Z</time></trkpt><trkpt lat="43.52348610925728" lon="12.802735660182227"><ele>484.0</ele><time>2026-04-25T10:08:32Z</time></trkpt><trkpt lat="43.52354449580212" lon="12.8026467944143"><ele>484.0</ele><time>2026-04-25T10:08:34Z</time></trkpt><trkpt lat="43.5235851756168" lon="12.802531280996218"><ele>484.0</ele><time>2026-04-25T10:08:37Z</time></trkpt><trkpt lat="43.5235959101886" lon="12.802429492012248"><ele>484.00000000000006</ele><time>2026-04-25T10:08:39Z</time></trkpt><trkpt lat="43.52359323013995" lon="12.802311606631477"><ele>484.0</ele><time>2026-04-25T10:08:42Z</time></trkpt><trkpt lat="43.52363834509436" lon="12.802228692072156"><ele>482.57142857142856</ele><time>2026-04-25T10:08:44Z</time></trkpt><trkpt lat="43.52365870847533" lon="12.802137755341825"><ele>481.1428571428571</ele><time>2026-04-25T10:08:47Z</time></trkpt><trkpt lat="43.52368361772772" lon="12.802035556806395"><ele>479.71428571428567</ele><time>2026-04-25T10:08:50Z</time></trkpt><trkpt lat="43.5237150349886" lon="12.801944576736386"><ele>478.2857142857142</ele><time>2026-04-25T10:08:54Z</time></trkpt><trkpt lat="43.52374887072793" lon="12.80184087325877"><ele>476.85714285714283</ele><time>2026-04-25T10:08:57Z</time></trkpt><trkpt lat="43.52379134988686" lon="12.801768344305954"><ele>475.42857142857133</ele><time>2026-04-25T10:08:59Z</time></trkpt><trkpt lat="43.52384250692093" lon="12.801711230836194"><ele>473.99999999999994</ele><time>2026-04-25T10:09:01Z</time></trkpt><trkpt lat="43.52390038811686" lon="12.801638784134383"><ele>470.0</ele><time>2026-04-25T10:09:03Z</time></trkpt><trkpt lat="43.523994254235085" lon="12.801539876899689"><ele>466.0</ele><time>2026-04-25T10:09:06Z</time></trkpt><trkpt lat="43.52406370095906" lon="12.80146362379683"><ele>462.0</ele><time>2026-04-25T10:09:08Z</time></trkpt><trkpt lat="43.52411319525846" lon="12.801392062548485"><ele>458.0</ele><time>2026-04-25T10:09:10Z</time></trkpt><trkpt lat="43.524112000370934" lon="12.801275114673231"><ele>454.0</ele><time>2026-04-25T10:09:14Z</time></trkpt><trkpt lat="43.5240330300175" lon="12.801238977846877"><ele>450.0</ele><time>2026-04-25T10:09:16Z</time></trkpt><trkpt lat="43.52395799399593" lon="12.801209992378077"><ele>450.0</ele><time>2026-04-25T10:09:18Z</time></trkpt><trkpt lat="43.52385864572183" lon="12.801125466370346"><ele>450.0</ele><time>2026-04-25T10:09:20Z</time></trkpt><trkpt lat="43.523800093997544" lon="12.801047942585022"><ele>450.0</ele><time>2026-04-25T10:09:21Z</time></trkpt><trkpt lat="43.52374413959385" lon="12.800970473439454"><ele>450.0</ele><time>2026-04-25T10:09:22Z</time></trkpt><trkpt lat="43.52367319094377" lon="12.800868422426477"><ele>450.0</ele><time>2026-04-25T10:09:23Z</time></trkpt><trkpt lat="43.523587318064486" lon="12.800766296835581"><ele>449.4</ele><time>2026-04-25T10:09:24Z</time></trkpt><trkpt lat="43.5235091530564" lon="12.800684643073792"><ele>448.8</ele><time>2026-04-25T10:09:25Z</time></trkpt><trkpt lat="43.52344799191995" lon="12.800593850294078"><ele>448.20000000000005</ele><time>2026-04-25T10:09:26Z</time></trkpt><trkpt lat="43.52336775224314" lon="12.800539469037535"><ele>447.6</ele><time>2026-04-25T10:09:27Z</time></trkpt><trkpt lat="43.523289896764354" lon="12.80045998251731"><ele>447.0</ele><time>2026-04-25T10:09:28Z</time></trkpt><trkpt lat="43.523217487736474" lon="12.800392164193012"><ele>447.0</ele><time>2026-04-25T10:09:29Z</time></trkpt><trkpt lat="43.52314639637659" lon="12.800322930087564"><ele>447.0</ele><time>2026-04-25T10:09:30Z</time></trkpt><trkpt lat="43.52308452288697" lon="12.800237660766701"><ele>447.0</ele><time>2026-04-25T10:09:31Z</time></trkpt><trkpt lat="43.523019589823605" lon="12.800172387444885"><ele>447.0</ele><time>2026-04-25T10:09:32Z</time></trkpt><trkpt lat="43.522956885178324" lon="12.800111963475382"><ele>447.0</ele><time>2026-04-25T10:09:33Z</time></trkpt><trkpt lat="43.522891564163096" lon="12.800049018308492"><ele>447.0</ele><time>2026-04-25T10:09:34Z</time></trkpt><trkpt lat="43.52281801683291" lon="12.79997814602829"><ele>445.6</ele><time>2026-04-25T10:09:35Z</time></trkpt><trkpt lat="43.52274500383047" lon="12.79990949059449"><ele>444.20000000000005</ele><time>2026-04-25T10:09:36Z</time></trkpt><trkpt lat="43.52263828290021" lon="12.799872229953742"><ele>442.8</ele><time>2026-04-25T10:09:37Z</time></trkpt><trkpt lat="43.52255217067812" lon="12.799805091412566"><ele>441.4</ele><time>2026-04-25T10:09:38Z</time></trkpt><trkpt lat="43.52246975955626" lon="12.799740879298053"><ele>440.0</ele><time>2026-04-25T10:09:39Z</time></trkpt><trkpt lat="43.52239325410933" lon="12.799679965379456"><ele>440.0</ele><time>2026-04-25T10:09:40Z</time></trkpt><trkpt lat="43.522317027591605" lon="12.799598839205705"><ele>440.0</ele><time>2026-04-25T10:09:41Z</time></trkpt><trkpt lat="43.52223940914729" lon="12.799508986351087"><ele>440.0</ele><time>2026-04-25T10:09:42Z</time></trkpt><trkpt lat="43.522167422074034" lon="12.799417525596509"><ele>440.0</ele><time>2026-04-25T10:09:43Z</time></trkpt><trkpt lat="43.5220975893448" lon="12.799328760172495"><ele>440.0</ele><time>2026-04-25T10:09:44Z</time></trkpt><trkpt lat="43.522020551872174" lon="12.799233294509975"><ele>438.6</ele><time>2026-04-25T10:09:45Z</time></trkpt><trkpt lat="43.52194599723595" lon="12.799146936909386"><ele>437.2</ele><time>2026-04-25T10:09:46Z</time></trkpt><trkpt lat="43.52187655876593" lon="12.799062833862966"><ele>435.79999999999995</ele><time>2026-04-25T10:09:47Z</time></trkpt><trkpt lat="43.52180301927319" lon="12.798978560265173"><ele>434.4</ele><time>2026-04-25T10:09:48Z</time></trkpt><trkpt lat="43.52172838793493" lon="12.798883876658584"><ele>433.0</ele><time>2026-04-25T10:09:49Z</time></trkpt><trkpt lat="43.52166174505566" lon="12.798798034720937"><ele>433.0</ele><time>2026-04-25T10:09:50Z</time></trkpt><trkpt lat="43.52160071432741" lon="12.798717028801954"><ele>432.99999999999994</ele><time>2026-04-25T10:09:51Z</time></trkpt><trkpt lat="43.52152992657216" lon="12.798616572957883"><ele>432.99999999999994</ele><time>2026-04-25T10:09:52Z</time></trkpt><trkpt lat="43.52145750834846" lon="12.798526063822827"><ele>433.0</ele><time>2026-04-25T10:09:53Z</time></trkpt><trkpt lat="43.52138998608264" lon="12.79843759668681"><ele>433.0</ele><time>2026-04-25T10:09:54Z</time></trkpt><trkpt lat="43.52132761105514" lon="12.798356043769406"><ele>433.50000000000006</ele><time>2026-04-25T10:09:55Z</time></trkpt><trkpt lat="43.521260796097664" lon="12.798266220192593"><ele>434.0</ele><time>2026-04-25T10:09:56Z</time></trkpt><trkpt lat="43.52119412378451" lon="12.79817405286486"><ele>434.5</ele><time>2026-04-25T10:09:57Z</time></trkpt><trkpt lat="43.52113070236053" lon="12.798088056156052"><ele>435.0</ele><time>2026-04-25T10:09:58Z</time></trkpt><trkpt lat="43.52107425077655" lon="12.798002916792557"><ele>435.50000000000006</ele><time>2026-04-25T10:09:59Z</time></trkpt><trkpt lat="43.52101508623562" lon="12.797922962249709"><ele>436.0</ele><time>2026-04-25T10:10:00Z</time></trkpt><trkpt lat="43.520957191840694" lon="12.797831496845477"><ele>436.00000000000006</ele><time>2026-04-25T10:10:01Z</time></trkpt><trkpt lat="43.520910571429944" lon="12.797734776439537"><ele>436.0</ele><time>2026-04-25T10:10:02Z</time></trkpt><trkpt lat="43.52087036643717" lon="12.797629120891381"><ele>436.0</ele><time>2026-04-25T10:10:03Z</time></trkpt><trkpt lat="43.520836102375455" lon="12.797521595928238"><ele>436.0</ele><time>2026-04-25T10:10:04Z</time></trkpt><trkpt lat="43.52080034321492" lon="12.797434660989698"><ele>436.00000000000006</ele><time>2026-04-25T10:10:05Z</time></trkpt><trkpt lat="43.520734301867755" lon="12.797338692108372"><ele>436.0</ele><time>2026-04-25T10:10:06Z</time></trkpt><trkpt lat="43.5206707201195" lon="12.797262791660781"><ele>436.4</ele><time>2026-04-25T10:10:07Z</time></trkpt><trkpt lat="43.52058376510477" lon="12.797152526660092"><ele>436.8</ele><time>2026-04-25T10:10:08Z</time></trkpt><trkpt lat="43.52049662244348" lon="12.797061576716805"><ele>437.19999999999993</ele><time>2026-04-25T10:10:09Z</time></trkpt><trkpt lat="43.5204051224645" lon="12.796981701645455"><ele>437.59999999999997</ele><time>2026-04-25T10:10:10Z</time></trkpt><trkpt lat="43.520309067078365" lon="12.796901217596131"><ele>438.0</ele><time>2026-04-25T10:10:11Z</time></trkpt><trkpt lat="43.5202199065744" lon="12.796823845718986"><ele>431.59999999999997</ele><time>2026-04-25T10:10:12Z</time></trkpt><trkpt lat="43.52013141471933" lon="12.796738878907307"><ele>425.19999999999993</ele><time>2026-04-25T10:10:13Z</time></trkpt><trkpt lat="43.5200433261646" lon="12.796656196616206"><ele>418.8</ele><time>2026-04-25T10:10:14Z</time></trkpt><trkpt lat="43.519959573751926" lon="12.796564239639023"><ele>412.4</ele><time>2026-04-25T10:10:15Z</time></trkpt><trkpt lat="43.51988548633764" lon="12.796459023675872"><ele>406.0</ele><time>2026-04-25T10:10:16Z</time></trkpt><trkpt lat="43.51982233315527" lon="12.796348848320106"><ele>406.0</ele><time>2026-04-25T10:10:17Z</time></trkpt><trkpt lat="43.519782317632995" lon="12.796273327756802"><ele>406.0</ele><time>2026-04-25T10:10:18Z</time></trkpt><trkpt lat="43.51972489600702" lon="12.796190513806511"><ele>406.0</ele><time>2026-04-25T10:10:19Z</time></trkpt><trkpt lat="43.51968702773559" lon="12.796094466838767"><ele>406.0</ele><time>2026-04-25T10:10:20Z</time></trkpt><trkpt lat="43.51962469045869" lon="12.795940919646645"><ele>406.0</ele><time>2026-04-25T10:10:22Z</time></trkpt><trkpt lat="43.519548976649915" lon="12.795809483321895"><ele>405.50000000000006</ele><time>2026-04-25T10:10:24Z</time></trkpt><trkpt lat="43.51952529869389" lon="12.795721566444186"><ele>405.0</ele><time>2026-04-25T10:10:25Z</time></trkpt><trkpt lat="43.519529678521536" lon="12.795618035252891"><ele>404.5</ele><time>2026-04-25T10:10:26Z</time></trkpt><trkpt lat="43.51955858846164" lon="12.795518519082087"><ele>404.0</ele><time>2026-04-25T10:10:27Z</time></trkpt><trkpt lat="43.519612946816785" lon="12.795430847736037"><ele>403.50000000000006</ele><time>2026-04-25T10:10:28Z</time></trkpt><trkpt lat="43.51968081492225" lon="12.795355532698489"><ele>403.0</ele><time>2026-04-25T10:10:29Z</time></trkpt><trkpt lat="43.519753515663204" lon="12.795288482314538"><ele>401.50000000000006</ele><time>2026-04-25T10:10:30Z</time></trkpt><trkpt lat="43.51982598726686" lon="12.7952362976989"><ele>400.0</ele><time>2026-04-25T10:10:31Z</time></trkpt><trkpt lat="43.51990034876621" lon="12.795219905442622"><ele>398.5</ele><time>2026-04-25T10:10:32Z</time></trkpt><trkpt lat="43.519974453985924" lon="12.795242028383452"><ele>397.0</ele><time>2026-04-25T10:10:33Z</time></trkpt><trkpt lat="43.5200387536946" lon="12.795299242671906"><ele>395.50000000000006</ele><time>2026-04-25T10:10:34Z</time></trkpt><trkpt lat="43.52009353364533" lon="12.795391956561549"><ele>394.0</ele><time>2026-04-25T10:10:35Z</time></trkpt><trkpt lat="43.52014362737922" lon="12.795501155812978"><ele>394.00000000000006</ele><time>2026-04-25T10:10:36Z</time></trkpt><trkpt lat="43.52020925912883" lon="12.79559606385749"><ele>394.0</ele><time>2026-04-25T10:10:37Z</time></trkpt><trkpt lat="43.520276830462095" lon="12.795673383871755"><ele>394.0</ele><time>2026-04-25T10:10:38Z</time></trkpt><trkpt lat="43.520341673004296" lon="12.795731975187135"><ele>394.0</ele><time>2026-04-25T10:10:39Z</time></trkpt><trkpt lat="43.52041671171763" lon="12.79579185607088"><ele>394.00000000000006</ele><time>2026-04-25T10:10:40Z</time></trkpt><trkpt lat="43.52050235367506" lon="12.79584405209305"><ele>394.0</ele><time>2026-04-25T10:10:41Z</time></trkpt><trkpt lat="43.520589251902976" lon="12.795892237149582"><ele>394.0</ele><time>2026-04-25T10:10:42Z</time></trkpt><trkpt lat="43.52068198362004" lon="12.795941772537422"><ele>394.0</ele><time>2026-04-25T10:10:43Z</time></trkpt><trkpt lat="43.52078228257351" lon="12.79598806390194"><ele>394.0</ele><time>2026-04-25T10:10:44Z</time></trkpt><trkpt lat="43.520885371434076" lon="12.796030785659797"><ele>394.0</ele><time>2026-04-25T10:10:45Z</time></trkpt><trkpt lat="43.52098837079889" lon="12.796072961897464"><ele>394.0</ele><time>2026-04-25T10:10:46Z</time></trkpt><trkpt lat="43.52109233967276" lon="12.796107585653932"><ele>394.0</ele><time>2026-04-25T10:10:47Z</time></trkpt><trkpt lat="43.52120499393385" lon="12.796140834142093"><ele>394.0</ele><time>2026-04-25T10:10:48Z</time></trkpt><trkpt lat="43.521324856157484" lon="12.796188957391053"><ele>394.0</ele><time>2026-04-25T10:10:49Z</time></trkpt><trkpt lat="43.52144899750571" lon="12.796239484887979"><ele>394.0</ele><time>2026-04-25T10:10:50Z</time></trkpt><trkpt lat="43.52156777261066" lon="12.79628118377618"><ele>395.25</ele><time>2026-04-25T10:10:51Z</time></trkpt><trkpt lat="43.52169596496301" lon="12.796328747568783"><ele>396.5</ele><time>2026-04-25T10:10:52Z</time></trkpt><trkpt lat="43.52182444050439" lon="12.796372685268931"><ele>397.75</ele><time>2026-04-25T10:10:53Z</time></trkpt><trkpt lat="43.52195672861868" lon="12.796420027639794"><ele>399.0</ele><time>2026-04-25T10:10:54Z</time></trkpt><trkpt lat="43.52208075583406" lon="12.796455672116588"><ele>403.25</ele><time>2026-04-25T10:10:55Z</time></trkpt><trkpt lat="43.52219574226619" lon="12.796503504521091"><ele>407.5</ele><time>2026-04-25T10:10:56Z</time></trkpt><trkpt lat="43.52231059436793" lon="12.796543863618323"><ele>411.75</ele><time>2026-04-25T10:10:57Z</time></trkpt><trkpt lat="43.52242515215154" lon="12.796592577614897"><ele>416.0</ele><time>2026-04-25T10:10:58Z</time></trkpt><trkpt lat="43.52254166936972" lon="12.796632129948197"><ele>416.0</ele><time>2026-04-25T10:10:59Z</time></trkpt><trkpt lat="43.52264890930936" lon="12.796705893492497"><ele>416.0</ele><time>2026-04-25T10:11:00Z</time></trkpt><trkpt lat="43.5227519416948" lon="12.796752579803021"><ele>416.0</ele><time>2026-04-25T10:11:01Z</time></trkpt><trkpt lat="43.522847776146264" lon="12.796778487722088"><ele>416.0</ele><time>2026-04-25T10:11:02Z</time></trkpt><trkpt lat="43.52293219564225" lon="12.796818142183335"><ele>416.0</ele><time>2026-04-25T10:11:03Z</time></trkpt><trkpt lat="43.52300757881401" lon="12.79684345012962"><ele>412.8</ele><time>2026-04-25T10:11:04Z</time></trkpt><trkpt lat="43.52308905843261" lon="12.796864699755096"><ele>409.6</ele><time>2026-04-25T10:11:05Z</time></trkpt><trkpt lat="43.5231982956585" lon="12.796869429086689"><ele>406.4</ele><time>2026-04-25T10:11:07Z</time></trkpt><trkpt lat="43.523286240019736" lon="12.796926219472045"><ele>403.2</ele><time>2026-04-25T10:11:09Z</time></trkpt><trkpt lat="43.52337625521579" lon="12.796973804923944"><ele>400.0</ele><time>2026-04-25T10:11:11Z</time></trkpt><trkpt lat="43.52349011292456" lon="12.79699551770471"><ele>400.00000000000006</ele><time>2026-04-25T10:11:13Z</time></trkpt><trkpt lat="43.52356533598551" lon="12.796983229356467"><ele>400.0</ele><time>2026-04-25T10:11:14Z</time></trkpt><trkpt lat="43.52363834962692" lon="12.796967353384435"><ele>400.0</ele><time>2026-04-25T10:11:15Z</time></trkpt><trkpt lat="43.52371004421611" lon="12.796923371371218"><ele>400.0</ele><time>2026-04-25T10:11:16Z</time></trkpt><trkpt lat="43.52378666530529" lon="12.796857035504825"><ele>400.00000000000006</ele><time>2026-04-25T10:11:17Z</time></trkpt><trkpt lat="43.52386347747382" lon="12.79678219305817"><ele>400.0</ele><time>2026-04-25T10:11:18Z</time></trkpt><trkpt lat="43.52393980680121" lon="12.79670705093432"><ele>403.83333333333337</ele><time>2026-04-25T10:11:19Z</time></trkpt><trkpt lat="43.524013033807485" lon="12.796631302803444"><ele>407.6666666666667</ele><time>2026-04-25T10:11:20Z</time></trkpt><trkpt lat="43.52410389271948" lon="12.796573726285153"><ele>411.5</ele><time>2026-04-25T10:11:21Z</time></trkpt><trkpt lat="43.52417581257151" lon="12.796512867104708"><ele>415.33333333333337</ele><time>2026-04-25T10:11:22Z</time></trkpt><trkpt lat="43.52424259525144" lon="12.796454165270314"><ele>419.1666666666667</ele><time>2026-04-25T10:11:23Z</time></trkpt><trkpt lat="43.524300633907586" lon="12.796382566507484"><ele>423.0</ele><time>2026-04-25T10:11:24Z</time></trkpt><trkpt lat="43.52436691519113" lon="12.796340968470496"><ele>423.0</ele><time>2026-04-25T10:11:25Z</time></trkpt><trkpt lat="43.524419051791554" lon="12.796278932946072"><ele>423.0</ele><time>2026-04-25T10:11:26Z</time></trkpt><trkpt lat="43.524457602587425" lon="12.796186908798656"><ele>423.0</ele><time>2026-04-25T10:11:27Z</time></trkpt><trkpt lat="43.52446297543044" lon="12.796063730087125"><ele>423.0</ele><time>2026-04-25T10:11:28Z</time></trkpt><trkpt lat="43.5244813720029" lon="12.795949311060832"><ele>423.0</ele><time>2026-04-25T10:11:29Z</time></trkpt><trkpt lat="43.524495748791054" lon="12.795830433007502"><ele>423.0</ele><time>2026-04-25T10:11:30Z</time></trkpt><trkpt lat="43.52449908739151" lon="12.795705290458132"><ele>423.0</ele><time>2026-04-25T10:11:31Z</time></trkpt><trkpt lat="43.52454430548456" lon="12.795612633549284"><ele>423.0</ele><time>2026-04-25T10:11:32Z</time></trkpt><trkpt lat="43.52458984475695" lon="12.795525949760012"><ele>423.0</ele><time>2026-04-25T10:11:33Z</time></trkpt><trkpt lat="43.52463370833875" lon="12.79542718289241"><ele>423.0</ele><time>2026-04-25T10:11:34Z</time></trkpt><trkpt lat="43.52468238928626" lon="12.79534989233377"><ele>423.0</ele><time>2026-04-25T10:11:35Z</time></trkpt><trkpt lat="43.524731648080504" lon="12.795275225527952"><ele>423.0</ele><time>2026-04-25T10:11:36Z</time></trkpt><trkpt lat="43.52478402751768" lon="12.795165310064185"><ele>425.4</ele><time>2026-04-25T10:11:38Z</time></trkpt><trkpt lat="43.52485763700574" lon="12.795054018195819"><ele>427.79999999999995</ele><time>2026-04-25T10:11:40Z</time></trkpt><trkpt lat="43.524960009977384" lon="12.794957772594957"><ele>430.2</ele><time>2026-04-25T10:11:42Z</time></trkpt><trkpt lat="43.525042183557034" lon="12.794836852286338"><ele>432.6</ele><time>2026-04-25T10:11:44Z</time></trkpt><trkpt lat="43.52510124471248" lon="12.794781769930587"><ele>435.0</ele><time>2026-04-25T10:11:45Z</time></trkpt><trkpt lat="43.525151979759514" lon="12.794705937544798"><ele>435.0</ele><time>2026-04-25T10:11:46Z</time></trkpt><trkpt lat="43.52520362258771" lon="12.794624385332673"><ele>435.0</ele><time>2026-04-25T10:11:47Z</time></trkpt><trkpt lat="43.5252603055026" lon="12.794553027382793"><ele>435.0</ele><time>2026-04-25T10:11:48Z</time></trkpt><trkpt lat="43.52532261904033" lon="12.794485676152808"><ele>435.0</ele><time>2026-04-25T10:11:49Z</time></trkpt><trkpt lat="43.52538123928273" lon="12.794410366397175"><ele>435.0</ele><time>2026-04-25T10:11:50Z</time></trkpt><trkpt lat="43.52545867109114" lon="12.79439600215083"><ele>435.0</ele><time>2026-04-25T10:11:51Z</time></trkpt><trkpt lat="43.525514518534585" lon="12.794335304203504"><ele>436.4</ele><time>2026-04-25T10:11:52Z</time></trkpt><trkpt lat="43.52558654440321" lon="12.794271826597527"><ele>437.8</ele><time>2026-04-25T10:11:54Z</time></trkpt><trkpt lat="43.525478967521735" lon="12.794141100349613"><ele>439.20000000000005</ele><time>2026-04-25T10:11:56Z</time></trkpt><trkpt lat="43.52538664476462" lon="12.79413313677607"><ele>440.6</ele><time>2026-04-25T10:11:57Z</time></trkpt><trkpt lat="43.5252703161337" lon="12.79412544247239"><ele>442.0</ele><time>2026-04-25T10:11:58Z</time></trkpt><trkpt lat="43.52513956214163" lon="12.794119389047076"><ele>442.5</ele><time>2026-04-25T10:11:59Z</time></trkpt><trkpt lat="43.52500649617863" lon="12.794116683806747"><ele>443.0</ele><time>2026-04-25T10:12:00Z</time></trkpt><trkpt lat="43.52487692617975" lon="12.79412882074171"><ele>443.5</ele><time>2026-04-25T10:12:01Z</time></trkpt><trkpt lat="43.524752661930215" lon="12.794133602277167"><ele>444.0</ele><time>2026-04-25T10:12:02Z</time></trkpt><trkpt lat="43.52464118241608" lon="12.794141883216497"><ele>445.8333333333333</ele><time>2026-04-25T10:12:03Z</time></trkpt><trkpt lat="43.524551034143386" lon="12.79414469775431"><ele>447.66666666666663</ele><time>2026-04-25T10:12:04Z</time></trkpt><trkpt lat="43.52446158472658" lon="12.794151587992115"><ele>449.5</ele><time>2026-04-25T10:12:05Z</time></trkpt><trkpt lat="43.52437398605286" lon="12.794159136117587"><ele>451.3333333333333</ele><time>2026-04-25T10:12:06Z</time></trkpt><trkpt lat="43.52429057041502" lon="12.794196765371431"><ele>453.16666666666663</ele><time>2026-04-25T10:12:07Z</time></trkpt><trkpt lat="43.524230507535194" lon="12.794279436124977"><ele>455.0</ele><time>2026-04-25T10:12:08Z</time></trkpt><trkpt lat="43.52417926596212" lon="12.79438450693561"><ele>454.99999999999994</ele><time>2026-04-25T10:12:09Z</time></trkpt><trkpt lat="43.5241479028406" lon="12.794489765777188"><ele>455.0</ele><time>2026-04-25T10:12:10Z</time></trkpt><trkpt lat="43.5241286063718" lon="12.794596100566759"><ele>455.0</ele><time>2026-04-25T10:12:11Z</time></trkpt><trkpt lat="43.5241154902608" lon="12.794710392045712"><ele>455.0</ele><time>2026-04-25T10:12:12Z</time></trkpt><trkpt lat="43.52410607748741" lon="12.79482439617318"><ele>454.99999999999994</ele><time>2026-04-25T10:12:13Z</time></trkpt><trkpt lat="43.524104352754385" lon="12.794930780862842"><ele>455.0</ele><time>2026-04-25T10:12:14Z</time></trkpt><trkpt lat="43.52409293171414" lon="12.795025902335164"><ele>455.0</ele><time>2026-04-25T10:12:15Z</time></trkpt><trkpt lat="43.524080101284014" lon="12.795206302174645"><ele>455.0</ele><time>2026-04-25T10:12:17Z</time></trkpt><trkpt lat="43.52407883907065" lon="12.79529598902881"><ele>455.0</ele><time>2026-04-25T10:12:18Z</time></trkpt><trkpt lat="43.523997232334885" lon="12.795405114684943"><ele>455.0</ele><time>2026-04-25T10:12:20Z</time></trkpt><trkpt lat="43.523927896821554" lon="12.795261299045396"><ele>455.0</ele><time>2026-04-25T10:12:22Z</time></trkpt><trkpt lat="43.52390140615346" lon="12.795153868926949"><ele>454.99999999999994</ele><time>2026-04-25T10:12:23Z</time></trkpt><trkpt lat="43.52389395090485" lon="12.795031310390305"><ele>455.0</ele><time>2026-04-25T10:12:24Z</time></trkpt><trkpt lat="43.523863077122975" lon="12.794915938274716"><ele>455.0</ele><time>2026-04-25T10:12:25Z</time></trkpt><trkpt lat="43.523828769333065" lon="12.794837367297648"><ele>455.0</ele><time>2026-04-25T10:12:26Z</time></trkpt><trkpt lat="43.52379538262025" lon="12.79475803615859"><ele>454.99999999999994</ele><time>2026-04-25T10:12:27Z</time></trkpt><trkpt lat="43.5237471847306" lon="12.794698434440551"><ele>455.0</ele><time>2026-04-25T10:12:28Z</time></trkpt><trkpt lat="43.5236693974816" lon="12.794684079249851"><ele>457.0</ele><time>2026-04-25T10:12:29Z</time></trkpt><trkpt lat="43.523594847599746" lon="12.794652319331384"><ele>459.0</ele><time>2026-04-25T10:12:30Z</time></trkpt><trkpt lat="43.52351712522145" lon="12.794622392704067"><ele>461.0</ele><time>2026-04-25T10:12:31Z</time></trkpt><trkpt lat="43.52345335530176" lon="12.79458931294294"><ele>463.0</ele><time>2026-04-25T10:12:32Z</time></trkpt><trkpt lat="43.5233924502442" lon="12.79455778479471"><ele>465.0</ele><time>2026-04-25T10:12:33Z</time></trkpt><trkpt lat="43.523328546265596" lon="12.794533186864822"><ele>467.0</ele><time>2026-04-25T10:12:34Z</time></trkpt><trkpt lat="43.52325834159542" lon="12.794511589308632"><ele>469.0</ele><time>2026-04-25T10:12:35Z</time></trkpt><trkpt lat="43.52319604312134" lon="12.794487939064677"><ele>469.00000000000006</ele><time>2026-04-25T10:12:36Z</time></trkpt><trkpt lat="43.52313690651868" lon="12.794436386133269"><ele>469.0</ele><time>2026-04-25T10:12:37Z</time></trkpt><trkpt lat="43.52306523746778" lon="12.79440878158614"><ele>469.0</ele><time>2026-04-25T10:12:38Z</time></trkpt><trkpt lat="43.52300162045443" lon="12.79437399265359"><ele>469.0</ele><time>2026-04-25T10:12:41Z</time></trkpt><trkpt lat="43.52293876823381" lon="12.794298582686052"><ele>469.00000000000006</ele><time>2026-04-25T10:12:44Z</time></trkpt><trkpt lat="43.52300329237666" lon="12.794130952039197"><ele>469.0</ele><time>2026-04-25T10:12:45Z</time></trkpt><trkpt lat="43.523048787429865" lon="12.793981214287024"><ele>469.1666666666667</ele><time>2026-04-25T10:12:47Z</time></trkpt><trkpt lat="43.5230906846727" lon="12.793882194445832"><ele>469.33333333333337</ele><time>2026-04-25T10:12:49Z</time></trkpt><trkpt lat="43.523139764227444" lon="12.793767665254656"><ele>469.5</ele><time>2026-04-25T10:12:51Z</time></trkpt><trkpt lat="43.52317435728839" lon="12.793690016444119"><ele>469.66666666666663</ele><time>2026-04-25T10:12:52Z</time></trkpt><trkpt lat="43.52320307111477" lon="12.793594807557147"><ele>469.8333333333333</ele><time>2026-04-25T10:12:53Z</time></trkpt><trkpt lat="43.52325529622515" lon="12.793495660911057"><ele>470.0</ele><time>2026-04-25T10:12:54Z</time></trkpt><trkpt lat="43.523315320150786" lon="12.79337997709177"><ele>470.0</ele><time>2026-04-25T10:12:55Z</time></trkpt><trkpt lat="43.52337805570824" lon="12.793257029852585"><ele>470.0</ele><time>2026-04-25T10:12:56Z</time></trkpt><trkpt lat="43.52344142217131" lon="12.793137836176891"><ele>470.0</ele><time>2026-04-25T10:12:57Z</time></trkpt><trkpt lat="43.52350278271069" lon="12.793025011486291"><ele>470.0</ele><time>2026-04-25T10:12:58Z</time></trkpt><trkpt lat="43.52356393285186" lon="12.792928066335858"><ele>470.0</ele><time>2026-04-25T10:12:59Z</time></trkpt><trkpt lat="43.52361967630269" lon="12.792832504666611"><ele>469.99999999999994</ele><time>2026-04-25T10:13:00Z</time></trkpt><trkpt lat="43.52365615606003" lon="12.792734402881614"><ele>470.0</ele><time>2026-04-25T10:13:01Z</time></trkpt><trkpt lat="43.52367469002542" lon="12.792624546973142"><ele>470.0</ele><time>2026-04-25T10:13:02Z</time></trkpt><trkpt lat="43.52367223346438" lon="12.792506552680326"><ele>470.0</ele><time>2026-04-25T10:13:03Z</time></trkpt><trkpt lat="43.52365633762136" lon="12.792405238504164"><ele>469.99999999999994</ele><time>2026-04-25T10:13:04Z</time></trkpt><trkpt lat="43.52363255967852" lon="12.792309443471149"><ele>470.0</ele><time>2026-04-25T10:13:05Z</time></trkpt><trkpt lat="43.52359998047094" lon="12.792219953209175"><ele>471.2</ele><time>2026-04-25T10:13:06Z</time></trkpt><trkpt lat="43.52355220587432" lon="12.792131457584874"><ele>472.4</ele><time>2026-04-25T10:13:07Z</time></trkpt><trkpt lat="43.5234948812464" lon="12.792043675791183"><ele>473.6</ele><time>2026-04-25T10:13:08Z</time></trkpt><trkpt lat="43.523425622519284" lon="12.79196146993202"><ele>474.8</ele><time>2026-04-25T10:13:09Z</time></trkpt><trkpt lat="43.52335145023397" lon="12.791868625154326"><ele>476.0</ele><time>2026-04-25T10:13:10Z</time></trkpt><trkpt lat="43.52326802712753" lon="12.791790176221548"><ele>477.6</ele><time>2026-04-25T10:13:11Z</time></trkpt><trkpt lat="43.52318153238217" lon="12.791724122448173"><ele>479.20000000000005</ele><time>2026-04-25T10:13:12Z</time></trkpt><trkpt lat="43.52310531248534" lon="12.79164969134724"><ele>480.79999999999995</ele><time>2026-04-25T10:13:13Z</time></trkpt><trkpt lat="43.52301901463784" lon="12.791534325499676"><ele>482.4</ele><time>2026-04-25T10:13:14Z</time></trkpt><trkpt lat="43.52292962283131" lon="12.791412330163888"><ele>484.0</ele><time>2026-04-25T10:13:15Z</time></trkpt><trkpt lat="43.522832481136966" lon="12.7912993780874"><ele>484.0</ele><time>2026-04-25T10:13:16Z</time></trkpt><trkpt lat="43.52272078336376" lon="12.791196716975623"><ele>484.0</ele><time>2026-04-25T10:13:17Z</time></trkpt><trkpt lat="43.52261219974291" lon="12.791107315519245"><ele>484.0</ele><time>2026-04-25T10:13:18Z</time></trkpt><trkpt lat="43.522528481905915" lon="12.791031794284809"><ele>484.0</ele><time>2026-04-25T10:13:19Z</time></trkpt><trkpt lat="43.5224521469701" lon="12.790974680669477"><ele>484.0</ele><time>2026-04-25T10:13:20Z</time></trkpt><trkpt lat="43.5223857458338" lon="12.79089461689744"><ele>489.0</ele><time>2026-04-25T10:13:21Z</time></trkpt><trkpt lat="43.52231850170669" lon="12.790803768332967"><ele>494.0</ele><time>2026-04-25T10:13:22Z</time></trkpt><trkpt lat="43.52224853023845" lon="12.790696070800198"><ele>499.0</ele><time>2026-04-25T10:13:23Z</time></trkpt><trkpt lat="43.52219893672566" lon="12.790559716703847"><ele>504.0</ele><time>2026-04-25T10:13:24Z</time></trkpt><trkpt lat="43.52214393604129" lon="12.790429108677488"><ele>509.0</ele><time>2026-04-25T10:13:25Z</time></trkpt><trkpt lat="43.52208351141838" lon="12.79029921772105"><ele>509.0</ele><time>2026-04-25T10:13:26Z</time></trkpt><trkpt lat="43.52201181688657" lon="12.790118520615417"><ele>509.0</ele><time>2026-04-25T10:13:28Z</time></trkpt><trkpt lat="43.52193001123548" lon="12.790005398323093"><ele>509.0</ele><time>2026-04-25T10:13:29Z</time></trkpt><trkpt lat="43.521863317745265" lon="12.789920226377392"><ele>509.0</ele><time>2026-04-25T10:13:30Z</time></trkpt><trkpt lat="43.52180218145287" lon="12.789879370056092"><ele>509.0</ele><time>2026-04-25T10:13:31Z</time></trkpt><trkpt lat="43.521728870584894" lon="12.789756523283843"><ele>509.0</ele><time>2026-04-25T10:13:34Z</time></trkpt><trkpt lat="43.52157912147004" lon="12.789559893486562"><ele>509.0</ele><time>2026-04-25T10:14:01Z</time></trkpt><trkpt lat="43.52154703701051" lon="12.789380558060753"><ele>509.0</ele><time>2026-04-25T10:14:03Z</time></trkpt><trkpt lat="43.5215106244432" lon="12.789300336217583"><ele>509.0</ele><time>2026-04-25T10:14:04Z</time></trkpt><trkpt lat="43.521471767111265" lon="12.789216555669347"><ele>510.8333333333333</ele><time>2026-04-25T10:14:05Z</time></trkpt><trkpt lat="43.521428620720265" lon="12.789123527491899"><ele>512.6666666666666</ele><time>2026-04-25T10:14:06Z</time></trkpt><trkpt lat="43.52138174381234" lon="12.789027041173476"><ele>514.5</ele><time>2026-04-25T10:14:07Z</time></trkpt><trkpt lat="43.52133400148987" lon="12.788930663161826"><ele>516.3333333333334</ele><time>2026-04-25T10:14:08Z</time></trkpt><trkpt lat="43.52126747042607" lon="12.788840185923112"><ele>518.1666666666667</ele><time>2026-04-25T10:14:09Z</time></trkpt><trkpt lat="43.52121292219107" lon="12.788721185145706"><ele>520.0</ele><time>2026-04-25T10:14:10Z</time></trkpt><trkpt lat="43.52116028500886" lon="12.788594321420899"><ele>518.4</ele><time>2026-04-25T10:14:11Z</time></trkpt><trkpt lat="43.521109144066884" lon="12.788460293686905"><ele>516.8</ele><time>2026-04-25T10:14:12Z</time></trkpt><trkpt lat="43.52105567123096" lon="12.788325891603419"><ele>515.2</ele><time>2026-04-25T10:14:13Z</time></trkpt><trkpt lat="43.52099933127993" lon="12.788204240750531"><ele>513.6</ele><time>2026-04-25T10:14:14Z</time></trkpt><trkpt lat="43.520936151151716" lon="12.788088221585241"><ele>512.0</ele><time>2026-04-25T10:14:15Z</time></trkpt><trkpt lat="43.52086500504694" lon="12.787991950950358"><ele>512.0</ele><time>2026-04-25T10:14:16Z</time></trkpt><trkpt lat="43.520789316568624" lon="12.787884623231209"><ele>512.0</ele><time>2026-04-25T10:14:17Z</time></trkpt><trkpt lat="43.52067524409041" lon="12.787780993405942"><ele>512.0</ele><time>2026-04-25T10:14:18Z</time></trkpt><trkpt lat="43.52060161170198" lon="12.787731870982704"><ele>512.0</ele><time>2026-04-25T10:14:19Z</time></trkpt><trkpt lat="43.52051185554288" lon="12.787677679779916"><ele>512.0</ele><time>2026-04-25T10:14:20Z</time></trkpt><trkpt lat="43.52042434759124" lon="12.787606456894814"><ele>514.75</ele><time>2026-04-25T10:14:21Z</time></trkpt><trkpt lat="43.520348147412356" lon="12.787499782360616"><ele>517.5</ele><time>2026-04-25T10:14:22Z</time></trkpt><trkpt lat="43.52025384807241" lon="12.787416541762704"><ele>520.25</ele><time>2026-04-25T10:14:23Z</time></trkpt><trkpt lat="43.52014436266373" lon="12.787339979689317"><ele>523.0</ele><time>2026-04-25T10:14:24Z</time></trkpt><trkpt lat="43.52002749508463" lon="12.787290649276299"><ele>523.0</ele><time>2026-04-25T10:14:25Z</time></trkpt><trkpt lat="43.519933473689335" lon="12.787233206790685"><ele>523.0</ele><time>2026-04-25T10:14:26Z</time></trkpt><trkpt lat="43.519836985334784" lon="12.78719470875258"><ele>523.0</ele><time>2026-04-25T10:14:27Z</time></trkpt><trkpt lat="43.519760991789674" lon="12.787150265232137"><ele>523.0</ele><time>2026-04-25T10:14:28Z</time></trkpt><trkpt lat="43.51970357237132" lon="12.787096528637154"><ele>523.0</ele><time>2026-04-25T10:14:29Z</time></trkpt><trkpt lat="43.51965271129528" lon="12.7870313703058"><ele>523.0</ele><time>2026-04-25T10:14:30Z</time></trkpt><trkpt lat="43.51961328946855" lon="12.78695538353588"><ele>523.0</ele><time>2026-04-25T10:14:31Z</time></trkpt><trkpt lat="43.51957648723161" lon="12.786872371423147"><ele>523.0</ele><time>2026-04-25T10:14:32Z</time></trkpt><trkpt lat="43.51953139474752" lon="12.786779910937733"><ele>523.0</ele><time>2026-04-25T10:14:33Z</time></trkpt><trkpt lat="43.51947221348224" lon="12.786703042367499"><ele>523.0</ele><time>2026-04-25T10:14:34Z</time></trkpt><trkpt lat="43.51940541380691" lon="12.786637877990456"><ele>523.0</ele><time>2026-04-25T10:14:35Z</time></trkpt><trkpt lat="43.51933653233208" lon="12.786566539693474"><ele>523.0</ele><time>2026-04-25T10:14:36Z</time></trkpt><trkpt lat="43.51924766041817" lon="12.786552718876445"><ele>523.1999999999999</ele><time>2026-04-25T10:14:37Z</time></trkpt><trkpt lat="43.51916104971157" lon="12.786521477465548"><ele>523.4</ele><time>2026-04-25T10:14:38Z</time></trkpt><trkpt lat="43.519062082100014" lon="12.786490222989883"><ele>523.5999999999999</ele><time>2026-04-25T10:14:39Z</time></trkpt><trkpt lat="43.51896112694083" lon="12.786451316091018"><ele>523.8</ele><time>2026-04-25T10:14:40Z</time></trkpt><trkpt lat="43.51885848905548" lon="12.786406900870114"><ele>524.0</ele><time>2026-04-25T10:14:41Z</time></trkpt><trkpt lat="43.5187510129779" lon="12.786362876184063"><ele>521.75</ele><time>2026-04-25T10:14:42Z</time></trkpt><trkpt lat="43.51864152986639" lon="12.78630015240608"><ele>519.5</ele><time>2026-04-25T10:14:43Z</time></trkpt><trkpt lat="43.518517638679924" lon="12.786270999851801"><ele>517.25</ele><time>2026-04-25T10:14:44Z</time></trkpt><trkpt lat="43.518408009473546" lon="12.786241090264442"><ele>515.0</ele><time>2026-04-25T10:14:45Z</time></trkpt><trkpt lat="43.51829537102664" lon="12.786215386882608"><ele>515.0</ele><time>2026-04-25T10:14:46Z</time></trkpt><trkpt lat="43.51818559914198" lon="12.786194377989107"><ele>515.0</ele><time>2026-04-25T10:14:47Z</time></trkpt><trkpt lat="43.51808582507787" lon="12.786171058772668"><ele>515.0</ele><time>2026-04-25T10:14:48Z</time></trkpt><trkpt lat="43.51800458472006" lon="12.786157149994551"><ele>515.0</ele><time>2026-04-25T10:14:49Z</time></trkpt><trkpt lat="43.51794048929487" lon="12.786144397026783"><ele>515.0</ele><time>2026-04-25T10:14:50Z</time></trkpt><trkpt lat="43.51787813728746" lon="12.786130648455826"><ele>515.0</ele><time>2026-04-25T10:14:52Z</time></trkpt><trkpt lat="43.51780542715494" lon="12.786112818918241"><ele>515.5</ele><time>2026-04-25T10:14:59Z</time></trkpt><trkpt lat="43.51774074258776" lon="12.7860997312311"><ele>516.0</ele><time>2026-04-25T10:15:08Z</time></trkpt><trkpt lat="43.517668296756135" lon="12.786084233022063"><ele>516.5</ele><time>2026-04-25T10:15:13Z</time></trkpt><trkpt lat="43.517578538112794" lon="12.786066691715984"><ele>517.0</ele><time>2026-04-25T10:15:16Z</time></trkpt><trkpt lat="43.51749634574906" lon="12.786062590546614"><ele>517.5</ele><time>2026-04-25T10:15:18Z</time></trkpt><trkpt lat="43.5174078907059" lon="12.786065035217923"><ele>518.0</ele><time>2026-04-25T10:15:20Z</time></trkpt><trkpt lat="43.517312034375614" lon="12.7860960424851"><ele>518.0</ele><time>2026-04-25T10:15:22Z</time></trkpt><trkpt lat="43.51719162449245" lon="12.786126423074323"><ele>518.0</ele><time>2026-04-25T10:15:24Z</time></trkpt><trkpt lat="43.51711803500492" lon="12.786149382627864"><ele>518.0</ele><time>2026-04-25T10:15:25Z</time></trkpt><trkpt lat="43.517043810054226" lon="12.786165550897763"><ele>518.0</ele><time>2026-04-25T10:15:26Z</time></trkpt><trkpt lat="43.51696978718255" lon="12.786180705607359"><ele>518.0</ele><time>2026-04-25T10:15:27Z</time></trkpt><trkpt lat="43.51690546264909" lon="12.786186161523595"><ele>518.0</ele><time>2026-04-25T10:15:28Z</time></trkpt><trkpt lat="43.51684145144363" lon="12.786185383163257"><ele>517.5</ele><time>2026-04-25T10:15:29Z</time></trkpt><trkpt lat="43.51677072568453" lon="12.786177673849448"><ele>517.0</ele><time>2026-04-25T10:15:30Z</time></trkpt><trkpt lat="43.51670683605181" lon="12.786162810309062"><ele>516.5</ele><time>2026-04-25T10:15:31Z</time></trkpt><trkpt lat="43.516641167223895" lon="12.786121943733951"><ele>516.0</ele><time>2026-04-25T10:15:32Z</time></trkpt><trkpt lat="43.51652767734053" lon="12.786073393269396"><ele>515.5</ele><time>2026-04-25T10:15:34Z</time></trkpt><trkpt lat="43.51649764622361" lon="12.785915551600414"><ele>515.0</ele><time>2026-04-25T10:15:36Z</time></trkpt><trkpt lat="43.51652221261273" lon="12.78582705921096"><ele>515.0</ele><time>2026-04-25T10:15:37Z</time></trkpt><trkpt lat="43.51652111814421" lon="12.78573349360199"><ele>515.0</ele><time>2026-04-25T10:15:38Z</time></trkpt><trkpt lat="43.51652621418204" lon="12.785645950817186"><ele>515.0</ele><time>2026-04-25T10:15:39Z</time></trkpt><trkpt lat="43.51653111881041" lon="12.7855492286315"><ele>515.0</ele><time>2026-04-25T10:15:40Z</time></trkpt><trkpt lat="43.51653884991582" lon="12.785460865384339"><ele>515.0</ele><time>2026-04-25T10:15:41Z</time></trkpt><trkpt lat="43.51653916165351" lon="12.785366117085186"><ele>515.0</ele><time>2026-04-25T10:15:42Z</time></trkpt><trkpt lat="43.516545369210654" lon="12.785188570106058"><ele>515.4285714285714</ele><time>2026-04-25T10:15:44Z</time></trkpt><trkpt lat="43.516540938252064" lon="12.785098741781574"><ele>515.8571428571429</ele><time>2026-04-25T10:15:45Z</time></trkpt><trkpt lat="43.51653252759492" lon="12.78500705341845"><ele>516.2857142857142</ele><time>2026-04-25T10:15:46Z</time></trkpt><trkpt lat="43.516527933817514" lon="12.784919066307435"><ele>516.7142857142858</ele><time>2026-04-25T10:15:47Z</time></trkpt><trkpt lat="43.516512933420074" lon="12.784831524223437"><ele>517.1428571428571</ele><time>2026-04-25T10:15:48Z</time></trkpt><trkpt lat="43.516547008140435" lon="12.784719461621286"><ele>517.5714285714286</ele><time>2026-04-25T10:15:49Z</time></trkpt><trkpt lat="43.51656732874483" lon="12.784599569393164"><ele>518.0</ele><time>2026-04-25T10:15:50Z</time></trkpt><trkpt lat="43.51659612626904" lon="12.784475293795076"><ele>518.0</ele><time>2026-04-25T10:15:51Z</time></trkpt><trkpt lat="43.51661983360844" lon="12.784331232061383"><ele>518.0</ele><time>2026-04-25T10:15:52Z</time></trkpt><trkpt lat="43.51664487573862" lon="12.784210410299465"><ele>518.0</ele><time>2026-04-25T10:15:53Z</time></trkpt><trkpt lat="43.51666817560866" lon="12.784077600059941"><ele>518.0</ele><time>2026-04-25T10:15:54Z</time></trkpt><trkpt lat="43.516698676164935" lon="12.783941343085031"><ele>518.0</ele><time>2026-04-25T10:15:55Z</time></trkpt><trkpt lat="43.51673630219803" lon="12.783815573527091"><ele>518.0</ele><time>2026-04-25T10:15:56Z</time></trkpt><trkpt lat="43.516810748957035" lon="12.783702464506453"><ele>518.0</ele><time>2026-04-25T10:15:57Z</time></trkpt><trkpt lat="43.51686597371667" lon="12.783561402667605"><ele>518.0</ele><time>2026-04-25T10:15:58Z</time></trkpt><trkpt lat="43.5169389537866" lon="12.783433775311122"><ele>518.0</ele><time>2026-04-25T10:15:59Z</time></trkpt><trkpt lat="43.51700863138719" lon="12.783301752550615"><ele>517.5</ele><time>2026-04-25T10:16:00Z</time></trkpt><trkpt lat="43.51706708813356" lon="12.78315096095829"><ele>517.0</ele><time>2026-04-25T10:16:01Z</time></trkpt><trkpt lat="43.51712728639941" lon="12.783005046965656"><ele>516.5</ele><time>2026-04-25T10:16:02Z</time></trkpt><trkpt lat="43.51718172999366" lon="12.782836264546694"><ele>516.0</ele><time>2026-04-25T10:16:03Z</time></trkpt><trkpt lat="43.51722661487935" lon="12.782660324876426"><ele>520.0</ele><time>2026-04-25T10:16:04Z</time></trkpt><trkpt lat="43.517269242072636" lon="12.782484008756748"><ele>524.0</ele><time>2026-04-25T10:16:05Z</time></trkpt><trkpt lat="43.51730557980257" lon="12.782308556828527"><ele>528.0</ele><time>2026-04-25T10:16:06Z</time></trkpt><trkpt lat="43.517337079290584" lon="12.782142609228218"><ele>532.0</ele><time>2026-04-25T10:16:07Z</time></trkpt><trkpt lat="43.517379937479376" lon="12.781984004288182"><ele>532.5</ele><time>2026-04-25T10:16:08Z</time></trkpt><trkpt lat="43.517434958996944" lon="12.781829236453246"><ele>533.0</ele><time>2026-04-25T10:16:09Z</time></trkpt><trkpt lat="43.51748841462796" lon="12.781673252945165"><ele>533.5</ele><time>2026-04-25T10:16:10Z</time></trkpt><trkpt lat="43.51753841299836" lon="12.781541247553022"><ele>534.0</ele><time>2026-04-25T10:16:11Z</time></trkpt><trkpt lat="43.51757628169724" lon="12.78141034942896"><ele>534.0</ele><time>2026-04-25T10:16:12Z</time></trkpt><trkpt lat="43.51759825625701" lon="12.781275114555372"><ele>534.0</ele><time>2026-04-25T10:16:13Z</time></trkpt><trkpt lat="43.51761616358212" lon="12.781124820905324"><ele>534.0</ele><time>2026-04-25T10:16:14Z</time></trkpt><trkpt lat="43.51763611613474" lon="12.780976191732123"><ele>534.0</ele><time>2026-04-25T10:16:15Z</time></trkpt><trkpt lat="43.51764510184638" lon="12.780825153321137"><ele>534.0</ele><time>2026-04-25T10:16:16Z</time></trkpt><trkpt lat="43.51766952693673" lon="12.78067805858608"><ele>534.5</ele><time>2026-04-25T10:16:17Z</time></trkpt><trkpt lat="43.51768214251443" lon="12.78053980961832"><ele>535.0</ele><time>2026-04-25T10:16:18Z</time></trkpt><trkpt lat="43.51769810229214" lon="12.780425714624457"><ele>535.5</ele><time>2026-04-25T10:16:19Z</time></trkpt><trkpt lat="43.51769045163724" lon="12.780307859031304"><ele>536.0</ele><time>2026-04-25T10:16:20Z</time></trkpt><trkpt lat="43.51767628865965" lon="12.780206558030715"><ele>536.5</ele><time>2026-04-25T10:16:21Z</time></trkpt><trkpt lat="43.5176329872957" lon="12.780086182902638"><ele>537.0</ele><time>2026-04-25T10:16:22Z</time></trkpt><trkpt lat="43.517602237820164" lon="12.77994874884241"><ele>537.8000000000001</ele><time>2026-04-25T10:16:23Z</time></trkpt><trkpt lat="43.5175827884271" lon="12.779799559488191"><ele>538.6</ele><time>2026-04-25T10:16:24Z</time></trkpt><trkpt lat="43.5175513243371" lon="12.779669458190867"><ele>539.4000000000001</ele><time>2026-04-25T10:16:25Z</time></trkpt><trkpt lat="43.517551638937974" lon="12.779539027583814"><ele>540.2</ele><time>2026-04-25T10:16:26Z</time></trkpt><trkpt lat="43.517552762091164" lon="12.779429400653564"><ele>541.0</ele><time>2026-04-25T10:16:27Z</time></trkpt><trkpt lat="43.51755583242265" lon="12.779245905491553"><ele>542.0</ele><time>2026-04-25T10:16:29Z</time></trkpt><trkpt lat="43.517547313713955" lon="12.77913608703843"><ele>543.0</ele><time>2026-04-25T10:16:30Z</time></trkpt><trkpt lat="43.51756414881245" lon="12.77903411686832"><ele>544.0</ele><time>2026-04-25T10:16:31Z</time></trkpt><trkpt lat="43.51757805773654" lon="12.778949279746682"><ele>545.0</ele><time>2026-04-25T10:16:32Z</time></trkpt><trkpt lat="43.517549951640774" lon="12.778741768472068"><ele>546.0</ele><time>2026-04-25T10:16:34Z</time></trkpt><trkpt lat="43.517514064155726" lon="12.778630194793399"><ele>546.0</ele><time>2026-04-25T10:16:35Z</time></trkpt><trkpt lat="43.51746408147534" lon="12.778527068657235"><ele>546.0</ele><time>2026-04-25T10:16:36Z</time></trkpt><trkpt lat="43.5174122114904" lon="12.778421318058642"><ele>546.0</ele><time>2026-04-25T10:16:37Z</time></trkpt><trkpt lat="43.517361569311824" lon="12.778329370642687"><ele>546.0</ele><time>2026-04-25T10:16:38Z</time></trkpt><trkpt lat="43.51731429748855" lon="12.77825667473512"><ele>546.0</ele><time>2026-04-25T10:16:39Z</time></trkpt><trkpt lat="43.51725474547693" lon="12.778135113680253"><ele>546.0</ele><time>2026-04-25T10:16:41Z</time></trkpt><trkpt lat="43.51721874245292" lon="12.777980480484713"><ele>547.2</ele><time>2026-04-25T10:16:43Z</time></trkpt><trkpt lat="43.51726396882651" lon="12.777842970183078"><ele>548.4000000000001</ele><time>2026-04-25T10:16:44Z</time></trkpt><trkpt lat="43.51729889011867" lon="12.777711605087793"><ele>549.6</ele><time>2026-04-25T10:16:45Z</time></trkpt><trkpt lat="43.51734261798847" lon="12.777570739887569"><ele>550.8000000000001</ele><time>2026-04-25T10:16:46Z</time></trkpt><trkpt lat="43.517378827518996" lon="12.777421522907064"><ele>552.0</ele><time>2026-04-25T10:16:47Z</time></trkpt><trkpt lat="43.51741908110321" lon="12.777280952560666"><ele>552.2</ele><time>2026-04-25T10:16:48Z</time></trkpt><trkpt lat="43.517465738085875" lon="12.777151572099678"><ele>552.4000000000001</ele><time>2026-04-25T10:16:49Z</time></trkpt><trkpt lat="43.517503607159234" lon="12.777014445058182"><ele>552.5999999999999</ele><time>2026-04-25T10:16:50Z</time></trkpt><trkpt lat="43.51754300334955" lon="12.776877436563279"><ele>552.8</ele><time>2026-04-25T10:16:51Z</time></trkpt><trkpt lat="43.51758584080323" lon="12.776745830613311"><ele>553.0</ele><time>2026-04-25T10:16:52Z</time></trkpt><trkpt lat="43.51762689173298" lon="12.77661595687678"><ele>551.6</ele><time>2026-04-25T10:16:53Z</time></trkpt><trkpt lat="43.51766198607077" lon="12.776477372947335"><ele>550.1999999999999</ele><time>2026-04-25T10:16:54Z</time></trkpt><trkpt lat="43.517693472337776" lon="12.776343304516098"><ele>548.8</ele><time>2026-04-25T10:16:55Z</time></trkpt><trkpt lat="43.5177093990294" lon="12.77618449625933"><ele>547.4</ele><time>2026-04-25T10:16:56Z</time></trkpt><trkpt lat="43.51770985699618" lon="12.776022575359985"><ele>546.0</ele><time>2026-04-25T10:16:57Z</time></trkpt><trkpt lat="43.51770695584594" lon="12.775863508679477"><ele>544.6</ele><time>2026-04-25T10:16:58Z</time></trkpt><trkpt lat="43.51769042012976" lon="12.775702023258624"><ele>543.2</ele><time>2026-04-25T10:16:59Z</time></trkpt><trkpt lat="43.5176795880076" lon="12.775548198650089"><ele>541.8</ele><time>2026-04-25T10:17:00Z</time></trkpt><trkpt lat="43.51767489166138" lon="12.775414192520635"><ele>540.4</ele><time>2026-04-25T10:17:01Z</time></trkpt><trkpt lat="43.517675175017914" lon="12.77528380902579"><ele>539.0</ele><time>2026-04-25T10:17:02Z</time></trkpt><trkpt lat="43.517684617993766" lon="12.775155242367687"><ele>537.8</ele><time>2026-04-25T10:17:03Z</time></trkpt><trkpt lat="43.517702083240366" lon="12.775031374546154"><ele>536.5999999999999</ele><time>2026-04-25T10:17:04Z</time></trkpt><trkpt lat="43.51774132298092" lon="12.774903145782934"><ele>535.4</ele><time>2026-04-25T10:17:05Z</time></trkpt><trkpt lat="43.5177762966738" lon="12.77477666269947"><ele>534.1999999999999</ele><time>2026-04-25T10:17:06Z</time></trkpt><trkpt lat="43.51783720365038" lon="12.774656143702593"><ele>533.0</ele><time>2026-04-25T10:17:07Z</time></trkpt><trkpt lat="43.517897657421685" lon="12.774543793146165"><ele>537.1999999999999</ele><time>2026-04-25T10:17:08Z</time></trkpt><trkpt lat="43.517967942317284" lon="12.77443554659333"><ele>541.4</ele><time>2026-04-25T10:17:09Z</time></trkpt><trkpt lat="43.51800787467039" lon="12.774313616490629"><ele>545.5999999999999</ele><time>2026-04-25T10:17:10Z</time></trkpt><trkpt lat="43.51802438584922" lon="12.774192370977044"><ele>549.8</ele><time>2026-04-25T10:17:11Z</time></trkpt><trkpt lat="43.5180184687712" lon="12.774061980315368"><ele>554.0</ele><time>2026-04-25T10:17:12Z</time></trkpt><trkpt lat="43.5179892003828" lon="12.773920809709804"><ele>554.0</ele><time>2026-04-25T10:17:13Z</time></trkpt><trkpt lat="43.517960424932205" lon="12.773777347095285"><ele>554.0</ele><time>2026-04-25T10:17:14Z</time></trkpt><trkpt lat="43.51794768669075" lon="12.77363135428178"><ele>554.0</ele><time>2026-04-25T10:17:15Z</time></trkpt><trkpt lat="43.51794777187873" lon="12.773482008122206"><ele>554.0</ele><time>2026-04-25T10:17:16Z</time></trkpt><trkpt lat="43.51794135575005" lon="12.773334128528493"><ele>554.0</ele><time>2026-04-25T10:17:17Z</time></trkpt><trkpt lat="43.517914522195824" lon="12.773179663162328"><ele>553.0</ele><time>2026-04-25T10:17:18Z</time></trkpt><trkpt lat="43.517916103741705" lon="12.77304251998163"><ele>552.0</ele><time>2026-04-25T10:17:19Z</time></trkpt><trkpt lat="43.517900495275654" lon="12.772913323955413"><ele>551.0</ele><time>2026-04-25T10:17:20Z</time></trkpt><trkpt lat="43.51788775080029" lon="12.772776608419493"><ele>550.0</ele><time>2026-04-25T10:17:21Z</time></trkpt><trkpt lat="43.51786379095623" lon="12.77263477349643"><ele>549.0</ele><time>2026-04-25T10:17:22Z</time></trkpt><trkpt lat="43.517837653096976" lon="12.772497473285263"><ele>542.0</ele><time>2026-04-25T10:17:23Z</time></trkpt><trkpt lat="43.51781733814689" lon="12.772368232224114"><ele>535.0</ele><time>2026-04-25T10:17:24Z</time></trkpt><trkpt lat="43.517808559452874" lon="12.772239989029622"><ele>528.0</ele><time>2026-04-25T10:17:25Z</time></trkpt><trkpt lat="43.517808491015174" lon="12.772112584589147"><ele>521.0</ele><time>2026-04-25T10:17:26Z</time></trkpt><trkpt lat="43.51782246666724" lon="12.771990418471084"><ele>514.0</ele><time>2026-04-25T10:17:27Z</time></trkpt><trkpt lat="43.51785802039376" lon="12.771870829619951"><ele>515.8333333333334</ele><time>2026-04-25T10:17:28Z</time></trkpt><trkpt lat="43.517903067226484" lon="12.771774057747033"><ele>517.6666666666667</ele><time>2026-04-25T10:17:29Z</time></trkpt><trkpt lat="43.51796248753926" lon="12.771692426343458"><ele>519.5</ele><time>2026-04-25T10:17:30Z</time></trkpt><trkpt lat="43.51803300004993" lon="12.77162739007131"><ele>521.3333333333334</ele><time>2026-04-25T10:17:31Z</time></trkpt><trkpt lat="43.5181137131114" lon="12.771615948228451"><ele>523.1666666666666</ele><time>2026-04-25T10:17:32Z</time></trkpt><trkpt lat="43.5181973163707" lon="12.771629475109465"><ele>525.0</ele><time>2026-04-25T10:17:33Z</time></trkpt><trkpt lat="43.51827654183185" lon="12.771612188640622"><ele>525.0</ele><time>2026-04-25T10:17:34Z</time></trkpt><trkpt lat="43.51835394585669" lon="12.771578368285978"><ele>525.0</ele><time>2026-04-25T10:17:35Z</time></trkpt><trkpt lat="43.51841330032721" lon="12.771514926837822"><ele>525.0</ele><time>2026-04-25T10:17:36Z</time></trkpt><trkpt lat="43.51845612035558" lon="12.771433845881667"><ele>525.0</ele><time>2026-04-25T10:17:37Z</time></trkpt><trkpt lat="43.51848742398283" lon="12.771337005480024"><ele>525.0</ele><time>2026-04-25T10:17:38Z</time></trkpt><trkpt lat="43.518496343329765" lon="12.771238225074041"><ele>525.0</ele><time>2026-04-25T10:17:39Z</time></trkpt><trkpt lat="43.518509734341656" lon="12.771128961212405"><ele>525.0</ele><time>2026-04-25T10:17:40Z</time></trkpt><trkpt lat="43.518527732880415" lon="12.771028847553788"><ele>525.0</ele><time>2026-04-25T10:17:41Z</time></trkpt><trkpt lat="43.51857701508813" lon="12.770942317351485"><ele>525.0</ele><time>2026-04-25T10:17:42Z</time></trkpt><trkpt lat="43.51862281921789" lon="12.770846174769177"><ele>525.0</ele><time>2026-04-25T10:17:43Z</time></trkpt><trkpt lat="43.51867471905964" lon="12.770758373117191"><ele>525.0</ele><time>2026-04-25T10:17:44Z</time></trkpt><trkpt lat="43.518723547464674" lon="12.770675499122005"><ele>525.0</ele><time>2026-04-25T10:17:44.999Z</time></trkpt><trkpt lat="43.51876039213621" lon="12.770601352126105"><ele>526.8</ele><time>2026-04-25T10:17:45.999Z</time></trkpt><trkpt lat="43.51882083685877" lon="12.77045569773813"><ele>528.6</ele><time>2026-04-25T10:17:47.999Z</time></trkpt><trkpt lat="43.518849002645986" lon="12.770295572203773"><ele>530.4</ele><time>2026-04-25T10:17:49.999Z</time></trkpt><trkpt lat="43.518867755788754" lon="12.770207809130097"><ele>532.2</ele><time>2026-04-25T10:17:50.999Z</time></trkpt><trkpt lat="43.51887754065181" lon="12.770107039197514"><ele>534.0</ele><time>2026-04-25T10:17:51.999Z</time></trkpt><trkpt lat="43.51890143319655" lon="12.770005020562408"><ele>534.1666666666666</ele><time>2026-04-25T10:17:52.999Z</time></trkpt><trkpt lat="43.51892176715088" lon="12.769901599860418"><ele>534.3333333333334</ele><time>2026-04-25T10:17:53.999Z</time></trkpt><trkpt lat="43.51895419306402" lon="12.769799007655042"><ele>534.5</ele><time>2026-04-25T10:17:54.999Z</time></trkpt><trkpt lat="43.51897948183147" lon="12.769693397270961"><ele>534.6666666666667</ele><time>2026-04-25T10:17:56Z</time></trkpt><trkpt lat="43.51900466076137" lon="12.769592268465253"><ele>534.8333333333334</ele><time>2026-04-25T10:17:57Z</time></trkpt><trkpt lat="43.51902126595885" lon="12.769489501688515"><ele>535.0</ele><time>2026-04-25T10:17:58Z</time></trkpt><trkpt lat="43.51903811981402" lon="12.76938850346532"><ele>533.5</ele><time>2026-04-25T10:17:59Z</time></trkpt><trkpt lat="43.5190563894044" lon="12.769290365831099"><ele>532.0</ele><time>2026-04-25T10:18:00Z</time></trkpt><trkpt lat="43.519074910934336" lon="12.76919697086955"><ele>530.5</ele><time>2026-04-25T10:18:01Z</time></trkpt><trkpt lat="43.5191074271589" lon="12.769110690910368"><ele>529.0</ele><time>2026-04-25T10:18:02Z</time></trkpt><trkpt lat="43.519152533493525" lon="12.769033325406774"><ele>527.5</ele><time>2026-04-25T10:18:03Z</time></trkpt><trkpt lat="43.51920913946699" lon="12.76894682134778"><ele>526.0</ele><time>2026-04-25T10:18:04Z</time></trkpt><trkpt lat="43.51928128179245" lon="12.768875045322535"><ele>526.0</ele><time>2026-04-25T10:18:05Z</time></trkpt><trkpt lat="43.519361151220565" lon="12.768802146499226"><ele>526.0</ele><time>2026-04-25T10:18:06Z</time></trkpt><trkpt lat="43.51943996414457" lon="12.768739982801991"><ele>526.0</ele><time>2026-04-25T10:18:07Z</time></trkpt><trkpt lat="43.519536154537704" lon="12.76867927145519"><ele>526.0</ele><time>2026-04-25T10:18:08Z</time></trkpt><trkpt lat="43.51963085464702" lon="12.768624202680268"><ele>526.0</ele><time>2026-04-25T10:18:09Z</time></trkpt><trkpt lat="43.51972796358061" lon="12.768567754316107"><ele>525.6</ele><time>2026-04-25T10:18:10Z</time></trkpt><trkpt lat="43.51981986135792" lon="12.768479719507381"><ele>525.2</ele><time>2026-04-25T10:18:11Z</time></trkpt><trkpt lat="43.5199051774234" lon="12.768389166347239"><ele>524.8</ele><time>2026-04-25T10:18:12Z</time></trkpt><trkpt lat="43.51998860099615" lon="12.768294921126012"><ele>524.4</ele><time>2026-04-25T10:18:13Z</time></trkpt><trkpt lat="43.52005877467022" lon="12.76819994743976"><ele>524.0</ele><time>2026-04-25T10:18:14Z</time></trkpt><trkpt lat="43.52012300488134" lon="12.768096800569355"><ele>524.0</ele><time>2026-04-25T10:18:15Z</time></trkpt><trkpt lat="43.52018247910483" lon="12.767996299660577"><ele>524.0</ele><time>2026-04-25T10:18:16Z</time></trkpt><trkpt lat="43.520239849770874" lon="12.767889841464461"><ele>524.0</ele><time>2026-04-25T10:18:17Z</time></trkpt><trkpt lat="43.520285033496634" lon="12.767780596832196"><ele>524.0</ele><time>2026-04-25T10:18:18Z</time></trkpt><trkpt lat="43.5203341722092" lon="12.767675490418743"><ele>524.0</ele><time>2026-04-25T10:18:19Z</time></trkpt><trkpt lat="43.520395163841435" lon="12.767591000269432"><ele>523.2</ele><time>2026-04-25T10:18:20Z</time></trkpt><trkpt lat="43.520459642941816" lon="12.767529070204072"><ele>522.4</ele><time>2026-04-25T10:18:21Z</time></trkpt><trkpt lat="43.520522006551" lon="12.767434707605597"><ele>521.6</ele><time>2026-04-25T10:18:22Z</time></trkpt><trkpt lat="43.52058976451194" lon="12.76735199493541"><ele>520.8</ele><time>2026-04-25T10:18:23Z</time></trkpt><trkpt lat="43.520661563421406" lon="12.767258433379451"><ele>520.0</ele><time>2026-04-25T10:18:24Z</time></trkpt><trkpt lat="43.520730517768044" lon="12.76717092956138"><ele>520.0</ele><time>2026-04-25T10:18:25Z</time></trkpt><trkpt lat="43.52079937727088" lon="12.767080514098865"><ele>520.0</ele><time>2026-04-25T10:18:26Z</time></trkpt><trkpt lat="43.52086681195761" lon="12.766994550687366"><ele>520.0</ele><time>2026-04-25T10:18:27Z</time></trkpt><trkpt lat="43.52093724088565" lon="12.76691319007853"><ele>520.0</ele><time>2026-04-25T10:18:28Z</time></trkpt><trkpt lat="43.521009723116784" lon="12.766841936622619"><ele>520.0</ele><time>2026-04-25T10:18:29Z</time></trkpt><trkpt lat="43.5210804869014" lon="12.766769584727395"><ele>518.8333333333334</ele><time>2026-04-25T10:18:30Z</time></trkpt><trkpt lat="43.521140808051975" lon="12.766700462935507"><ele>517.6666666666667</ele><time>2026-04-25T10:18:31Z</time></trkpt><trkpt lat="43.52119597100327" lon="12.76661060284076"><ele>516.5</ele><time>2026-04-25T10:18:32Z</time></trkpt><trkpt lat="43.52124234344792" lon="12.76651540192648"><ele>515.3333333333334</ele><time>2026-04-25T10:18:33Z</time></trkpt><trkpt lat="43.521278111710465" lon="12.766404157186471"><ele>514.1666666666666</ele><time>2026-04-25T10:18:34Z</time></trkpt><trkpt lat="43.52130527437755" lon="12.766283339765788"><ele>513.0</ele><time>2026-04-25T10:18:35Z</time></trkpt><trkpt lat="43.52132848084111" lon="12.76616976041747"><ele>513.0</ele><time>2026-04-25T10:18:36Z</time></trkpt><trkpt lat="43.52135042047317" lon="12.766070853203905"><ele>513.0</ele><time>2026-04-25T10:18:37Z</time></trkpt><trkpt lat="43.52136920629686" lon="12.765970676520805"><ele>513.0</ele><time>2026-04-25T10:18:38Z</time></trkpt><trkpt lat="43.521386883158584" lon="12.765864019500768"><ele>513.0</ele><time>2026-04-25T10:18:39Z</time></trkpt><trkpt lat="43.52140198945695" lon="12.765752471288932"><ele>513.0</ele><time>2026-04-25T10:18:40Z</time></trkpt><trkpt lat="43.521408854181296" lon="12.765633184253266"><ele>513.0</ele><time>2026-04-25T10:18:41Z</time></trkpt><trkpt lat="43.521402283791836" lon="12.765508304378967"><ele>511.0</ele><time>2026-04-25T10:18:42Z</time></trkpt><trkpt lat="43.52138626380008" lon="12.765381296330515"><ele>508.99999999999994</ele><time>2026-04-25T10:18:43Z</time></trkpt><trkpt lat="43.5213636071759" lon="12.765252545703076"><ele>506.99999999999994</ele><time>2026-04-25T10:18:44Z</time></trkpt><trkpt lat="43.52134244217756" lon="12.765124137206648"><ele>505.0</ele><time>2026-04-25T10:18:45Z</time></trkpt><trkpt lat="43.52131827701079" lon="12.764999423490114"><ele>503.0</ele><time>2026-04-25T10:18:46Z</time></trkpt><trkpt lat="43.52129340361608" lon="12.76487878782401"><ele>501.0</ele><time>2026-04-25T10:18:47Z</time></trkpt><trkpt lat="43.52126701809267" lon="12.764759477914028"><ele>498.99999999999994</ele><time>2026-04-25T10:18:48Z</time></trkpt><trkpt lat="43.52123582316342" lon="12.764639183003487"><ele>496.99999999999994</ele><time>2026-04-25T10:18:49Z</time></trkpt><trkpt lat="43.52120318218657" lon="12.7645093201827"><ele>495.0</ele><time>2026-04-25T10:18:50Z</time></trkpt><trkpt lat="43.521169173433364" lon="12.764375275685339"><ele>493.0</ele><time>2026-04-25T10:18:51Z</time></trkpt><trkpt lat="43.52115148495432" lon="12.764254766231556"><ele>492.2857142857143</ele><time>2026-04-25T10:18:52Z</time></trkpt><trkpt lat="43.52111244888612" lon="12.764151349363837"><ele>491.57142857142856</ele><time>2026-04-25T10:18:53Z</time></trkpt><trkpt lat="43.52108587107081" lon="12.764040504647406"><ele>490.85714285714283</ele><time>2026-04-25T10:18:54Z</time></trkpt><trkpt lat="43.52106352851612" lon="12.763942431304594"><ele>490.1428571428571</ele><time>2026-04-25T10:18:55Z</time></trkpt><trkpt lat="43.521039979559276" lon="12.763850227583204"><ele>489.42857142857144</ele><time>2026-04-25T10:18:56Z</time></trkpt><trkpt lat="43.521018493384126" lon="12.763764466244766"><ele>488.71428571428567</ele><time>2026-04-25T10:18:57Z</time></trkpt><trkpt lat="43.52099460786476" lon="12.763682994574848"><ele>487.99999999999994</ele><time>2026-04-25T10:18:58Z</time></trkpt><trkpt lat="43.52096493809994" lon="12.7635460324986"><ele>486.49999999999994</ele><time>2026-04-25T10:19:00Z</time></trkpt><trkpt lat="43.520982716275725" lon="12.763386364754998"><ele>485.0</ele><time>2026-04-25T10:19:02Z</time></trkpt><trkpt lat="43.5210234793448" lon="12.763315720390201"><ele>483.5</ele><time>2026-04-25T10:19:03Z</time></trkpt><trkpt lat="43.521083013363416" lon="12.763269127455914"><ele>482.0</ele><time>2026-04-25T10:19:04Z</time></trkpt><trkpt lat="43.52114661653142" lon="12.763238847773998"><ele>480.49999999999994</ele><time>2026-04-25T10:19:05Z</time></trkpt><trkpt lat="43.52121582673896" lon="12.763216672135789"><ele>479.0</ele><time>2026-04-25T10:19:06Z</time></trkpt><trkpt lat="43.52128856372828" lon="12.763203359667106"><ele>478.79999999999995</ele><time>2026-04-25T10:19:07Z</time></trkpt><trkpt lat="43.52135244790717" lon="12.763194755777446"><ele>478.59999999999997</ele><time>2026-04-25T10:19:08Z</time></trkpt><trkpt lat="43.52145239681535" lon="12.763136170934242"><ele>478.4</ele><time>2026-04-25T10:19:10Z</time></trkpt><trkpt lat="43.52148495671802" lon="12.763006615600327"><ele>478.2</ele><time>2026-04-25T10:19:12Z</time></trkpt><trkpt lat="43.52141182066385" lon="12.762867485037884"><ele>478.0</ele><time>2026-04-25T10:19:14Z</time></trkpt><trkpt lat="43.52133452844173" lon="12.762748847512784"><ele>476.50000000000006</ele><time>2026-04-25T10:19:16Z</time></trkpt><trkpt lat="43.521267042256554" lon="12.76262038848671"><ele>475.0</ele><time>2026-04-25T10:19:18Z</time></trkpt><trkpt lat="43.52124935688669" lon="12.76253535361574"><ele>473.5</ele><time>2026-04-25T10:19:19Z</time></trkpt><trkpt lat="43.52124635791579" lon="12.76244837438071"><ele>472.0</ele><time>2026-04-25T10:19:20Z</time></trkpt><trkpt lat="43.521268726636094" lon="12.762365956546102"><ele>470.50000000000006</ele><time>2026-04-25T10:19:21Z</time></trkpt><trkpt lat="43.52131821768913" lon="12.762291392444647"><ele>469.0</ele><time>2026-04-25T10:19:22Z</time></trkpt><trkpt lat="43.52138137973132" lon="12.762235296900661"><ele>469.0</ele><time>2026-04-25T10:19:23Z</time></trkpt><trkpt lat="43.521447311882824" lon="12.762194187587523"><ele>469.0</ele><time>2026-04-25T10:19:24Z</time></trkpt><trkpt lat="43.521533763381015" lon="12.762075106924675"><ele>469.0</ele><time>2026-04-25T10:19:26Z</time></trkpt><trkpt lat="43.52152592965332" lon="12.7618881912151"><ele>469.0</ele><time>2026-04-25T10:19:28Z</time></trkpt><trkpt lat="43.5214927426198" lon="12.76178742346863"><ele>469.0</ele><time>2026-04-25T10:19:29Z</time></trkpt><trkpt lat="43.52147717039993" lon="12.761683959835326"><ele>466.6</ele><time>2026-04-25T10:19:30Z</time></trkpt><trkpt lat="43.52144979548734" lon="12.761572006210912"><ele>464.2</ele><time>2026-04-25T10:19:31Z</time></trkpt><trkpt lat="43.52140570112423" lon="12.761455302644999"><ele>461.80000000000007</ele><time>2026-04-25T10:19:32Z</time></trkpt><trkpt lat="43.52138923613532" lon="12.76135229375433"><ele>459.40000000000003</ele><time>2026-04-25T10:19:33Z</time></trkpt><trkpt lat="43.52138410101169" lon="12.76125928302142"><ele>457.0</ele><time>2026-04-25T10:19:34Z</time></trkpt><trkpt lat="43.52140439037286" lon="12.76108681436731"><ele>455.20000000000005</ele><time>2026-04-25T10:19:36Z</time></trkpt><trkpt lat="43.521436934003944" lon="12.76095467620041"><ele>453.40000000000003</ele><time>2026-04-25T10:19:38Z</time></trkpt><trkpt lat="43.521474031192575" lon="12.760776732365466"><ele>451.59999999999997</ele><time>2026-04-25T10:19:40Z</time></trkpt><trkpt lat="43.52150506416206" lon="12.760660526396988"><ele>449.79999999999995</ele><time>2026-04-25T10:19:41Z</time></trkpt><trkpt lat="43.52152848316918" lon="12.760545649129892"><ele>448.0</ele><time>2026-04-25T10:19:42Z</time></trkpt><trkpt lat="43.52156096255497" lon="12.760422917324734"><ele>448.0</ele><time>2026-04-25T10:19:43Z</time></trkpt><trkpt lat="43.52159078183896" lon="12.760283336022756"><ele>447.99999999999994</ele><time>2026-04-25T10:19:44Z</time></trkpt><trkpt lat="43.52162461614284" lon="12.76015144680608"><ele>447.99999999999994</ele><time>2026-04-25T10:19:45Z</time></trkpt><trkpt lat="43.52165966612799" lon="12.76000957367904"><ele>448.0</ele><time>2026-04-25T10:19:46Z</time></trkpt><trkpt lat="43.52169225618476" lon="12.759870587511406"><ele>448.0</ele><time>2026-04-25T10:19:47Z</time></trkpt><trkpt lat="43.52172700129822" lon="12.759731243048696"><ele>446.4</ele><time>2026-04-25T10:19:48Z</time></trkpt><trkpt lat="43.52176416931238" lon="12.759598973793947"><ele>444.79999999999995</ele><time>2026-04-25T10:19:49Z</time></trkpt><trkpt lat="43.5218021386041" lon="12.759470373670933"><ele>443.2</ele><time>2026-04-25T10:19:50Z</time></trkpt><trkpt lat="43.52183547688433" lon="12.75934412822512"><ele>441.6</ele><time>2026-04-25T10:19:50.999Z</time></trkpt><trkpt lat="43.521860165006714" lon="12.759223801650295"><ele>440.0</ele><time>2026-04-25T10:19:51.999Z</time></trkpt><trkpt lat="43.521866810607676" lon="12.759110022917637"><ele>438.66666666666663</ele><time>2026-04-25T10:19:52.999Z</time></trkpt><trkpt lat="43.52186904039827" lon="12.75900013437817"><ele>437.3333333333333</ele><time>2026-04-25T10:19:53.999Z</time></trkpt><trkpt lat="43.52188094250228" lon="12.758896580672083"><ele>436.0</ele><time>2026-04-25T10:19:54.999Z</time></trkpt><trkpt lat="43.52192605371707" lon="12.758740174109464"><ele>434.66666666666663</ele><time>2026-04-25T10:19:56.999Z</time></trkpt><trkpt lat="43.521981469484274" lon="12.758670607791215"><ele>433.3333333333333</ele><time>2026-04-25T10:19:57.999Z</time></trkpt><trkpt lat="43.52206028614189" lon="12.758625901814298"><ele>432.0</ele><time>2026-04-25T10:19:58.999Z</time></trkpt><trkpt lat="43.5221415071051" lon="12.758592870702858"><ele>431.8333333333333</ele><time>2026-04-25T10:19:59.999Z</time></trkpt><trkpt lat="43.52222068178243" lon="12.758580627022194"><ele>431.66666666666663</ele><time>2026-04-25T10:20:00.999Z</time></trkpt><trkpt lat="43.52230415367896" lon="12.758580477576173"><ele>431.5</ele><time>2026-04-25T10:20:01.999Z</time></trkpt><trkpt lat="43.52238585333422" lon="12.758599446343517"><ele>431.3333333333333</ele><time>2026-04-25T10:20:02.999Z</time></trkpt><trkpt lat="43.5224663464654" lon="12.7586242908631"><ele>431.16666666666663</ele><time>2026-04-25T10:20:03.999Z</time></trkpt><trkpt lat="43.522550166098696" lon="12.758648594189992"><ele>431.0</ele><time>2026-04-25T10:20:04.999Z</time></trkpt><trkpt lat="43.522637707933015" lon="12.758671167354276"><ele>431.0</ele><time>2026-04-25T10:20:06Z</time></trkpt><trkpt lat="43.522722164808336" lon="12.758701607913434"><ele>431.0</ele><time>2026-04-25T10:20:07Z</time></trkpt><trkpt lat="43.522810771458495" lon="12.75872617900027"><ele>431.0</ele><time>2026-04-25T10:20:08Z</time></trkpt><trkpt lat="43.522898434102956" lon="12.758727394208261"><ele>431.0</ele><time>2026-04-25T10:20:09Z</time></trkpt><trkpt lat="43.52299434939886" lon="12.758717660276634"><ele>431.0</ele><time>2026-04-25T10:20:10Z</time></trkpt><trkpt lat="43.52309343889583" lon="12.758699197061231"><ele>429.49999999999994</ele><time>2026-04-25T10:20:11Z</time></trkpt><trkpt lat="43.52318154332523" lon="12.758675901856575"><ele>428.0</ele><time>2026-04-25T10:20:12Z</time></trkpt><trkpt lat="43.52326280270211" lon="12.75864399345254"><ele>426.5</ele><time>2026-04-25T10:20:13Z</time></trkpt><trkpt lat="43.52333436222259" lon="12.758584790758887"><ele>425.0</ele><time>2026-04-25T10:20:14Z</time></trkpt><trkpt lat="43.523405082994834" lon="12.758516614624401"><ele>423.49999999999994</ele><time>2026-04-25T10:20:15Z</time></trkpt><trkpt lat="43.52347945783244" lon="12.75845522872188"><ele>422.0</ele><time>2026-04-25T10:20:16Z</time></trkpt><trkpt lat="43.52355279815965" lon="12.758392774970874"><ele>420.66666666666663</ele><time>2026-04-25T10:20:17Z</time></trkpt><trkpt lat="43.52362821002168" lon="12.758322510354175"><ele>419.3333333333333</ele><time>2026-04-25T10:20:18Z</time></trkpt><trkpt lat="43.52368934319317" lon="12.758268982940356"><ele>418.0</ele><time>2026-04-25T10:20:19Z</time></trkpt><trkpt lat="43.5237550582486" lon="12.758212658536518"><ele>416.66666666666663</ele><time>2026-04-25T10:20:20Z</time></trkpt><trkpt lat="43.523824834003264" lon="12.758166179430129"><ele>415.3333333333333</ele><time>2026-04-25T10:20:21Z</time></trkpt><trkpt lat="43.523896578608664" lon="12.75814173496103"><ele>414.0</ele><time>2026-04-25T10:20:22Z</time></trkpt><trkpt lat="43.52398496995893" lon="12.75813929466079"><ele>412.79999999999995</ele><time>2026-04-25T10:20:23Z</time></trkpt><trkpt lat="43.524074896242965" lon="12.758180157787317"><ele>411.59999999999997</ele><time>2026-04-25T10:20:24Z</time></trkpt><trkpt lat="43.52415266953908" lon="12.758227890411677"><ele>410.4</ele><time>2026-04-25T10:20:25Z</time></trkpt><trkpt lat="43.52423008846714" lon="12.75828373820245"><ele>409.2</ele><time>2026-04-25T10:20:26Z</time></trkpt><trkpt lat="43.52430988295816" lon="12.758350743970912"><ele>408.0</ele><time>2026-04-25T10:20:27Z</time></trkpt><trkpt lat="43.52438786590331" lon="12.758414690796664"><ele>408.0</ele><time>2026-04-25T10:20:28Z</time></trkpt><trkpt lat="43.52446956923725" lon="12.758475517008861"><ele>408.0</ele><time>2026-04-25T10:20:29Z</time></trkpt><trkpt lat="43.52455215149791" lon="12.758527421532776"><ele>408.0</ele><time>2026-04-25T10:20:30Z</time></trkpt><trkpt lat="43.52461307915735" lon="12.758591890362792"><ele>408.0</ele><time>2026-04-25T10:20:31Z</time></trkpt><trkpt lat="43.52466334972149" lon="12.75867289530881"><ele>408.0</ele><time>2026-04-25T10:20:32Z</time></trkpt><trkpt lat="43.52470070685214" lon="12.758772561697306"><ele>408.0</ele><time>2026-04-25T10:20:33Z</time></trkpt><trkpt lat="43.52472395212574" lon="12.758892434189704"><ele>407.5</ele><time>2026-04-25T10:20:34Z</time></trkpt><trkpt lat="43.524748800914445" lon="12.759007842383182"><ele>407.0</ele><time>2026-04-25T10:20:35Z</time></trkpt><trkpt lat="43.52477447928716" lon="12.759125504527834"><ele>406.5</ele><time>2026-04-25T10:20:36Z</time></trkpt><trkpt lat="43.524803340874925" lon="12.75923592183478"><ele>406.0</ele><time>2026-04-25T10:20:37Z</time></trkpt><trkpt lat="43.524839184431464" lon="12.759345083949672"><ele>405.5</ele><time>2026-04-25T10:20:38Z</time></trkpt><trkpt lat="43.52487759509339" lon="12.75945182169031"><ele>405.0</ele><time>2026-04-25T10:20:39Z</time></trkpt><trkpt lat="43.52491411400318" lon="12.759548694980081"><ele>404.99999999999994</ele><time>2026-04-25T10:20:40Z</time></trkpt><trkpt lat="43.52495255333182" lon="12.759643670801905"><ele>405.0</ele><time>2026-04-25T10:20:41Z</time></trkpt><trkpt lat="43.5249870252502" lon="12.759721530901523"><ele>405.0</ele><time>2026-04-25T10:20:42Z</time></trkpt><trkpt lat="43.52503539644978" lon="12.759797580423719"><ele>405.0</ele><time>2026-04-25T10:20:43Z</time></trkpt><trkpt lat="43.52509634024473" lon="12.759841141931455"><ele>405.0</ele><time>2026-04-25T10:20:44Z</time></trkpt><trkpt lat="43.52516797763068" lon="12.759858470109291"><ele>404.99999999999994</ele><time>2026-04-25T10:20:45Z</time></trkpt><trkpt lat="43.52525105778858" lon="12.759842678794511"><ele>405.0</ele><time>2026-04-25T10:20:46Z</time></trkpt><trkpt lat="43.52533128782567" lon="12.759811346986714"><ele>403.5</ele><time>2026-04-25T10:20:47Z</time></trkpt><trkpt lat="43.52541618787823" lon="12.759787946676065"><ele>402.0</ele><time>2026-04-25T10:20:48Z</time></trkpt><trkpt lat="43.52549901009498" lon="12.759755638393287"><ele>400.5</ele><time>2026-04-25T10:20:49Z</time></trkpt><trkpt lat="43.525570418310366" lon="12.759684348340656"><ele>399.0</ele><time>2026-04-25T10:20:50Z</time></trkpt><trkpt lat="43.525634882765296" lon="12.75960383634864"><ele>397.5</ele><time>2026-04-25T10:20:51Z</time></trkpt><trkpt lat="43.52568090462208" lon="12.75951506607378"><ele>396.0</ele><time>2026-04-25T10:20:52Z</time></trkpt><trkpt lat="43.52571325528327" lon="12.759421427800518"><ele>394.8333333333333</ele><time>2026-04-25T10:20:53Z</time></trkpt><trkpt lat="43.52572091662566" lon="12.759325766323464"><ele>393.66666666666663</ele><time>2026-04-25T10:20:54Z</time></trkpt><trkpt lat="43.525709461528855" lon="12.759230353903515"><ele>392.5</ele><time>2026-04-25T10:20:55Z</time></trkpt><trkpt lat="43.525680466538866" lon="12.759123728038631"><ele>391.3333333333333</ele><time>2026-04-25T10:20:56Z</time></trkpt><trkpt lat="43.525640219906364" lon="12.759006826247091"><ele>390.16666666666663</ele><time>2026-04-25T10:20:57Z</time></trkpt><trkpt lat="43.525618765622646" lon="12.75889002409404"><ele>389.0</ele><time>2026-04-25T10:20:58Z</time></trkpt><trkpt lat="43.525592203969616" lon="12.758800849388479"><ele>389.0</ele><time>2026-04-25T10:20:59Z</time></trkpt><trkpt lat="43.525617471440626" lon="12.758631411308782"><ele>389.0</ele><time>2026-04-25T10:21:01Z</time></trkpt><trkpt lat="43.52567425217719" lon="12.758539501760206"><ele>389.0</ele><time>2026-04-25T10:21:02Z</time></trkpt><trkpt lat="43.525711898550426" lon="12.758468279155718"><ele>389.0</ele><time>2026-04-25T10:21:03Z</time></trkpt><trkpt lat="43.52570210291463" lon="12.758305876006"><ele>389.0</ele><time>2026-04-25T10:21:05Z</time></trkpt><trkpt lat="43.52569039916809" lon="12.758195819347248"><ele>387.66666666666663</ele><time>2026-04-25T10:21:06Z</time></trkpt><trkpt lat="43.52568253967808" lon="12.758081707730126"><ele>386.3333333333333</ele><time>2026-04-25T10:21:07Z</time></trkpt><trkpt lat="43.52567787155652" lon="12.757968833656077"><ele>385.0</ele><time>2026-04-25T10:21:08Z</time></trkpt><trkpt lat="43.52567328246942" lon="12.757862548213115"><ele>383.66666666666663</ele><time>2026-04-25T10:21:09Z</time></trkpt><trkpt lat="43.52566331679194" lon="12.757746911796529"><ele>382.3333333333333</ele><time>2026-04-25T10:21:10Z</time></trkpt><trkpt lat="43.52565842369146" lon="12.757643877014052"><ele>381.0</ele><time>2026-04-25T10:21:11Z</time></trkpt><trkpt lat="43.52565453331108" lon="12.757547366034265"><ele>379.1666666666667</ele><time>2026-04-25T10:21:12Z</time></trkpt><trkpt lat="43.52564627248646" lon="12.757448966202134"><ele>377.3333333333333</ele><time>2026-04-25T10:21:13Z</time></trkpt><trkpt lat="43.525634717552364" lon="12.757360488066714"><ele>375.5</ele><time>2026-04-25T10:21:14Z</time></trkpt><trkpt lat="43.52563421314408" lon="12.75727262452487"><ele>373.66666666666663</ele><time>2026-04-25T10:21:15Z</time></trkpt><trkpt lat="43.52563098405695" lon="12.757103614619924"><ele>371.8333333333333</ele><time>2026-04-25T10:21:17Z</time></trkpt><trkpt lat="43.52564160766587" lon="12.756962355596627"><ele>370.0</ele><time>2026-04-25T10:21:19Z</time></trkpt><trkpt lat="43.52567194293129" lon="12.756855759176917"><ele>368.6</ele><time>2026-04-25T10:21:21Z</time></trkpt><trkpt lat="43.52568337209824" lon="12.756745224642954"><ele>367.2</ele><time>2026-04-25T10:21:27Z</time></trkpt><trkpt lat="43.525655418826815" lon="12.756660945925484"><ele>365.79999999999995</ele><time>2026-04-25T10:21:28Z</time></trkpt><trkpt lat="43.52560569702264" lon="12.756564022667172"><ele>364.4</ele><time>2026-04-25T10:21:29Z</time></trkpt><trkpt lat="43.525542759884225" lon="12.756446963685848"><ele>363.0</ele><time>2026-04-25T10:21:30Z</time></trkpt><trkpt lat="43.52546730972873" lon="12.75629835661114"><ele>363.5</ele><time>2026-04-25T10:21:31Z</time></trkpt><trkpt lat="43.52538921513082" lon="12.756143795596154"><ele>364.0</ele><time>2026-04-25T10:21:32Z</time></trkpt><trkpt lat="43.52531413498342" lon="12.755993035592589"><ele>364.5</ele><time>2026-04-25T10:21:33Z</time></trkpt><trkpt lat="43.52524362467168" lon="12.75585239680877"><ele>365.0</ele><time>2026-04-25T10:21:34Z</time></trkpt><trkpt lat="43.52517644241268" lon="12.755722155439575"><ele>365.0</ele><time>2026-04-25T10:21:35Z</time></trkpt><trkpt lat="43.52511198505363" lon="12.755595665862883"><ele>365.0</ele><time>2026-04-25T10:21:36Z</time></trkpt><trkpt lat="43.525050471460496" lon="12.755470039173634"><ele>365.0</ele><time>2026-04-25T10:21:37Z</time></trkpt><trkpt lat="43.52499312070422" lon="12.755346267629546"><ele>365.0</ele><time>2026-04-25T10:21:38Z</time></trkpt><trkpt lat="43.52494203670081" lon="12.755224536727352"><ele>365.0</ele><time>2026-04-25T10:21:39Z</time></trkpt><trkpt lat="43.524898425898755" lon="12.755101778300833"><ele>364.6</ele><time>2026-04-25T10:21:40Z</time></trkpt><trkpt lat="43.5248611458142" lon="12.754970990547664"><ele>364.2</ele><time>2026-04-25T10:21:41Z</time></trkpt><trkpt lat="43.5248369969133" lon="12.754838134695406"><ele>363.79999999999995</ele><time>2026-04-25T10:21:42Z</time></trkpt><trkpt lat="43.52482385793103" lon="12.754692803238703"><ele>363.4</ele><time>2026-04-25T10:21:43Z</time></trkpt><trkpt lat="43.524841250782046" lon="12.754524441013547"><ele>363.0</ele><time>2026-04-25T10:21:44Z</time></trkpt><trkpt lat="43.52483640200183" lon="12.754341663908532"><ele>362.25</ele><time>2026-04-25T10:21:45Z</time></trkpt><trkpt lat="43.52485132825721" lon="12.754165378259994"><ele>361.5</ele><time>2026-04-25T10:21:46Z</time></trkpt><trkpt lat="43.52485754012699" lon="12.754010704544969"><ele>360.75</ele><time>2026-04-25T10:21:47Z</time></trkpt><trkpt lat="43.52488119404257" lon="12.753851861689066"><ele>360.0</ele><time>2026-04-25T10:21:48Z</time></trkpt><trkpt lat="43.52487722059043" lon="12.753725180268377"><ele>360.0</ele><time>2026-04-25T10:21:49Z</time></trkpt><trkpt lat="43.524894934230204" lon="12.753605999046503"><ele>360.0</ele><time>2026-04-25T10:21:50Z</time></trkpt><trkpt lat="43.52490591376954" lon="12.753494239755286"><ele>360.0</ele><time>2026-04-25T10:21:51Z</time></trkpt><trkpt lat="43.52490645428012" lon="12.753387557900142"><ele>360.0</ele><time>2026-04-25T10:21:52Z</time></trkpt><trkpt lat="43.52490502638745" lon="12.753288983960246"><ele>360.0</ele><time>2026-04-25T10:21:53Z</time></trkpt><trkpt lat="43.524890359469836" lon="12.753203344918434"><ele>360.0</ele><time>2026-04-25T10:21:54Z</time></trkpt><trkpt lat="43.52488685621116" lon="12.753000030200756"><ele>359.75</ele><time>2026-04-25T10:21:56Z</time></trkpt><trkpt lat="43.52480554307541" lon="12.752863537305812"><ele>359.5</ele><time>2026-04-25T10:21:57Z</time></trkpt><trkpt lat="43.52474599383999" lon="12.752745587671185"><ele>359.25</ele><time>2026-04-25T10:21:58Z</time></trkpt><trkpt lat="43.524654049067294" lon="12.752621957476443"><ele>359.0</ele><time>2026-04-25T10:21:59Z</time></trkpt><trkpt lat="43.52453245246828" lon="12.752506535972726"><ele>363.0</ele><time>2026-04-25T10:22:00Z</time></trkpt><trkpt lat="43.524390210879545" lon="12.752394393833448"><ele>367.0</ele><time>2026-04-25T10:22:01Z</time></trkpt><trkpt lat="43.524235600246016" lon="12.7522791461972"><ele>371.0</ele><time>2026-04-25T10:22:02Z</time></trkpt><trkpt lat="43.52407137534798" lon="12.752155479303834"><ele>371.0</ele><time>2026-04-25T10:22:03Z</time></trkpt><trkpt lat="43.52390111156432" lon="12.752027027345585"><ele>371.0</ele><time>2026-04-25T10:22:04Z</time></trkpt><trkpt lat="43.52372308223561" lon="12.751895327304617"><ele>371.0</ele><time>2026-04-25T10:22:05Z</time></trkpt><trkpt lat="43.52353830054309" lon="12.75175955534257"><ele>374.33333333333337</ele><time>2026-04-25T10:22:06Z</time></trkpt><trkpt lat="43.523352353090154" lon="12.75162790804498"><ele>377.6666666666667</ele><time>2026-04-25T10:22:07Z</time></trkpt><trkpt lat="43.523188333433474" lon="12.751507121057145"><ele>381.0</ele><time>2026-04-25T10:22:08Z</time></trkpt><trkpt lat="43.52302746165016" lon="12.7513995350028"><ele>381.3333333333333</ele><time>2026-04-25T10:22:09Z</time></trkpt><trkpt lat="43.52285771573175" lon="12.751295701199654"><ele>381.66666666666663</ele><time>2026-04-25T10:22:10Z</time></trkpt><trkpt lat="43.522684442322735" lon="12.75118521039271"><ele>382.0</ele><time>2026-04-25T10:22:11Z</time></trkpt><trkpt lat="43.52249993699052" lon="12.75105946968906"><ele>382.3333333333333</ele><time>2026-04-25T10:22:12Z</time></trkpt><trkpt lat="43.52230327918302" lon="12.750929328405785"><ele>382.6666666666667</ele><time>2026-04-25T10:22:13Z</time></trkpt><trkpt lat="43.522100689984626" lon="12.750798313363985"><ele>383.0</ele><time>2026-04-25T10:22:14Z</time></trkpt><trkpt lat="43.52188391472797" lon="12.750663475743348"><ele>384.33333333333337</ele><time>2026-04-25T10:22:15Z</time></trkpt><trkpt lat="43.52167688363467" lon="12.750526096926457"><ele>385.6666666666667</ele><time>2026-04-25T10:22:16Z</time></trkpt><trkpt lat="43.52149167879581" lon="12.750406784410655"><ele>387.0</ele><time>2026-04-25T10:22:17Z</time></trkpt><trkpt lat="43.52131542045525" lon="12.750302946921392"><ele>387.66666666666663</ele><time>2026-04-25T10:22:18Z</time></trkpt><trkpt lat="43.521132059039516" lon="12.750185063483803"><ele>388.3333333333333</ele><time>2026-04-25T10:22:19Z</time></trkpt><trkpt lat="43.52093465299498" lon="12.750062718051089"><ele>389.0</ele><time>2026-04-25T10:22:20Z</time></trkpt><trkpt lat="43.520738628015515" lon="12.749937391922789"><ele>389.0</ele><time>2026-04-25T10:22:21Z</time></trkpt><trkpt lat="43.52055499645068" lon="12.749823048689292"><ele>389.0</ele><time>2026-04-25T10:22:22Z</time></trkpt><trkpt lat="43.52039634408727" lon="12.749716888694378"><ele>389.0</ele><time>2026-04-25T10:22:23Z</time></trkpt><trkpt lat="43.52025315984263" lon="12.749622345252346"><ele>389.3333333333333</ele><time>2026-04-25T10:22:24Z</time></trkpt><trkpt lat="43.52011308453669" lon="12.74952671164663"><ele>389.66666666666663</ele><time>2026-04-25T10:22:25Z</time></trkpt><trkpt lat="43.51997660638452" lon="12.74942732859516"><ele>390.0</ele><time>2026-04-25T10:22:26Z</time></trkpt><trkpt lat="43.51984439966573" lon="12.74931663071994"><ele>390.0</ele><time>2026-04-25T10:22:27Z</time></trkpt><trkpt lat="43.51971801440701" lon="12.749181590631817"><ele>390.0</ele><time>2026-04-25T10:22:28Z</time></trkpt><trkpt lat="43.51960053633101" lon="12.749027667208761"><ele>390.0</ele><time>2026-04-25T10:22:29Z</time></trkpt><trkpt lat="43.51948580367726" lon="12.748858433716613"><ele>391.0</ele><time>2026-04-25T10:22:30Z</time></trkpt><trkpt lat="43.519372336496964" lon="12.74867876335313"><ele>392.0</ele><time>2026-04-25T10:22:31Z</time></trkpt><trkpt lat="43.51925360902821" lon="12.748507214290433"><ele>393.0</ele><time>2026-04-25T10:22:32Z</time></trkpt><trkpt lat="43.51915633952203" lon="12.748350942821242"><ele>393.75</ele><time>2026-04-25T10:22:33Z</time></trkpt><trkpt lat="43.51905670688021" lon="12.748200688126248"><ele>394.5</ele><time>2026-04-25T10:22:34Z</time></trkpt><trkpt lat="43.51896169946079" lon="12.748055866734129"><ele>395.25</ele><time>2026-04-25T10:22:35Z</time></trkpt><trkpt lat="43.518866518574285" lon="12.747905298115782"><ele>396.0</ele><time>2026-04-25T10:22:36Z</time></trkpt><trkpt lat="43.51877419047948" lon="12.747756006643437"><ele>397.33333333333337</ele><time>2026-04-25T10:22:37Z</time></trkpt><trkpt lat="43.518675205510846" lon="12.747605988384166"><ele>398.6666666666667</ele><time>2026-04-25T10:22:38Z</time></trkpt><trkpt lat="43.518567128050485" lon="12.74743834291616"><ele>400.0</ele><time>2026-04-25T10:22:39Z</time></trkpt><trkpt lat="43.518455552342274" lon="12.747263159733057"><ele>400.0</ele><time>2026-04-25T10:22:40Z</time></trkpt><trkpt lat="43.51834560471395" lon="12.74708882429551"><ele>400.0</ele><time>2026-04-25T10:22:41Z</time></trkpt><trkpt lat="43.51823206904307" lon="12.746918881393501"><ele>400.0</ele><time>2026-04-25T10:22:42Z</time></trkpt><trkpt lat="43.51811524141605" lon="12.746746148071018"><ele>399.33333333333337</ele><time>2026-04-25T10:22:43Z</time></trkpt><trkpt lat="43.51800574930874" lon="12.746579247482224"><ele>398.66666666666663</ele><time>2026-04-25T10:22:44Z</time></trkpt><trkpt lat="43.517901760986135" lon="12.746409881777717"><ele>398.0</ele><time>2026-04-25T10:22:45Z</time></trkpt><trkpt lat="43.51779680951526" lon="12.746250953572314"><ele>397.66666666666663</ele><time>2026-04-25T10:22:46Z</time></trkpt><trkpt lat="43.51768660244901" lon="12.746091634010636"><ele>397.33333333333337</ele><time>2026-04-25T10:22:47Z</time></trkpt><trkpt lat="43.517574705618756" lon="12.74592491070922"><ele>397.0</ele><time>2026-04-25T10:22:48Z</time></trkpt><trkpt lat="43.517456829103" lon="12.745746308314798"><ele>397.0</ele><time>2026-04-25T10:22:49Z</time></trkpt><trkpt lat="43.51733398036935" lon="12.745559537392339"><ele>397.0</ele><time>2026-04-25T10:22:50Z</time></trkpt><trkpt lat="43.517205024085314" lon="12.745361248543217"><ele>397.0</ele><time>2026-04-25T10:22:51Z</time></trkpt><trkpt lat="43.51706624929137" lon="12.745149346214415"><ele>398.0</ele><time>2026-04-25T10:22:52Z</time></trkpt><trkpt lat="43.516925171304024" lon="12.744939353242797"><ele>399.0</ele><time>2026-04-25T10:22:53Z</time></trkpt><trkpt lat="43.51680037305166" lon="12.744757029301839"><ele>400.0</ele><time>2026-04-25T10:22:54Z</time></trkpt><trkpt lat="43.516694537601985" lon="12.744601547540295"><ele>400.0</ele><time>2026-04-25T10:22:55Z</time></trkpt><trkpt lat="43.51658657601662" lon="12.744448763329613"><ele>400.0</ele><time>2026-04-25T10:22:56Z</time></trkpt><trkpt lat="43.5164769327729" lon="12.744288527468955"><ele>400.0</ele><time>2026-04-25T10:22:57Z</time></trkpt><trkpt lat="43.51636304674816" lon="12.744113964259714"><ele>400.33333333333337</ele><time>2026-04-25T10:22:58Z</time></trkpt><trkpt lat="43.51625140325876" lon="12.743935722848434"><ele>400.66666666666663</ele><time>2026-04-25T10:22:59Z</time></trkpt><trkpt lat="43.51614397240429" lon="12.743761766131776"><ele>401.0</ele><time>2026-04-25T10:23:00Z</time></trkpt><trkpt lat="43.516042328596036" lon="12.74359368199006"><ele>402.3333333333333</ele><time>2026-04-25T10:23:01Z</time></trkpt><trkpt lat="43.51594421951655" lon="12.743425801027316"><ele>403.66666666666663</ele><time>2026-04-25T10:23:02Z</time></trkpt><trkpt lat="43.5158601649027" lon="12.74324611332496"><ele>405.0</ele><time>2026-04-25T10:23:03Z</time></trkpt><trkpt lat="43.515788319169474" lon="12.743044902885275"><ele>405.0</ele><time>2026-04-25T10:23:04Z</time></trkpt><trkpt lat="43.51572136494933" lon="12.742833430898187"><ele>405.0</ele><time>2026-04-25T10:23:05Z</time></trkpt><trkpt lat="43.51564449874866" lon="12.742602216538648"><ele>405.0</ele><time>2026-04-25T10:23:06Z</time></trkpt><trkpt lat="43.515566380163186" lon="12.742385418837044"><ele>405.66666666666663</ele><time>2026-04-25T10:23:07Z</time></trkpt><trkpt lat="43.515501125341984" lon="12.742188741647873"><ele>406.3333333333333</ele><time>2026-04-25T10:23:08Z</time></trkpt><trkpt lat="43.515435907432504" lon="12.742000949678825"><ele>407.0</ele><time>2026-04-25T10:23:09Z</time></trkpt><trkpt lat="43.51537301074697" lon="12.741813215495679"><ele>407.20000000000005</ele><time>2026-04-25T10:23:10Z</time></trkpt><trkpt lat="43.5153141606275" lon="12.741649404593975"><ele>407.4</ele><time>2026-04-25T10:23:11Z</time></trkpt><trkpt lat="43.515270516161564" lon="12.741524836151118"><ele>407.6</ele><time>2026-04-25T10:23:12Z</time></trkpt><trkpt lat="43.515233057889525" lon="12.74142475685203"><ele>407.79999999999995</ele><time>2026-04-25T10:23:13Z</time></trkpt><trkpt lat="43.5151972985942" lon="12.741325563497984"><ele>408.0</ele><time>2026-04-25T10:23:14Z</time></trkpt><trkpt lat="43.51516381581276" lon="12.741215597813914"><ele>408.0</ele><time>2026-04-25T10:23:15Z</time></trkpt><trkpt lat="43.515124989009635" lon="12.74107563713605"><ele>408.0</ele><time>2026-04-25T10:23:16Z</time></trkpt><trkpt lat="43.51506956748735" lon="12.74090249092011"><ele>408.0</ele><time>2026-04-25T10:23:17Z</time></trkpt><trkpt lat="43.51500536315705" lon="12.740719535691758"><ele>408.0</ele><time>2026-04-25T10:23:18Z</time></trkpt><trkpt lat="43.51494087476534" lon="12.740539542986696"><ele>408.25</ele><time>2026-04-25T10:23:19Z</time></trkpt><trkpt lat="43.514879888374644" lon="12.740367863680408"><ele>408.5</ele><time>2026-04-25T10:23:20Z</time></trkpt><trkpt lat="43.514821722091774" lon="12.74020265390989"><ele>408.75</ele><time>2026-04-25T10:23:21Z</time></trkpt><trkpt lat="43.51476131476758" lon="12.740043107006235"><ele>409.0</ele><time>2026-04-25T10:23:22Z</time></trkpt><trkpt lat="43.51470314780303" lon="12.739881152033943"><ele>409.5</ele><time>2026-04-25T10:23:23Z</time></trkpt><trkpt lat="43.51464835271302" lon="12.739720163443163"><ele>410.0</ele><time>2026-04-25T10:23:24Z</time></trkpt><trkpt lat="43.51459511462053" lon="12.73956049743264"><ele>410.5</ele><time>2026-04-25T10:23:25Z</time></trkpt><trkpt lat="43.514544802033235" lon="12.739407248935656"><ele>411.0</ele><time>2026-04-25T10:23:26Z</time></trkpt><trkpt lat="43.51449683400131" lon="12.739258976945063"><ele>411.20000000000005</ele><time>2026-04-25T10:23:27Z</time></trkpt><trkpt lat="43.51445174856115" lon="12.739116434037665"><ele>411.40000000000003</ele><time>2026-04-25T10:23:28Z</time></trkpt><trkpt lat="43.514405260318256" lon="12.738978979480454"><ele>411.6</ele><time>2026-04-25T10:23:29Z</time></trkpt><trkpt lat="43.514355691851875" lon="12.738842553720023"><ele>411.8</ele><time>2026-04-25T10:23:30.001Z</time></trkpt><trkpt lat="43.51430903527615" lon="12.738713908078612"><ele>412.0</ele><time>2026-04-25T10:23:31.001Z</time></trkpt><trkpt lat="43.51426185782314" lon="12.738584804781416"><ele>412.20000000000005</ele><time>2026-04-25T10:23:32.001Z</time></trkpt><trkpt lat="43.51421434137071" lon="12.738459689153792"><ele>412.4</ele><time>2026-04-25T10:23:33.001Z</time></trkpt><trkpt lat="43.51417495162404" lon="12.738356500489106"><ele>412.6</ele><time>2026-04-25T10:23:34.001Z</time></trkpt><trkpt lat="43.51414116456577" lon="12.73826953777415"><ele>412.79999999999995</ele><time>2026-04-25T10:23:35.001Z</time></trkpt><trkpt lat="43.51409443260775" lon="12.738143774143934"><ele>413.0</ele><time>2026-04-25T10:23:37.001Z</time></trkpt><trkpt lat="43.51405227121049" lon="12.738008764258858"><ele>413.0</ele><time>2026-04-25T10:23:39.001Z</time></trkpt><trkpt lat="43.51397032068713" lon="12.737966803182356"><ele>413.0</ele><time>2026-04-25T10:23:41.001Z</time></trkpt><trkpt lat="43.51389728235382" lon="12.738062894377883"><ele>413.0</ele><time>2026-04-25T10:23:43.001Z</time></trkpt><trkpt lat="43.513868062291756" lon="12.738202774355447"><ele>413.0</ele><time>2026-04-25T10:23:45.001Z</time></trkpt><trkpt lat="43.513861729003324" lon="12.73830943803354"><ele>413.0</ele><time>2026-04-25T10:23:47.001Z</time></trkpt><trkpt lat="43.51378532775572" lon="12.738332334864019"><ele>413.0</ele><time>2026-04-25T10:23:50.001Z</time></trkpt></trkseg></trk></gpx>